<?xml version="1.0" encoding="UTF-8" standalone="no" ?>
<gpx xmlns="http://www.topografix.com/GPX/1/1" xmlns:xsi="http://www.w3.org/2001/XMLSchema-instance" xsi:schemaLocation="http://www.topografix.com/GPX/1/1 http://www.topografix.com/GPX/1/1/gpx.xsd" version="1.1" creator="VisuGPX - https://www.visugpx.com">
  <metadata>
    <name>Rando des Chats 2019</name>
  </metadata>
  <trk>
    <name><![CDATA[Rando des Chats]]></name>
    <trkseg>
      <trkpt lat="45.58641" lon="4.64034">
        <ele>430.3</ele>
        <time>2019-06-16T06:15:43Z</time>
      </trkpt>
      <trkpt lat="45.58643" lon="4.64042">
        <ele>430.1</ele>
        <time>2019-06-16T06:15:51Z</time>
      </trkpt>
      <trkpt lat="45.58643" lon="4.64046">
        <ele>430</ele>
        <time>2019-06-16T06:15:54Z</time>
      </trkpt>
      <trkpt lat="45.58642" lon="4.64047">
        <ele>429.9</ele>
        <time>2019-06-16T06:15:55Z</time>
      </trkpt>
      <trkpt lat="45.58641" lon="4.64048">
        <ele>429.9</ele>
        <time>2019-06-16T06:15:56Z</time>
      </trkpt>
      <trkpt lat="45.58634" lon="4.6405">
        <ele>429.4</ele>
        <time>2019-06-16T06:15:59Z</time>
      </trkpt>
      <trkpt lat="45.58628" lon="4.64051">
        <ele>429.2</ele>
        <time>2019-06-16T06:16:01Z</time>
      </trkpt>
      <trkpt lat="45.58613" lon="4.64054">
        <ele>428.6</ele>
        <time>2019-06-16T06:16:04Z</time>
      </trkpt>
      <trkpt lat="45.58585" lon="4.64056">
        <ele>427.1</ele>
        <time>2019-06-16T06:16:09Z</time>
      </trkpt>
      <trkpt lat="45.5858" lon="4.64057">
        <ele>427.1</ele>
        <time>2019-06-16T06:16:10Z</time>
      </trkpt>
      <trkpt lat="45.58576" lon="4.64058">
        <ele>426.7</ele>
        <time>2019-06-16T06:16:11Z</time>
      </trkpt>
      <trkpt lat="45.58573" lon="4.64062">
        <ele>426.3</ele>
        <time>2019-06-16T06:16:13Z</time>
      </trkpt>
      <trkpt lat="45.58572" lon="4.64066">
        <ele>426.1</ele>
        <time>2019-06-16T06:16:14Z</time>
      </trkpt>
      <trkpt lat="45.58571" lon="4.64081">
        <ele>424.4</ele>
        <time>2019-06-16T06:16:17Z</time>
      </trkpt>
      <trkpt lat="45.58579" lon="4.64109">
        <ele>423.2</ele>
        <time>2019-06-16T06:16:22Z</time>
      </trkpt>
      <trkpt lat="45.58581" lon="4.64115">
        <ele>423</ele>
        <time>2019-06-16T06:16:23Z</time>
      </trkpt>
      <trkpt lat="45.58594" lon="4.64151">
        <ele>421.3</ele>
        <time>2019-06-16T06:16:28Z</time>
      </trkpt>
      <trkpt lat="45.58611" lon="4.64176">
        <ele>421.1</ele>
        <time>2019-06-16T06:16:32Z</time>
      </trkpt>
      <trkpt lat="45.58616" lon="4.64182">
        <ele>421.1</ele>
        <time>2019-06-16T06:16:33Z</time>
      </trkpt>
      <trkpt lat="45.58627" lon="4.64192">
        <ele>421</ele>
        <time>2019-06-16T06:16:35Z</time>
      </trkpt>
      <trkpt lat="45.58646" lon="4.64205">
        <ele>420.8</ele>
        <time>2019-06-16T06:16:38Z</time>
      </trkpt>
      <trkpt lat="45.58653" lon="4.64209">
        <ele>420.5</ele>
        <time>2019-06-16T06:16:39Z</time>
      </trkpt>
      <trkpt lat="45.58688" lon="4.64226">
        <ele>419.5</ele>
        <time>2019-06-16T06:16:44Z</time>
      </trkpt>
      <trkpt lat="45.58702" lon="4.64233">
        <ele>419.2</ele>
        <time>2019-06-16T06:16:46Z</time>
      </trkpt>
      <trkpt lat="45.58736" lon="4.6425">
        <ele>418.3</ele>
        <time>2019-06-16T06:16:52Z</time>
      </trkpt>
      <trkpt lat="45.58746" lon="4.64252">
        <ele>418</ele>
        <time>2019-06-16T06:16:56Z</time>
      </trkpt>
      <trkpt lat="45.58747" lon="4.6425">
        <ele>418.1</ele>
        <time>2019-06-16T06:16:57Z</time>
      </trkpt>
      <trkpt lat="45.58749" lon="4.64239">
        <ele>418.4</ele>
        <time>2019-06-16T06:17:00Z</time>
      </trkpt>
      <trkpt lat="45.58758" lon="4.64228">
        <ele>418.6</ele>
        <time>2019-06-16T06:17:04Z</time>
      </trkpt>
      <trkpt lat="45.58762" lon="4.64226">
        <ele>418.5</ele>
        <time>2019-06-16T06:17:05Z</time>
      </trkpt>
      <trkpt lat="45.58781" lon="4.6422">
        <ele>418.3</ele>
        <time>2019-06-16T06:17:09Z</time>
      </trkpt>
      <trkpt lat="45.58786" lon="4.64218">
        <ele>418.2</ele>
        <time>2019-06-16T06:17:10Z</time>
      </trkpt>
      <trkpt lat="45.58807" lon="4.64209">
        <ele>417.7</ele>
        <time>2019-06-16T06:17:14Z</time>
      </trkpt>
      <trkpt lat="45.58824" lon="4.64203">
        <ele>417.2</ele>
        <time>2019-06-16T06:17:17Z</time>
      </trkpt>
      <trkpt lat="45.58852" lon="4.6419">
        <ele>416.1</ele>
        <time>2019-06-16T06:17:22Z</time>
      </trkpt>
      <trkpt lat="45.58862" lon="4.64185">
        <ele>415.7</ele>
        <time>2019-06-16T06:17:24Z</time>
      </trkpt>
      <trkpt lat="45.58892" lon="4.64163">
        <ele>415.1</ele>
        <time>2019-06-16T06:17:31Z</time>
      </trkpt>
      <trkpt lat="45.58931" lon="4.64135">
        <ele>414.4</ele>
        <time>2019-06-16T06:17:40Z</time>
      </trkpt>
      <trkpt lat="45.58952" lon="4.64123">
        <ele>412.6</ele>
        <time>2019-06-16T06:17:44Z</time>
      </trkpt>
      <trkpt lat="45.58955" lon="4.64118">
        <ele>412.2</ele>
        <time>2019-06-16T06:17:45Z</time>
      </trkpt>
      <trkpt lat="45.58964" lon="4.64112">
        <ele>411.2</ele>
        <time>2019-06-16T06:17:47Z</time>
      </trkpt>
      <trkpt lat="45.5898" lon="4.64101">
        <ele>409.8</ele>
        <time>2019-06-16T06:17:50Z</time>
      </trkpt>
      <trkpt lat="45.58997" lon="4.6409">
        <ele>408.7</ele>
        <time>2019-06-16T06:17:53Z</time>
      </trkpt>
      <trkpt lat="45.59007" lon="4.64083">
        <ele>407.9</ele>
        <time>2019-06-16T06:17:55Z</time>
      </trkpt>
      <trkpt lat="45.59012" lon="4.6408">
        <ele>407.4</ele>
        <time>2019-06-16T06:17:56Z</time>
      </trkpt>
      <trkpt lat="45.59018" lon="4.64077">
        <ele>406.9</ele>
        <time>2019-06-16T06:17:57Z</time>
      </trkpt>
      <trkpt lat="45.59029" lon="4.64069">
        <ele>406</ele>
        <time>2019-06-16T06:17:59Z</time>
      </trkpt>
      <trkpt lat="45.59038" lon="4.64063">
        <ele>405.5</ele>
        <time>2019-06-16T06:18:01Z</time>
      </trkpt>
      <trkpt lat="45.59043" lon="4.64064">
        <ele>405.2</ele>
        <time>2019-06-16T06:18:02Z</time>
      </trkpt>
      <trkpt lat="45.59047" lon="4.64067">
        <ele>405.2</ele>
        <time>2019-06-16T06:18:03Z</time>
      </trkpt>
      <trkpt lat="45.59057" lon="4.64074">
        <ele>405</ele>
        <time>2019-06-16T06:18:05Z</time>
      </trkpt>
      <trkpt lat="45.59068" lon="4.64083">
        <ele>404.7</ele>
        <time>2019-06-16T06:18:07Z</time>
      </trkpt>
      <trkpt lat="45.59087" lon="4.64095">
        <ele>403.2</ele>
        <time>2019-06-16T06:18:10Z</time>
      </trkpt>
      <trkpt lat="45.59108" lon="4.64105">
        <ele>401.5</ele>
        <time>2019-06-16T06:18:13Z</time>
      </trkpt>
      <trkpt lat="45.59129" lon="4.64116">
        <ele>399.7</ele>
        <time>2019-06-16T06:18:16Z</time>
      </trkpt>
      <trkpt lat="45.59136" lon="4.64119">
        <ele>399.1</ele>
        <time>2019-06-16T06:18:17Z</time>
      </trkpt>
      <trkpt lat="45.59158" lon="4.64129">
        <ele>398</ele>
        <time>2019-06-16T06:18:20Z</time>
      </trkpt>
      <trkpt lat="45.59192" lon="4.64144">
        <ele>396.9</ele>
        <time>2019-06-16T06:18:25Z</time>
      </trkpt>
      <trkpt lat="45.59199" lon="4.64147">
        <ele>396.6</ele>
        <time>2019-06-16T06:18:26Z</time>
      </trkpt>
      <trkpt lat="45.59221" lon="4.64154">
        <ele>395.9</ele>
        <time>2019-06-16T06:18:29Z</time>
      </trkpt>
      <trkpt lat="45.59256" lon="4.64166">
        <ele>394.7</ele>
        <time>2019-06-16T06:18:34Z</time>
      </trkpt>
      <trkpt lat="45.59263" lon="4.64169">
        <ele>394.5</ele>
        <time>2019-06-16T06:18:35Z</time>
      </trkpt>
      <trkpt lat="45.59302" lon="4.64183">
        <ele>393.8</ele>
        <time>2019-06-16T06:18:41Z</time>
      </trkpt>
      <trkpt lat="45.59319" lon="4.64192">
        <ele>393.2</ele>
        <time>2019-06-16T06:18:44Z</time>
      </trkpt>
      <trkpt lat="45.59323" lon="4.64196">
        <ele>393</ele>
        <time>2019-06-16T06:18:45Z</time>
      </trkpt>
      <trkpt lat="45.59335" lon="4.64212">
        <ele>391.9</ele>
        <time>2019-06-16T06:18:48Z</time>
      </trkpt>
      <trkpt lat="45.5934" lon="4.64218">
        <ele>391.5</ele>
        <time>2019-06-16T06:18:49Z</time>
      </trkpt>
      <trkpt lat="45.59345" lon="4.64224">
        <ele>391.1</ele>
        <time>2019-06-16T06:18:50Z</time>
      </trkpt>
      <trkpt lat="45.59358" lon="4.64237">
        <ele>390.1</ele>
        <time>2019-06-16T06:18:52Z</time>
      </trkpt>
      <trkpt lat="45.59365" lon="4.64243">
        <ele>389.5</ele>
        <time>2019-06-16T06:18:53Z</time>
      </trkpt>
      <trkpt lat="45.59372" lon="4.64248">
        <ele>389</ele>
        <time>2019-06-16T06:18:54Z</time>
      </trkpt>
      <trkpt lat="45.59385" lon="4.6426">
        <ele>387.9</ele>
        <time>2019-06-16T06:18:56Z</time>
      </trkpt>
      <trkpt lat="45.59408" lon="4.64278">
        <ele>386.2</ele>
        <time>2019-06-16T06:18:59Z</time>
      </trkpt>
      <trkpt lat="45.59424" lon="4.64292">
        <ele>384.9</ele>
        <time>2019-06-16T06:19:01Z</time>
      </trkpt>
      <trkpt lat="45.59442" lon="4.64306">
        <ele>383.5</ele>
        <time>2019-06-16T06:19:03Z</time>
      </trkpt>
      <trkpt lat="45.59458" lon="4.64318">
        <ele>382.1</ele>
        <time>2019-06-16T06:19:05Z</time>
      </trkpt>
      <trkpt lat="45.5947" lon="4.64327">
        <ele>381.4</ele>
        <time>2019-06-16T06:19:07Z</time>
      </trkpt>
      <trkpt lat="45.59479" lon="4.64334">
        <ele>380.8</ele>
        <time>2019-06-16T06:19:09Z</time>
      </trkpt>
      <trkpt lat="45.59484" lon="4.64339">
        <ele>380.5</ele>
        <time>2019-06-16T06:19:10Z</time>
      </trkpt>
      <trkpt lat="45.59497" lon="4.64355">
        <ele>379.7</ele>
        <time>2019-06-16T06:19:13Z</time>
      </trkpt>
      <trkpt lat="45.59503" lon="4.6437">
        <ele>378.9</ele>
        <time>2019-06-16T06:19:15Z</time>
      </trkpt>
      <trkpt lat="45.59503" lon="4.64379">
        <ele>378.1</ele>
        <time>2019-06-16T06:19:16Z</time>
      </trkpt>
      <trkpt lat="45.59504" lon="4.6439">
        <ele>377.1</ele>
        <time>2019-06-16T06:19:17Z</time>
      </trkpt>
      <trkpt lat="45.59506" lon="4.64414">
        <ele>374.6</ele>
        <time>2019-06-16T06:19:19Z</time>
      </trkpt>
      <trkpt lat="45.59508" lon="4.64441">
        <ele>373.4</ele>
        <time>2019-06-16T06:19:21Z</time>
      </trkpt>
      <trkpt lat="45.59509" lon="4.64455">
        <ele>373.6</ele>
        <time>2019-06-16T06:19:22Z</time>
      </trkpt>
      <trkpt lat="45.59511" lon="4.64493">
        <ele>375.3</ele>
        <time>2019-06-16T06:19:25Z</time>
      </trkpt>
      <trkpt lat="45.59512" lon="4.64503">
        <ele>376</ele>
        <time>2019-06-16T06:19:26Z</time>
      </trkpt>
      <trkpt lat="45.59516" lon="4.64529">
        <ele>377.8</ele>
        <time>2019-06-16T06:19:29Z</time>
      </trkpt>
      <trkpt lat="45.59518" lon="4.64534">
        <ele>378.1</ele>
        <time>2019-06-16T06:19:30Z</time>
      </trkpt>
      <trkpt lat="45.59524" lon="4.64547">
        <ele>378.7</ele>
        <time>2019-06-16T06:19:33Z</time>
      </trkpt>
      <trkpt lat="45.59528" lon="4.64553">
        <ele>378.8</ele>
        <time>2019-06-16T06:19:35Z</time>
      </trkpt>
      <trkpt lat="45.59538" lon="4.64571">
        <ele>378.9</ele>
        <time>2019-06-16T06:19:39Z</time>
      </trkpt>
      <trkpt lat="45.59545" lon="4.64581">
        <ele>379</ele>
        <time>2019-06-16T06:19:41Z</time>
      </trkpt>
      <trkpt lat="45.59572" lon="4.64627">
        <ele>378.9</ele>
        <time>2019-06-16T06:19:49Z</time>
      </trkpt>
      <trkpt lat="45.59595" lon="4.6467">
        <ele>378</ele>
        <time>2019-06-16T06:19:55Z</time>
      </trkpt>
      <trkpt lat="45.59627" lon="4.64732">
        <ele>374.5</ele>
        <time>2019-06-16T06:20:02Z</time>
      </trkpt>
      <trkpt lat="45.59642" lon="4.64763">
        <ele>373.2</ele>
        <time>2019-06-16T06:20:05Z</time>
      </trkpt>
      <trkpt lat="45.59649" lon="4.64785">
        <ele>372.9</ele>
        <time>2019-06-16T06:20:07Z</time>
      </trkpt>
      <trkpt lat="45.59652" lon="4.64796">
        <ele>372.8</ele>
        <time>2019-06-16T06:20:08Z</time>
      </trkpt>
      <trkpt lat="45.59654" lon="4.64826">
        <ele>372.2</ele>
        <time>2019-06-16T06:20:11Z</time>
      </trkpt>
      <trkpt lat="45.59654" lon="4.64835">
        <ele>371.9</ele>
        <time>2019-06-16T06:20:12Z</time>
      </trkpt>
      <trkpt lat="45.59654" lon="4.64861">
        <ele>370.7</ele>
        <time>2019-06-16T06:20:15Z</time>
      </trkpt>
      <trkpt lat="45.59655" lon="4.64872">
        <ele>369.7</ele>
        <time>2019-06-16T06:20:17Z</time>
      </trkpt>
      <trkpt lat="45.59656" lon="4.64878">
        <ele>369.4</ele>
        <time>2019-06-16T06:20:18Z</time>
      </trkpt>
      <trkpt lat="45.59657" lon="4.64885">
        <ele>369</ele>
        <time>2019-06-16T06:20:19Z</time>
      </trkpt>
      <trkpt lat="45.59661" lon="4.64898">
        <ele>368.3</ele>
        <time>2019-06-16T06:20:21Z</time>
      </trkpt>
      <trkpt lat="45.59663" lon="4.64905">
        <ele>368</ele>
        <time>2019-06-16T06:20:22Z</time>
      </trkpt>
      <trkpt lat="45.59669" lon="4.64922">
        <ele>367.2</ele>
        <time>2019-06-16T06:20:24Z</time>
      </trkpt>
      <trkpt lat="45.59674" lon="4.64931">
        <ele>366.8</ele>
        <time>2019-06-16T06:20:25Z</time>
      </trkpt>
      <trkpt lat="45.59679" lon="4.64938">
        <ele>366.5</ele>
        <time>2019-06-16T06:20:26Z</time>
      </trkpt>
      <trkpt lat="45.59684" lon="4.64945">
        <ele>366.1</ele>
        <time>2019-06-16T06:20:27Z</time>
      </trkpt>
      <trkpt lat="45.59693" lon="4.64961">
        <ele>365.5</ele>
        <time>2019-06-16T06:20:29Z</time>
      </trkpt>
      <trkpt lat="45.59704" lon="4.64978">
        <ele>365.1</ele>
        <time>2019-06-16T06:20:31Z</time>
      </trkpt>
      <trkpt lat="45.59713" lon="4.64998">
        <ele>364.8</ele>
        <time>2019-06-16T06:20:33Z</time>
      </trkpt>
      <trkpt lat="45.59726" lon="4.65022">
        <ele>364.5</ele>
        <time>2019-06-16T06:20:36Z</time>
      </trkpt>
      <trkpt lat="45.59732" lon="4.65036">
        <ele>364.3</ele>
        <time>2019-06-16T06:20:39Z</time>
      </trkpt>
      <trkpt lat="45.59734" lon="4.6506">
        <ele>363.9</ele>
        <time>2019-06-16T06:20:43Z</time>
      </trkpt>
      <trkpt lat="45.59741" lon="4.65097">
        <ele>363.1</ele>
        <time>2019-06-16T06:20:49Z</time>
      </trkpt>
      <trkpt lat="45.59747" lon="4.65131">
        <ele>362.4</ele>
        <time>2019-06-16T06:20:54Z</time>
      </trkpt>
      <trkpt lat="45.59751" lon="4.65179">
        <ele>361.3</ele>
        <time>2019-06-16T06:21:01Z</time>
      </trkpt>
      <trkpt lat="45.59755" lon="4.65223">
        <ele>360.3</ele>
        <time>2019-06-16T06:21:07Z</time>
      </trkpt>
      <trkpt lat="45.59756" lon="4.65231">
        <ele>359.4</ele>
        <time>2019-06-16T06:21:08Z</time>
      </trkpt>
      <trkpt lat="45.59758" lon="4.65252">
        <ele>358.2</ele>
        <time>2019-06-16T06:21:11Z</time>
      </trkpt>
      <trkpt lat="45.59758" lon="4.65269">
        <ele>357.3</ele>
        <time>2019-06-16T06:21:14Z</time>
      </trkpt>
      <trkpt lat="45.59759" lon="4.65286">
        <ele>356.8</ele>
        <time>2019-06-16T06:21:17Z</time>
      </trkpt>
      <trkpt lat="45.59759" lon="4.65312">
        <ele>356.4</ele>
        <time>2019-06-16T06:21:21Z</time>
      </trkpt>
      <trkpt lat="45.59758" lon="4.65318">
        <ele>356.3</ele>
        <time>2019-06-16T06:21:22Z</time>
      </trkpt>
      <trkpt lat="45.59757" lon="4.65339">
        <ele>355.8</ele>
        <time>2019-06-16T06:21:25Z</time>
      </trkpt>
      <trkpt lat="45.59756" lon="4.65347">
        <ele>355.6</ele>
        <time>2019-06-16T06:21:26Z</time>
      </trkpt>
      <trkpt lat="45.59755" lon="4.65362">
        <ele>355.3</ele>
        <time>2019-06-16T06:21:28Z</time>
      </trkpt>
      <trkpt lat="45.59755" lon="4.65377">
        <ele>354.8</ele>
        <time>2019-06-16T06:21:30Z</time>
      </trkpt>
      <trkpt lat="45.59754" lon="4.65403">
        <ele>354</ele>
        <time>2019-06-16T06:21:33Z</time>
      </trkpt>
      <trkpt lat="45.59749" lon="4.65438">
        <ele>353.4</ele>
        <time>2019-06-16T06:21:37Z</time>
      </trkpt>
      <trkpt lat="45.5975" lon="4.65453">
        <ele>353.3</ele>
        <time>2019-06-16T06:21:39Z</time>
      </trkpt>
      <trkpt lat="45.59757" lon="4.65464">
        <ele>353.3</ele>
        <time>2019-06-16T06:21:42Z</time>
      </trkpt>
      <trkpt lat="45.5976" lon="4.65467">
        <ele>353.3</ele>
        <time>2019-06-16T06:21:43Z</time>
      </trkpt>
      <trkpt lat="45.59769" lon="4.65488">
        <ele>352.3</ele>
        <time>2019-06-16T06:21:47Z</time>
      </trkpt>
      <trkpt lat="45.59769" lon="4.65495">
        <ele>352.1</ele>
        <time>2019-06-16T06:21:48Z</time>
      </trkpt>
      <trkpt lat="45.59765" lon="4.65516">
        <ele>351.8</ele>
        <time>2019-06-16T06:21:51Z</time>
      </trkpt>
      <trkpt lat="45.59762" lon="4.65541">
        <ele>351.9</ele>
        <time>2019-06-16T06:21:55Z</time>
      </trkpt>
      <trkpt lat="45.59762" lon="4.65547">
        <ele>351.9</ele>
        <time>2019-06-16T06:21:56Z</time>
      </trkpt>
      <trkpt lat="45.59767" lon="4.65567">
        <ele>352.1</ele>
        <time>2019-06-16T06:21:59Z</time>
      </trkpt>
      <trkpt lat="45.5977" lon="4.65573">
        <ele>352.2</ele>
        <time>2019-06-16T06:22:00Z</time>
      </trkpt>
      <trkpt lat="45.59785" lon="4.65584">
        <ele>352.8</ele>
        <time>2019-06-16T06:22:03Z</time>
      </trkpt>
      <trkpt lat="45.598" lon="4.65582">
        <ele>353.6</ele>
        <time>2019-06-16T06:22:06Z</time>
      </trkpt>
      <trkpt lat="45.59804" lon="4.6558">
        <ele>353.9</ele>
        <time>2019-06-16T06:22:07Z</time>
      </trkpt>
      <trkpt lat="45.59813" lon="4.65576">
        <ele>354.3</ele>
        <time>2019-06-16T06:22:09Z</time>
      </trkpt>
      <trkpt lat="45.59822" lon="4.65572">
        <ele>354.7</ele>
        <time>2019-06-16T06:22:11Z</time>
      </trkpt>
      <trkpt lat="45.59837" lon="4.65563">
        <ele>355.3</ele>
        <time>2019-06-16T06:22:15Z</time>
      </trkpt>
      <trkpt lat="45.59839" lon="4.65559">
        <ele>355.4</ele>
        <time>2019-06-16T06:22:16Z</time>
      </trkpt>
      <trkpt lat="45.59853" lon="4.6553">
        <ele>356.1</ele>
        <time>2019-06-16T06:22:23Z</time>
      </trkpt>
      <trkpt lat="45.59873" lon="4.65491">
        <ele>357.1</ele>
        <time>2019-06-16T06:22:32Z</time>
      </trkpt>
      <trkpt lat="45.5989" lon="4.65461">
        <ele>358.1</ele>
        <time>2019-06-16T06:22:39Z</time>
      </trkpt>
      <trkpt lat="45.59893" lon="4.65457">
        <ele>358.2</ele>
        <time>2019-06-16T06:22:40Z</time>
      </trkpt>
      <trkpt lat="45.59914" lon="4.65434">
        <ele>359.4</ele>
        <time>2019-06-16T06:22:47Z</time>
      </trkpt>
      <trkpt lat="45.59918" lon="4.65432">
        <ele>359.5</ele>
        <time>2019-06-16T06:22:48Z</time>
      </trkpt>
      <trkpt lat="45.59936" lon="4.65423">
        <ele>360.5</ele>
        <time>2019-06-16T06:22:53Z</time>
      </trkpt>
      <trkpt lat="45.59947" lon="4.65419">
        <ele>361.1</ele>
        <time>2019-06-16T06:22:56Z</time>
      </trkpt>
      <trkpt lat="45.59958" lon="4.65414">
        <ele>361.9</ele>
        <time>2019-06-16T06:22:59Z</time>
      </trkpt>
      <trkpt lat="45.59968" lon="4.65409">
        <ele>362.6</ele>
        <time>2019-06-16T06:23:02Z</time>
      </trkpt>
      <trkpt lat="45.59978" lon="4.65405">
        <ele>363.3</ele>
        <time>2019-06-16T06:23:05Z</time>
      </trkpt>
      <trkpt lat="45.59991" lon="4.65399">
        <ele>364.2</ele>
        <time>2019-06-16T06:23:09Z</time>
      </trkpt>
      <trkpt lat="45.60006" lon="4.65392">
        <ele>364.9</ele>
        <time>2019-06-16T06:23:13Z</time>
      </trkpt>
      <trkpt lat="45.60015" lon="4.65386">
        <ele>365.4</ele>
        <time>2019-06-16T06:23:16Z</time>
      </trkpt>
      <trkpt lat="45.60025" lon="4.6538">
        <ele>365.8</ele>
        <time>2019-06-16T06:23:19Z</time>
      </trkpt>
      <trkpt lat="45.60042" lon="4.65369">
        <ele>366.6</ele>
        <time>2019-06-16T06:23:24Z</time>
      </trkpt>
      <trkpt lat="45.60053" lon="4.65363">
        <ele>366.9</ele>
        <time>2019-06-16T06:23:27Z</time>
      </trkpt>
      <trkpt lat="45.6007" lon="4.65353">
        <ele>367.5</ele>
        <time>2019-06-16T06:23:32Z</time>
      </trkpt>
      <trkpt lat="45.60083" lon="4.65344">
        <ele>368</ele>
        <time>2019-06-16T06:23:36Z</time>
      </trkpt>
      <trkpt lat="45.60095" lon="4.65332">
        <ele>368.4</ele>
        <time>2019-06-16T06:23:40Z</time>
      </trkpt>
      <trkpt lat="45.60101" lon="4.65324">
        <ele>368.7</ele>
        <time>2019-06-16T06:23:42Z</time>
      </trkpt>
      <trkpt lat="45.60108" lon="4.65313">
        <ele>369.1</ele>
        <time>2019-06-16T06:23:45Z</time>
      </trkpt>
      <trkpt lat="45.6012" lon="4.65292">
        <ele>369.9</ele>
        <time>2019-06-16T06:23:50Z</time>
      </trkpt>
      <trkpt lat="45.60136" lon="4.65265">
        <ele>371.2</ele>
        <time>2019-06-16T06:23:57Z</time>
      </trkpt>
      <trkpt lat="45.60139" lon="4.65263">
        <ele>371.4</ele>
        <time>2019-06-16T06:23:58Z</time>
      </trkpt>
      <trkpt lat="45.60156" lon="4.65251">
        <ele>372.1</ele>
        <time>2019-06-16T06:24:04Z</time>
      </trkpt>
      <trkpt lat="45.60159" lon="4.6525">
        <ele>372.2</ele>
        <time>2019-06-16T06:24:05Z</time>
      </trkpt>
      <trkpt lat="45.60175" lon="4.65241">
        <ele>372.7</ele>
        <time>2019-06-16T06:24:10Z</time>
      </trkpt>
      <trkpt lat="45.60178" lon="4.6524">
        <ele>372.8</ele>
        <time>2019-06-16T06:24:11Z</time>
      </trkpt>
      <trkpt lat="45.60205" lon="4.65227">
        <ele>373.4</ele>
        <time>2019-06-16T06:24:19Z</time>
      </trkpt>
      <trkpt lat="45.60228" lon="4.65215">
        <ele>373.8</ele>
        <time>2019-06-16T06:24:26Z</time>
      </trkpt>
      <trkpt lat="45.60247" lon="4.65204">
        <ele>374.3</ele>
        <time>2019-06-16T06:24:32Z</time>
      </trkpt>
      <trkpt lat="45.6025" lon="4.65203">
        <ele>374.4</ele>
        <time>2019-06-16T06:24:33Z</time>
      </trkpt>
      <trkpt lat="45.60282" lon="4.65183">
        <ele>375.1</ele>
        <time>2019-06-16T06:24:43Z</time>
      </trkpt>
      <trkpt lat="45.60285" lon="4.65181">
        <ele>375.1</ele>
        <time>2019-06-16T06:24:44Z</time>
      </trkpt>
      <trkpt lat="45.60314" lon="4.65161">
        <ele>375.3</ele>
        <time>2019-06-16T06:24:52Z</time>
      </trkpt>
      <trkpt lat="45.6034" lon="4.65144">
        <ele>375</ele>
        <time>2019-06-16T06:24:58Z</time>
      </trkpt>
      <trkpt lat="45.60345" lon="4.65141">
        <ele>374.9</ele>
        <time>2019-06-16T06:24:59Z</time>
      </trkpt>
      <trkpt lat="45.60358" lon="4.65134">
        <ele>374.6</ele>
        <time>2019-06-16T06:25:02Z</time>
      </trkpt>
      <trkpt lat="45.60362" lon="4.65137">
        <ele>374.5</ele>
        <time>2019-06-16T06:25:03Z</time>
      </trkpt>
      <trkpt lat="45.60365" lon="4.65141">
        <ele>374.4</ele>
        <time>2019-06-16T06:25:04Z</time>
      </trkpt>
      <trkpt lat="45.6037" lon="4.65159">
        <ele>374.1</ele>
        <time>2019-06-16T06:25:07Z</time>
      </trkpt>
      <trkpt lat="45.60376" lon="4.65173">
        <ele>373.9</ele>
        <time>2019-06-16T06:25:09Z</time>
      </trkpt>
      <trkpt lat="45.6038" lon="4.6518">
        <ele>373.8</ele>
        <time>2019-06-16T06:25:10Z</time>
      </trkpt>
      <trkpt lat="45.60384" lon="4.65193">
        <ele>373.4</ele>
        <time>2019-06-16T06:25:12Z</time>
      </trkpt>
      <trkpt lat="45.60386" lon="4.65198">
        <ele>373.3</ele>
        <time>2019-06-16T06:25:13Z</time>
      </trkpt>
      <trkpt lat="45.60388" lon="4.65202">
        <ele>373.2</ele>
        <time>2019-06-16T06:25:14Z</time>
      </trkpt>
      <trkpt lat="45.60393" lon="4.65211">
        <ele>373</ele>
        <time>2019-06-16T06:25:16Z</time>
      </trkpt>
      <trkpt lat="45.60395" lon="4.65215">
        <ele>372.9</ele>
        <time>2019-06-16T06:25:17Z</time>
      </trkpt>
      <trkpt lat="45.60399" lon="4.6522">
        <ele>372.8</ele>
        <time>2019-06-16T06:25:18Z</time>
      </trkpt>
      <trkpt lat="45.60406" lon="4.65229">
        <ele>372.1</ele>
        <time>2019-06-16T06:25:20Z</time>
      </trkpt>
      <trkpt lat="45.60409" lon="4.65233">
        <ele>371.7</ele>
        <time>2019-06-16T06:25:21Z</time>
      </trkpt>
      <trkpt lat="45.60413" lon="4.65237">
        <ele>371.4</ele>
        <time>2019-06-16T06:25:22Z</time>
      </trkpt>
      <trkpt lat="45.60419" lon="4.65242">
        <ele>370.9</ele>
        <time>2019-06-16T06:25:24Z</time>
      </trkpt>
      <trkpt lat="45.60421" lon="4.65244">
        <ele>370.1</ele>
        <time>2019-06-16T06:25:25Z</time>
      </trkpt>
      <trkpt lat="45.60424" lon="4.65246">
        <ele>369.9</ele>
        <time>2019-06-16T06:25:26Z</time>
      </trkpt>
      <trkpt lat="45.60432" lon="4.65247">
        <ele>369.4</ele>
        <time>2019-06-16T06:25:28Z</time>
      </trkpt>
      <trkpt lat="45.60438" lon="4.65245">
        <ele>369.1</ele>
        <time>2019-06-16T06:25:30Z</time>
      </trkpt>
      <trkpt lat="45.60442" lon="4.65242">
        <ele>368.8</ele>
        <time>2019-06-16T06:25:33Z</time>
      </trkpt>
      <trkpt lat="45.60495" lon="4.65239">
        <ele>371</ele>
        <time>2019-06-16T06:26:52Z</time>
      </trkpt>
      <trkpt lat="45.60533" lon="4.65214">
        <ele>375.5</ele>
        <time>2019-06-16T06:27:22Z</time>
      </trkpt>
      <trkpt lat="45.60559" lon="4.6521">
        <ele>378.6</ele>
        <time>2019-06-16T06:27:42Z</time>
      </trkpt>
      <trkpt lat="45.60561" lon="4.65212">
        <ele>378.9</ele>
        <time>2019-06-16T06:27:43Z</time>
      </trkpt>
      <trkpt lat="45.60573" lon="4.6522">
        <ele>380.5</ele>
        <time>2019-06-16T06:27:51Z</time>
      </trkpt>
      <trkpt lat="45.60582" lon="4.65222">
        <ele>381.3</ele>
        <time>2019-06-16T06:27:56Z</time>
      </trkpt>
      <trkpt lat="45.60586" lon="4.65224">
        <ele>381.6</ele>
        <time>2019-06-16T06:27:58Z</time>
      </trkpt>
      <trkpt lat="45.60589" lon="4.65226">
        <ele>381.9</ele>
        <time>2019-06-16T06:28:00Z</time>
      </trkpt>
      <trkpt lat="45.60599" lon="4.6523">
        <ele>382.7</ele>
        <time>2019-06-16T06:28:06Z</time>
      </trkpt>
      <trkpt lat="45.606" lon="4.65231">
        <ele>382.9</ele>
        <time>2019-06-16T06:28:07Z</time>
      </trkpt>
      <trkpt lat="45.6061" lon="4.65235">
        <ele>383.4</ele>
        <time>2019-06-16T06:28:12Z</time>
      </trkpt>
      <trkpt lat="45.60615" lon="4.65237">
        <ele>383.8</ele>
        <time>2019-06-16T06:28:15Z</time>
      </trkpt>
      <trkpt lat="45.60618" lon="4.65238">
        <ele>383.9</ele>
        <time>2019-06-16T06:28:16Z</time>
      </trkpt>
      <trkpt lat="45.60626" lon="4.65242">
        <ele>384.3</ele>
        <time>2019-06-16T06:28:20Z</time>
      </trkpt>
      <trkpt lat="45.60631" lon="4.65243">
        <ele>384.7</ele>
        <time>2019-06-16T06:28:23Z</time>
      </trkpt>
      <trkpt lat="45.60638" lon="4.65246">
        <ele>385.1</ele>
        <time>2019-06-16T06:28:26Z</time>
      </trkpt>
      <trkpt lat="45.60645" lon="4.65248">
        <ele>385.5</ele>
        <time>2019-06-16T06:28:29Z</time>
      </trkpt>
      <trkpt lat="45.60651" lon="4.65249">
        <ele>385.9</ele>
        <time>2019-06-16T06:28:32Z</time>
      </trkpt>
      <trkpt lat="45.60664" lon="4.65252">
        <ele>386.9</ele>
        <time>2019-06-16T06:28:38Z</time>
      </trkpt>
      <trkpt lat="45.60686" lon="4.65261">
        <ele>388.8</ele>
        <time>2019-06-16T06:28:48Z</time>
      </trkpt>
      <trkpt lat="45.60694" lon="4.65266">
        <ele>389.3</ele>
        <time>2019-06-16T06:28:52Z</time>
      </trkpt>
      <trkpt lat="45.607" lon="4.65269">
        <ele>389.7</ele>
        <time>2019-06-16T06:28:55Z</time>
      </trkpt>
      <trkpt lat="45.60705" lon="4.65273">
        <ele>390.1</ele>
        <time>2019-06-16T06:28:58Z</time>
      </trkpt>
      <trkpt lat="45.60716" lon="4.65278">
        <ele>391.1</ele>
        <time>2019-06-16T06:29:03Z</time>
      </trkpt>
      <trkpt lat="45.6072" lon="4.65281">
        <ele>391.6</ele>
        <time>2019-06-16T06:29:05Z</time>
      </trkpt>
      <trkpt lat="45.60731" lon="4.65282">
        <ele>392.7</ele>
        <time>2019-06-16T06:29:10Z</time>
      </trkpt>
      <trkpt lat="45.60746" lon="4.65287">
        <ele>393.7</ele>
        <time>2019-06-16T06:29:17Z</time>
      </trkpt>
      <trkpt lat="45.6075" lon="4.65287">
        <ele>393.9</ele>
        <time>2019-06-16T06:29:19Z</time>
      </trkpt>
      <trkpt lat="45.60772" lon="4.65292">
        <ele>394.6</ele>
        <time>2019-06-16T06:29:29Z</time>
      </trkpt>
      <trkpt lat="45.60774" lon="4.65292">
        <ele>394.7</ele>
        <time>2019-06-16T06:29:30Z</time>
      </trkpt>
      <trkpt lat="45.60789" lon="4.65297">
        <ele>395.4</ele>
        <time>2019-06-16T06:29:37Z</time>
      </trkpt>
      <trkpt lat="45.60793" lon="4.65298">
        <ele>395.6</ele>
        <time>2019-06-16T06:29:39Z</time>
      </trkpt>
      <trkpt lat="45.60804" lon="4.653">
        <ele>396.4</ele>
        <time>2019-06-16T06:29:44Z</time>
      </trkpt>
      <trkpt lat="45.60806" lon="4.65301">
        <ele>396.6</ele>
        <time>2019-06-16T06:29:45Z</time>
      </trkpt>
      <trkpt lat="45.60814" lon="4.65304">
        <ele>397.2</ele>
        <time>2019-06-16T06:29:49Z</time>
      </trkpt>
      <trkpt lat="45.60825" lon="4.65306">
        <ele>398.1</ele>
        <time>2019-06-16T06:29:54Z</time>
      </trkpt>
      <trkpt lat="45.60838" lon="4.65307">
        <ele>399.1</ele>
        <time>2019-06-16T06:30:00Z</time>
      </trkpt>
      <trkpt lat="45.6084" lon="4.65308">
        <ele>399.3</ele>
        <time>2019-06-16T06:30:01Z</time>
      </trkpt>
      <trkpt lat="45.60857" lon="4.6531">
        <ele>400.3</ele>
        <time>2019-06-16T06:30:09Z</time>
      </trkpt>
      <trkpt lat="45.60861" lon="4.6531">
        <ele>400.5</ele>
        <time>2019-06-16T06:30:11Z</time>
      </trkpt>
      <trkpt lat="45.60877" lon="4.65312">
        <ele>401.4</ele>
        <time>2019-06-16T06:30:18Z</time>
      </trkpt>
      <trkpt lat="45.60886" lon="4.65313">
        <ele>401.9</ele>
        <time>2019-06-16T06:30:22Z</time>
      </trkpt>
      <trkpt lat="45.60894" lon="4.65315">
        <ele>402.4</ele>
        <time>2019-06-16T06:30:26Z</time>
      </trkpt>
      <trkpt lat="45.60901" lon="4.65317">
        <ele>402.9</ele>
        <time>2019-06-16T06:30:29Z</time>
      </trkpt>
      <trkpt lat="45.60914" lon="4.6532">
        <ele>403.7</ele>
        <time>2019-06-16T06:30:35Z</time>
      </trkpt>
      <trkpt lat="45.60916" lon="4.65321">
        <ele>403.8</ele>
        <time>2019-06-16T06:30:36Z</time>
      </trkpt>
      <trkpt lat="45.60931" lon="4.65326">
        <ele>404.4</ele>
        <time>2019-06-16T06:30:43Z</time>
      </trkpt>
      <trkpt lat="45.60952" lon="4.65332">
        <ele>405.1</ele>
        <time>2019-06-16T06:30:50Z</time>
      </trkpt>
      <trkpt lat="45.60983" lon="4.65339">
        <ele>405.9</ele>
        <time>2019-06-16T06:30:59Z</time>
      </trkpt>
      <trkpt lat="45.6101" lon="4.65344">
        <ele>404.8</ele>
        <time>2019-06-16T06:31:06Z</time>
      </trkpt>
      <trkpt lat="45.61032" lon="4.65346">
        <ele>404.2</ele>
        <time>2019-06-16T06:31:13Z</time>
      </trkpt>
      <trkpt lat="45.61037" lon="4.65336">
        <ele>404.6</ele>
        <time>2019-06-16T06:31:17Z</time>
      </trkpt>
      <trkpt lat="45.61038" lon="4.65333">
        <ele>404.8</ele>
        <time>2019-06-16T06:31:18Z</time>
      </trkpt>
      <trkpt lat="45.6104" lon="4.65329">
        <ele>404.9</ele>
        <time>2019-06-16T06:31:19Z</time>
      </trkpt>
      <trkpt lat="45.61046" lon="4.65314">
        <ele>405.5</ele>
        <time>2019-06-16T06:31:23Z</time>
      </trkpt>
      <trkpt lat="45.61053" lon="4.653">
        <ele>406.1</ele>
        <time>2019-06-16T06:31:27Z</time>
      </trkpt>
      <trkpt lat="45.61055" lon="4.65296">
        <ele>406.2</ele>
        <time>2019-06-16T06:31:28Z</time>
      </trkpt>
      <trkpt lat="45.61065" lon="4.65278">
        <ele>407.3</ele>
        <time>2019-06-16T06:31:33Z</time>
      </trkpt>
      <trkpt lat="45.61072" lon="4.65266">
        <ele>408</ele>
        <time>2019-06-16T06:31:36Z</time>
      </trkpt>
      <trkpt lat="45.61079" lon="4.65256">
        <ele>408.4</ele>
        <time>2019-06-16T06:31:39Z</time>
      </trkpt>
      <trkpt lat="45.61085" lon="4.65245">
        <ele>408.8</ele>
        <time>2019-06-16T06:31:42Z</time>
      </trkpt>
      <trkpt lat="45.61094" lon="4.6523">
        <ele>409.4</ele>
        <time>2019-06-16T06:31:46Z</time>
      </trkpt>
      <trkpt lat="45.61098" lon="4.65217">
        <ele>409.9</ele>
        <time>2019-06-16T06:31:49Z</time>
      </trkpt>
      <trkpt lat="45.6111" lon="4.652">
        <ele>410.7</ele>
        <time>2019-06-16T06:31:54Z</time>
      </trkpt>
      <trkpt lat="45.61116" lon="4.65184">
        <ele>411.4</ele>
        <time>2019-06-16T06:31:58Z</time>
      </trkpt>
      <trkpt lat="45.61123" lon="4.65171">
        <ele>412</ele>
        <time>2019-06-16T06:32:01Z</time>
      </trkpt>
      <trkpt lat="45.61129" lon="4.65159">
        <ele>412.5</ele>
        <time>2019-06-16T06:32:04Z</time>
      </trkpt>
      <trkpt lat="45.6113" lon="4.65152">
        <ele>412.8</ele>
        <time>2019-06-16T06:32:06Z</time>
      </trkpt>
      <trkpt lat="45.61128" lon="4.65145">
        <ele>413.3</ele>
        <time>2019-06-16T06:32:08Z</time>
      </trkpt>
      <trkpt lat="45.61121" lon="4.65135">
        <ele>413.2</ele>
        <time>2019-06-16T06:32:12Z</time>
      </trkpt>
      <trkpt lat="45.61118" lon="4.65131">
        <ele>413.2</ele>
        <time>2019-06-16T06:32:14Z</time>
      </trkpt>
      <trkpt lat="45.61106" lon="4.65124">
        <ele>413</ele>
        <time>2019-06-16T06:32:20Z</time>
      </trkpt>
      <trkpt lat="45.611" lon="4.6512">
        <ele>412.9</ele>
        <time>2019-06-16T06:32:23Z</time>
      </trkpt>
      <trkpt lat="45.6108" lon="4.6511">
        <ele>412.5</ele>
        <time>2019-06-16T06:32:31Z</time>
      </trkpt>
      <trkpt lat="45.61059" lon="4.65099">
        <ele>412.1</ele>
        <time>2019-06-16T06:32:38Z</time>
      </trkpt>
      <trkpt lat="45.61038" lon="4.65092">
        <ele>411.5</ele>
        <time>2019-06-16T06:32:44Z</time>
      </trkpt>
      <trkpt lat="45.61024" lon="4.65086">
        <ele>411.1</ele>
        <time>2019-06-16T06:32:48Z</time>
      </trkpt>
      <trkpt lat="45.61003" lon="4.65073">
        <ele>410.3</ele>
        <time>2019-06-16T06:32:54Z</time>
      </trkpt>
      <trkpt lat="45.60995" lon="4.65068">
        <ele>410.1</ele>
        <time>2019-06-16T06:32:56Z</time>
      </trkpt>
      <trkpt lat="45.60974" lon="4.65049">
        <ele>408.8</ele>
        <time>2019-06-16T06:33:03Z</time>
      </trkpt>
      <trkpt lat="45.60967" lon="4.65044">
        <ele>408.3</ele>
        <time>2019-06-16T06:33:07Z</time>
      </trkpt>
      <trkpt lat="45.60957" lon="4.65044">
        <ele>407.6</ele>
        <time>2019-06-16T06:33:12Z</time>
      </trkpt>
      <trkpt lat="45.60954" lon="4.65046">
        <ele>407.3</ele>
        <time>2019-06-16T06:33:14Z</time>
      </trkpt>
      <trkpt lat="45.60945" lon="4.6505">
        <ele>406.8</ele>
        <time>2019-06-16T06:33:17Z</time>
      </trkpt>
      <trkpt lat="45.60935" lon="4.65054">
        <ele>406.3</ele>
        <time>2019-06-16T06:33:19Z</time>
      </trkpt>
      <trkpt lat="45.60923" lon="4.65056">
        <ele>405.6</ele>
        <time>2019-06-16T06:33:21Z</time>
      </trkpt>
      <trkpt lat="45.60916" lon="4.65056">
        <ele>405.3</ele>
        <time>2019-06-16T06:33:22Z</time>
      </trkpt>
      <trkpt lat="45.60902" lon="4.65054">
        <ele>404.8</ele>
        <time>2019-06-16T06:33:24Z</time>
      </trkpt>
      <trkpt lat="45.60895" lon="4.65051">
        <ele>404.5</ele>
        <time>2019-06-16T06:33:25Z</time>
      </trkpt>
      <trkpt lat="45.60874" lon="4.65038">
        <ele>403.7</ele>
        <time>2019-06-16T06:33:28Z</time>
      </trkpt>
      <trkpt lat="45.6086" lon="4.65029">
        <ele>403.1</ele>
        <time>2019-06-16T06:33:30Z</time>
      </trkpt>
      <trkpt lat="45.60846" lon="4.6502">
        <ele>402.5</ele>
        <time>2019-06-16T06:33:32Z</time>
      </trkpt>
      <trkpt lat="45.60833" lon="4.65011">
        <ele>402</ele>
        <time>2019-06-16T06:33:34Z</time>
      </trkpt>
      <trkpt lat="45.60823" lon="4.65003">
        <ele>401.3</ele>
        <time>2019-06-16T06:33:36Z</time>
      </trkpt>
      <trkpt lat="45.60812" lon="4.64987">
        <ele>399.9</ele>
        <time>2019-06-16T06:33:39Z</time>
      </trkpt>
      <trkpt lat="45.608" lon="4.64973">
        <ele>399.1</ele>
        <time>2019-06-16T06:33:42Z</time>
      </trkpt>
      <trkpt lat="45.60798" lon="4.64966">
        <ele>398.5</ele>
        <time>2019-06-16T06:33:43Z</time>
      </trkpt>
      <trkpt lat="45.60797" lon="4.64958">
        <ele>398</ele>
        <time>2019-06-16T06:33:44Z</time>
      </trkpt>
      <trkpt lat="45.60795" lon="4.6494">
        <ele>396.8</ele>
        <time>2019-06-16T06:33:46Z</time>
      </trkpt>
      <trkpt lat="45.60795" lon="4.64931">
        <ele>396.1</ele>
        <time>2019-06-16T06:33:47Z</time>
      </trkpt>
      <trkpt lat="45.60795" lon="4.64923">
        <ele>395.3</ele>
        <time>2019-06-16T06:33:48Z</time>
      </trkpt>
      <trkpt lat="45.60793" lon="4.64907">
        <ele>393.8</ele>
        <time>2019-06-16T06:33:50Z</time>
      </trkpt>
      <trkpt lat="45.60791" lon="4.64901">
        <ele>393.1</ele>
        <time>2019-06-16T06:33:51Z</time>
      </trkpt>
      <trkpt lat="45.60789" lon="4.64896">
        <ele>392.4</ele>
        <time>2019-06-16T06:33:52Z</time>
      </trkpt>
      <trkpt lat="45.60787" lon="4.6489">
        <ele>391.7</ele>
        <time>2019-06-16T06:33:53Z</time>
      </trkpt>
      <trkpt lat="45.60783" lon="4.64886">
        <ele>390.9</ele>
        <time>2019-06-16T06:33:54Z</time>
      </trkpt>
      <trkpt lat="45.60777" lon="4.64883">
        <ele>390.1</ele>
        <time>2019-06-16T06:33:55Z</time>
      </trkpt>
      <trkpt lat="45.60771" lon="4.64883">
        <ele>389.4</ele>
        <time>2019-06-16T06:33:56Z</time>
      </trkpt>
      <trkpt lat="45.60758" lon="4.64887">
        <ele>388.2</ele>
        <time>2019-06-16T06:33:58Z</time>
      </trkpt>
      <trkpt lat="45.60739" lon="4.64902">
        <ele>386.5</ele>
        <time>2019-06-16T06:34:01Z</time>
      </trkpt>
      <trkpt lat="45.60733" lon="4.64907">
        <ele>386.1</ele>
        <time>2019-06-16T06:34:02Z</time>
      </trkpt>
      <trkpt lat="45.60723" lon="4.64914">
        <ele>385.5</ele>
        <time>2019-06-16T06:34:04Z</time>
      </trkpt>
      <trkpt lat="45.6072" lon="4.64913">
        <ele>385.6</ele>
        <time>2019-06-16T06:34:05Z</time>
      </trkpt>
      <trkpt lat="45.60712" lon="4.64898">
        <ele>385.8</ele>
        <time>2019-06-16T06:34:08Z</time>
      </trkpt>
      <trkpt lat="45.60709" lon="4.64892">
        <ele>385.8</ele>
        <time>2019-06-16T06:34:09Z</time>
      </trkpt>
      <trkpt lat="45.60682" lon="4.64839">
        <ele>386.4</ele>
        <time>2019-06-16T06:34:18Z</time>
      </trkpt>
      <trkpt lat="45.6066" lon="4.64797">
        <ele>386.9</ele>
        <time>2019-06-16T06:34:25Z</time>
      </trkpt>
      <trkpt lat="45.6063" lon="4.64738">
        <ele>387.7</ele>
        <time>2019-06-16T06:34:35Z</time>
      </trkpt>
      <trkpt lat="45.60621" lon="4.64721">
        <ele>388</ele>
        <time>2019-06-16T06:34:38Z</time>
      </trkpt>
      <trkpt lat="45.60621" lon="4.64715">
        <ele>388.1</ele>
        <time>2019-06-16T06:34:39Z</time>
      </trkpt>
      <trkpt lat="45.60626" lon="4.64698">
        <ele>388.3</ele>
        <time>2019-06-16T06:34:42Z</time>
      </trkpt>
      <trkpt lat="45.60634" lon="4.64689">
        <ele>388.5</ele>
        <time>2019-06-16T06:34:44Z</time>
      </trkpt>
      <trkpt lat="45.60645" lon="4.64674">
        <ele>388.8</ele>
        <time>2019-06-16T06:34:47Z</time>
      </trkpt>
      <trkpt lat="45.6066" lon="4.64655">
        <ele>389.2</ele>
        <time>2019-06-16T06:34:51Z</time>
      </trkpt>
      <trkpt lat="45.60669" lon="4.64649">
        <ele>389.5</ele>
        <time>2019-06-16T06:34:53Z</time>
      </trkpt>
      <trkpt lat="45.60678" lon="4.64644">
        <ele>389.7</ele>
        <time>2019-06-16T06:34:55Z</time>
      </trkpt>
      <trkpt lat="45.60692" lon="4.64641">
        <ele>390</ele>
        <time>2019-06-16T06:34:58Z</time>
      </trkpt>
      <trkpt lat="45.60716" lon="4.64632">
        <ele>390.6</ele>
        <time>2019-06-16T06:35:03Z</time>
      </trkpt>
      <trkpt lat="45.60721" lon="4.64628">
        <ele>390.8</ele>
        <time>2019-06-16T06:35:04Z</time>
      </trkpt>
      <trkpt lat="45.60725" lon="4.64625">
        <ele>390.9</ele>
        <time>2019-06-16T06:35:05Z</time>
      </trkpt>
      <trkpt lat="45.60734" lon="4.6462">
        <ele>391.1</ele>
        <time>2019-06-16T06:35:07Z</time>
      </trkpt>
      <trkpt lat="45.60743" lon="4.64613">
        <ele>391.4</ele>
        <time>2019-06-16T06:35:09Z</time>
      </trkpt>
      <trkpt lat="45.60761" lon="4.64602">
        <ele>392</ele>
        <time>2019-06-16T06:35:13Z</time>
      </trkpt>
      <trkpt lat="45.60769" lon="4.64596">
        <ele>392.4</ele>
        <time>2019-06-16T06:35:15Z</time>
      </trkpt>
      <trkpt lat="45.60776" lon="4.64588">
        <ele>392.7</ele>
        <time>2019-06-16T06:35:17Z</time>
      </trkpt>
      <trkpt lat="45.60787" lon="4.64579">
        <ele>393</ele>
        <time>2019-06-16T06:35:20Z</time>
      </trkpt>
      <trkpt lat="45.60803" lon="4.64554">
        <ele>393.7</ele>
        <time>2019-06-16T06:35:26Z</time>
      </trkpt>
      <trkpt lat="45.60815" lon="4.6453">
        <ele>394.3</ele>
        <time>2019-06-16T06:35:31Z</time>
      </trkpt>
      <trkpt lat="45.60824" lon="4.64516">
        <ele>394.6</ele>
        <time>2019-06-16T06:35:34Z</time>
      </trkpt>
      <trkpt lat="45.60847" lon="4.6448">
        <ele>395.8</ele>
        <time>2019-06-16T06:35:41Z</time>
      </trkpt>
      <trkpt lat="45.60866" lon="4.64454">
        <ele>396.6</ele>
        <time>2019-06-16T06:35:47Z</time>
      </trkpt>
      <trkpt lat="45.60886" lon="4.64423">
        <ele>397.7</ele>
        <time>2019-06-16T06:35:54Z</time>
      </trkpt>
      <trkpt lat="45.60894" lon="4.64407">
        <ele>398.3</ele>
        <time>2019-06-16T06:35:57Z</time>
      </trkpt>
      <trkpt lat="45.60898" lon="4.64396">
        <ele>398.8</ele>
        <time>2019-06-16T06:35:59Z</time>
      </trkpt>
      <trkpt lat="45.60906" lon="4.64373">
        <ele>399.5</ele>
        <time>2019-06-16T06:36:03Z</time>
      </trkpt>
      <trkpt lat="45.60911" lon="4.64364">
        <ele>399.9</ele>
        <time>2019-06-16T06:36:05Z</time>
      </trkpt>
      <trkpt lat="45.60914" lon="4.6436">
        <ele>400.2</ele>
        <time>2019-06-16T06:36:06Z</time>
      </trkpt>
      <trkpt lat="45.60921" lon="4.64352">
        <ele>400.5</ele>
        <time>2019-06-16T06:36:08Z</time>
      </trkpt>
      <trkpt lat="45.60932" lon="4.64338">
        <ele>400.3</ele>
        <time>2019-06-16T06:36:11Z</time>
      </trkpt>
      <trkpt lat="45.60951" lon="4.64324">
        <ele>399.9</ele>
        <time>2019-06-16T06:36:15Z</time>
      </trkpt>
      <trkpt lat="45.60963" lon="4.64334">
        <ele>399.7</ele>
        <time>2019-06-16T06:36:18Z</time>
      </trkpt>
      <trkpt lat="45.60968" lon="4.64358">
        <ele>399.9</ele>
        <time>2019-06-16T06:36:22Z</time>
      </trkpt>
      <trkpt lat="45.60973" lon="4.64367">
        <ele>400.3</ele>
        <time>2019-06-16T06:36:24Z</time>
      </trkpt>
      <trkpt lat="45.60976" lon="4.64369">
        <ele>400.6</ele>
        <time>2019-06-16T06:36:25Z</time>
      </trkpt>
      <trkpt lat="45.60979" lon="4.64371">
        <ele>400.8</ele>
        <time>2019-06-16T06:36:26Z</time>
      </trkpt>
      <trkpt lat="45.60984" lon="4.64374">
        <ele>401.5</ele>
        <time>2019-06-16T06:36:29Z</time>
      </trkpt>
      <trkpt lat="45.60986" lon="4.64375">
        <ele>401.7</ele>
        <time>2019-06-16T06:36:30Z</time>
      </trkpt>
      <trkpt lat="45.60987" lon="4.64377">
        <ele>401.9</ele>
        <time>2019-06-16T06:36:31Z</time>
      </trkpt>
      <trkpt lat="45.60991" lon="4.64378">
        <ele>402.5</ele>
        <time>2019-06-16T06:36:33Z</time>
      </trkpt>
      <trkpt lat="45.60995" lon="4.6438">
        <ele>403.1</ele>
        <time>2019-06-16T06:36:35Z</time>
      </trkpt>
      <trkpt lat="45.60997" lon="4.64381">
        <ele>403.4</ele>
        <time>2019-06-16T06:36:36Z</time>
      </trkpt>
      <trkpt lat="45.60999" lon="4.64382">
        <ele>403.7</ele>
        <time>2019-06-16T06:36:37Z</time>
      </trkpt>
      <trkpt lat="45.61004" lon="4.64386">
        <ele>404.4</ele>
        <time>2019-06-16T06:36:39Z</time>
      </trkpt>
      <trkpt lat="45.61007" lon="4.64389">
        <ele>404.9</ele>
        <time>2019-06-16T06:36:41Z</time>
      </trkpt>
      <trkpt lat="45.61008" lon="4.64391">
        <ele>405.1</ele>
        <time>2019-06-16T06:36:42Z</time>
      </trkpt>
      <trkpt lat="45.61009" lon="4.64394">
        <ele>405.2</ele>
        <time>2019-06-16T06:36:43Z</time>
      </trkpt>
      <trkpt lat="45.61013" lon="4.64403">
        <ele>405.6</ele>
        <time>2019-06-16T06:36:46Z</time>
      </trkpt>
      <trkpt lat="45.61018" lon="4.6441">
        <ele>405.9</ele>
        <time>2019-06-16T06:36:49Z</time>
      </trkpt>
      <trkpt lat="45.61021" lon="4.64413">
        <ele>405.9</ele>
        <time>2019-06-16T06:36:51Z</time>
      </trkpt>
      <trkpt lat="45.61022" lon="4.64415">
        <ele>405.9</ele>
        <time>2019-06-16T06:36:52Z</time>
      </trkpt>
      <trkpt lat="45.61022" lon="4.64421">
        <ele>406</ele>
        <time>2019-06-16T06:36:54Z</time>
      </trkpt>
      <trkpt lat="45.61021" lon="4.64428">
        <ele>406</ele>
        <time>2019-06-16T06:36:56Z</time>
      </trkpt>
      <trkpt lat="45.61018" lon="4.64449">
        <ele>406.1</ele>
        <time>2019-06-16T06:37:02Z</time>
      </trkpt>
      <trkpt lat="45.61017" lon="4.6448">
        <ele>406.3</ele>
        <time>2019-06-16T06:37:10Z</time>
      </trkpt>
      <trkpt lat="45.61016" lon="4.64488">
        <ele>406.4</ele>
        <time>2019-06-16T06:37:12Z</time>
      </trkpt>
      <trkpt lat="45.61014" lon="4.6452">
        <ele>406.7</ele>
        <time>2019-06-16T06:37:20Z</time>
      </trkpt>
      <trkpt lat="45.61014" lon="4.64523">
        <ele>406.7</ele>
        <time>2019-06-16T06:37:21Z</time>
      </trkpt>
      <trkpt lat="45.61009" lon="4.64549">
        <ele>406.4</ele>
        <time>2019-06-16T06:37:28Z</time>
      </trkpt>
      <trkpt lat="45.61008" lon="4.64554">
        <ele>406.3</ele>
        <time>2019-06-16T06:37:29Z</time>
      </trkpt>
      <trkpt lat="45.61001" lon="4.64589">
        <ele>405.7</ele>
        <time>2019-06-16T06:37:37Z</time>
      </trkpt>
      <trkpt lat="45.60999" lon="4.64601">
        <ele>405.6</ele>
        <time>2019-06-16T06:37:39Z</time>
      </trkpt>
      <trkpt lat="45.60997" lon="4.64607">
        <ele>405.6</ele>
        <time>2019-06-16T06:37:40Z</time>
      </trkpt>
      <trkpt lat="45.60996" lon="4.64615">
        <ele>405.7</ele>
        <time>2019-06-16T06:37:41Z</time>
      </trkpt>
      <trkpt lat="45.60995" lon="4.64623">
        <ele>405.9</ele>
        <time>2019-06-16T06:37:42Z</time>
      </trkpt>
      <trkpt lat="45.60994" lon="4.64631">
        <ele>406.1</ele>
        <time>2019-06-16T06:37:43Z</time>
      </trkpt>
      <trkpt lat="45.60994" lon="4.64638">
        <ele>406.3</ele>
        <time>2019-06-16T06:37:44Z</time>
      </trkpt>
      <trkpt lat="45.60995" lon="4.64649">
        <ele>406.5</ele>
        <time>2019-06-16T06:37:46Z</time>
      </trkpt>
      <trkpt lat="45.60996" lon="4.64659">
        <ele>406.7</ele>
        <time>2019-06-16T06:37:48Z</time>
      </trkpt>
      <trkpt lat="45.60995" lon="4.64666">
        <ele>406.8</ele>
        <time>2019-06-16T06:37:50Z</time>
      </trkpt>
      <trkpt lat="45.6099" lon="4.64681">
        <ele>407</ele>
        <time>2019-06-16T06:37:55Z</time>
      </trkpt>
      <trkpt lat="45.60989" lon="4.64684">
        <ele>407.1</ele>
        <time>2019-06-16T06:37:56Z</time>
      </trkpt>
      <trkpt lat="45.6099" lon="4.64705">
        <ele>407.4</ele>
        <time>2019-06-16T06:38:01Z</time>
      </trkpt>
      <trkpt lat="45.60995" lon="4.64717">
        <ele>407.6</ele>
        <time>2019-06-16T06:38:04Z</time>
      </trkpt>
      <trkpt lat="45.60998" lon="4.64726">
        <ele>407.8</ele>
        <time>2019-06-16T06:38:07Z</time>
      </trkpt>
      <trkpt lat="45.60999" lon="4.64729">
        <ele>407.8</ele>
        <time>2019-06-16T06:38:08Z</time>
      </trkpt>
      <trkpt lat="45.61" lon="4.64735">
        <ele>407.9</ele>
        <time>2019-06-16T06:38:10Z</time>
      </trkpt>
      <trkpt lat="45.61003" lon="4.64743">
        <ele>408</ele>
        <time>2019-06-16T06:38:13Z</time>
      </trkpt>
      <trkpt lat="45.61006" lon="4.64751">
        <ele>408</ele>
        <time>2019-06-16T06:38:16Z</time>
      </trkpt>
      <trkpt lat="45.61007" lon="4.64757">
        <ele>408</ele>
        <time>2019-06-16T06:38:18Z</time>
      </trkpt>
      <trkpt lat="45.61008" lon="4.6476">
        <ele>408</ele>
        <time>2019-06-16T06:38:19Z</time>
      </trkpt>
      <trkpt lat="45.6101" lon="4.64785">
        <ele>408</ele>
        <time>2019-06-16T06:38:26Z</time>
      </trkpt>
      <trkpt lat="45.6101" lon="4.64789">
        <ele>408</ele>
        <time>2019-06-16T06:38:27Z</time>
      </trkpt>
      <trkpt lat="45.61007" lon="4.64812">
        <ele>408.1</ele>
        <time>2019-06-16T06:38:33Z</time>
      </trkpt>
      <trkpt lat="45.61007" lon="4.64823">
        <ele>408.1</ele>
        <time>2019-06-16T06:38:38Z</time>
      </trkpt>
      <trkpt lat="45.61007" lon="4.64826">
        <ele>408.1</ele>
        <time>2019-06-16T06:38:39Z</time>
      </trkpt>
      <trkpt lat="45.61003" lon="4.64845">
        <ele>408.5</ele>
        <time>2019-06-16T06:38:45Z</time>
      </trkpt>
      <trkpt lat="45.61002" lon="4.64848">
        <ele>408.4</ele>
        <time>2019-06-16T06:38:46Z</time>
      </trkpt>
      <trkpt lat="45.61" lon="4.64862">
        <ele>408.4</ele>
        <time>2019-06-16T06:38:51Z</time>
      </trkpt>
      <trkpt lat="45.61" lon="4.64873">
        <ele>408.6</ele>
        <time>2019-06-16T06:38:55Z</time>
      </trkpt>
      <trkpt lat="45.60999" lon="4.64883">
        <ele>408.6</ele>
        <time>2019-06-16T06:38:58Z</time>
      </trkpt>
      <trkpt lat="45.60997" lon="4.64894">
        <ele>408.6</ele>
        <time>2019-06-16T06:39:02Z</time>
      </trkpt>
      <trkpt lat="45.60997" lon="4.649">
        <ele>408.5</ele>
        <time>2019-06-16T06:39:04Z</time>
      </trkpt>
      <trkpt lat="45.60995" lon="4.6491">
        <ele>408.5</ele>
        <time>2019-06-16T06:39:08Z</time>
      </trkpt>
      <trkpt lat="45.60993" lon="4.64915">
        <ele>408.7</ele>
        <time>2019-06-16T06:39:10Z</time>
      </trkpt>
      <trkpt lat="45.60992" lon="4.64921">
        <ele>408.4</ele>
        <time>2019-06-16T06:39:12Z</time>
      </trkpt>
      <trkpt lat="45.6099" lon="4.64938">
        <ele>409.1</ele>
        <time>2019-06-16T06:39:18Z</time>
      </trkpt>
      <trkpt lat="45.60989" lon="4.64944">
        <ele>408.8</ele>
        <time>2019-06-16T06:39:20Z</time>
      </trkpt>
      <trkpt lat="45.60986" lon="4.64958">
        <ele>409.3</ele>
        <time>2019-06-16T06:39:25Z</time>
      </trkpt>
      <trkpt lat="45.60985" lon="4.64965">
        <ele>409.3</ele>
        <time>2019-06-16T06:39:27Z</time>
      </trkpt>
      <trkpt lat="45.60982" lon="4.6498">
        <ele>409.7</ele>
        <time>2019-06-16T06:39:32Z</time>
      </trkpt>
      <trkpt lat="45.60978" lon="4.65004">
        <ele>410.1</ele>
        <time>2019-06-16T06:39:39Z</time>
      </trkpt>
      <trkpt lat="45.60976" lon="4.65018">
        <ele>410</ele>
        <time>2019-06-16T06:39:43Z</time>
      </trkpt>
      <trkpt lat="45.60974" lon="4.65026">
        <ele>409.6</ele>
        <time>2019-06-16T06:39:45Z</time>
      </trkpt>
      <trkpt lat="45.60969" lon="4.65037">
        <ele>409.3</ele>
        <time>2019-06-16T06:39:49Z</time>
      </trkpt>
      <trkpt lat="45.60969" lon="4.6504">
        <ele>409</ele>
        <time>2019-06-16T06:39:50Z</time>
      </trkpt>
      <trkpt lat="45.60977" lon="4.65052">
        <ele>409</ele>
        <time>2019-06-16T06:39:54Z</time>
      </trkpt>
      <trkpt lat="45.60995" lon="4.65063">
        <ele>410</ele>
        <time>2019-06-16T06:40:00Z</time>
      </trkpt>
      <trkpt lat="45.61021" lon="4.65077">
        <ele>411</ele>
        <time>2019-06-16T06:40:07Z</time>
      </trkpt>
      <trkpt lat="45.61029" lon="4.65082">
        <ele>411.2</ele>
        <time>2019-06-16T06:40:09Z</time>
      </trkpt>
      <trkpt lat="45.61046" lon="4.65092">
        <ele>411.7</ele>
        <time>2019-06-16T06:40:13Z</time>
      </trkpt>
      <trkpt lat="45.61068" lon="4.65109">
        <ele>412.3</ele>
        <time>2019-06-16T06:40:18Z</time>
      </trkpt>
      <trkpt lat="45.61078" lon="4.65113">
        <ele>412.5</ele>
        <time>2019-06-16T06:40:20Z</time>
      </trkpt>
      <trkpt lat="45.61092" lon="4.65121">
        <ele>412.8</ele>
        <time>2019-06-16T06:40:23Z</time>
      </trkpt>
      <trkpt lat="45.61112" lon="4.65133">
        <ele>413.1</ele>
        <time>2019-06-16T06:40:27Z</time>
      </trkpt>
      <trkpt lat="45.61122" lon="4.65138">
        <ele>413.2</ele>
        <time>2019-06-16T06:40:29Z</time>
      </trkpt>
      <trkpt lat="45.61126" lon="4.65139">
        <ele>413.3</ele>
        <time>2019-06-16T06:40:30Z</time>
      </trkpt>
      <trkpt lat="45.61134" lon="4.6514">
        <ele>413.4</ele>
        <time>2019-06-16T06:40:32Z</time>
      </trkpt>
      <trkpt lat="45.61143" lon="4.65129">
        <ele>413.7</ele>
        <time>2019-06-16T06:40:36Z</time>
      </trkpt>
      <trkpt lat="45.61156" lon="4.65111">
        <ele>414.3</ele>
        <time>2019-06-16T06:40:42Z</time>
      </trkpt>
      <trkpt lat="45.61164" lon="4.65113">
        <ele>414.4</ele>
        <time>2019-06-16T06:40:46Z</time>
      </trkpt>
      <trkpt lat="45.61165" lon="4.65114">
        <ele>414.4</ele>
        <time>2019-06-16T06:40:50Z</time>
      </trkpt>
      <trkpt lat="45.61167" lon="4.65114">
        <ele>414.4</ele>
        <time>2019-06-16T06:40:51Z</time>
      </trkpt>
      <trkpt lat="45.61181" lon="4.6512">
        <ele>414.4</ele>
        <time>2019-06-16T06:40:56Z</time>
      </trkpt>
      <trkpt lat="45.61209" lon="4.65127">
        <ele>414</ele>
        <time>2019-06-16T06:41:03Z</time>
      </trkpt>
      <trkpt lat="45.61246" lon="4.65128">
        <ele>413.7</ele>
        <time>2019-06-16T06:41:10Z</time>
      </trkpt>
      <trkpt lat="45.61256" lon="4.65127">
        <ele>413.6</ele>
        <time>2019-06-16T06:41:12Z</time>
      </trkpt>
      <trkpt lat="45.61276" lon="4.65124">
        <ele>413.5</ele>
        <time>2019-06-16T06:41:16Z</time>
      </trkpt>
      <trkpt lat="45.61281" lon="4.65122">
        <ele>413.5</ele>
        <time>2019-06-16T06:41:17Z</time>
      </trkpt>
      <trkpt lat="45.61288" lon="4.65115">
        <ele>413.4</ele>
        <time>2019-06-16T06:41:19Z</time>
      </trkpt>
      <trkpt lat="45.61295" lon="4.65111">
        <ele>413.3</ele>
        <time>2019-06-16T06:41:21Z</time>
      </trkpt>
      <trkpt lat="45.61303" lon="4.65111">
        <ele>413.1</ele>
        <time>2019-06-16T06:41:23Z</time>
      </trkpt>
      <trkpt lat="45.61318" lon="4.6511">
        <ele>412.8</ele>
        <time>2019-06-16T06:41:26Z</time>
      </trkpt>
      <trkpt lat="45.61358" lon="4.65101">
        <ele>411.7</ele>
        <time>2019-06-16T06:41:33Z</time>
      </trkpt>
      <trkpt lat="45.61364" lon="4.651">
        <ele>411.6</ele>
        <time>2019-06-16T06:41:34Z</time>
      </trkpt>
      <trkpt lat="45.61395" lon="4.65099">
        <ele>411.4</ele>
        <time>2019-06-16T06:41:40Z</time>
      </trkpt>
      <trkpt lat="45.61399" lon="4.651">
        <ele>411.4</ele>
        <time>2019-06-16T06:41:41Z</time>
      </trkpt>
      <trkpt lat="45.61406" lon="4.65111">
        <ele>410.6</ele>
        <time>2019-06-16T06:41:44Z</time>
      </trkpt>
      <trkpt lat="45.61406" lon="4.65125">
        <ele>409.9</ele>
        <time>2019-06-16T06:41:46Z</time>
      </trkpt>
      <trkpt lat="45.61406" lon="4.65133">
        <ele>409.7</ele>
        <time>2019-06-16T06:41:47Z</time>
      </trkpt>
      <trkpt lat="45.61406" lon="4.65142">
        <ele>409.5</ele>
        <time>2019-06-16T06:41:48Z</time>
      </trkpt>
      <trkpt lat="45.61407" lon="4.65173">
        <ele>408.5</ele>
        <time>2019-06-16T06:41:51Z</time>
      </trkpt>
      <trkpt lat="45.61409" lon="4.65195">
        <ele>407.6</ele>
        <time>2019-06-16T06:41:53Z</time>
      </trkpt>
      <trkpt lat="45.61411" lon="4.65216">
        <ele>406.6</ele>
        <time>2019-06-16T06:41:55Z</time>
      </trkpt>
      <trkpt lat="45.61415" lon="4.65243">
        <ele>404.5</ele>
        <time>2019-06-16T06:41:58Z</time>
      </trkpt>
      <trkpt lat="45.61427" lon="4.65262">
        <ele>403.5</ele>
        <time>2019-06-16T06:42:01Z</time>
      </trkpt>
      <trkpt lat="45.61448" lon="4.6527">
        <ele>403.5</ele>
        <time>2019-06-16T06:42:05Z</time>
      </trkpt>
      <trkpt lat="45.61452" lon="4.65268">
        <ele>403.6</ele>
        <time>2019-06-16T06:42:06Z</time>
      </trkpt>
      <trkpt lat="45.61461" lon="4.65267">
        <ele>403.8</ele>
        <time>2019-06-16T06:42:08Z</time>
      </trkpt>
      <trkpt lat="45.61473" lon="4.65265">
        <ele>404.1</ele>
        <time>2019-06-16T06:42:11Z</time>
      </trkpt>
      <trkpt lat="45.61499" lon="4.65262">
        <ele>404.9</ele>
        <time>2019-06-16T06:42:18Z</time>
      </trkpt>
      <trkpt lat="45.61525" lon="4.65261">
        <ele>405.7</ele>
        <time>2019-06-16T06:42:25Z</time>
      </trkpt>
      <trkpt lat="45.61529" lon="4.65261">
        <ele>405.8</ele>
        <time>2019-06-16T06:42:26Z</time>
      </trkpt>
      <trkpt lat="45.61541" lon="4.65261">
        <ele>406.2</ele>
        <time>2019-06-16T06:42:29Z</time>
      </trkpt>
      <trkpt lat="45.61561" lon="4.65254">
        <ele>406.9</ele>
        <time>2019-06-16T06:42:34Z</time>
      </trkpt>
      <trkpt lat="45.61564" lon="4.65253">
        <ele>407</ele>
        <time>2019-06-16T06:42:35Z</time>
      </trkpt>
      <trkpt lat="45.61582" lon="4.65244">
        <ele>407.7</ele>
        <time>2019-06-16T06:42:40Z</time>
      </trkpt>
      <trkpt lat="45.61585" lon="4.65242">
        <ele>407.8</ele>
        <time>2019-06-16T06:42:41Z</time>
      </trkpt>
      <trkpt lat="45.61607" lon="4.65234">
        <ele>408.7</ele>
        <time>2019-06-16T06:42:47Z</time>
      </trkpt>
      <trkpt lat="45.6161" lon="4.65233">
        <ele>408.8</ele>
        <time>2019-06-16T06:42:48Z</time>
      </trkpt>
      <trkpt lat="45.61635" lon="4.65224">
        <ele>409.7</ele>
        <time>2019-06-16T06:42:55Z</time>
      </trkpt>
      <trkpt lat="45.61638" lon="4.65223">
        <ele>409.7</ele>
        <time>2019-06-16T06:42:56Z</time>
      </trkpt>
      <trkpt lat="45.61673" lon="4.65208">
        <ele>409.4</ele>
        <time>2019-06-16T06:43:06Z</time>
      </trkpt>
      <trkpt lat="45.61707" lon="4.65197">
        <ele>408.9</ele>
        <time>2019-06-16T06:43:14Z</time>
      </trkpt>
      <trkpt lat="45.61732" lon="4.65186">
        <ele>408.5</ele>
        <time>2019-06-16T06:43:19Z</time>
      </trkpt>
      <trkpt lat="45.61748" lon="4.65181">
        <ele>408</ele>
        <time>2019-06-16T06:43:22Z</time>
      </trkpt>
      <trkpt lat="45.61759" lon="4.65178">
        <ele>407.6</ele>
        <time>2019-06-16T06:43:24Z</time>
      </trkpt>
      <trkpt lat="45.61783" lon="4.65174">
        <ele>406.7</ele>
        <time>2019-06-16T06:43:28Z</time>
      </trkpt>
      <trkpt lat="45.61789" lon="4.65174">
        <ele>406.4</ele>
        <time>2019-06-16T06:43:29Z</time>
      </trkpt>
      <trkpt lat="45.61802" lon="4.65171">
        <ele>405.8</ele>
        <time>2019-06-16T06:43:31Z</time>
      </trkpt>
      <trkpt lat="45.61816" lon="4.65167">
        <ele>405</ele>
        <time>2019-06-16T06:43:33Z</time>
      </trkpt>
      <trkpt lat="45.61823" lon="4.65166">
        <ele>404.6</ele>
        <time>2019-06-16T06:43:34Z</time>
      </trkpt>
      <trkpt lat="45.61846" lon="4.65168">
        <ele>403.5</ele>
        <time>2019-06-16T06:43:37Z</time>
      </trkpt>
      <trkpt lat="45.61854" lon="4.6517">
        <ele>402.9</ele>
        <time>2019-06-16T06:43:38Z</time>
      </trkpt>
      <trkpt lat="45.61862" lon="4.65172">
        <ele>402.4</ele>
        <time>2019-06-16T06:43:39Z</time>
      </trkpt>
      <trkpt lat="45.61879" lon="4.65177">
        <ele>401.4</ele>
        <time>2019-06-16T06:43:41Z</time>
      </trkpt>
      <trkpt lat="45.61887" lon="4.6518">
        <ele>401.1</ele>
        <time>2019-06-16T06:43:42Z</time>
      </trkpt>
      <trkpt lat="45.61895" lon="4.65182">
        <ele>401</ele>
        <time>2019-06-16T06:43:43Z</time>
      </trkpt>
      <trkpt lat="45.6191" lon="4.65186">
        <ele>401.3</ele>
        <time>2019-06-16T06:43:45Z</time>
      </trkpt>
      <trkpt lat="45.61931" lon="4.65187">
        <ele>402.1</ele>
        <time>2019-06-16T06:43:48Z</time>
      </trkpt>
      <trkpt lat="45.61942" lon="4.65186">
        <ele>402.6</ele>
        <time>2019-06-16T06:43:50Z</time>
      </trkpt>
      <trkpt lat="45.61947" lon="4.65184">
        <ele>402.8</ele>
        <time>2019-06-16T06:43:51Z</time>
      </trkpt>
      <trkpt lat="45.61951" lon="4.65183">
        <ele>403.1</ele>
        <time>2019-06-16T06:43:52Z</time>
      </trkpt>
      <trkpt lat="45.6196" lon="4.65183">
        <ele>403.7</ele>
        <time>2019-06-16T06:43:54Z</time>
      </trkpt>
      <trkpt lat="45.61967" lon="4.65182">
        <ele>404.2</ele>
        <time>2019-06-16T06:43:56Z</time>
      </trkpt>
      <trkpt lat="45.61975" lon="4.65183">
        <ele>405</ele>
        <time>2019-06-16T06:43:59Z</time>
      </trkpt>
      <trkpt lat="45.61982" lon="4.65185">
        <ele>405.7</ele>
        <time>2019-06-16T06:44:02Z</time>
      </trkpt>
      <trkpt lat="45.61984" lon="4.65185">
        <ele>405.9</ele>
        <time>2019-06-16T06:44:03Z</time>
      </trkpt>
      <trkpt lat="45.61991" lon="4.65188">
        <ele>406.5</ele>
        <time>2019-06-16T06:44:06Z</time>
      </trkpt>
      <trkpt lat="45.61998" lon="4.65191">
        <ele>407.1</ele>
        <time>2019-06-16T06:44:09Z</time>
      </trkpt>
      <trkpt lat="45.62007" lon="4.65196">
        <ele>407.9</ele>
        <time>2019-06-16T06:44:13Z</time>
      </trkpt>
      <trkpt lat="45.62016" lon="4.65201">
        <ele>408.7</ele>
        <time>2019-06-16T06:44:17Z</time>
      </trkpt>
      <trkpt lat="45.62018" lon="4.65203">
        <ele>408.9</ele>
        <time>2019-06-16T06:44:18Z</time>
      </trkpt>
      <trkpt lat="45.62033" lon="4.65212">
        <ele>409.8</ele>
        <time>2019-06-16T06:44:25Z</time>
      </trkpt>
      <trkpt lat="45.62034" lon="4.65211">
        <ele>409.9</ele>
        <time>2019-06-16T06:44:26Z</time>
      </trkpt>
      <trkpt lat="45.62037" lon="4.65204">
        <ele>410</ele>
        <time>2019-06-16T06:44:29Z</time>
      </trkpt>
      <trkpt lat="45.62037" lon="4.65201">
        <ele>410</ele>
        <time>2019-06-16T06:44:30Z</time>
      </trkpt>
      <trkpt lat="45.62035" lon="4.65184">
        <ele>410.9</ele>
        <time>2019-06-16T06:44:36Z</time>
      </trkpt>
      <trkpt lat="45.62034" lon="4.65176">
        <ele>411.1</ele>
        <time>2019-06-16T06:44:39Z</time>
      </trkpt>
      <trkpt lat="45.62032" lon="4.65159">
        <ele>411.6</ele>
        <time>2019-06-16T06:44:45Z</time>
      </trkpt>
      <trkpt lat="45.6203" lon="4.65139">
        <ele>412.2</ele>
        <time>2019-06-16T06:44:52Z</time>
      </trkpt>
      <trkpt lat="45.6203" lon="4.6513">
        <ele>412.6</ele>
        <time>2019-06-16T06:44:55Z</time>
      </trkpt>
      <trkpt lat="45.6203" lon="4.65126">
        <ele>412.8</ele>
        <time>2019-06-16T06:44:56Z</time>
      </trkpt>
      <trkpt lat="45.62027" lon="4.65104">
        <ele>413.8</ele>
        <time>2019-06-16T06:45:03Z</time>
      </trkpt>
      <trkpt lat="45.62022" lon="4.65077">
        <ele>414.5</ele>
        <time>2019-06-16T06:45:11Z</time>
      </trkpt>
      <trkpt lat="45.62017" lon="4.65044">
        <ele>414.7</ele>
        <time>2019-06-16T06:45:20Z</time>
      </trkpt>
      <trkpt lat="45.62016" lon="4.65037">
        <ele>414.7</ele>
        <time>2019-06-16T06:45:22Z</time>
      </trkpt>
      <trkpt lat="45.62012" lon="4.65022">
        <ele>414.9</ele>
        <time>2019-06-16T06:45:26Z</time>
      </trkpt>
      <trkpt lat="45.62004" lon="4.6499">
        <ele>415.6</ele>
        <time>2019-06-16T06:45:34Z</time>
      </trkpt>
      <trkpt lat="45.62001" lon="4.64983">
        <ele>415.8</ele>
        <time>2019-06-16T06:45:36Z</time>
      </trkpt>
      <trkpt lat="45.61995" lon="4.64964">
        <ele>416.2</ele>
        <time>2019-06-16T06:45:41Z</time>
      </trkpt>
      <trkpt lat="45.61986" lon="4.64937">
        <ele>417</ele>
        <time>2019-06-16T06:45:48Z</time>
      </trkpt>
      <trkpt lat="45.61984" lon="4.64933">
        <ele>417.1</ele>
        <time>2019-06-16T06:45:49Z</time>
      </trkpt>
      <trkpt lat="45.61977" lon="4.64908">
        <ele>418.2</ele>
        <time>2019-06-16T06:45:56Z</time>
      </trkpt>
      <trkpt lat="45.61976" lon="4.64904">
        <ele>418.4</ele>
        <time>2019-06-16T06:45:57Z</time>
      </trkpt>
      <trkpt lat="45.61972" lon="4.64891">
        <ele>419.1</ele>
        <time>2019-06-16T06:46:01Z</time>
      </trkpt>
      <trkpt lat="45.61968" lon="4.64879">
        <ele>419.8</ele>
        <time>2019-06-16T06:46:05Z</time>
      </trkpt>
      <trkpt lat="45.61961" lon="4.6486">
        <ele>420.7</ele>
        <time>2019-06-16T06:46:11Z</time>
      </trkpt>
      <trkpt lat="45.6196" lon="4.64853">
        <ele>420.9</ele>
        <time>2019-06-16T06:46:13Z</time>
      </trkpt>
      <trkpt lat="45.61958" lon="4.64841">
        <ele>421.3</ele>
        <time>2019-06-16T06:46:16Z</time>
      </trkpt>
      <trkpt lat="45.61956" lon="4.64824">
        <ele>421.7</ele>
        <time>2019-06-16T06:46:20Z</time>
      </trkpt>
      <trkpt lat="45.61953" lon="4.64791">
        <ele>422</ele>
        <time>2019-06-16T06:46:27Z</time>
      </trkpt>
      <trkpt lat="45.61949" lon="4.64747">
        <ele>422</ele>
        <time>2019-06-16T06:46:36Z</time>
      </trkpt>
      <trkpt lat="45.61944" lon="4.64713">
        <ele>422.4</ele>
        <time>2019-06-16T06:46:44Z</time>
      </trkpt>
      <trkpt lat="45.61939" lon="4.6468">
        <ele>422.8</ele>
        <time>2019-06-16T06:46:52Z</time>
      </trkpt>
      <trkpt lat="45.61937" lon="4.64672">
        <ele>423</ele>
        <time>2019-06-16T06:46:54Z</time>
      </trkpt>
      <trkpt lat="45.61933" lon="4.64654">
        <ele>423.5</ele>
        <time>2019-06-16T06:46:59Z</time>
      </trkpt>
      <trkpt lat="45.61929" lon="4.64642">
        <ele>424.1</ele>
        <time>2019-06-16T06:47:03Z</time>
      </trkpt>
      <trkpt lat="45.61926" lon="4.64634">
        <ele>424.7</ele>
        <time>2019-06-16T06:47:06Z</time>
      </trkpt>
      <trkpt lat="45.61923" lon="4.64624">
        <ele>425.3</ele>
        <time>2019-06-16T06:47:09Z</time>
      </trkpt>
      <trkpt lat="45.61922" lon="4.64616">
        <ele>425.8</ele>
        <time>2019-06-16T06:47:11Z</time>
      </trkpt>
      <trkpt lat="45.61919" lon="4.64605">
        <ele>426.1</ele>
        <time>2019-06-16T06:47:14Z</time>
      </trkpt>
      <trkpt lat="45.61916" lon="4.64593">
        <ele>426.5</ele>
        <time>2019-06-16T06:47:17Z</time>
      </trkpt>
      <trkpt lat="45.61914" lon="4.64586">
        <ele>426.8</ele>
        <time>2019-06-16T06:47:19Z</time>
      </trkpt>
      <trkpt lat="45.61901" lon="4.64559">
        <ele>427.7</ele>
        <time>2019-06-16T06:47:27Z</time>
      </trkpt>
      <trkpt lat="45.61895" lon="4.6455">
        <ele>428</ele>
        <time>2019-06-16T06:47:30Z</time>
      </trkpt>
      <trkpt lat="45.61889" lon="4.64541">
        <ele>428.3</ele>
        <time>2019-06-16T06:47:33Z</time>
      </trkpt>
      <trkpt lat="45.6187" lon="4.64519">
        <ele>429</ele>
        <time>2019-06-16T06:47:41Z</time>
      </trkpt>
      <trkpt lat="45.61855" lon="4.6452">
        <ele>429.5</ele>
        <time>2019-06-16T06:47:46Z</time>
      </trkpt>
      <trkpt lat="45.61849" lon="4.64522">
        <ele>429.7</ele>
        <time>2019-06-16T06:47:48Z</time>
      </trkpt>
      <trkpt lat="45.61843" lon="4.64524">
        <ele>430</ele>
        <time>2019-06-16T06:47:51Z</time>
      </trkpt>
      <trkpt lat="45.61835" lon="4.64525">
        <ele>430.7</ele>
        <time>2019-06-16T06:47:55Z</time>
      </trkpt>
      <trkpt lat="45.61834" lon="4.64524">
        <ele>430.8</ele>
        <time>2019-06-16T06:47:56Z</time>
      </trkpt>
      <trkpt lat="45.61833" lon="4.64522">
        <ele>431</ele>
        <time>2019-06-16T06:47:57Z</time>
      </trkpt>
      <trkpt lat="45.61831" lon="4.6452">
        <ele>431.1</ele>
        <time>2019-06-16T06:47:58Z</time>
      </trkpt>
      <trkpt lat="45.61825" lon="4.64507">
        <ele>432.1</ele>
        <time>2019-06-16T06:48:03Z</time>
      </trkpt>
      <trkpt lat="45.61824" lon="4.64504">
        <ele>432.3</ele>
        <time>2019-06-16T06:48:04Z</time>
      </trkpt>
      <trkpt lat="45.6182" lon="4.64492">
        <ele>433</ele>
        <time>2019-06-16T06:48:09Z</time>
      </trkpt>
      <trkpt lat="45.61816" lon="4.64468">
        <ele>434.3</ele>
        <time>2019-06-16T06:48:39Z</time>
      </trkpt>
      <trkpt lat="45.61814" lon="4.64461">
        <ele>434.7</ele>
        <time>2019-06-16T06:48:42Z</time>
      </trkpt>
      <trkpt lat="45.6181" lon="4.64446">
        <ele>435.6</ele>
        <time>2019-06-16T06:48:50Z</time>
      </trkpt>
      <trkpt lat="45.61807" lon="4.6444">
        <ele>436.1</ele>
        <time>2019-06-16T06:48:54Z</time>
      </trkpt>
      <trkpt lat="45.61805" lon="4.64436">
        <ele>436.4</ele>
        <time>2019-06-16T06:48:56Z</time>
      </trkpt>
      <trkpt lat="45.61803" lon="4.64428">
        <ele>437.2</ele>
        <time>2019-06-16T06:49:01Z</time>
      </trkpt>
      <trkpt lat="45.61802" lon="4.64425">
        <ele>437.6</ele>
        <time>2019-06-16T06:49:03Z</time>
      </trkpt>
      <trkpt lat="45.618" lon="4.64419">
        <ele>438.2</ele>
        <time>2019-06-16T06:49:07Z</time>
      </trkpt>
      <trkpt lat="45.61798" lon="4.64413">
        <ele>438.8</ele>
        <time>2019-06-16T06:49:11Z</time>
      </trkpt>
      <trkpt lat="45.61797" lon="4.6441">
        <ele>439</ele>
        <time>2019-06-16T06:49:13Z</time>
      </trkpt>
      <trkpt lat="45.61795" lon="4.64399">
        <ele>439.8</ele>
        <time>2019-06-16T06:49:20Z</time>
      </trkpt>
      <trkpt lat="45.61793" lon="4.64384">
        <ele>440.9</ele>
        <time>2019-06-16T06:49:27Z</time>
      </trkpt>
      <trkpt lat="45.61792" lon="4.64376">
        <ele>441.6</ele>
        <time>2019-06-16T06:49:32Z</time>
      </trkpt>
      <trkpt lat="45.61792" lon="4.64371">
        <ele>442</ele>
        <time>2019-06-16T06:49:35Z</time>
      </trkpt>
      <trkpt lat="45.61791" lon="4.64363">
        <ele>442.5</ele>
        <time>2019-06-16T06:49:39Z</time>
      </trkpt>
      <trkpt lat="45.61791" lon="4.64354">
        <ele>443.1</ele>
        <time>2019-06-16T06:49:44Z</time>
      </trkpt>
      <trkpt lat="45.61791" lon="4.64351">
        <ele>443.3</ele>
        <time>2019-06-16T06:49:46Z</time>
      </trkpt>
      <trkpt lat="45.6179" lon="4.6435">
        <ele>443.4</ele>
        <time>2019-06-16T06:49:47Z</time>
      </trkpt>
      <trkpt lat="45.61791" lon="4.64343">
        <ele>443.8</ele>
        <time>2019-06-16T06:49:51Z</time>
      </trkpt>
      <trkpt lat="45.61791" lon="4.64334">
        <ele>444.4</ele>
        <time>2019-06-16T06:49:56Z</time>
      </trkpt>
      <trkpt lat="45.61791" lon="4.64331">
        <ele>444.6</ele>
        <time>2019-06-16T06:49:58Z</time>
      </trkpt>
      <trkpt lat="45.61791" lon="4.64329">
        <ele>444.7</ele>
        <time>2019-06-16T06:49:59Z</time>
      </trkpt>
      <trkpt lat="45.61791" lon="4.64327">
        <ele>444.9</ele>
        <time>2019-06-16T06:50:00Z</time>
      </trkpt>
      <trkpt lat="45.61791" lon="4.64323">
        <ele>445.2</ele>
        <time>2019-06-16T06:50:02Z</time>
      </trkpt>
      <trkpt lat="45.61792" lon="4.64318">
        <ele>445.5</ele>
        <time>2019-06-16T06:50:04Z</time>
      </trkpt>
      <trkpt lat="45.61791" lon="4.64307">
        <ele>446.3</ele>
        <time>2019-06-16T06:50:09Z</time>
      </trkpt>
      <trkpt lat="45.61792" lon="4.64297">
        <ele>446.9</ele>
        <time>2019-06-16T06:50:14Z</time>
      </trkpt>
      <trkpt lat="45.61793" lon="4.64295">
        <ele>447</ele>
        <time>2019-06-16T06:50:15Z</time>
      </trkpt>
      <trkpt lat="45.61792" lon="4.64268">
        <ele>448.7</ele>
        <time>2019-06-16T06:50:29Z</time>
      </trkpt>
      <trkpt lat="45.61792" lon="4.64263">
        <ele>449.1</ele>
        <time>2019-06-16T06:50:32Z</time>
      </trkpt>
      <trkpt lat="45.61792" lon="4.64248">
        <ele>450</ele>
        <time>2019-06-16T06:50:40Z</time>
      </trkpt>
      <trkpt lat="45.61791" lon="4.64233">
        <ele>451</ele>
        <time>2019-06-16T06:50:47Z</time>
      </trkpt>
      <trkpt lat="45.6179" lon="4.64229">
        <ele>451.4</ele>
        <time>2019-06-16T06:50:49Z</time>
      </trkpt>
      <trkpt lat="45.61789" lon="4.6422">
        <ele>452.2</ele>
        <time>2019-06-16T06:50:53Z</time>
      </trkpt>
      <trkpt lat="45.61789" lon="4.64216">
        <ele>452.5</ele>
        <time>2019-06-16T06:50:55Z</time>
      </trkpt>
      <trkpt lat="45.61788" lon="4.64208">
        <ele>453.1</ele>
        <time>2019-06-16T06:50:59Z</time>
      </trkpt>
      <trkpt lat="45.61787" lon="4.64206">
        <ele>453.2</ele>
        <time>2019-06-16T06:51:00Z</time>
      </trkpt>
      <trkpt lat="45.61782" lon="4.64186">
        <ele>454.7</ele>
        <time>2019-06-16T06:51:09Z</time>
      </trkpt>
      <trkpt lat="45.6178" lon="4.64174">
        <ele>455.5</ele>
        <time>2019-06-16T06:51:15Z</time>
      </trkpt>
      <trkpt lat="45.6178" lon="4.64171">
        <ele>455.6</ele>
        <time>2019-06-16T06:51:16Z</time>
      </trkpt>
      <trkpt lat="45.61779" lon="4.64169">
        <ele>455.8</ele>
        <time>2019-06-16T06:51:17Z</time>
      </trkpt>
      <trkpt lat="45.61777" lon="4.64159">
        <ele>456.4</ele>
        <time>2019-06-16T06:51:22Z</time>
      </trkpt>
      <trkpt lat="45.61776" lon="4.64156">
        <ele>456.7</ele>
        <time>2019-06-16T06:51:24Z</time>
      </trkpt>
      <trkpt lat="45.61775" lon="4.64154">
        <ele>456.8</ele>
        <time>2019-06-16T06:51:25Z</time>
      </trkpt>
      <trkpt lat="45.61772" lon="4.64142">
        <ele>457.5</ele>
        <time>2019-06-16T06:51:31Z</time>
      </trkpt>
      <trkpt lat="45.61772" lon="4.6414">
        <ele>457.6</ele>
        <time>2019-06-16T06:51:32Z</time>
      </trkpt>
      <trkpt lat="45.61771" lon="4.64133">
        <ele>458</ele>
        <time>2019-06-16T06:51:35Z</time>
      </trkpt>
      <trkpt lat="45.61771" lon="4.64117">
        <ele>458.9</ele>
        <time>2019-06-16T06:51:42Z</time>
      </trkpt>
      <trkpt lat="45.6177" lon="4.64113">
        <ele>459.2</ele>
        <time>2019-06-16T06:51:44Z</time>
      </trkpt>
      <trkpt lat="45.61769" lon="4.64098">
        <ele>460</ele>
        <time>2019-06-16T06:51:50Z</time>
      </trkpt>
      <trkpt lat="45.61764" lon="4.64083">
        <ele>460.7</ele>
        <time>2019-06-16T06:51:56Z</time>
      </trkpt>
      <trkpt lat="45.61765" lon="4.6408">
        <ele>460.9</ele>
        <time>2019-06-16T06:51:57Z</time>
      </trkpt>
      <trkpt lat="45.61763" lon="4.64056">
        <ele>461.9</ele>
        <time>2019-06-16T06:52:05Z</time>
      </trkpt>
      <trkpt lat="45.61763" lon="4.64053">
        <ele>462</ele>
        <time>2019-06-16T06:52:06Z</time>
      </trkpt>
      <trkpt lat="45.61764" lon="4.6404">
        <ele>463.4</ele>
        <time>2019-06-16T06:52:11Z</time>
      </trkpt>
      <trkpt lat="45.61769" lon="4.6403">
        <ele>464.7</ele>
        <time>2019-06-16T06:52:16Z</time>
      </trkpt>
      <trkpt lat="45.61777" lon="4.64022">
        <ele>465.7</ele>
        <time>2019-06-16T06:52:22Z</time>
      </trkpt>
      <trkpt lat="45.61779" lon="4.6402">
        <ele>465.9</ele>
        <time>2019-06-16T06:52:23Z</time>
      </trkpt>
      <trkpt lat="45.61792" lon="4.64007">
        <ele>467.5</ele>
        <time>2019-06-16T06:52:31Z</time>
      </trkpt>
      <trkpt lat="45.61795" lon="4.64004">
        <ele>468.1</ele>
        <time>2019-06-16T06:52:33Z</time>
      </trkpt>
      <trkpt lat="45.61805" lon="4.63994">
        <ele>469.6</ele>
        <time>2019-06-16T06:52:39Z</time>
      </trkpt>
      <trkpt lat="45.6181" lon="4.63987">
        <ele>470.7</ele>
        <time>2019-06-16T06:52:43Z</time>
      </trkpt>
      <trkpt lat="45.61813" lon="4.63983">
        <ele>471.3</ele>
        <time>2019-06-16T06:52:45Z</time>
      </trkpt>
      <trkpt lat="45.61822" lon="4.63968">
        <ele>473.4</ele>
        <time>2019-06-16T06:52:52Z</time>
      </trkpt>
      <trkpt lat="45.61824" lon="4.63966">
        <ele>473.7</ele>
        <time>2019-06-16T06:52:53Z</time>
      </trkpt>
      <trkpt lat="45.6183" lon="4.63957">
        <ele>474.9</ele>
        <time>2019-06-16T06:52:58Z</time>
      </trkpt>
      <trkpt lat="45.61833" lon="4.63952">
        <ele>475.6</ele>
        <time>2019-06-16T06:53:01Z</time>
      </trkpt>
      <trkpt lat="45.61837" lon="4.63946">
        <ele>476.5</ele>
        <time>2019-06-16T06:53:04Z</time>
      </trkpt>
      <trkpt lat="45.61842" lon="4.63938">
        <ele>478</ele>
        <time>2019-06-16T06:53:09Z</time>
      </trkpt>
      <trkpt lat="45.61844" lon="4.63937">
        <ele>478.3</ele>
        <time>2019-06-16T06:53:10Z</time>
      </trkpt>
      <trkpt lat="45.61849" lon="4.63932">
        <ele>479.4</ele>
        <time>2019-06-16T06:53:14Z</time>
      </trkpt>
      <trkpt lat="45.61853" lon="4.63929">
        <ele>480.2</ele>
        <time>2019-06-16T06:53:17Z</time>
      </trkpt>
      <trkpt lat="45.61855" lon="4.63928">
        <ele>480.5</ele>
        <time>2019-06-16T06:53:18Z</time>
      </trkpt>
      <trkpt lat="45.6186" lon="4.63924">
        <ele>481.5</ele>
        <time>2019-06-16T06:53:22Z</time>
      </trkpt>
      <trkpt lat="45.61865" lon="4.63921">
        <ele>482.3</ele>
        <time>2019-06-16T06:53:25Z</time>
      </trkpt>
      <trkpt lat="45.61867" lon="4.6392">
        <ele>482.6</ele>
        <time>2019-06-16T06:53:26Z</time>
      </trkpt>
      <trkpt lat="45.61875" lon="4.63915">
        <ele>483.8</ele>
        <time>2019-06-16T06:53:31Z</time>
      </trkpt>
      <trkpt lat="45.61879" lon="4.63914">
        <ele>484.4</ele>
        <time>2019-06-16T06:53:33Z</time>
      </trkpt>
      <trkpt lat="45.61886" lon="4.63911">
        <ele>485.5</ele>
        <time>2019-06-16T06:53:37Z</time>
      </trkpt>
      <trkpt lat="45.61897" lon="4.63906">
        <ele>487.8</ele>
        <time>2019-06-16T06:53:44Z</time>
      </trkpt>
      <trkpt lat="45.61899" lon="4.63905">
        <ele>488</ele>
        <time>2019-06-16T06:53:45Z</time>
      </trkpt>
      <trkpt lat="45.61906" lon="4.63902">
        <ele>489</ele>
        <time>2019-06-16T06:53:49Z</time>
      </trkpt>
      <trkpt lat="45.61913" lon="4.63898">
        <ele>490.1</ele>
        <time>2019-06-16T06:53:54Z</time>
      </trkpt>
      <trkpt lat="45.61915" lon="4.63897">
        <ele>490.3</ele>
        <time>2019-06-16T06:53:55Z</time>
      </trkpt>
      <trkpt lat="45.61921" lon="4.63894">
        <ele>491.2</ele>
        <time>2019-06-16T06:53:59Z</time>
      </trkpt>
      <trkpt lat="45.61932" lon="4.6389">
        <ele>492.7</ele>
        <time>2019-06-16T06:54:06Z</time>
      </trkpt>
      <trkpt lat="45.61933" lon="4.63889">
        <ele>492.9</ele>
        <time>2019-06-16T06:54:07Z</time>
      </trkpt>
      <trkpt lat="45.61937" lon="4.63887">
        <ele>493.3</ele>
        <time>2019-06-16T06:54:10Z</time>
      </trkpt>
      <trkpt lat="45.61943" lon="4.63888">
        <ele>493.7</ele>
        <time>2019-06-16T06:54:13Z</time>
      </trkpt>
      <trkpt lat="45.61948" lon="4.63888">
        <ele>494</ele>
        <time>2019-06-16T06:54:16Z</time>
      </trkpt>
      <trkpt lat="45.61958" lon="4.63891">
        <ele>494.8</ele>
        <time>2019-06-16T06:54:21Z</time>
      </trkpt>
      <trkpt lat="45.6196" lon="4.63892">
        <ele>494.9</ele>
        <time>2019-06-16T06:54:22Z</time>
      </trkpt>
      <trkpt lat="45.61968" lon="4.63895">
        <ele>495.4</ele>
        <time>2019-06-16T06:54:26Z</time>
      </trkpt>
      <trkpt lat="45.61975" lon="4.63898">
        <ele>495.9</ele>
        <time>2019-06-16T06:54:30Z</time>
      </trkpt>
      <trkpt lat="45.61978" lon="4.63901">
        <ele>496.1</ele>
        <time>2019-06-16T06:54:32Z</time>
      </trkpt>
      <trkpt lat="45.61991" lon="4.63909">
        <ele>496.7</ele>
        <time>2019-06-16T06:54:38Z</time>
      </trkpt>
      <trkpt lat="45.61993" lon="4.6391">
        <ele>496.8</ele>
        <time>2019-06-16T06:54:39Z</time>
      </trkpt>
      <trkpt lat="45.62006" lon="4.63923">
        <ele>497.1</ele>
        <time>2019-06-16T06:54:46Z</time>
      </trkpt>
      <trkpt lat="45.62008" lon="4.63925">
        <ele>497.1</ele>
        <time>2019-06-16T06:54:47Z</time>
      </trkpt>
      <trkpt lat="45.62016" lon="4.63934">
        <ele>497.2</ele>
        <time>2019-06-16T06:54:52Z</time>
      </trkpt>
      <trkpt lat="45.6202" lon="4.63937">
        <ele>497.2</ele>
        <time>2019-06-16T06:54:54Z</time>
      </trkpt>
      <trkpt lat="45.6203" lon="4.63949">
        <ele>497.3</ele>
        <time>2019-06-16T06:55:00Z</time>
      </trkpt>
      <trkpt lat="45.62036" lon="4.63957">
        <ele>497.3</ele>
        <time>2019-06-16T06:55:04Z</time>
      </trkpt>
      <trkpt lat="45.62042" lon="4.63962">
        <ele>497.3</ele>
        <time>2019-06-16T06:55:07Z</time>
      </trkpt>
      <trkpt lat="45.6205" lon="4.63967">
        <ele>497.1</ele>
        <time>2019-06-16T06:55:11Z</time>
      </trkpt>
      <trkpt lat="45.62055" lon="4.63967">
        <ele>497.1</ele>
        <time>2019-06-16T06:55:13Z</time>
      </trkpt>
      <trkpt lat="45.62063" lon="4.63968">
        <ele>497.7</ele>
        <time>2019-06-16T06:55:17Z</time>
      </trkpt>
      <trkpt lat="45.62067" lon="4.63968">
        <ele>497.9</ele>
        <time>2019-06-16T06:55:19Z</time>
      </trkpt>
      <trkpt lat="45.62073" lon="4.6397">
        <ele>498.2</ele>
        <time>2019-06-16T06:55:23Z</time>
      </trkpt>
      <trkpt lat="45.62075" lon="4.6397">
        <ele>498.2</ele>
        <time>2019-06-16T06:55:24Z</time>
      </trkpt>
      <trkpt lat="45.6208" lon="4.63969">
        <ele>498.5</ele>
        <time>2019-06-16T06:55:27Z</time>
      </trkpt>
      <trkpt lat="45.62084" lon="4.63964">
        <ele>498.7</ele>
        <time>2019-06-16T06:55:30Z</time>
      </trkpt>
      <trkpt lat="45.62086" lon="4.63961">
        <ele>501.2</ele>
        <time>2019-06-16T06:55:32Z</time>
      </trkpt>
      <trkpt lat="45.62089" lon="4.6395">
        <ele>502.3</ele>
        <time>2019-06-16T06:55:37Z</time>
      </trkpt>
      <trkpt lat="45.62088" lon="4.63938">
        <ele>503.3</ele>
        <time>2019-06-16T06:55:42Z</time>
      </trkpt>
      <trkpt lat="45.62088" lon="4.63934">
        <ele>503.6</ele>
        <time>2019-06-16T06:55:44Z</time>
      </trkpt>
      <trkpt lat="45.62087" lon="4.63928">
        <ele>504.2</ele>
        <time>2019-06-16T06:55:47Z</time>
      </trkpt>
      <trkpt lat="45.62091" lon="4.63923">
        <ele>506.1</ele>
        <time>2019-06-16T06:55:52Z</time>
      </trkpt>
      <trkpt lat="45.62095" lon="4.63924">
        <ele>506.8</ele>
        <time>2019-06-16T06:55:55Z</time>
      </trkpt>
      <trkpt lat="45.62101" lon="4.63927">
        <ele>507.3</ele>
        <time>2019-06-16T06:55:58Z</time>
      </trkpt>
      <trkpt lat="45.62103" lon="4.63928">
        <ele>507.4</ele>
        <time>2019-06-16T06:55:59Z</time>
      </trkpt>
      <trkpt lat="45.6212" lon="4.63926">
        <ele>508.5</ele>
        <time>2019-06-16T06:56:04Z</time>
      </trkpt>
      <trkpt lat="45.62143" lon="4.63926">
        <ele>509.3</ele>
        <time>2019-06-16T06:56:11Z</time>
      </trkpt>
      <trkpt lat="45.62165" lon="4.63925">
        <ele>509.2</ele>
        <time>2019-06-16T06:56:17Z</time>
      </trkpt>
      <trkpt lat="45.62197" lon="4.63921">
        <ele>509.5</ele>
        <time>2019-06-16T06:56:25Z</time>
      </trkpt>
      <trkpt lat="45.62205" lon="4.63921">
        <ele>509.6</ele>
        <time>2019-06-16T06:56:27Z</time>
      </trkpt>
      <trkpt lat="45.62241" lon="4.63921">
        <ele>509.9</ele>
        <time>2019-06-16T06:56:36Z</time>
      </trkpt>
      <trkpt lat="45.62264" lon="4.63924">
        <ele>509.4</ele>
        <time>2019-06-16T06:56:42Z</time>
      </trkpt>
      <trkpt lat="45.62281" lon="4.63927">
        <ele>507.4</ele>
        <time>2019-06-16T06:56:46Z</time>
      </trkpt>
      <trkpt lat="45.62294" lon="4.63927">
        <ele>506.8</ele>
        <time>2019-06-16T06:56:49Z</time>
      </trkpt>
      <trkpt lat="45.62301" lon="4.63928">
        <ele>506.6</ele>
        <time>2019-06-16T06:56:51Z</time>
      </trkpt>
      <trkpt lat="45.62309" lon="4.63928">
        <ele>506.3</ele>
        <time>2019-06-16T06:56:54Z</time>
      </trkpt>
      <trkpt lat="45.62319" lon="4.63917">
        <ele>506.2</ele>
        <time>2019-06-16T06:56:58Z</time>
      </trkpt>
      <trkpt lat="45.62321" lon="4.63896">
        <ele>506.4</ele>
        <time>2019-06-16T06:57:02Z</time>
      </trkpt>
      <trkpt lat="45.62329" lon="4.63871">
        <ele>506.6</ele>
        <time>2019-06-16T06:57:07Z</time>
      </trkpt>
      <trkpt lat="45.62346" lon="4.63833">
        <ele>506.7</ele>
        <time>2019-06-16T06:57:14Z</time>
      </trkpt>
      <trkpt lat="45.62357" lon="4.63788">
        <ele>506.8</ele>
        <time>2019-06-16T06:57:21Z</time>
      </trkpt>
      <trkpt lat="45.62362" lon="4.63741">
        <ele>507.3</ele>
        <time>2019-06-16T06:57:28Z</time>
      </trkpt>
      <trkpt lat="45.62374" lon="4.63706">
        <ele>508.6</ele>
        <time>2019-06-16T06:57:34Z</time>
      </trkpt>
      <trkpt lat="45.62377" lon="4.63702">
        <ele>508.9</ele>
        <time>2019-06-16T06:57:35Z</time>
      </trkpt>
      <trkpt lat="45.62384" lon="4.63694">
        <ele>509.8</ele>
        <time>2019-06-16T06:57:37Z</time>
      </trkpt>
      <trkpt lat="45.62392" lon="4.63687">
        <ele>511</ele>
        <time>2019-06-16T06:57:39Z</time>
      </trkpt>
      <trkpt lat="45.62399" lon="4.6368">
        <ele>511.9</ele>
        <time>2019-06-16T06:57:41Z</time>
      </trkpt>
      <trkpt lat="45.62405" lon="4.63673">
        <ele>512.7</ele>
        <time>2019-06-16T06:57:43Z</time>
      </trkpt>
      <trkpt lat="45.6241" lon="4.63665">
        <ele>513.3</ele>
        <time>2019-06-16T06:57:45Z</time>
      </trkpt>
      <trkpt lat="45.62413" lon="4.63659">
        <ele>513.4</ele>
        <time>2019-06-16T06:57:46Z</time>
      </trkpt>
      <trkpt lat="45.62416" lon="4.63654">
        <ele>513.6</ele>
        <time>2019-06-16T06:57:47Z</time>
      </trkpt>
      <trkpt lat="45.62423" lon="4.6364">
        <ele>514</ele>
        <time>2019-06-16T06:57:50Z</time>
      </trkpt>
      <trkpt lat="45.62425" lon="4.63635">
        <ele>514.1</ele>
        <time>2019-06-16T06:57:51Z</time>
      </trkpt>
      <trkpt lat="45.62429" lon="4.63619">
        <ele>514.4</ele>
        <time>2019-06-16T06:57:54Z</time>
      </trkpt>
      <trkpt lat="45.62433" lon="4.63603">
        <ele>514.9</ele>
        <time>2019-06-16T06:57:57Z</time>
      </trkpt>
      <trkpt lat="45.62435" lon="4.63597">
        <ele>515.1</ele>
        <time>2019-06-16T06:57:58Z</time>
      </trkpt>
      <trkpt lat="45.62438" lon="4.63583">
        <ele>515.8</ele>
        <time>2019-06-16T06:58:01Z</time>
      </trkpt>
      <trkpt lat="45.6244" lon="4.63568">
        <ele>516.3</ele>
        <time>2019-06-16T06:58:04Z</time>
      </trkpt>
      <trkpt lat="45.62442" lon="4.63552">
        <ele>517</ele>
        <time>2019-06-16T06:58:07Z</time>
      </trkpt>
      <trkpt lat="45.62447" lon="4.63533">
        <ele>517.8</ele>
        <time>2019-06-16T06:58:11Z</time>
      </trkpt>
      <trkpt lat="45.62456" lon="4.63506">
        <ele>518.7</ele>
        <time>2019-06-16T06:58:17Z</time>
      </trkpt>
      <trkpt lat="45.62457" lon="4.63493">
        <ele>519.1</ele>
        <time>2019-06-16T06:58:20Z</time>
      </trkpt>
      <trkpt lat="45.6246" lon="4.63487">
        <ele>519.2</ele>
        <time>2019-06-16T06:58:22Z</time>
      </trkpt>
      <trkpt lat="45.62463" lon="4.63483">
        <ele>519.2</ele>
        <time>2019-06-16T06:58:24Z</time>
      </trkpt>
      <trkpt lat="45.62474" lon="4.63464">
        <ele>519.6</ele>
        <time>2019-06-16T06:58:29Z</time>
      </trkpt>
      <trkpt lat="45.62481" lon="4.63456">
        <ele>519.7</ele>
        <time>2019-06-16T06:58:32Z</time>
      </trkpt>
      <trkpt lat="45.6249" lon="4.63449">
        <ele>519.8</ele>
        <time>2019-06-16T06:58:35Z</time>
      </trkpt>
      <trkpt lat="45.62508" lon="4.63446">
        <ele>519.1</ele>
        <time>2019-06-16T06:58:41Z</time>
      </trkpt>
      <trkpt lat="45.62522" lon="4.63455">
        <ele>518.1</ele>
        <time>2019-06-16T06:58:45Z</time>
      </trkpt>
      <trkpt lat="45.62526" lon="4.63458">
        <ele>517.7</ele>
        <time>2019-06-16T06:58:46Z</time>
      </trkpt>
      <trkpt lat="45.62555" lon="4.63482">
        <ele>512.5</ele>
        <time>2019-06-16T06:58:52Z</time>
      </trkpt>
      <trkpt lat="45.62581" lon="4.63503">
        <ele>507.9</ele>
        <time>2019-06-16T06:58:57Z</time>
      </trkpt>
      <trkpt lat="45.62589" lon="4.63513">
        <ele>506.6</ele>
        <time>2019-06-16T06:58:59Z</time>
      </trkpt>
      <trkpt lat="45.6261" lon="4.63543">
        <ele>503.1</ele>
        <time>2019-06-16T06:59:04Z</time>
      </trkpt>
      <trkpt lat="45.62621" lon="4.63568">
        <ele>500.1</ele>
        <time>2019-06-16T06:59:07Z</time>
      </trkpt>
      <trkpt lat="45.62627" lon="4.63587">
        <ele>497.9</ele>
        <time>2019-06-16T06:59:09Z</time>
      </trkpt>
      <trkpt lat="45.6263" lon="4.63598">
        <ele>496.6</ele>
        <time>2019-06-16T06:59:10Z</time>
      </trkpt>
      <trkpt lat="45.62636" lon="4.63621">
        <ele>494</ele>
        <time>2019-06-16T06:59:12Z</time>
      </trkpt>
      <trkpt lat="45.62643" lon="4.63647">
        <ele>490.8</ele>
        <time>2019-06-16T06:59:14Z</time>
      </trkpt>
      <trkpt lat="45.62647" lon="4.6366">
        <ele>489.4</ele>
        <time>2019-06-16T06:59:15Z</time>
      </trkpt>
      <trkpt lat="45.62656" lon="4.63682">
        <ele>486.7</ele>
        <time>2019-06-16T06:59:17Z</time>
      </trkpt>
      <trkpt lat="45.6266" lon="4.63692">
        <ele>485.5</ele>
        <time>2019-06-16T06:59:18Z</time>
      </trkpt>
      <trkpt lat="45.62662" lon="4.63701">
        <ele>484.5</ele>
        <time>2019-06-16T06:59:19Z</time>
      </trkpt>
      <trkpt lat="45.62662" lon="4.6371">
        <ele>483.6</ele>
        <time>2019-06-16T06:59:20Z</time>
      </trkpt>
      <trkpt lat="45.62664" lon="4.63718">
        <ele>482.7</ele>
        <time>2019-06-16T06:59:21Z</time>
      </trkpt>
      <trkpt lat="45.62666" lon="4.63727">
        <ele>481.9</ele>
        <time>2019-06-16T06:59:22Z</time>
      </trkpt>
      <trkpt lat="45.62667" lon="4.63736">
        <ele>481.2</ele>
        <time>2019-06-16T06:59:23Z</time>
      </trkpt>
      <trkpt lat="45.62666" lon="4.63742">
        <ele>480.7</ele>
        <time>2019-06-16T06:59:24Z</time>
      </trkpt>
      <trkpt lat="45.62665" lon="4.6375">
        <ele>480.2</ele>
        <time>2019-06-16T06:59:25Z</time>
      </trkpt>
      <trkpt lat="45.62665" lon="4.63758">
        <ele>479.5</ele>
        <time>2019-06-16T06:59:26Z</time>
      </trkpt>
      <trkpt lat="45.62669" lon="4.63768">
        <ele>478.6</ele>
        <time>2019-06-16T06:59:28Z</time>
      </trkpt>
      <trkpt lat="45.62673" lon="4.63773">
        <ele>477.9</ele>
        <time>2019-06-16T06:59:29Z</time>
      </trkpt>
      <trkpt lat="45.62677" lon="4.63777">
        <ele>477.1</ele>
        <time>2019-06-16T06:59:30Z</time>
      </trkpt>
      <trkpt lat="45.62683" lon="4.63783">
        <ele>475.8</ele>
        <time>2019-06-16T06:59:32Z</time>
      </trkpt>
      <trkpt lat="45.62689" lon="4.63789">
        <ele>474.3</ele>
        <time>2019-06-16T06:59:34Z</time>
      </trkpt>
      <trkpt lat="45.62693" lon="4.63796">
        <ele>473</ele>
        <time>2019-06-16T06:59:36Z</time>
      </trkpt>
      <trkpt lat="45.62695" lon="4.63799">
        <ele>472.5</ele>
        <time>2019-06-16T06:59:37Z</time>
      </trkpt>
      <trkpt lat="45.62697" lon="4.63802">
        <ele>471.8</ele>
        <time>2019-06-16T06:59:38Z</time>
      </trkpt>
      <trkpt lat="45.627" lon="4.63806">
        <ele>470.9</ele>
        <time>2019-06-16T06:59:39Z</time>
      </trkpt>
      <trkpt lat="45.62703" lon="4.63811">
        <ele>469.9</ele>
        <time>2019-06-16T06:59:40Z</time>
      </trkpt>
      <trkpt lat="45.62706" lon="4.63815">
        <ele>468.9</ele>
        <time>2019-06-16T06:59:41Z</time>
      </trkpt>
      <trkpt lat="45.62709" lon="4.63819">
        <ele>468</ele>
        <time>2019-06-16T06:59:42Z</time>
      </trkpt>
      <trkpt lat="45.62712" lon="4.63821">
        <ele>467.4</ele>
        <time>2019-06-16T06:59:43Z</time>
      </trkpt>
      <trkpt lat="45.62714" lon="4.63822">
        <ele>466.9</ele>
        <time>2019-06-16T06:59:44Z</time>
      </trkpt>
      <trkpt lat="45.62719" lon="4.63827">
        <ele>465.6</ele>
        <time>2019-06-16T06:59:46Z</time>
      </trkpt>
      <trkpt lat="45.62722" lon="4.63829">
        <ele>464.9</ele>
        <time>2019-06-16T06:59:47Z</time>
      </trkpt>
      <trkpt lat="45.62725" lon="4.63831">
        <ele>464.2</ele>
        <time>2019-06-16T06:59:48Z</time>
      </trkpt>
      <trkpt lat="45.62727" lon="4.63832">
        <ele>463.6</ele>
        <time>2019-06-16T06:59:49Z</time>
      </trkpt>
      <trkpt lat="45.6273" lon="4.63834">
        <ele>462.9</ele>
        <time>2019-06-16T06:59:50Z</time>
      </trkpt>
      <trkpt lat="45.62737" lon="4.63838">
        <ele>461.5</ele>
        <time>2019-06-16T06:59:52Z</time>
      </trkpt>
      <trkpt lat="45.62744" lon="4.63844">
        <ele>459.9</ele>
        <time>2019-06-16T06:59:54Z</time>
      </trkpt>
      <trkpt lat="45.62752" lon="4.63847">
        <ele>458.4</ele>
        <time>2019-06-16T06:59:56Z</time>
      </trkpt>
      <trkpt lat="45.62758" lon="4.63853">
        <ele>456.8</ele>
        <time>2019-06-16T06:59:58Z</time>
      </trkpt>
      <trkpt lat="45.62762" lon="4.63854">
        <ele>456</ele>
        <time>2019-06-16T06:59:59Z</time>
      </trkpt>
      <trkpt lat="45.62765" lon="4.63856">
        <ele>455.4</ele>
        <time>2019-06-16T07:00:00Z</time>
      </trkpt>
      <trkpt lat="45.62772" lon="4.6386">
        <ele>454.2</ele>
        <time>2019-06-16T07:00:02Z</time>
      </trkpt>
      <trkpt lat="45.62778" lon="4.63868">
        <ele>452.8</ele>
        <time>2019-06-16T07:00:04Z</time>
      </trkpt>
      <trkpt lat="45.6278" lon="4.63871">
        <ele>452.2</ele>
        <time>2019-06-16T07:00:05Z</time>
      </trkpt>
      <trkpt lat="45.62786" lon="4.63875">
        <ele>451.4</ele>
        <time>2019-06-16T07:00:07Z</time>
      </trkpt>
      <trkpt lat="45.62792" lon="4.63879">
        <ele>450.6</ele>
        <time>2019-06-16T07:00:09Z</time>
      </trkpt>
      <trkpt lat="45.62796" lon="4.63884">
        <ele>450</ele>
        <time>2019-06-16T07:00:10Z</time>
      </trkpt>
      <trkpt lat="45.628" lon="4.63889">
        <ele>449.4</ele>
        <time>2019-06-16T07:00:11Z</time>
      </trkpt>
      <trkpt lat="45.62808" lon="4.63897">
        <ele>448.1</ele>
        <time>2019-06-16T07:00:13Z</time>
      </trkpt>
      <trkpt lat="45.62817" lon="4.63906">
        <ele>446.7</ele>
        <time>2019-06-16T07:00:15Z</time>
      </trkpt>
      <trkpt lat="45.62826" lon="4.63913">
        <ele>445.5</ele>
        <time>2019-06-16T07:00:17Z</time>
      </trkpt>
      <trkpt lat="45.62831" lon="4.63917">
        <ele>444.7</ele>
        <time>2019-06-16T07:00:19Z</time>
      </trkpt>
      <trkpt lat="45.62834" lon="4.63919">
        <ele>444.4</ele>
        <time>2019-06-16T07:00:20Z</time>
      </trkpt>
      <trkpt lat="45.62836" lon="4.6392">
        <ele>444.1</ele>
        <time>2019-06-16T07:00:21Z</time>
      </trkpt>
      <trkpt lat="45.62844" lon="4.63925">
        <ele>443.1</ele>
        <time>2019-06-16T07:00:24Z</time>
      </trkpt>
      <trkpt lat="45.62848" lon="4.63928">
        <ele>442.6</ele>
        <time>2019-06-16T07:00:26Z</time>
      </trkpt>
      <trkpt lat="45.62853" lon="4.6393">
        <ele>441.9</ele>
        <time>2019-06-16T07:00:28Z</time>
      </trkpt>
      <trkpt lat="45.6286" lon="4.63935">
        <ele>440.2</ele>
        <time>2019-06-16T07:00:31Z</time>
      </trkpt>
      <trkpt lat="45.62865" lon="4.63936">
        <ele>439.1</ele>
        <time>2019-06-16T07:00:33Z</time>
      </trkpt>
      <trkpt lat="45.6287" lon="4.63938">
        <ele>437.9</ele>
        <time>2019-06-16T07:00:36Z</time>
      </trkpt>
      <trkpt lat="45.62884" lon="4.63952">
        <ele>433.9</ele>
        <time>2019-06-16T07:00:58Z</time>
      </trkpt>
      <trkpt lat="45.62885" lon="4.63955">
        <ele>433.1</ele>
        <time>2019-06-16T07:00:59Z</time>
      </trkpt>
      <trkpt lat="45.62889" lon="4.63962">
        <ele>431.8</ele>
        <time>2019-06-16T07:01:01Z</time>
      </trkpt>
      <trkpt lat="45.62893" lon="4.63971">
        <ele>429.7</ele>
        <time>2019-06-16T07:01:03Z</time>
      </trkpt>
      <trkpt lat="45.62899" lon="4.63981">
        <ele>427.8</ele>
        <time>2019-06-16T07:01:05Z</time>
      </trkpt>
      <trkpt lat="45.62904" lon="4.63991">
        <ele>426</ele>
        <time>2019-06-16T07:01:07Z</time>
      </trkpt>
      <trkpt lat="45.62914" lon="4.64007">
        <ele>424.3</ele>
        <time>2019-06-16T07:01:11Z</time>
      </trkpt>
      <trkpt lat="45.62917" lon="4.6401">
        <ele>424.2</ele>
        <time>2019-06-16T07:01:12Z</time>
      </trkpt>
      <trkpt lat="45.62922" lon="4.64015">
        <ele>424.3</ele>
        <time>2019-06-16T07:01:15Z</time>
      </trkpt>
      <trkpt lat="45.62926" lon="4.64016">
        <ele>424.4</ele>
        <time>2019-06-16T07:01:17Z</time>
      </trkpt>
      <trkpt lat="45.62928" lon="4.64018">
        <ele>424.5</ele>
        <time>2019-06-16T07:01:18Z</time>
      </trkpt>
      <trkpt lat="45.62933" lon="4.64022">
        <ele>425</ele>
        <time>2019-06-16T07:01:20Z</time>
      </trkpt>
      <trkpt lat="45.62938" lon="4.64026">
        <ele>425.6</ele>
        <time>2019-06-16T07:01:22Z</time>
      </trkpt>
      <trkpt lat="45.62945" lon="4.64025">
        <ele>427.6</ele>
        <time>2019-06-16T07:01:25Z</time>
      </trkpt>
      <trkpt lat="45.62947" lon="4.64024">
        <ele>427.6</ele>
        <time>2019-06-16T07:01:26Z</time>
      </trkpt>
      <trkpt lat="45.6296" lon="4.64016">
        <ele>428.9</ele>
        <time>2019-06-16T07:01:33Z</time>
      </trkpt>
      <trkpt lat="45.62972" lon="4.64007">
        <ele>430.2</ele>
        <time>2019-06-16T07:01:39Z</time>
      </trkpt>
      <trkpt lat="45.62989" lon="4.63997">
        <ele>431.7</ele>
        <time>2019-06-16T07:01:48Z</time>
      </trkpt>
      <trkpt lat="45.62996" lon="4.63995">
        <ele>432.3</ele>
        <time>2019-06-16T07:01:53Z</time>
      </trkpt>
      <trkpt lat="45.63" lon="4.63995">
        <ele>432.7</ele>
        <time>2019-06-16T07:01:55Z</time>
      </trkpt>
      <trkpt lat="45.6301" lon="4.63998">
        <ele>433.7</ele>
        <time>2019-06-16T07:01:59Z</time>
      </trkpt>
      <trkpt lat="45.63018" lon="4.64002">
        <ele>434.6</ele>
        <time>2019-06-16T07:02:03Z</time>
      </trkpt>
      <trkpt lat="45.63022" lon="4.64004">
        <ele>435.1</ele>
        <time>2019-06-16T07:02:05Z</time>
      </trkpt>
      <trkpt lat="45.63029" lon="4.64007">
        <ele>436</ele>
        <time>2019-06-16T07:02:09Z</time>
      </trkpt>
      <trkpt lat="45.63031" lon="4.6401">
        <ele>436.4</ele>
        <time>2019-06-16T07:02:11Z</time>
      </trkpt>
      <trkpt lat="45.63042" lon="4.64013">
        <ele>437.7</ele>
        <time>2019-06-16T07:02:17Z</time>
      </trkpt>
      <trkpt lat="45.63047" lon="4.64014">
        <ele>438.2</ele>
        <time>2019-06-16T07:02:20Z</time>
      </trkpt>
      <trkpt lat="45.63053" lon="4.64015">
        <ele>438.8</ele>
        <time>2019-06-16T07:02:24Z</time>
      </trkpt>
      <trkpt lat="45.63063" lon="4.64018">
        <ele>439.7</ele>
        <time>2019-06-16T07:02:30Z</time>
      </trkpt>
      <trkpt lat="45.63065" lon="4.64018">
        <ele>440</ele>
        <time>2019-06-16T07:02:32Z</time>
      </trkpt>
      <trkpt lat="45.63076" lon="4.64013">
        <ele>440.9</ele>
        <time>2019-06-16T07:02:38Z</time>
      </trkpt>
      <trkpt lat="45.63077" lon="4.6401">
        <ele>441.2</ele>
        <time>2019-06-16T07:02:39Z</time>
      </trkpt>
      <trkpt lat="45.63082" lon="4.63996">
        <ele>442.3</ele>
        <time>2019-06-16T07:02:44Z</time>
      </trkpt>
      <trkpt lat="45.63086" lon="4.63981">
        <ele>443.1</ele>
        <time>2019-06-16T07:02:48Z</time>
      </trkpt>
      <trkpt lat="45.63088" lon="4.63974">
        <ele>443.4</ele>
        <time>2019-06-16T07:02:50Z</time>
      </trkpt>
      <trkpt lat="45.63094" lon="4.63946">
        <ele>444.4</ele>
        <time>2019-06-16T07:02:55Z</time>
      </trkpt>
      <trkpt lat="45.63096" lon="4.63924">
        <ele>445.1</ele>
        <time>2019-06-16T07:02:58Z</time>
      </trkpt>
      <trkpt lat="45.63095" lon="4.63912">
        <ele>445.3</ele>
        <time>2019-06-16T07:03:00Z</time>
      </trkpt>
      <trkpt lat="45.63091" lon="4.63895">
        <ele>445.6</ele>
        <time>2019-06-16T07:03:05Z</time>
      </trkpt>
      <trkpt lat="45.6309" lon="4.63885">
        <ele>445.8</ele>
        <time>2019-06-16T07:03:10Z</time>
      </trkpt>
      <trkpt lat="45.63089" lon="4.6388">
        <ele>445.9</ele>
        <time>2019-06-16T07:03:12Z</time>
      </trkpt>
      <trkpt lat="45.6309" lon="4.63869">
        <ele>446.9</ele>
        <time>2019-06-16T07:03:17Z</time>
      </trkpt>
      <trkpt lat="45.63094" lon="4.63859">
        <ele>448.1</ele>
        <time>2019-06-16T07:03:22Z</time>
      </trkpt>
      <trkpt lat="45.63096" lon="4.63856">
        <ele>448.5</ele>
        <time>2019-06-16T07:03:24Z</time>
      </trkpt>
      <trkpt lat="45.63098" lon="4.63853">
        <ele>448.9</ele>
        <time>2019-06-16T07:03:26Z</time>
      </trkpt>
      <trkpt lat="45.631" lon="4.63847">
        <ele>449.5</ele>
        <time>2019-06-16T07:03:29Z</time>
      </trkpt>
      <trkpt lat="45.63103" lon="4.63842">
        <ele>450.2</ele>
        <time>2019-06-16T07:03:32Z</time>
      </trkpt>
      <trkpt lat="45.63106" lon="4.63839">
        <ele>450.6</ele>
        <time>2019-06-16T07:03:34Z</time>
      </trkpt>
      <trkpt lat="45.63109" lon="4.63837">
        <ele>451</ele>
        <time>2019-06-16T07:03:36Z</time>
      </trkpt>
      <trkpt lat="45.63115" lon="4.6383">
        <ele>452.1</ele>
        <time>2019-06-16T07:03:41Z</time>
      </trkpt>
      <trkpt lat="45.63118" lon="4.63827">
        <ele>452.5</ele>
        <time>2019-06-16T07:03:43Z</time>
      </trkpt>
      <trkpt lat="45.6312" lon="4.63823">
        <ele>452.9</ele>
        <time>2019-06-16T07:03:45Z</time>
      </trkpt>
      <trkpt lat="45.63124" lon="4.63818">
        <ele>453.8</ele>
        <time>2019-06-16T07:03:49Z</time>
      </trkpt>
      <trkpt lat="45.63127" lon="4.63815">
        <ele>454.2</ele>
        <time>2019-06-16T07:03:51Z</time>
      </trkpt>
      <trkpt lat="45.63129" lon="4.63813">
        <ele>454.6</ele>
        <time>2019-06-16T07:03:53Z</time>
      </trkpt>
      <trkpt lat="45.63133" lon="4.63808">
        <ele>455.4</ele>
        <time>2019-06-16T07:03:57Z</time>
      </trkpt>
      <trkpt lat="45.63134" lon="4.63806">
        <ele>455.7</ele>
        <time>2019-06-16T07:03:58Z</time>
      </trkpt>
      <trkpt lat="45.63142" lon="4.63797">
        <ele>457.1</ele>
        <time>2019-06-16T07:04:03Z</time>
      </trkpt>
      <trkpt lat="45.63146" lon="4.63793">
        <ele>457.9</ele>
        <time>2019-06-16T07:04:06Z</time>
      </trkpt>
      <trkpt lat="45.6315" lon="4.63788">
        <ele>458.6</ele>
        <time>2019-06-16T07:04:09Z</time>
      </trkpt>
      <trkpt lat="45.63154" lon="4.63781">
        <ele>459.5</ele>
        <time>2019-06-16T07:04:13Z</time>
      </trkpt>
      <trkpt lat="45.63156" lon="4.63775">
        <ele>460.2</ele>
        <time>2019-06-16T07:04:16Z</time>
      </trkpt>
      <trkpt lat="45.63159" lon="4.63769">
        <ele>460.9</ele>
        <time>2019-06-16T07:04:19Z</time>
      </trkpt>
      <trkpt lat="45.63162" lon="4.6376">
        <ele>461.8</ele>
        <time>2019-06-16T07:04:23Z</time>
      </trkpt>
      <trkpt lat="45.63171" lon="4.63748">
        <ele>463.2</ele>
        <time>2019-06-16T07:04:30Z</time>
      </trkpt>
      <trkpt lat="45.63173" lon="4.63747">
        <ele>463.4</ele>
        <time>2019-06-16T07:04:31Z</time>
      </trkpt>
      <trkpt lat="45.63182" lon="4.6374">
        <ele>464</ele>
        <time>2019-06-16T07:04:36Z</time>
      </trkpt>
      <trkpt lat="45.63193" lon="4.63731">
        <ele>464.9</ele>
        <time>2019-06-16T07:04:42Z</time>
      </trkpt>
      <trkpt lat="45.63195" lon="4.63729">
        <ele>465</ele>
        <time>2019-06-16T07:04:43Z</time>
      </trkpt>
      <trkpt lat="45.63203" lon="4.63712">
        <ele>466.7</ele>
        <time>2019-06-16T07:04:50Z</time>
      </trkpt>
      <trkpt lat="45.63203" lon="4.63709">
        <ele>467</ele>
        <time>2019-06-16T07:04:51Z</time>
      </trkpt>
      <trkpt lat="45.63199" lon="4.63697">
        <ele>467.8</ele>
        <time>2019-06-16T07:04:55Z</time>
      </trkpt>
      <trkpt lat="45.63196" lon="4.63686">
        <ele>468.4</ele>
        <time>2019-06-16T07:04:58Z</time>
      </trkpt>
      <trkpt lat="45.63191" lon="4.63667">
        <ele>469.3</ele>
        <time>2019-06-16T07:05:04Z</time>
      </trkpt>
      <trkpt lat="45.63186" lon="4.63643">
        <ele>470.3</ele>
        <time>2019-06-16T07:05:11Z</time>
      </trkpt>
      <trkpt lat="45.6318" lon="4.63621">
        <ele>471.5</ele>
        <time>2019-06-16T07:05:17Z</time>
      </trkpt>
      <trkpt lat="45.6318" lon="4.63618">
        <ele>471.7</ele>
        <time>2019-06-16T07:05:18Z</time>
      </trkpt>
      <trkpt lat="45.63176" lon="4.63601">
        <ele>472.4</ele>
        <time>2019-06-16T07:05:23Z</time>
      </trkpt>
      <trkpt lat="45.63173" lon="4.63586">
        <ele>472.9</ele>
        <time>2019-06-16T07:05:27Z</time>
      </trkpt>
      <trkpt lat="45.63168" lon="4.63571">
        <ele>473.4</ele>
        <time>2019-06-16T07:05:31Z</time>
      </trkpt>
      <trkpt lat="45.63162" lon="4.63554">
        <ele>474</ele>
        <time>2019-06-16T07:05:36Z</time>
      </trkpt>
      <trkpt lat="45.6316" lon="4.63543">
        <ele>474.5</ele>
        <time>2019-06-16T07:05:39Z</time>
      </trkpt>
      <trkpt lat="45.63156" lon="4.63522">
        <ele>475.6</ele>
        <time>2019-06-16T07:05:45Z</time>
      </trkpt>
      <trkpt lat="45.63155" lon="4.63516">
        <ele>476</ele>
        <time>2019-06-16T07:05:47Z</time>
      </trkpt>
      <trkpt lat="45.63154" lon="4.63513">
        <ele>476.1</ele>
        <time>2019-06-16T07:05:48Z</time>
      </trkpt>
      <trkpt lat="45.63152" lon="4.63485">
        <ele>477.1</ele>
        <time>2019-06-16T07:05:56Z</time>
      </trkpt>
      <trkpt lat="45.63151" lon="4.63456">
        <ele>478</ele>
        <time>2019-06-16T07:06:04Z</time>
      </trkpt>
      <trkpt lat="45.6315" lon="4.63449">
        <ele>478.3</ele>
        <time>2019-06-16T07:06:06Z</time>
      </trkpt>
      <trkpt lat="45.63148" lon="4.63428">
        <ele>479</ele>
        <time>2019-06-16T07:06:12Z</time>
      </trkpt>
      <trkpt lat="45.63148" lon="4.63424">
        <ele>479.2</ele>
        <time>2019-06-16T07:06:13Z</time>
      </trkpt>
      <trkpt lat="45.63142" lon="4.634">
        <ele>480.1</ele>
        <time>2019-06-16T07:06:20Z</time>
      </trkpt>
      <trkpt lat="45.63141" lon="4.63397">
        <ele>480.2</ele>
        <time>2019-06-16T07:06:21Z</time>
      </trkpt>
      <trkpt lat="45.63137" lon="4.63384">
        <ele>480.6</ele>
        <time>2019-06-16T07:06:25Z</time>
      </trkpt>
      <trkpt lat="45.63135" lon="4.63378">
        <ele>480.9</ele>
        <time>2019-06-16T07:06:27Z</time>
      </trkpt>
      <trkpt lat="45.63132" lon="4.63367">
        <ele>481.2</ele>
        <time>2019-06-16T07:06:30Z</time>
      </trkpt>
      <trkpt lat="45.63129" lon="4.63353">
        <ele>481.8</ele>
        <time>2019-06-16T07:06:34Z</time>
      </trkpt>
      <trkpt lat="45.63128" lon="4.63346">
        <ele>482.1</ele>
        <time>2019-06-16T07:06:36Z</time>
      </trkpt>
      <trkpt lat="45.63123" lon="4.63325">
        <ele>483.2</ele>
        <time>2019-06-16T07:06:42Z</time>
      </trkpt>
      <trkpt lat="45.63121" lon="4.63319">
        <ele>483.5</ele>
        <time>2019-06-16T07:06:44Z</time>
      </trkpt>
      <trkpt lat="45.6312" lon="4.63316">
        <ele>483.7</ele>
        <time>2019-06-16T07:06:45Z</time>
      </trkpt>
      <trkpt lat="45.63118" lon="4.63308">
        <ele>484.2</ele>
        <time>2019-06-16T07:06:48Z</time>
      </trkpt>
      <trkpt lat="45.63115" lon="4.63301">
        <ele>484.6</ele>
        <time>2019-06-16T07:06:51Z</time>
      </trkpt>
      <trkpt lat="45.63113" lon="4.63298">
        <ele>484.9</ele>
        <time>2019-06-16T07:06:53Z</time>
      </trkpt>
      <trkpt lat="45.6311" lon="4.63292">
        <ele>485.4</ele>
        <time>2019-06-16T07:06:56Z</time>
      </trkpt>
      <trkpt lat="45.63103" lon="4.63282">
        <ele>486.4</ele>
        <time>2019-06-16T07:07:01Z</time>
      </trkpt>
      <trkpt lat="45.63101" lon="4.63276">
        <ele>487</ele>
        <time>2019-06-16T07:07:03Z</time>
      </trkpt>
      <trkpt lat="45.63098" lon="4.6327">
        <ele>488</ele>
        <time>2019-06-16T07:07:05Z</time>
      </trkpt>
      <trkpt lat="45.63092" lon="4.63262">
        <ele>489.1</ele>
        <time>2019-06-16T07:07:09Z</time>
      </trkpt>
      <trkpt lat="45.63085" lon="4.63251">
        <ele>490.1</ele>
        <time>2019-06-16T07:07:14Z</time>
      </trkpt>
      <trkpt lat="45.63076" lon="4.63238">
        <ele>491.1</ele>
        <time>2019-06-16T07:07:19Z</time>
      </trkpt>
      <trkpt lat="45.63066" lon="4.63219">
        <ele>492.1</ele>
        <time>2019-06-16T07:07:26Z</time>
      </trkpt>
      <trkpt lat="45.63065" lon="4.63209">
        <ele>492.4</ele>
        <time>2019-06-16T07:10:17Z</time>
      </trkpt>
      <trkpt lat="45.63063" lon="4.63203">
        <ele>492.6</ele>
        <time>2019-06-16T07:10:19Z</time>
      </trkpt>
      <trkpt lat="45.63061" lon="4.63196">
        <ele>492.7</ele>
        <time>2019-06-16T07:10:21Z</time>
      </trkpt>
      <trkpt lat="45.6306" lon="4.63191">
        <ele>492.8</ele>
        <time>2019-06-16T07:10:22Z</time>
      </trkpt>
      <trkpt lat="45.6306" lon="4.63183">
        <ele>492.8</ele>
        <time>2019-06-16T07:10:24Z</time>
      </trkpt>
      <trkpt lat="45.6306" lon="4.63181">
        <ele>492.8</ele>
        <time>2019-06-16T07:10:30Z</time>
      </trkpt>
      <trkpt lat="45.6306" lon="4.63167">
        <ele>492.7</ele>
        <time>2019-06-16T07:10:33Z</time>
      </trkpt>
      <trkpt lat="45.63059" lon="4.63161">
        <ele>492.6</ele>
        <time>2019-06-16T07:10:34Z</time>
      </trkpt>
      <trkpt lat="45.6306" lon="4.63154">
        <ele>492.4</ele>
        <time>2019-06-16T07:10:35Z</time>
      </trkpt>
      <trkpt lat="45.63062" lon="4.63131">
        <ele>491.6</ele>
        <time>2019-06-16T07:10:38Z</time>
      </trkpt>
      <trkpt lat="45.63065" lon="4.63123">
        <ele>491.2</ele>
        <time>2019-06-16T07:10:39Z</time>
      </trkpt>
      <trkpt lat="45.63071" lon="4.63106">
        <ele>490.3</ele>
        <time>2019-06-16T07:10:41Z</time>
      </trkpt>
      <trkpt lat="45.63075" lon="4.63097">
        <ele>489.8</ele>
        <time>2019-06-16T07:10:42Z</time>
      </trkpt>
      <trkpt lat="45.63079" lon="4.63089">
        <ele>489.2</ele>
        <time>2019-06-16T07:10:43Z</time>
      </trkpt>
      <trkpt lat="45.63081" lon="4.63079">
        <ele>488.7</ele>
        <time>2019-06-16T07:10:44Z</time>
      </trkpt>
      <trkpt lat="45.63085" lon="4.6307">
        <ele>488.1</ele>
        <time>2019-06-16T07:10:45Z</time>
      </trkpt>
      <trkpt lat="45.63091" lon="4.63054">
        <ele>487.1</ele>
        <time>2019-06-16T07:10:47Z</time>
      </trkpt>
      <trkpt lat="45.63095" lon="4.63048">
        <ele>486.7</ele>
        <time>2019-06-16T07:10:48Z</time>
      </trkpt>
      <trkpt lat="45.63106" lon="4.63026">
        <ele>485.3</ele>
        <time>2019-06-16T07:10:51Z</time>
      </trkpt>
      <trkpt lat="45.63109" lon="4.62995">
        <ele>484</ele>
        <time>2019-06-16T07:10:54Z</time>
      </trkpt>
      <trkpt lat="45.63106" lon="4.62962">
        <ele>483.3</ele>
        <time>2019-06-16T07:10:57Z</time>
      </trkpt>
      <trkpt lat="45.63104" lon="4.62952">
        <ele>483.2</ele>
        <time>2019-06-16T07:10:58Z</time>
      </trkpt>
      <trkpt lat="45.63101" lon="4.62942">
        <ele>483.1</ele>
        <time>2019-06-16T07:10:59Z</time>
      </trkpt>
      <trkpt lat="45.63099" lon="4.62932">
        <ele>483.1</ele>
        <time>2019-06-16T07:11:00Z</time>
      </trkpt>
      <trkpt lat="45.63093" lon="4.62907">
        <ele>483</ele>
        <time>2019-06-16T07:11:03Z</time>
      </trkpt>
      <trkpt lat="45.6308" lon="4.62904">
        <ele>482.9</ele>
        <time>2019-06-16T07:11:06Z</time>
      </trkpt>
      <trkpt lat="45.63068" lon="4.62916">
        <ele>482.9</ele>
        <time>2019-06-16T07:11:09Z</time>
      </trkpt>
      <trkpt lat="45.63046" lon="4.62939">
        <ele>483.7</ele>
        <time>2019-06-16T07:11:15Z</time>
      </trkpt>
      <trkpt lat="45.6303" lon="4.62943">
        <ele>484.7</ele>
        <time>2019-06-16T07:11:20Z</time>
      </trkpt>
      <trkpt lat="45.63025" lon="4.62942">
        <ele>485.1</ele>
        <time>2019-06-16T07:11:22Z</time>
      </trkpt>
      <trkpt lat="45.63021" lon="4.62939">
        <ele>485.5</ele>
        <time>2019-06-16T07:11:24Z</time>
      </trkpt>
      <trkpt lat="45.63019" lon="4.62936">
        <ele>485.8</ele>
        <time>2019-06-16T07:11:26Z</time>
      </trkpt>
      <trkpt lat="45.63016" lon="4.62933">
        <ele>486.1</ele>
        <time>2019-06-16T07:11:28Z</time>
      </trkpt>
      <trkpt lat="45.63014" lon="4.62931">
        <ele>486.5</ele>
        <time>2019-06-16T07:11:30Z</time>
      </trkpt>
      <trkpt lat="45.63012" lon="4.62928">
        <ele>486.8</ele>
        <time>2019-06-16T07:11:32Z</time>
      </trkpt>
      <trkpt lat="45.63011" lon="4.62926">
        <ele>487</ele>
        <time>2019-06-16T07:11:33Z</time>
      </trkpt>
      <trkpt lat="45.6301" lon="4.62924">
        <ele>487.1</ele>
        <time>2019-06-16T07:11:34Z</time>
      </trkpt>
      <trkpt lat="45.6301" lon="4.6292">
        <ele>487.5</ele>
        <time>2019-06-16T07:11:36Z</time>
      </trkpt>
      <trkpt lat="45.63006" lon="4.62915">
        <ele>488</ele>
        <time>2019-06-16T07:11:39Z</time>
      </trkpt>
      <trkpt lat="45.63005" lon="4.62913">
        <ele>488.2</ele>
        <time>2019-06-16T07:11:40Z</time>
      </trkpt>
      <trkpt lat="45.63003" lon="4.6291">
        <ele>488.5</ele>
        <time>2019-06-16T07:11:42Z</time>
      </trkpt>
      <trkpt lat="45.62999" lon="4.62904">
        <ele>489.1</ele>
        <time>2019-06-16T07:11:45Z</time>
      </trkpt>
      <trkpt lat="45.62996" lon="4.62899">
        <ele>489.4</ele>
        <time>2019-06-16T07:11:47Z</time>
      </trkpt>
      <trkpt lat="45.62994" lon="4.62892">
        <ele>489.8</ele>
        <time>2019-06-16T07:11:49Z</time>
      </trkpt>
      <trkpt lat="45.62988" lon="4.62877">
        <ele>490.6</ele>
        <time>2019-06-16T07:11:55Z</time>
      </trkpt>
      <trkpt lat="45.62979" lon="4.62862">
        <ele>491.5</ele>
        <time>2019-06-16T07:12:01Z</time>
      </trkpt>
      <trkpt lat="45.62978" lon="4.6286">
        <ele>491.7</ele>
        <time>2019-06-16T07:12:02Z</time>
      </trkpt>
      <trkpt lat="45.62969" lon="4.62842">
        <ele>492.8</ele>
        <time>2019-06-16T07:12:09Z</time>
      </trkpt>
      <trkpt lat="45.62966" lon="4.62838">
        <ele>493.1</ele>
        <time>2019-06-16T07:12:11Z</time>
      </trkpt>
      <trkpt lat="45.62956" lon="4.62819">
        <ele>494.4</ele>
        <time>2019-06-16T07:12:19Z</time>
      </trkpt>
      <trkpt lat="45.62949" lon="4.62797">
        <ele>495.8</ele>
        <time>2019-06-16T07:12:27Z</time>
      </trkpt>
      <trkpt lat="45.62948" lon="4.62792">
        <ele>496.1</ele>
        <time>2019-06-16T07:12:29Z</time>
      </trkpt>
      <trkpt lat="45.62945" lon="4.62766">
        <ele>497.5</ele>
        <time>2019-06-16T07:12:38Z</time>
      </trkpt>
      <trkpt lat="45.62944" lon="4.6276">
        <ele>497.9</ele>
        <time>2019-06-16T07:12:40Z</time>
      </trkpt>
      <trkpt lat="45.62943" lon="4.62745">
        <ele>498.6</ele>
        <time>2019-06-16T07:12:45Z</time>
      </trkpt>
      <trkpt lat="45.62943" lon="4.6273">
        <ele>499.3</ele>
        <time>2019-06-16T07:12:50Z</time>
      </trkpt>
      <trkpt lat="45.62943" lon="4.62718">
        <ele>499.9</ele>
        <time>2019-06-16T07:12:54Z</time>
      </trkpt>
      <trkpt lat="45.62943" lon="4.62703">
        <ele>500.6</ele>
        <time>2019-06-16T07:12:59Z</time>
      </trkpt>
      <trkpt lat="45.62942" lon="4.62691">
        <ele>501.1</ele>
        <time>2019-06-16T07:13:03Z</time>
      </trkpt>
      <trkpt lat="45.62942" lon="4.62685">
        <ele>501.4</ele>
        <time>2019-06-16T07:13:05Z</time>
      </trkpt>
      <trkpt lat="45.6294" lon="4.62669">
        <ele>502.3</ele>
        <time>2019-06-16T07:13:11Z</time>
      </trkpt>
      <trkpt lat="45.6294" lon="4.62664">
        <ele>502.6</ele>
        <time>2019-06-16T07:13:13Z</time>
      </trkpt>
      <trkpt lat="45.6294" lon="4.62655">
        <ele>503.1</ele>
        <time>2019-06-16T07:13:16Z</time>
      </trkpt>
      <trkpt lat="45.6294" lon="4.62652">
        <ele>503.2</ele>
        <time>2019-06-16T07:13:17Z</time>
      </trkpt>
      <trkpt lat="45.62941" lon="4.62645">
        <ele>503.6</ele>
        <time>2019-06-16T07:13:20Z</time>
      </trkpt>
      <trkpt lat="45.62941" lon="4.62636">
        <ele>504.2</ele>
        <time>2019-06-16T07:13:24Z</time>
      </trkpt>
      <trkpt lat="45.6294" lon="4.62629">
        <ele>504.6</ele>
        <time>2019-06-16T07:13:27Z</time>
      </trkpt>
      <trkpt lat="45.6294" lon="4.62622">
        <ele>505</ele>
        <time>2019-06-16T07:13:30Z</time>
      </trkpt>
      <trkpt lat="45.6294" lon="4.62619">
        <ele>505.2</ele>
        <time>2019-06-16T07:13:31Z</time>
      </trkpt>
      <trkpt lat="45.6294" lon="4.62616">
        <ele>505.3</ele>
        <time>2019-06-16T07:13:32Z</time>
      </trkpt>
      <trkpt lat="45.62939" lon="4.62606">
        <ele>505.9</ele>
        <time>2019-06-16T07:13:35Z</time>
      </trkpt>
      <trkpt lat="45.62938" lon="4.62597">
        <ele>506.4</ele>
        <time>2019-06-16T07:13:38Z</time>
      </trkpt>
      <trkpt lat="45.62936" lon="4.62585">
        <ele>507.2</ele>
        <time>2019-06-16T07:13:42Z</time>
      </trkpt>
      <trkpt lat="45.62936" lon="4.62575">
        <ele>507.8</ele>
        <time>2019-06-16T07:13:46Z</time>
      </trkpt>
      <trkpt lat="45.62935" lon="4.62568">
        <ele>508.2</ele>
        <time>2019-06-16T07:13:49Z</time>
      </trkpt>
      <trkpt lat="45.62934" lon="4.62561">
        <ele>508.7</ele>
        <time>2019-06-16T07:13:52Z</time>
      </trkpt>
      <trkpt lat="45.62934" lon="4.62558">
        <ele>508.9</ele>
        <time>2019-06-16T07:13:53Z</time>
      </trkpt>
      <trkpt lat="45.62933" lon="4.62551">
        <ele>509.7</ele>
        <time>2019-06-16T07:13:56Z</time>
      </trkpt>
      <trkpt lat="45.62934" lon="4.62542">
        <ele>510.5</ele>
        <time>2019-06-16T07:14:00Z</time>
      </trkpt>
      <trkpt lat="45.62934" lon="4.62539">
        <ele>510.7</ele>
        <time>2019-06-16T07:14:01Z</time>
      </trkpt>
      <trkpt lat="45.62933" lon="4.62534">
        <ele>511.2</ele>
        <time>2019-06-16T07:14:03Z</time>
      </trkpt>
      <trkpt lat="45.62933" lon="4.62525">
        <ele>512.1</ele>
        <time>2019-06-16T07:14:07Z</time>
      </trkpt>
      <trkpt lat="45.62933" lon="4.62518">
        <ele>512.8</ele>
        <time>2019-06-16T07:14:10Z</time>
      </trkpt>
      <trkpt lat="45.62934" lon="4.62511">
        <ele>513.4</ele>
        <time>2019-06-16T07:14:13Z</time>
      </trkpt>
      <trkpt lat="45.62933" lon="4.62503">
        <ele>514.1</ele>
        <time>2019-06-16T07:14:16Z</time>
      </trkpt>
      <trkpt lat="45.62932" lon="4.6249">
        <ele>515.3</ele>
        <time>2019-06-16T07:14:20Z</time>
      </trkpt>
      <trkpt lat="45.62932" lon="4.62484">
        <ele>515.8</ele>
        <time>2019-06-16T07:14:22Z</time>
      </trkpt>
      <trkpt lat="45.62922" lon="4.62472">
        <ele>517.5</ele>
        <time>2019-06-16T07:14:29Z</time>
      </trkpt>
      <trkpt lat="45.62908" lon="4.6247">
        <ele>519.3</ele>
        <time>2019-06-16T07:14:37Z</time>
      </trkpt>
      <trkpt lat="45.62896" lon="4.62465">
        <ele>520.5</ele>
        <time>2019-06-16T07:14:43Z</time>
      </trkpt>
      <trkpt lat="45.62889" lon="4.62463">
        <ele>521</ele>
        <time>2019-06-16T07:14:46Z</time>
      </trkpt>
      <trkpt lat="45.62869" lon="4.62453">
        <ele>522.4</ele>
        <time>2019-06-16T07:14:56Z</time>
      </trkpt>
      <trkpt lat="45.62846" lon="4.62437">
        <ele>522.9</ele>
        <time>2019-06-16T07:15:07Z</time>
      </trkpt>
      <trkpt lat="45.62844" lon="4.62436">
        <ele>522.9</ele>
        <time>2019-06-16T07:15:08Z</time>
      </trkpt>
      <trkpt lat="45.62824" lon="4.62418">
        <ele>523.4</ele>
        <time>2019-06-16T07:15:15Z</time>
      </trkpt>
      <trkpt lat="45.62821" lon="4.62415">
        <ele>523.6</ele>
        <time>2019-06-16T07:15:16Z</time>
      </trkpt>
      <trkpt lat="45.62803" lon="4.6239">
        <ele>524.5</ele>
        <time>2019-06-16T07:15:22Z</time>
      </trkpt>
      <trkpt lat="45.62799" lon="4.62385">
        <ele>524.7</ele>
        <time>2019-06-16T07:15:23Z</time>
      </trkpt>
      <trkpt lat="45.62777" lon="4.6235">
        <ele>526</ele>
        <time>2019-06-16T07:15:29Z</time>
      </trkpt>
      <trkpt lat="45.62774" lon="4.62343">
        <ele>526.5</ele>
        <time>2019-06-16T07:15:30Z</time>
      </trkpt>
      <trkpt lat="45.62759" lon="4.62319">
        <ele>527.9</ele>
        <time>2019-06-16T07:15:34Z</time>
      </trkpt>
      <trkpt lat="45.62753" lon="4.62316">
        <ele>527.6</ele>
        <time>2019-06-16T07:15:35Z</time>
      </trkpt>
      <trkpt lat="45.6273" lon="4.62317">
        <ele>526.3</ele>
        <time>2019-06-16T07:15:39Z</time>
      </trkpt>
      <trkpt lat="45.62718" lon="4.6232">
        <ele>525.5</ele>
        <time>2019-06-16T07:15:41Z</time>
      </trkpt>
      <trkpt lat="45.62692" lon="4.62327">
        <ele>523.8</ele>
        <time>2019-06-16T07:15:45Z</time>
      </trkpt>
      <trkpt lat="45.62663" lon="4.62331">
        <ele>521.8</ele>
        <time>2019-06-16T07:15:49Z</time>
      </trkpt>
      <trkpt lat="45.62641" lon="4.6233">
        <ele>520.2</ele>
        <time>2019-06-16T07:15:52Z</time>
      </trkpt>
      <trkpt lat="45.62634" lon="4.62329">
        <ele>519.7</ele>
        <time>2019-06-16T07:15:53Z</time>
      </trkpt>
      <trkpt lat="45.62626" lon="4.62327">
        <ele>519.5</ele>
        <time>2019-06-16T07:15:54Z</time>
      </trkpt>
      <trkpt lat="45.62612" lon="4.62321">
        <ele>519.3</ele>
        <time>2019-06-16T07:15:56Z</time>
      </trkpt>
      <trkpt lat="45.62599" lon="4.62315">
        <ele>519.1</ele>
        <time>2019-06-16T07:15:58Z</time>
      </trkpt>
      <trkpt lat="45.62581" lon="4.62304">
        <ele>519</ele>
        <time>2019-06-16T07:16:01Z</time>
      </trkpt>
      <trkpt lat="45.62546" lon="4.62273">
        <ele>519.3</ele>
        <time>2019-06-16T07:16:08Z</time>
      </trkpt>
      <trkpt lat="45.62518" lon="4.62247">
        <ele>520.6</ele>
        <time>2019-06-16T07:16:15Z</time>
      </trkpt>
      <trkpt lat="45.62494" lon="4.62228">
        <ele>521.9</ele>
        <time>2019-06-16T07:16:21Z</time>
      </trkpt>
      <trkpt lat="45.6249" lon="4.62223">
        <ele>522.1</ele>
        <time>2019-06-16T07:16:22Z</time>
      </trkpt>
      <trkpt lat="45.62472" lon="4.62198">
        <ele>522.8</ele>
        <time>2019-06-16T07:16:27Z</time>
      </trkpt>
      <trkpt lat="45.62467" lon="4.62188">
        <ele>522.9</ele>
        <time>2019-06-16T07:16:29Z</time>
      </trkpt>
      <trkpt lat="45.62462" lon="4.62178">
        <ele>523.2</ele>
        <time>2019-06-16T07:16:31Z</time>
      </trkpt>
      <trkpt lat="45.62458" lon="4.62167">
        <ele>523.5</ele>
        <time>2019-06-16T07:16:33Z</time>
      </trkpt>
      <trkpt lat="45.62452" lon="4.62149">
        <ele>524.3</ele>
        <time>2019-06-16T07:16:36Z</time>
      </trkpt>
      <trkpt lat="45.62445" lon="4.6213">
        <ele>525.6</ele>
        <time>2019-06-16T07:16:39Z</time>
      </trkpt>
      <trkpt lat="45.62438" lon="4.62115">
        <ele>526.7</ele>
        <time>2019-06-16T07:16:42Z</time>
      </trkpt>
      <trkpt lat="45.62433" lon="4.62101">
        <ele>527.5</ele>
        <time>2019-06-16T07:16:45Z</time>
      </trkpt>
      <trkpt lat="45.6243" lon="4.62092">
        <ele>527.9</ele>
        <time>2019-06-16T07:16:47Z</time>
      </trkpt>
      <trkpt lat="45.62422" lon="4.62071">
        <ele>528.8</ele>
        <time>2019-06-16T07:16:52Z</time>
      </trkpt>
      <trkpt lat="45.62418" lon="4.62063">
        <ele>529.1</ele>
        <time>2019-06-16T07:16:54Z</time>
      </trkpt>
      <trkpt lat="45.62411" lon="4.62056">
        <ele>529.6</ele>
        <time>2019-06-16T07:16:57Z</time>
      </trkpt>
      <trkpt lat="45.62393" lon="4.62054">
        <ele>530.7</ele>
        <time>2019-06-16T07:17:02Z</time>
      </trkpt>
      <trkpt lat="45.62381" lon="4.62054">
        <ele>531.8</ele>
        <time>2019-06-16T07:17:07Z</time>
      </trkpt>
      <trkpt lat="45.6238" lon="4.62054">
        <ele>532</ele>
        <time>2019-06-16T07:17:08Z</time>
      </trkpt>
      <trkpt lat="45.62375" lon="4.62053">
        <ele>532.6</ele>
        <time>2019-06-16T07:17:11Z</time>
      </trkpt>
      <trkpt lat="45.6237" lon="4.62048">
        <ele>533.5</ele>
        <time>2019-06-16T07:17:15Z</time>
      </trkpt>
      <trkpt lat="45.62368" lon="4.62045">
        <ele>534</ele>
        <time>2019-06-16T07:17:17Z</time>
      </trkpt>
      <trkpt lat="45.62365" lon="4.62039">
        <ele>534.9</ele>
        <time>2019-06-16T07:17:21Z</time>
      </trkpt>
      <trkpt lat="45.62365" lon="4.62037">
        <ele>535.2</ele>
        <time>2019-06-16T07:17:22Z</time>
      </trkpt>
      <trkpt lat="45.62365" lon="4.62032">
        <ele>536</ele>
        <time>2019-06-16T07:17:25Z</time>
      </trkpt>
      <trkpt lat="45.62362" lon="4.62025">
        <ele>537.2</ele>
        <time>2019-06-16T07:17:29Z</time>
      </trkpt>
      <trkpt lat="45.62361" lon="4.62025">
        <ele>537.5</ele>
        <time>2019-06-16T07:17:30Z</time>
      </trkpt>
      <trkpt lat="45.62357" lon="4.62022">
        <ele>538.4</ele>
        <time>2019-06-16T07:17:33Z</time>
      </trkpt>
      <trkpt lat="45.62354" lon="4.62022">
        <ele>539.3</ele>
        <time>2019-06-16T07:17:35Z</time>
      </trkpt>
      <trkpt lat="45.6235" lon="4.62022">
        <ele>539.9</ele>
        <time>2019-06-16T07:17:38Z</time>
      </trkpt>
      <trkpt lat="45.62349" lon="4.62023">
        <ele>540.2</ele>
        <time>2019-06-16T07:17:39Z</time>
      </trkpt>
      <trkpt lat="45.62346" lon="4.62024">
        <ele>540.6</ele>
        <time>2019-06-16T07:17:41Z</time>
      </trkpt>
      <trkpt lat="45.62343" lon="4.62026">
        <ele>541.1</ele>
        <time>2019-06-16T07:17:43Z</time>
      </trkpt>
      <trkpt lat="45.62337" lon="4.62029">
        <ele>541.9</ele>
        <time>2019-06-16T07:17:47Z</time>
      </trkpt>
      <trkpt lat="45.62333" lon="4.6203">
        <ele>542.5</ele>
        <time>2019-06-16T07:17:50Z</time>
      </trkpt>
      <trkpt lat="45.62329" lon="4.62032">
        <ele>543</ele>
        <time>2019-06-16T07:17:53Z</time>
      </trkpt>
      <trkpt lat="45.62325" lon="4.62033">
        <ele>543.5</ele>
        <time>2019-06-16T07:17:57Z</time>
      </trkpt>
      <trkpt lat="45.62322" lon="4.62035">
        <ele>543.9</ele>
        <time>2019-06-16T07:18:00Z</time>
      </trkpt>
      <trkpt lat="45.6232" lon="4.62035">
        <ele>544.1</ele>
        <time>2019-06-16T07:18:02Z</time>
      </trkpt>
      <trkpt lat="45.62317" lon="4.62034">
        <ele>544.6</ele>
        <time>2019-06-16T07:18:06Z</time>
      </trkpt>
      <trkpt lat="45.62315" lon="4.62032">
        <ele>544.8</ele>
        <time>2019-06-16T07:18:08Z</time>
      </trkpt>
      <trkpt lat="45.62313" lon="4.62031">
        <ele>545.1</ele>
        <time>2019-06-16T07:18:10Z</time>
      </trkpt>
      <trkpt lat="45.62312" lon="4.62027">
        <ele>545.5</ele>
        <time>2019-06-16T07:18:13Z</time>
      </trkpt>
      <trkpt lat="45.62311" lon="4.62026">
        <ele>545.6</ele>
        <time>2019-06-16T07:18:14Z</time>
      </trkpt>
      <trkpt lat="45.6231" lon="4.62024">
        <ele>545.8</ele>
        <time>2019-06-16T07:18:15Z</time>
      </trkpt>
      <trkpt lat="45.62307" lon="4.62021">
        <ele>546.3</ele>
        <time>2019-06-16T07:18:19Z</time>
      </trkpt>
      <trkpt lat="45.62306" lon="4.62019">
        <ele>546.4</ele>
        <time>2019-06-16T07:18:21Z</time>
      </trkpt>
      <trkpt lat="45.62306" lon="4.62018">
        <ele>546.6</ele>
        <time>2019-06-16T07:18:22Z</time>
      </trkpt>
      <trkpt lat="45.62262" lon="4.61974">
        <ele>555.3</ele>
        <time>2019-06-16T07:19:41Z</time>
      </trkpt>
      <trkpt lat="45.62255" lon="4.61968">
        <ele>556.4</ele>
        <time>2019-06-16T07:19:47Z</time>
      </trkpt>
      <trkpt lat="45.62245" lon="4.61959">
        <ele>558.2</ele>
        <time>2019-06-16T07:19:56Z</time>
      </trkpt>
      <trkpt lat="45.62238" lon="4.61952">
        <ele>559.4</ele>
        <time>2019-06-16T07:20:02Z</time>
      </trkpt>
      <trkpt lat="45.62235" lon="4.61945">
        <ele>561.2</ele>
        <time>2019-06-16T07:20:07Z</time>
      </trkpt>
      <trkpt lat="45.62234" lon="4.6194">
        <ele>561.7</ele>
        <time>2019-06-16T07:20:09Z</time>
      </trkpt>
      <trkpt lat="45.62234" lon="4.61939">
        <ele>561.9</ele>
        <time>2019-06-16T07:20:10Z</time>
      </trkpt>
      <trkpt lat="45.62234" lon="4.61933">
        <ele>562.6</ele>
        <time>2019-06-16T07:20:13Z</time>
      </trkpt>
      <trkpt lat="45.62234" lon="4.61927">
        <ele>563.3</ele>
        <time>2019-06-16T07:20:16Z</time>
      </trkpt>
      <trkpt lat="45.62235" lon="4.61925">
        <ele>563.5</ele>
        <time>2019-06-16T07:20:17Z</time>
      </trkpt>
      <trkpt lat="45.62233" lon="4.61923">
        <ele>564.1</ele>
        <time>2019-06-16T07:23:48Z</time>
      </trkpt>
      <trkpt lat="45.62231" lon="4.61922">
        <ele>564.4</ele>
        <time>2019-06-16T07:23:49Z</time>
      </trkpt>
      <trkpt lat="45.62229" lon="4.61917">
        <ele>565.1</ele>
        <time>2019-06-16T07:23:51Z</time>
      </trkpt>
      <trkpt lat="45.62228" lon="4.61912">
        <ele>565.9</ele>
        <time>2019-06-16T07:23:53Z</time>
      </trkpt>
      <trkpt lat="45.62228" lon="4.61909">
        <ele>566.2</ele>
        <time>2019-06-16T07:23:54Z</time>
      </trkpt>
      <trkpt lat="45.62227" lon="4.61905">
        <ele>566.8</ele>
        <time>2019-06-16T07:23:56Z</time>
      </trkpt>
      <trkpt lat="45.62227" lon="4.61902">
        <ele>567.1</ele>
        <time>2019-06-16T07:23:57Z</time>
      </trkpt>
      <trkpt lat="45.62226" lon="4.619">
        <ele>567.4</ele>
        <time>2019-06-16T07:23:58Z</time>
      </trkpt>
      <trkpt lat="45.62226" lon="4.61893">
        <ele>568.2</ele>
        <time>2019-06-16T07:24:01Z</time>
      </trkpt>
      <trkpt lat="45.62226" lon="4.61888">
        <ele>568.7</ele>
        <time>2019-06-16T07:24:03Z</time>
      </trkpt>
      <trkpt lat="45.62226" lon="4.61877">
        <ele>570.3</ele>
        <time>2019-06-16T07:24:08Z</time>
      </trkpt>
      <trkpt lat="45.62227" lon="4.61868">
        <ele>571</ele>
        <time>2019-06-16T07:24:12Z</time>
      </trkpt>
      <trkpt lat="45.62232" lon="4.61861">
        <ele>571.7</ele>
        <time>2019-06-16T07:24:17Z</time>
      </trkpt>
      <trkpt lat="45.62233" lon="4.61861">
        <ele>571.9</ele>
        <time>2019-06-16T07:24:18Z</time>
      </trkpt>
      <trkpt lat="45.62247" lon="4.61865">
        <ele>570.2</ele>
        <time>2019-06-16T07:24:24Z</time>
      </trkpt>
      <trkpt lat="45.62262" lon="4.61863">
        <ele>570.9</ele>
        <time>2019-06-16T07:24:29Z</time>
      </trkpt>
      <trkpt lat="45.62265" lon="4.61859">
        <ele>571.1</ele>
        <time>2019-06-16T07:24:31Z</time>
      </trkpt>
      <trkpt lat="45.62268" lon="4.61851">
        <ele>571.4</ele>
        <time>2019-06-16T07:24:34Z</time>
      </trkpt>
      <trkpt lat="45.62268" lon="4.61847">
        <ele>571.5</ele>
        <time>2019-06-16T07:24:36Z</time>
      </trkpt>
      <trkpt lat="45.62266" lon="4.61837">
        <ele>572.9</ele>
        <time>2019-06-16T07:24:41Z</time>
      </trkpt>
      <trkpt lat="45.62263" lon="4.6183">
        <ele>574.3</ele>
        <time>2019-06-16T07:24:45Z</time>
      </trkpt>
      <trkpt lat="45.62262" lon="4.61823">
        <ele>575.5</ele>
        <time>2019-06-16T07:24:48Z</time>
      </trkpt>
      <trkpt lat="45.62261" lon="4.61815">
        <ele>576.9</ele>
        <time>2019-06-16T07:24:52Z</time>
      </trkpt>
      <trkpt lat="45.62259" lon="4.61804">
        <ele>578.6</ele>
        <time>2019-06-16T07:24:57Z</time>
      </trkpt>
      <trkpt lat="45.62261" lon="4.61788">
        <ele>581.1</ele>
        <time>2019-06-16T07:25:05Z</time>
      </trkpt>
      <trkpt lat="45.62261" lon="4.61786">
        <ele>581.4</ele>
        <time>2019-06-16T07:25:06Z</time>
      </trkpt>
      <trkpt lat="45.62262" lon="4.61778">
        <ele>582.6</ele>
        <time>2019-06-16T07:25:11Z</time>
      </trkpt>
      <trkpt lat="45.62263" lon="4.61775">
        <ele>583.1</ele>
        <time>2019-06-16T07:25:13Z</time>
      </trkpt>
      <trkpt lat="45.62264" lon="4.61771">
        <ele>583.7</ele>
        <time>2019-06-16T07:25:16Z</time>
      </trkpt>
      <trkpt lat="45.62265" lon="4.61765">
        <ele>584.5</ele>
        <time>2019-06-16T07:25:20Z</time>
      </trkpt>
      <trkpt lat="45.62264" lon="4.61762">
        <ele>585</ele>
        <time>2019-06-16T07:25:22Z</time>
      </trkpt>
      <trkpt lat="45.62264" lon="4.61756">
        <ele>585.7</ele>
        <time>2019-06-16T07:25:26Z</time>
      </trkpt>
      <trkpt lat="45.62265" lon="4.61755">
        <ele>585.9</ele>
        <time>2019-06-16T07:25:27Z</time>
      </trkpt>
      <trkpt lat="45.62268" lon="4.61749">
        <ele>586.9</ele>
        <time>2019-06-16T07:25:32Z</time>
      </trkpt>
      <trkpt lat="45.62269" lon="4.61749">
        <ele>586.9</ele>
        <time>2019-06-16T07:25:33Z</time>
      </trkpt>
      <trkpt lat="45.6227" lon="4.61748">
        <ele>587</ele>
        <time>2019-06-16T07:25:34Z</time>
      </trkpt>
      <trkpt lat="45.62275" lon="4.61748">
        <ele>587.3</ele>
        <time>2019-06-16T07:25:38Z</time>
      </trkpt>
      <trkpt lat="45.62276" lon="4.61748">
        <ele>587.4</ele>
        <time>2019-06-16T07:25:39Z</time>
      </trkpt>
      <trkpt lat="45.6228" lon="4.61748">
        <ele>587.7</ele>
        <time>2019-06-16T07:25:41Z</time>
      </trkpt>
      <trkpt lat="45.62296" lon="4.61745">
        <ele>589</ele>
        <time>2019-06-16T07:25:47Z</time>
      </trkpt>
      <trkpt lat="45.62317" lon="4.61733">
        <ele>590.9</ele>
        <time>2019-06-16T07:25:54Z</time>
      </trkpt>
      <trkpt lat="45.62333" lon="4.61719">
        <ele>593.1</ele>
        <time>2019-06-16T07:26:00Z</time>
      </trkpt>
      <trkpt lat="45.62342" lon="4.61713">
        <ele>594.4</ele>
        <time>2019-06-16T07:26:04Z</time>
      </trkpt>
      <trkpt lat="45.62354" lon="4.61711">
        <ele>596</ele>
        <time>2019-06-16T07:26:09Z</time>
      </trkpt>
      <trkpt lat="45.62366" lon="4.61716">
        <ele>597.3</ele>
        <time>2019-06-16T07:26:15Z</time>
      </trkpt>
      <trkpt lat="45.62372" lon="4.6172">
        <ele>598</ele>
        <time>2019-06-16T07:26:18Z</time>
      </trkpt>
      <trkpt lat="45.62377" lon="4.61722">
        <ele>598.8</ele>
        <time>2019-06-16T07:26:21Z</time>
      </trkpt>
      <trkpt lat="45.62379" lon="4.61723">
        <ele>599.2</ele>
        <time>2019-06-16T07:26:22Z</time>
      </trkpt>
      <trkpt lat="45.6239" lon="4.61721">
        <ele>600.9</ele>
        <time>2019-06-16T07:26:28Z</time>
      </trkpt>
      <trkpt lat="45.62395" lon="4.61717">
        <ele>601.7</ele>
        <time>2019-06-16T07:26:31Z</time>
      </trkpt>
      <trkpt lat="45.624" lon="4.61714">
        <ele>602.4</ele>
        <time>2019-06-16T07:26:34Z</time>
      </trkpt>
      <trkpt lat="45.62403" lon="4.61711">
        <ele>602.8</ele>
        <time>2019-06-16T07:26:36Z</time>
      </trkpt>
      <trkpt lat="45.62404" lon="4.6171">
        <ele>603</ele>
        <time>2019-06-16T07:26:37Z</time>
      </trkpt>
      <trkpt lat="45.62409" lon="4.61706">
        <ele>603.6</ele>
        <time>2019-06-16T07:26:40Z</time>
      </trkpt>
      <trkpt lat="45.62414" lon="4.61702">
        <ele>604.4</ele>
        <time>2019-06-16T07:26:43Z</time>
      </trkpt>
      <trkpt lat="45.62417" lon="4.617">
        <ele>605</ele>
        <time>2019-06-16T07:26:45Z</time>
      </trkpt>
      <trkpt lat="45.62419" lon="4.61698">
        <ele>605.3</ele>
        <time>2019-06-16T07:26:46Z</time>
      </trkpt>
      <trkpt lat="45.62426" lon="4.61688">
        <ele>607.3</ele>
        <time>2019-06-16T07:26:52Z</time>
      </trkpt>
      <trkpt lat="45.6243" lon="4.61682">
        <ele>608.3</ele>
        <time>2019-06-16T07:26:56Z</time>
      </trkpt>
      <trkpt lat="45.62433" lon="4.61679">
        <ele>609</ele>
        <time>2019-06-16T07:26:58Z</time>
      </trkpt>
      <trkpt lat="45.62439" lon="4.6167">
        <ele>610.8</ele>
        <time>2019-06-16T07:27:04Z</time>
      </trkpt>
      <trkpt lat="45.62438" lon="4.61668">
        <ele>611</ele>
        <time>2019-06-16T07:27:05Z</time>
      </trkpt>
      <trkpt lat="45.62437" lon="4.61662">
        <ele>612</ele>
        <time>2019-06-16T07:27:08Z</time>
      </trkpt>
      <trkpt lat="45.62437" lon="4.6166">
        <ele>612.3</ele>
        <time>2019-06-16T07:27:09Z</time>
      </trkpt>
      <trkpt lat="45.62435" lon="4.61654">
        <ele>613.2</ele>
        <time>2019-06-16T07:27:12Z</time>
      </trkpt>
      <trkpt lat="45.62435" lon="4.61652">
        <ele>613.4</ele>
        <time>2019-06-16T07:27:13Z</time>
      </trkpt>
      <trkpt lat="45.62434" lon="4.61647">
        <ele>614.1</ele>
        <time>2019-06-16T07:27:16Z</time>
      </trkpt>
      <trkpt lat="45.62434" lon="4.61643">
        <ele>614.5</ele>
        <time>2019-06-16T07:27:18Z</time>
      </trkpt>
      <trkpt lat="45.62434" lon="4.61642">
        <ele>614.7</ele>
        <time>2019-06-16T07:27:19Z</time>
      </trkpt>
      <trkpt lat="45.62434" lon="4.61638">
        <ele>615.1</ele>
        <time>2019-06-16T07:27:21Z</time>
      </trkpt>
      <trkpt lat="45.62434" lon="4.61634">
        <ele>615.6</ele>
        <time>2019-06-16T07:27:23Z</time>
      </trkpt>
      <trkpt lat="45.62434" lon="4.61631">
        <ele>616.1</ele>
        <time>2019-06-16T07:27:25Z</time>
      </trkpt>
      <trkpt lat="45.62434" lon="4.61628">
        <ele>616.5</ele>
        <time>2019-06-16T07:27:27Z</time>
      </trkpt>
      <trkpt lat="45.62437" lon="4.61619">
        <ele>617.5</ele>
        <time>2019-06-16T07:27:38Z</time>
      </trkpt>
      <trkpt lat="45.62437" lon="4.61617">
        <ele>617.6</ele>
        <time>2019-06-16T07:27:39Z</time>
      </trkpt>
      <trkpt lat="45.62438" lon="4.61616">
        <ele>617.7</ele>
        <time>2019-06-16T07:27:40Z</time>
      </trkpt>
      <trkpt lat="45.62454" lon="4.61581">
        <ele>620.3</ele>
        <time>2019-06-16T07:28:08Z</time>
      </trkpt>
      <trkpt lat="45.62455" lon="4.6158">
        <ele>620.4</ele>
        <time>2019-06-16T07:28:09Z</time>
      </trkpt>
      <trkpt lat="45.62459" lon="4.61575">
        <ele>620.8</ele>
        <time>2019-06-16T07:28:15Z</time>
      </trkpt>
      <trkpt lat="45.62465" lon="4.6157">
        <ele>621.3</ele>
        <time>2019-06-16T07:28:23Z</time>
      </trkpt>
      <trkpt lat="45.62471" lon="4.61568">
        <ele>621.7</ele>
        <time>2019-06-16T07:28:30Z</time>
      </trkpt>
      <trkpt lat="45.6248" lon="4.61566">
        <ele>622.5</ele>
        <time>2019-06-16T07:28:38Z</time>
      </trkpt>
      <trkpt lat="45.62487" lon="4.61563">
        <ele>623.3</ele>
        <time>2019-06-16T07:28:43Z</time>
      </trkpt>
      <trkpt lat="45.62491" lon="4.6156">
        <ele>623.8</ele>
        <time>2019-06-16T07:28:46Z</time>
      </trkpt>
      <trkpt lat="45.62505" lon="4.61552">
        <ele>625.1</ele>
        <time>2019-06-16T07:28:54Z</time>
      </trkpt>
      <trkpt lat="45.62507" lon="4.61551">
        <ele>625.2</ele>
        <time>2019-06-16T07:28:55Z</time>
      </trkpt>
      <trkpt lat="45.62523" lon="4.61543">
        <ele>626.1</ele>
        <time>2019-06-16T07:29:04Z</time>
      </trkpt>
      <trkpt lat="45.62525" lon="4.61542">
        <ele>626.2</ele>
        <time>2019-06-16T07:29:05Z</time>
      </trkpt>
      <trkpt lat="45.62542" lon="4.61536">
        <ele>626.1</ele>
        <time>2019-06-16T07:29:13Z</time>
      </trkpt>
      <trkpt lat="45.62564" lon="4.61536">
        <ele>625.3</ele>
        <time>2019-06-16T07:29:18Z</time>
      </trkpt>
      <trkpt lat="45.6258" lon="4.61538">
        <ele>624.8</ele>
        <time>2019-06-16T07:29:21Z</time>
      </trkpt>
      <trkpt lat="45.62584" lon="4.6154">
        <ele>624.6</ele>
        <time>2019-06-16T07:29:22Z</time>
      </trkpt>
      <trkpt lat="45.62593" lon="4.61546">
        <ele>624.4</ele>
        <time>2019-06-16T07:29:24Z</time>
      </trkpt>
      <trkpt lat="45.62602" lon="4.61558">
        <ele>624.1</ele>
        <time>2019-06-16T07:29:27Z</time>
      </trkpt>
      <trkpt lat="45.6261" lon="4.6157">
        <ele>623.8</ele>
        <time>2019-06-16T07:29:30Z</time>
      </trkpt>
      <trkpt lat="45.62626" lon="4.61586">
        <ele>622.8</ele>
        <time>2019-06-16T07:29:36Z</time>
      </trkpt>
      <trkpt lat="45.62636" lon="4.61602">
        <ele>619.4</ele>
        <time>2019-06-16T07:29:40Z</time>
      </trkpt>
      <trkpt lat="45.62638" lon="4.61608">
        <ele>618.4</ele>
        <time>2019-06-16T07:29:41Z</time>
      </trkpt>
      <trkpt lat="45.62639" lon="4.6163">
        <ele>615.3</ele>
        <time>2019-06-16T07:29:44Z</time>
      </trkpt>
      <trkpt lat="45.62637" lon="4.61639">
        <ele>614.1</ele>
        <time>2019-06-16T07:29:45Z</time>
      </trkpt>
      <trkpt lat="45.62637" lon="4.61649">
        <ele>613</ele>
        <time>2019-06-16T07:29:46Z</time>
      </trkpt>
      <trkpt lat="45.62639" lon="4.61668">
        <ele>612.3</ele>
        <time>2019-06-16T07:29:48Z</time>
      </trkpt>
      <trkpt lat="45.62642" lon="4.61676">
        <ele>612.1</ele>
        <time>2019-06-16T07:29:49Z</time>
      </trkpt>
      <trkpt lat="45.62651" lon="4.61695">
        <ele>611.7</ele>
        <time>2019-06-16T07:29:52Z</time>
      </trkpt>
      <trkpt lat="45.62666" lon="4.61725">
        <ele>610.9</ele>
        <time>2019-06-16T07:29:58Z</time>
      </trkpt>
      <trkpt lat="45.6268" lon="4.61763">
        <ele>609</ele>
        <time>2019-06-16T07:30:05Z</time>
      </trkpt>
      <trkpt lat="45.62691" lon="4.61806">
        <ele>605.8</ele>
        <time>2019-06-16T07:30:11Z</time>
      </trkpt>
      <trkpt lat="45.62697" lon="4.61824">
        <ele>604.4</ele>
        <time>2019-06-16T07:30:13Z</time>
      </trkpt>
      <trkpt lat="45.62706" lon="4.61852">
        <ele>601.9</ele>
        <time>2019-06-16T07:30:16Z</time>
      </trkpt>
      <trkpt lat="45.62709" lon="4.61862">
        <ele>600.8</ele>
        <time>2019-06-16T07:30:17Z</time>
      </trkpt>
      <trkpt lat="45.62713" lon="4.61871">
        <ele>599.6</ele>
        <time>2019-06-16T07:30:18Z</time>
      </trkpt>
      <trkpt lat="45.62721" lon="4.6189">
        <ele>597.3</ele>
        <time>2019-06-16T07:30:20Z</time>
      </trkpt>
      <trkpt lat="45.62734" lon="4.61907">
        <ele>595.1</ele>
        <time>2019-06-16T07:30:22Z</time>
      </trkpt>
      <trkpt lat="45.62748" lon="4.61922">
        <ele>592.5</ele>
        <time>2019-06-16T07:30:24Z</time>
      </trkpt>
      <trkpt lat="45.62763" lon="4.61938">
        <ele>590.1</ele>
        <time>2019-06-16T07:30:26Z</time>
      </trkpt>
      <trkpt lat="45.6277" lon="4.61945">
        <ele>588.5</ele>
        <time>2019-06-16T07:30:27Z</time>
      </trkpt>
      <trkpt lat="45.62777" lon="4.61951">
        <ele>587</ele>
        <time>2019-06-16T07:30:28Z</time>
      </trkpt>
      <trkpt lat="45.62784" lon="4.61957">
        <ele>585.2</ele>
        <time>2019-06-16T07:30:29Z</time>
      </trkpt>
      <trkpt lat="45.62791" lon="4.61962">
        <ele>583.5</ele>
        <time>2019-06-16T07:30:30Z</time>
      </trkpt>
      <trkpt lat="45.62799" lon="4.61967">
        <ele>581.6</ele>
        <time>2019-06-16T07:30:31Z</time>
      </trkpt>
      <trkpt lat="45.62806" lon="4.61973">
        <ele>579.4</ele>
        <time>2019-06-16T07:30:32Z</time>
      </trkpt>
      <trkpt lat="45.62814" lon="4.61978">
        <ele>577.4</ele>
        <time>2019-06-16T07:30:33Z</time>
      </trkpt>
      <trkpt lat="45.62822" lon="4.61982">
        <ele>575.6</ele>
        <time>2019-06-16T07:30:34Z</time>
      </trkpt>
      <trkpt lat="45.6283" lon="4.61983">
        <ele>573.6</ele>
        <time>2019-06-16T07:30:35Z</time>
      </trkpt>
      <trkpt lat="45.62839" lon="4.61981">
        <ele>571.6</ele>
        <time>2019-06-16T07:30:36Z</time>
      </trkpt>
      <trkpt lat="45.62849" lon="4.61976">
        <ele>569.7</ele>
        <time>2019-06-16T07:30:37Z</time>
      </trkpt>
      <trkpt lat="45.6286" lon="4.6197">
        <ele>567.7</ele>
        <time>2019-06-16T07:30:38Z</time>
      </trkpt>
      <trkpt lat="45.62869" lon="4.61964">
        <ele>566.2</ele>
        <time>2019-06-16T07:30:39Z</time>
      </trkpt>
      <trkpt lat="45.62878" lon="4.61956">
        <ele>564.8</ele>
        <time>2019-06-16T07:30:40Z</time>
      </trkpt>
      <trkpt lat="45.62885" lon="4.61948">
        <ele>563.8</ele>
        <time>2019-06-16T07:30:41Z</time>
      </trkpt>
      <trkpt lat="45.6289" lon="4.6194">
        <ele>563</ele>
        <time>2019-06-16T07:30:42Z</time>
      </trkpt>
      <trkpt lat="45.62895" lon="4.6193">
        <ele>562.3</ele>
        <time>2019-06-16T07:30:43Z</time>
      </trkpt>
      <trkpt lat="45.629" lon="4.61919">
        <ele>561.7</ele>
        <time>2019-06-16T07:30:44Z</time>
      </trkpt>
      <trkpt lat="45.62905" lon="4.6191">
        <ele>561.1</ele>
        <time>2019-06-16T07:30:45Z</time>
      </trkpt>
      <trkpt lat="45.6291" lon="4.61901">
        <ele>560.5</ele>
        <time>2019-06-16T07:30:46Z</time>
      </trkpt>
      <trkpt lat="45.62915" lon="4.61892">
        <ele>560</ele>
        <time>2019-06-16T07:30:47Z</time>
      </trkpt>
      <trkpt lat="45.62926" lon="4.61874">
        <ele>559.1</ele>
        <time>2019-06-16T07:30:49Z</time>
      </trkpt>
      <trkpt lat="45.62932" lon="4.61865">
        <ele>558.6</ele>
        <time>2019-06-16T07:30:50Z</time>
      </trkpt>
      <trkpt lat="45.62942" lon="4.61845">
        <ele>557.7</ele>
        <time>2019-06-16T07:30:52Z</time>
      </trkpt>
      <trkpt lat="45.62951" lon="4.61824">
        <ele>557</ele>
        <time>2019-06-16T07:30:54Z</time>
      </trkpt>
      <trkpt lat="45.6296" lon="4.61802">
        <ele>556.5</ele>
        <time>2019-06-16T07:30:56Z</time>
      </trkpt>
      <trkpt lat="45.62963" lon="4.61791">
        <ele>556.4</ele>
        <time>2019-06-16T07:30:57Z</time>
      </trkpt>
      <trkpt lat="45.62969" lon="4.61769">
        <ele>556.1</ele>
        <time>2019-06-16T07:30:59Z</time>
      </trkpt>
      <trkpt lat="45.62972" lon="4.61759">
        <ele>556</ele>
        <time>2019-06-16T07:31:00Z</time>
      </trkpt>
      <trkpt lat="45.62981" lon="4.61742">
        <ele>555.8</ele>
        <time>2019-06-16T07:31:02Z</time>
      </trkpt>
      <trkpt lat="45.62985" lon="4.61734">
        <ele>555.8</ele>
        <time>2019-06-16T07:31:03Z</time>
      </trkpt>
      <trkpt lat="45.6299" lon="4.6172">
        <ele>555.7</ele>
        <time>2019-06-16T07:31:05Z</time>
      </trkpt>
      <trkpt lat="45.62996" lon="4.61697">
        <ele>555.6</ele>
        <time>2019-06-16T07:31:08Z</time>
      </trkpt>
      <trkpt lat="45.63002" lon="4.61684">
        <ele>555.7</ele>
        <time>2019-06-16T07:31:10Z</time>
      </trkpt>
      <trkpt lat="45.63018" lon="4.61665">
        <ele>555.9</ele>
        <time>2019-06-16T07:31:14Z</time>
      </trkpt>
      <trkpt lat="45.63033" lon="4.61657">
        <ele>556.2</ele>
        <time>2019-06-16T07:31:17Z</time>
      </trkpt>
      <trkpt lat="45.63042" lon="4.61656">
        <ele>556.5</ele>
        <time>2019-06-16T07:31:19Z</time>
      </trkpt>
      <trkpt lat="45.63066" lon="4.61663">
        <ele>557.5</ele>
        <time>2019-06-16T07:31:25Z</time>
      </trkpt>
      <trkpt lat="45.63078" lon="4.61668">
        <ele>558</ele>
        <time>2019-06-16T07:31:29Z</time>
      </trkpt>
      <trkpt lat="45.63084" lon="4.61674">
        <ele>558.3</ele>
        <time>2019-06-16T07:31:31Z</time>
      </trkpt>
      <trkpt lat="45.63088" lon="4.61681">
        <ele>558.6</ele>
        <time>2019-06-16T07:31:33Z</time>
      </trkpt>
      <trkpt lat="45.63096" lon="4.61694">
        <ele>559.1</ele>
        <time>2019-06-16T07:31:37Z</time>
      </trkpt>
      <trkpt lat="45.63102" lon="4.61704">
        <ele>559.4</ele>
        <time>2019-06-16T07:31:40Z</time>
      </trkpt>
      <trkpt lat="45.63112" lon="4.61718">
        <ele>559.8</ele>
        <time>2019-06-16T07:31:45Z</time>
      </trkpt>
      <trkpt lat="45.63114" lon="4.6172">
        <ele>559.9</ele>
        <time>2019-06-16T07:31:46Z</time>
      </trkpt>
      <trkpt lat="45.63125" lon="4.61734">
        <ele>560.2</ele>
        <time>2019-06-16T07:31:52Z</time>
      </trkpt>
      <trkpt lat="45.63126" lon="4.61736">
        <ele>560.2</ele>
        <time>2019-06-16T07:31:53Z</time>
      </trkpt>
      <trkpt lat="45.63133" lon="4.61759">
        <ele>560.9</ele>
        <time>2019-06-16T07:31:59Z</time>
      </trkpt>
      <trkpt lat="45.63137" lon="4.61768">
        <ele>561.4</ele>
        <time>2019-06-16T07:32:01Z</time>
      </trkpt>
      <trkpt lat="45.63147" lon="4.61778">
        <ele>563.2</ele>
        <time>2019-06-16T07:32:04Z</time>
      </trkpt>
      <trkpt lat="45.63156" lon="4.61779">
        <ele>565</ele>
        <time>2019-06-16T07:32:07Z</time>
      </trkpt>
      <trkpt lat="45.63155" lon="4.6177">
        <ele>565.8</ele>
        <time>2019-06-16T07:32:11Z</time>
      </trkpt>
      <trkpt lat="45.63152" lon="4.6176">
        <ele>566.9</ele>
        <time>2019-06-16T07:32:15Z</time>
      </trkpt>
      <trkpt lat="45.63151" lon="4.61753">
        <ele>567.6</ele>
        <time>2019-06-16T07:32:18Z</time>
      </trkpt>
      <trkpt lat="45.63149" lon="4.61746">
        <ele>568.3</ele>
        <time>2019-06-16T07:32:21Z</time>
      </trkpt>
      <trkpt lat="45.63148" lon="4.61731">
        <ele>570</ele>
        <time>2019-06-16T07:32:28Z</time>
      </trkpt>
      <trkpt lat="45.63148" lon="4.61726">
        <ele>570.3</ele>
        <time>2019-06-16T07:32:30Z</time>
      </trkpt>
      <trkpt lat="45.63148" lon="4.61715">
        <ele>571.2</ele>
        <time>2019-06-16T07:32:35Z</time>
      </trkpt>
      <trkpt lat="45.63149" lon="4.61711">
        <ele>571.6</ele>
        <time>2019-06-16T07:32:37Z</time>
      </trkpt>
      <trkpt lat="45.63151" lon="4.61695">
        <ele>572.9</ele>
        <time>2019-06-16T07:32:44Z</time>
      </trkpt>
      <trkpt lat="45.63151" lon="4.61693">
        <ele>573.1</ele>
        <time>2019-06-16T07:32:45Z</time>
      </trkpt>
      <trkpt lat="45.63152" lon="4.61682">
        <ele>573.9</ele>
        <time>2019-06-16T07:32:50Z</time>
      </trkpt>
      <trkpt lat="45.63154" lon="4.61671">
        <ele>575.5</ele>
        <time>2019-06-16T07:32:55Z</time>
      </trkpt>
      <trkpt lat="45.63159" lon="4.61665">
        <ele>575.9</ele>
        <time>2019-06-16T07:32:59Z</time>
      </trkpt>
      <trkpt lat="45.63162" lon="4.61664">
        <ele>576.1</ele>
        <time>2019-06-16T07:33:01Z</time>
      </trkpt>
      <trkpt lat="45.63168" lon="4.61664">
        <ele>576.4</ele>
        <time>2019-06-16T07:33:05Z</time>
      </trkpt>
      <trkpt lat="45.63173" lon="4.61664">
        <ele>576.7</ele>
        <time>2019-06-16T07:33:08Z</time>
      </trkpt>
      <trkpt lat="45.63175" lon="4.61664">
        <ele>576.9</ele>
        <time>2019-06-16T07:33:09Z</time>
      </trkpt>
      <trkpt lat="45.63179" lon="4.61664">
        <ele>577.1</ele>
        <time>2019-06-16T07:33:12Z</time>
      </trkpt>
      <trkpt lat="45.63185" lon="4.61661">
        <ele>577.5</ele>
        <time>2019-06-16T07:33:16Z</time>
      </trkpt>
      <trkpt lat="45.63188" lon="4.61658">
        <ele>577.7</ele>
        <time>2019-06-16T07:33:18Z</time>
      </trkpt>
      <trkpt lat="45.63193" lon="4.61653">
        <ele>578.1</ele>
        <time>2019-06-16T07:33:22Z</time>
      </trkpt>
      <trkpt lat="45.63199" lon="4.61646">
        <ele>579.5</ele>
        <time>2019-06-16T07:33:26Z</time>
      </trkpt>
      <trkpt lat="45.63207" lon="4.61634">
        <ele>580.9</ele>
        <time>2019-06-16T07:33:32Z</time>
      </trkpt>
      <trkpt lat="45.6321" lon="4.61631">
        <ele>581.3</ele>
        <time>2019-06-16T07:33:34Z</time>
      </trkpt>
      <trkpt lat="45.63218" lon="4.61615">
        <ele>582.8</ele>
        <time>2019-06-16T07:33:42Z</time>
      </trkpt>
      <trkpt lat="45.63219" lon="4.61613">
        <ele>583</ele>
        <time>2019-06-16T07:33:43Z</time>
      </trkpt>
      <trkpt lat="45.63223" lon="4.61604">
        <ele>584.1</ele>
        <time>2019-06-16T07:33:48Z</time>
      </trkpt>
      <trkpt lat="45.63226" lon="4.61598">
        <ele>584.9</ele>
        <time>2019-06-16T07:33:51Z</time>
      </trkpt>
      <trkpt lat="45.6323" lon="4.6159">
        <ele>586</ele>
        <time>2019-06-16T07:33:55Z</time>
      </trkpt>
      <trkpt lat="45.63233" lon="4.61583">
        <ele>587.1</ele>
        <time>2019-06-16T07:33:59Z</time>
      </trkpt>
      <trkpt lat="45.63238" lon="4.61576">
        <ele>588.3</ele>
        <time>2019-06-16T07:34:03Z</time>
      </trkpt>
      <trkpt lat="45.63241" lon="4.6157">
        <ele>589</ele>
        <time>2019-06-16T07:34:06Z</time>
      </trkpt>
      <trkpt lat="45.63245" lon="4.61565">
        <ele>589.6</ele>
        <time>2019-06-16T07:34:09Z</time>
      </trkpt>
      <trkpt lat="45.63249" lon="4.61558">
        <ele>590.5</ele>
        <time>2019-06-16T07:34:13Z</time>
      </trkpt>
      <trkpt lat="45.63252" lon="4.61555">
        <ele>590.8</ele>
        <time>2019-06-16T07:34:15Z</time>
      </trkpt>
      <trkpt lat="45.63254" lon="4.61553">
        <ele>591.3</ele>
        <time>2019-06-16T07:34:17Z</time>
      </trkpt>
      <trkpt lat="45.63261" lon="4.61543">
        <ele>592.9</ele>
        <time>2019-06-16T07:34:23Z</time>
      </trkpt>
      <trkpt lat="45.63263" lon="4.61541">
        <ele>593.2</ele>
        <time>2019-06-16T07:34:24Z</time>
      </trkpt>
      <trkpt lat="45.63266" lon="4.61536">
        <ele>594</ele>
        <time>2019-06-16T07:34:27Z</time>
      </trkpt>
      <trkpt lat="45.6327" lon="4.61531">
        <ele>594.7</ele>
        <time>2019-06-16T07:34:30Z</time>
      </trkpt>
      <trkpt lat="45.63274" lon="4.61527">
        <ele>595.3</ele>
        <time>2019-06-16T07:34:33Z</time>
      </trkpt>
      <trkpt lat="45.63276" lon="4.61524">
        <ele>595.6</ele>
        <time>2019-06-16T07:34:35Z</time>
      </trkpt>
      <trkpt lat="45.63281" lon="4.61516">
        <ele>596.5</ele>
        <time>2019-06-16T07:34:40Z</time>
      </trkpt>
      <trkpt lat="45.63285" lon="4.61512">
        <ele>597.2</ele>
        <time>2019-06-16T07:34:43Z</time>
      </trkpt>
      <trkpt lat="45.63288" lon="4.61509">
        <ele>597.6</ele>
        <time>2019-06-16T07:34:45Z</time>
      </trkpt>
      <trkpt lat="45.63299" lon="4.61503">
        <ele>598.7</ele>
        <time>2019-06-16T07:34:51Z</time>
      </trkpt>
      <trkpt lat="45.63308" lon="4.61502">
        <ele>599.3</ele>
        <time>2019-06-16T07:34:56Z</time>
      </trkpt>
      <trkpt lat="45.63313" lon="4.61503">
        <ele>599.7</ele>
        <time>2019-06-16T07:34:59Z</time>
      </trkpt>
      <trkpt lat="45.63326" lon="4.61511">
        <ele>601.3</ele>
        <time>2019-06-16T07:35:06Z</time>
      </trkpt>
      <trkpt lat="45.63339" lon="4.61522">
        <ele>603.8</ele>
        <time>2019-06-16T07:35:14Z</time>
      </trkpt>
      <trkpt lat="45.63341" lon="4.61524">
        <ele>604.1</ele>
        <time>2019-06-16T07:35:15Z</time>
      </trkpt>
      <trkpt lat="45.6335" lon="4.61533">
        <ele>605.2</ele>
        <time>2019-06-16T07:35:21Z</time>
      </trkpt>
      <trkpt lat="45.63352" lon="4.61536">
        <ele>605.5</ele>
        <time>2019-06-16T07:35:23Z</time>
      </trkpt>
      <trkpt lat="45.63359" lon="4.61542">
        <ele>606.2</ele>
        <time>2019-06-16T07:35:28Z</time>
      </trkpt>
      <trkpt lat="45.63363" lon="4.61545">
        <ele>606.6</ele>
        <time>2019-06-16T07:35:31Z</time>
      </trkpt>
      <trkpt lat="45.63366" lon="4.61547">
        <ele>606.7</ele>
        <time>2019-06-16T07:35:33Z</time>
      </trkpt>
      <trkpt lat="45.63369" lon="4.61551">
        <ele>606.8</ele>
        <time>2019-06-16T07:35:35Z</time>
      </trkpt>
      <trkpt lat="45.63372" lon="4.61554">
        <ele>606.8</ele>
        <time>2019-06-16T07:35:37Z</time>
      </trkpt>
      <trkpt lat="45.63381" lon="4.61563">
        <ele>606.6</ele>
        <time>2019-06-16T07:35:43Z</time>
      </trkpt>
      <trkpt lat="45.63395" lon="4.61574">
        <ele>605.8</ele>
        <time>2019-06-16T07:35:49Z</time>
      </trkpt>
      <trkpt lat="45.63398" lon="4.61578">
        <ele>605.5</ele>
        <time>2019-06-16T07:35:50Z</time>
      </trkpt>
      <trkpt lat="45.63408" lon="4.61585">
        <ele>604.7</ele>
        <time>2019-06-16T07:35:52Z</time>
      </trkpt>
      <trkpt lat="45.63413" lon="4.61588">
        <ele>604.1</ele>
        <time>2019-06-16T07:35:53Z</time>
      </trkpt>
      <trkpt lat="45.6342" lon="4.61589">
        <ele>603.5</ele>
        <time>2019-06-16T07:35:54Z</time>
      </trkpt>
      <trkpt lat="45.63433" lon="4.61593">
        <ele>602.3</ele>
        <time>2019-06-16T07:35:56Z</time>
      </trkpt>
      <trkpt lat="45.63439" lon="4.61594">
        <ele>601.8</ele>
        <time>2019-06-16T07:35:57Z</time>
      </trkpt>
      <trkpt lat="45.63445" lon="4.61594">
        <ele>601.3</ele>
        <time>2019-06-16T07:35:58Z</time>
      </trkpt>
      <trkpt lat="45.63458" lon="4.61591">
        <ele>600.5</ele>
        <time>2019-06-16T07:36:00Z</time>
      </trkpt>
      <trkpt lat="45.63465" lon="4.61588">
        <ele>600.1</ele>
        <time>2019-06-16T07:36:01Z</time>
      </trkpt>
      <trkpt lat="45.63471" lon="4.61583">
        <ele>599.7</ele>
        <time>2019-06-16T07:36:02Z</time>
      </trkpt>
      <trkpt lat="45.63489" lon="4.61565">
        <ele>598.4</ele>
        <time>2019-06-16T07:36:05Z</time>
      </trkpt>
      <trkpt lat="45.635" lon="4.61541">
        <ele>596.6</ele>
        <time>2019-06-16T07:36:08Z</time>
      </trkpt>
      <trkpt lat="45.63504" lon="4.61532">
        <ele>596</ele>
        <time>2019-06-16T07:36:09Z</time>
      </trkpt>
      <trkpt lat="45.63513" lon="4.61514">
        <ele>594.8</ele>
        <time>2019-06-16T07:36:11Z</time>
      </trkpt>
      <trkpt lat="45.63524" lon="4.61483">
        <ele>593.4</ele>
        <time>2019-06-16T07:36:14Z</time>
      </trkpt>
      <trkpt lat="45.63528" lon="4.61475">
        <ele>593.3</ele>
        <time>2019-06-16T07:36:15Z</time>
      </trkpt>
      <trkpt lat="45.63537" lon="4.61466">
        <ele>593.6</ele>
        <time>2019-06-16T07:36:17Z</time>
      </trkpt>
      <trkpt lat="45.63542" lon="4.61464">
        <ele>593.9</ele>
        <time>2019-06-16T07:36:18Z</time>
      </trkpt>
      <trkpt lat="45.63547" lon="4.61463">
        <ele>594.2</ele>
        <time>2019-06-16T07:36:19Z</time>
      </trkpt>
      <trkpt lat="45.63558" lon="4.6146">
        <ele>595</ele>
        <time>2019-06-16T07:36:21Z</time>
      </trkpt>
      <trkpt lat="45.63563" lon="4.61458">
        <ele>595.5</ele>
        <time>2019-06-16T07:36:22Z</time>
      </trkpt>
      <trkpt lat="45.63567" lon="4.61456">
        <ele>595.8</ele>
        <time>2019-06-16T07:36:23Z</time>
      </trkpt>
      <trkpt lat="45.63585" lon="4.61455">
        <ele>597.5</ele>
        <time>2019-06-16T07:36:28Z</time>
      </trkpt>
      <trkpt lat="45.63602" lon="4.61462">
        <ele>599.3</ele>
        <time>2019-06-16T07:36:35Z</time>
      </trkpt>
      <trkpt lat="45.63604" lon="4.61463">
        <ele>599.4</ele>
        <time>2019-06-16T07:36:36Z</time>
      </trkpt>
      <trkpt lat="45.63612" lon="4.6147">
        <ele>599.9</ele>
        <time>2019-06-16T07:36:40Z</time>
      </trkpt>
      <trkpt lat="45.63616" lon="4.61474">
        <ele>600.2</ele>
        <time>2019-06-16T07:36:42Z</time>
      </trkpt>
      <trkpt lat="45.63626" lon="4.61493">
        <ele>600.7</ele>
        <time>2019-06-16T07:36:49Z</time>
      </trkpt>
      <trkpt lat="45.63628" lon="4.61496">
        <ele>600.8</ele>
        <time>2019-06-16T07:36:50Z</time>
      </trkpt>
      <trkpt lat="45.63638" lon="4.61507">
        <ele>601.3</ele>
        <time>2019-06-16T07:36:54Z</time>
      </trkpt>
      <trkpt lat="45.6365" lon="4.61505">
        <ele>601.8</ele>
        <time>2019-06-16T07:36:58Z</time>
      </trkpt>
      <trkpt lat="45.63662" lon="4.61498">
        <ele>602.8</ele>
        <time>2019-06-16T07:37:02Z</time>
      </trkpt>
      <trkpt lat="45.63663" lon="4.61498">
        <ele>602.9</ele>
        <time>2019-06-16T07:37:03Z</time>
      </trkpt>
      <trkpt lat="45.63668" lon="4.61496">
        <ele>603.3</ele>
        <time>2019-06-16T07:37:06Z</time>
      </trkpt>
      <trkpt lat="45.63686" lon="4.61486">
        <ele>604.8</ele>
        <time>2019-06-16T07:37:13Z</time>
      </trkpt>
      <trkpt lat="45.63711" lon="4.61474">
        <ele>608.1</ele>
        <time>2019-06-16T07:37:23Z</time>
      </trkpt>
      <trkpt lat="45.63726" lon="4.61472">
        <ele>608.1</ele>
        <time>2019-06-16T07:37:29Z</time>
      </trkpt>
      <trkpt lat="45.6373" lon="4.61472">
        <ele>608.1</ele>
        <time>2019-06-16T07:37:31Z</time>
      </trkpt>
      <trkpt lat="45.63739" lon="4.61473">
        <ele>608.1</ele>
        <time>2019-06-16T07:37:35Z</time>
      </trkpt>
      <trkpt lat="45.63748" lon="4.61479">
        <ele>608.3</ele>
        <time>2019-06-16T07:37:40Z</time>
      </trkpt>
      <trkpt lat="45.63751" lon="4.61483">
        <ele>608.3</ele>
        <time>2019-06-16T07:37:42Z</time>
      </trkpt>
      <trkpt lat="45.63756" lon="4.61493">
        <ele>608.5</ele>
        <time>2019-06-16T07:37:46Z</time>
      </trkpt>
      <trkpt lat="45.6376" lon="4.61501">
        <ele>608.8</ele>
        <time>2019-06-16T07:37:50Z</time>
      </trkpt>
      <trkpt lat="45.63766" lon="4.61513">
        <ele>609.1</ele>
        <time>2019-06-16T07:37:55Z</time>
      </trkpt>
      <trkpt lat="45.63769" lon="4.61519">
        <ele>609.3</ele>
        <time>2019-06-16T07:37:58Z</time>
      </trkpt>
      <trkpt lat="45.6377" lon="4.61532">
        <ele>609.7</ele>
        <time>2019-06-16T07:38:04Z</time>
      </trkpt>
      <trkpt lat="45.6377" lon="4.61536">
        <ele>609.8</ele>
        <time>2019-06-16T07:38:06Z</time>
      </trkpt>
      <trkpt lat="45.63772" lon="4.61546">
        <ele>610.2</ele>
        <time>2019-06-16T07:38:10Z</time>
      </trkpt>
      <trkpt lat="45.63774" lon="4.61555">
        <ele>610.5</ele>
        <time>2019-06-16T07:38:14Z</time>
      </trkpt>
      <trkpt lat="45.63774" lon="4.61558">
        <ele>610.6</ele>
        <time>2019-06-16T07:38:15Z</time>
      </trkpt>
      <trkpt lat="45.63778" lon="4.61568">
        <ele>611.2</ele>
        <time>2019-06-16T07:38:20Z</time>
      </trkpt>
      <trkpt lat="45.63782" lon="4.61575">
        <ele>611.5</ele>
        <time>2019-06-16T07:38:24Z</time>
      </trkpt>
      <trkpt lat="45.63785" lon="4.6158">
        <ele>611.9</ele>
        <time>2019-06-16T07:38:28Z</time>
      </trkpt>
      <trkpt lat="45.63787" lon="4.61583">
        <ele>612.1</ele>
        <time>2019-06-16T07:38:30Z</time>
      </trkpt>
      <trkpt lat="45.63793" lon="4.61595">
        <ele>612.8</ele>
        <time>2019-06-16T07:38:37Z</time>
      </trkpt>
      <trkpt lat="45.63794" lon="4.61597">
        <ele>612.9</ele>
        <time>2019-06-16T07:38:38Z</time>
      </trkpt>
      <trkpt lat="45.63795" lon="4.61597">
        <ele>613</ele>
        <time>2019-06-16T07:38:39Z</time>
      </trkpt>
      <trkpt lat="45.63798" lon="4.61597">
        <ele>613.2</ele>
        <time>2019-06-16T07:38:41Z</time>
      </trkpt>
      <trkpt lat="45.63799" lon="4.61596">
        <ele>613.3</ele>
        <time>2019-06-16T07:38:42Z</time>
      </trkpt>
      <trkpt lat="45.63801" lon="4.61591">
        <ele>614</ele>
        <time>2019-06-16T07:38:45Z</time>
      </trkpt>
      <trkpt lat="45.63801" lon="4.61589">
        <ele>614.1</ele>
        <time>2019-06-16T07:38:46Z</time>
      </trkpt>
      <trkpt lat="45.63803" lon="4.61586">
        <ele>614.4</ele>
        <time>2019-06-16T07:38:48Z</time>
      </trkpt>
      <trkpt lat="45.63806" lon="4.61581">
        <ele>615.6</ele>
        <time>2019-06-16T07:38:51Z</time>
      </trkpt>
      <trkpt lat="45.63808" lon="4.61576">
        <ele>616.1</ele>
        <time>2019-06-16T07:38:54Z</time>
      </trkpt>
      <trkpt lat="45.6381" lon="4.61573">
        <ele>616.4</ele>
        <time>2019-06-16T07:38:56Z</time>
      </trkpt>
      <trkpt lat="45.6381" lon="4.61572">
        <ele>616.5</ele>
        <time>2019-06-16T07:38:57Z</time>
      </trkpt>
      <trkpt lat="45.63815" lon="4.61567">
        <ele>617.2</ele>
        <time>2019-06-16T07:39:01Z</time>
      </trkpt>
      <trkpt lat="45.63818" lon="4.61564">
        <ele>617.7</ele>
        <time>2019-06-16T07:39:04Z</time>
      </trkpt>
      <trkpt lat="45.6382" lon="4.61559">
        <ele>618.3</ele>
        <time>2019-06-16T07:39:07Z</time>
      </trkpt>
      <trkpt lat="45.63823" lon="4.61555">
        <ele>619</ele>
        <time>2019-06-16T07:39:10Z</time>
      </trkpt>
      <trkpt lat="45.63826" lon="4.61551">
        <ele>619.6</ele>
        <time>2019-06-16T07:39:13Z</time>
      </trkpt>
      <trkpt lat="45.6383" lon="4.61547">
        <ele>620.2</ele>
        <time>2019-06-16T07:39:16Z</time>
      </trkpt>
      <trkpt lat="45.63834" lon="4.61543">
        <ele>621</ele>
        <time>2019-06-16T07:39:20Z</time>
      </trkpt>
      <trkpt lat="45.63838" lon="4.61536">
        <ele>621.9</ele>
        <time>2019-06-16T07:39:25Z</time>
      </trkpt>
      <trkpt lat="45.63841" lon="4.61533">
        <ele>622.4</ele>
        <time>2019-06-16T07:39:28Z</time>
      </trkpt>
      <trkpt lat="45.63844" lon="4.61531">
        <ele>622.7</ele>
        <time>2019-06-16T07:39:30Z</time>
      </trkpt>
      <trkpt lat="45.63848" lon="4.61526">
        <ele>624</ele>
        <time>2019-06-16T07:39:34Z</time>
      </trkpt>
      <trkpt lat="45.63851" lon="4.61523">
        <ele>624.1</ele>
        <time>2019-06-16T07:39:36Z</time>
      </trkpt>
      <trkpt lat="45.63861" lon="4.61513">
        <ele>624.6</ele>
        <time>2019-06-16T07:39:42Z</time>
      </trkpt>
      <trkpt lat="45.63868" lon="4.61507">
        <ele>624.9</ele>
        <time>2019-06-16T07:39:46Z</time>
      </trkpt>
      <trkpt lat="45.6387" lon="4.61506">
        <ele>625</ele>
        <time>2019-06-16T07:39:47Z</time>
      </trkpt>
      <trkpt lat="45.6388" lon="4.61497">
        <ele>625.4</ele>
        <time>2019-06-16T07:39:53Z</time>
      </trkpt>
      <trkpt lat="45.63882" lon="4.61496">
        <ele>625.5</ele>
        <time>2019-06-16T07:39:54Z</time>
      </trkpt>
      <trkpt lat="45.63888" lon="4.61493">
        <ele>625.5</ele>
        <time>2019-06-16T07:39:57Z</time>
      </trkpt>
      <trkpt lat="45.63896" lon="4.6149">
        <ele>625.5</ele>
        <time>2019-06-16T07:40:00Z</time>
      </trkpt>
      <trkpt lat="45.63917" lon="4.61482">
        <ele>625.4</ele>
        <time>2019-06-16T07:40:06Z</time>
      </trkpt>
      <trkpt lat="45.6393" lon="4.61478">
        <ele>625.2</ele>
        <time>2019-06-16T07:40:09Z</time>
      </trkpt>
      <trkpt lat="45.63939" lon="4.61475">
        <ele>624.9</ele>
        <time>2019-06-16T07:40:11Z</time>
      </trkpt>
      <trkpt lat="45.63941" lon="4.61472">
        <ele>624.8</ele>
        <time>2019-06-16T07:40:12Z</time>
      </trkpt>
      <trkpt lat="45.63947" lon="4.61458">
        <ele>624.1</ele>
        <time>2019-06-16T07:40:15Z</time>
      </trkpt>
      <trkpt lat="45.6395" lon="4.61453">
        <ele>623.7</ele>
        <time>2019-06-16T07:40:16Z</time>
      </trkpt>
      <trkpt lat="45.63963" lon="4.61429">
        <ele>621.6</ele>
        <time>2019-06-16T07:40:20Z</time>
      </trkpt>
      <trkpt lat="45.63966" lon="4.61422">
        <ele>620.8</ele>
        <time>2019-06-16T07:40:21Z</time>
      </trkpt>
      <trkpt lat="45.6397" lon="4.61415">
        <ele>620</ele>
        <time>2019-06-16T07:40:22Z</time>
      </trkpt>
      <trkpt lat="45.63975" lon="4.61409">
        <ele>619.1</ele>
        <time>2019-06-16T07:40:23Z</time>
      </trkpt>
      <trkpt lat="45.6398" lon="4.61404">
        <ele>618.1</ele>
        <time>2019-06-16T07:40:24Z</time>
      </trkpt>
      <trkpt lat="45.63989" lon="4.61394">
        <ele>616.4</ele>
        <time>2019-06-16T07:40:26Z</time>
      </trkpt>
      <trkpt lat="45.63994" lon="4.6139">
        <ele>615.5</ele>
        <time>2019-06-16T07:40:27Z</time>
      </trkpt>
      <trkpt lat="45.64003" lon="4.61383">
        <ele>613.8</ele>
        <time>2019-06-16T07:40:29Z</time>
      </trkpt>
      <trkpt lat="45.64008" lon="4.61379">
        <ele>613.1</ele>
        <time>2019-06-16T07:40:30Z</time>
      </trkpt>
      <trkpt lat="45.64014" lon="4.61376">
        <ele>612.1</ele>
        <time>2019-06-16T07:40:31Z</time>
      </trkpt>
      <trkpt lat="45.64019" lon="4.61373">
        <ele>611</ele>
        <time>2019-06-16T07:40:32Z</time>
      </trkpt>
      <trkpt lat="45.64023" lon="4.61371">
        <ele>610.2</ele>
        <time>2019-06-16T07:40:33Z</time>
      </trkpt>
      <trkpt lat="45.64027" lon="4.61368">
        <ele>609.2</ele>
        <time>2019-06-16T07:40:34Z</time>
      </trkpt>
      <trkpt lat="45.64033" lon="4.61364">
        <ele>608.2</ele>
        <time>2019-06-16T07:40:35Z</time>
      </trkpt>
      <trkpt lat="45.64038" lon="4.61361">
        <ele>607.3</ele>
        <time>2019-06-16T07:40:36Z</time>
      </trkpt>
      <trkpt lat="45.64044" lon="4.61359">
        <ele>606.4</ele>
        <time>2019-06-16T07:40:37Z</time>
      </trkpt>
      <trkpt lat="45.64049" lon="4.61357">
        <ele>605.3</ele>
        <time>2019-06-16T07:40:38Z</time>
      </trkpt>
      <trkpt lat="45.64054" lon="4.61354">
        <ele>604.2</ele>
        <time>2019-06-16T07:40:39Z</time>
      </trkpt>
      <trkpt lat="45.64059" lon="4.61352">
        <ele>603.2</ele>
        <time>2019-06-16T07:40:40Z</time>
      </trkpt>
      <trkpt lat="45.64065" lon="4.6135">
        <ele>602.1</ele>
        <time>2019-06-16T07:40:41Z</time>
      </trkpt>
      <trkpt lat="45.64071" lon="4.61349">
        <ele>601.1</ele>
        <time>2019-06-16T07:40:42Z</time>
      </trkpt>
      <trkpt lat="45.64077" lon="4.61348">
        <ele>600.2</ele>
        <time>2019-06-16T07:40:43Z</time>
      </trkpt>
      <trkpt lat="45.64082" lon="4.61349">
        <ele>599.4</ele>
        <time>2019-06-16T07:40:44Z</time>
      </trkpt>
      <trkpt lat="45.64086" lon="4.6135">
        <ele>598.7</ele>
        <time>2019-06-16T07:40:45Z</time>
      </trkpt>
      <trkpt lat="45.64092" lon="4.61351">
        <ele>597.9</ele>
        <time>2019-06-16T07:40:46Z</time>
      </trkpt>
      <trkpt lat="45.64099" lon="4.61352">
        <ele>597.1</ele>
        <time>2019-06-16T07:40:47Z</time>
      </trkpt>
      <trkpt lat="45.64105" lon="4.61353">
        <ele>596.2</ele>
        <time>2019-06-16T07:40:48Z</time>
      </trkpt>
      <trkpt lat="45.64112" lon="4.61354">
        <ele>595.2</ele>
        <time>2019-06-16T07:40:49Z</time>
      </trkpt>
      <trkpt lat="45.64118" lon="4.61355">
        <ele>594.5</ele>
        <time>2019-06-16T07:40:50Z</time>
      </trkpt>
      <trkpt lat="45.64124" lon="4.61356">
        <ele>593.9</ele>
        <time>2019-06-16T07:40:51Z</time>
      </trkpt>
      <trkpt lat="45.64128" lon="4.61356">
        <ele>593.4</ele>
        <time>2019-06-16T07:40:52Z</time>
      </trkpt>
      <trkpt lat="45.64133" lon="4.61356">
        <ele>593</ele>
        <time>2019-06-16T07:40:53Z</time>
      </trkpt>
      <trkpt lat="45.64138" lon="4.61356">
        <ele>592.5</ele>
        <time>2019-06-16T07:40:54Z</time>
      </trkpt>
      <trkpt lat="45.64142" lon="4.61355">
        <ele>592.1</ele>
        <time>2019-06-16T07:40:55Z</time>
      </trkpt>
      <trkpt lat="45.64145" lon="4.61354">
        <ele>591.8</ele>
        <time>2019-06-16T07:40:56Z</time>
      </trkpt>
      <trkpt lat="45.64148" lon="4.61354">
        <ele>591.5</ele>
        <time>2019-06-16T07:40:57Z</time>
      </trkpt>
      <trkpt lat="45.64154" lon="4.61353">
        <ele>590.9</ele>
        <time>2019-06-16T07:40:59Z</time>
      </trkpt>
      <trkpt lat="45.6416" lon="4.61352">
        <ele>590.3</ele>
        <time>2019-06-16T07:41:01Z</time>
      </trkpt>
      <trkpt lat="45.64165" lon="4.61353">
        <ele>589.9</ele>
        <time>2019-06-16T07:41:02Z</time>
      </trkpt>
      <trkpt lat="45.6417" lon="4.61354">
        <ele>589.5</ele>
        <time>2019-06-16T07:41:03Z</time>
      </trkpt>
      <trkpt lat="45.64181" lon="4.61357">
        <ele>588.4</ele>
        <time>2019-06-16T07:41:05Z</time>
      </trkpt>
      <trkpt lat="45.64188" lon="4.61358">
        <ele>587.8</ele>
        <time>2019-06-16T07:41:06Z</time>
      </trkpt>
      <trkpt lat="45.64201" lon="4.6136">
        <ele>586.5</ele>
        <time>2019-06-16T07:41:08Z</time>
      </trkpt>
      <trkpt lat="45.64214" lon="4.61361">
        <ele>584.8</ele>
        <time>2019-06-16T07:41:10Z</time>
      </trkpt>
      <trkpt lat="45.64225" lon="4.61361">
        <ele>583.5</ele>
        <time>2019-06-16T07:41:12Z</time>
      </trkpt>
      <trkpt lat="45.64236" lon="4.61362">
        <ele>582.4</ele>
        <time>2019-06-16T07:41:14Z</time>
      </trkpt>
      <trkpt lat="45.64243" lon="4.61362">
        <ele>581.9</ele>
        <time>2019-06-16T07:41:16Z</time>
      </trkpt>
      <trkpt lat="45.64246" lon="4.61363">
        <ele>582.3</ele>
        <time>2019-06-16T07:41:17Z</time>
      </trkpt>
      <trkpt lat="45.64248" lon="4.61365">
        <ele>582.5</ele>
        <time>2019-06-16T07:41:18Z</time>
      </trkpt>
      <trkpt lat="45.6425" lon="4.61368">
        <ele>583</ele>
        <time>2019-06-16T07:41:20Z</time>
      </trkpt>
      <trkpt lat="45.64251" lon="4.61369">
        <ele>583.2</ele>
        <time>2019-06-16T07:41:21Z</time>
      </trkpt>
      <trkpt lat="45.64253" lon="4.61372">
        <ele>583.6</ele>
        <time>2019-06-16T07:41:23Z</time>
      </trkpt>
      <trkpt lat="45.64254" lon="4.61373">
        <ele>583.9</ele>
        <time>2019-06-16T07:41:24Z</time>
      </trkpt>
      <trkpt lat="45.64256" lon="4.61376">
        <ele>584.3</ele>
        <time>2019-06-16T07:41:26Z</time>
      </trkpt>
      <trkpt lat="45.64258" lon="4.61382">
        <ele>585.1</ele>
        <time>2019-06-16T07:41:31Z</time>
      </trkpt>
      <trkpt lat="45.64281" lon="4.61442">
        <ele>593.4</ele>
        <time>2019-06-16T07:42:30Z</time>
      </trkpt>
      <trkpt lat="45.64282" lon="4.61444">
        <ele>593.6</ele>
        <time>2019-06-16T07:42:31Z</time>
      </trkpt>
      <trkpt lat="45.64283" lon="4.61445">
        <ele>593.9</ele>
        <time>2019-06-16T07:42:32Z</time>
      </trkpt>
      <trkpt lat="45.64285" lon="4.61448">
        <ele>594.4</ele>
        <time>2019-06-16T07:42:34Z</time>
      </trkpt>
      <trkpt lat="45.64332" lon="4.61533">
        <ele>614.3</ele>
        <time>2019-06-16T07:44:24Z</time>
      </trkpt>
      <trkpt lat="45.64333" lon="4.61534">
        <ele>614.6</ele>
        <time>2019-06-16T07:44:25Z</time>
      </trkpt>
      <trkpt lat="45.64338" lon="4.6154">
        <ele>615.8</ele>
        <time>2019-06-16T07:44:29Z</time>
      </trkpt>
      <trkpt lat="45.64373" lon="4.61614">
        <ele>625.4</ele>
        <time>2019-06-16T07:45:18Z</time>
      </trkpt>
      <trkpt lat="45.644" lon="4.6167">
        <ele>630</ele>
        <time>2019-06-16T07:45:55Z</time>
      </trkpt>
      <trkpt lat="45.64401" lon="4.61672">
        <ele>630.1</ele>
        <time>2019-06-16T07:45:56Z</time>
      </trkpt>
      <trkpt lat="45.64411" lon="4.61687">
        <ele>630.8</ele>
        <time>2019-06-16T07:46:02Z</time>
      </trkpt>
      <trkpt lat="45.64414" lon="4.6169">
        <ele>630.9</ele>
        <time>2019-06-16T07:46:03Z</time>
      </trkpt>
      <trkpt lat="45.64416" lon="4.61695">
        <ele>631.1</ele>
        <time>2019-06-16T07:46:04Z</time>
      </trkpt>
      <trkpt lat="45.64421" lon="4.61702">
        <ele>631.5</ele>
        <time>2019-06-16T07:46:06Z</time>
      </trkpt>
      <trkpt lat="45.64426" lon="4.61708">
        <ele>631.9</ele>
        <time>2019-06-16T07:46:08Z</time>
      </trkpt>
      <trkpt lat="45.64431" lon="4.61713">
        <ele>632.3</ele>
        <time>2019-06-16T07:46:10Z</time>
      </trkpt>
      <trkpt lat="45.64449" lon="4.61719">
        <ele>633.8</ele>
        <time>2019-06-16T07:46:16Z</time>
      </trkpt>
      <trkpt lat="45.64462" lon="4.61726">
        <ele>635.2</ele>
        <time>2019-06-16T07:46:23Z</time>
      </trkpt>
      <trkpt lat="45.64467" lon="4.6173">
        <ele>635.7</ele>
        <time>2019-06-16T07:46:26Z</time>
      </trkpt>
      <trkpt lat="45.64472" lon="4.61735">
        <ele>636.3</ele>
        <time>2019-06-16T07:46:29Z</time>
      </trkpt>
      <trkpt lat="45.64478" lon="4.61743">
        <ele>636.9</ele>
        <time>2019-06-16T07:46:33Z</time>
      </trkpt>
      <trkpt lat="45.64481" lon="4.61747">
        <ele>637.2</ele>
        <time>2019-06-16T07:46:35Z</time>
      </trkpt>
      <trkpt lat="45.64485" lon="4.61751">
        <ele>637.4</ele>
        <time>2019-06-16T07:46:37Z</time>
      </trkpt>
      <trkpt lat="45.64489" lon="4.61756">
        <ele>637.8</ele>
        <time>2019-06-16T07:46:40Z</time>
      </trkpt>
      <trkpt lat="45.64492" lon="4.61759">
        <ele>638.1</ele>
        <time>2019-06-16T07:46:42Z</time>
      </trkpt>
      <trkpt lat="45.64494" lon="4.61762">
        <ele>638.2</ele>
        <time>2019-06-16T07:46:43Z</time>
      </trkpt>
      <trkpt lat="45.64501" lon="4.61773">
        <ele>638.9</ele>
        <time>2019-06-16T07:46:47Z</time>
      </trkpt>
      <trkpt lat="45.64503" lon="4.61776">
        <ele>639</ele>
        <time>2019-06-16T07:46:48Z</time>
      </trkpt>
      <trkpt lat="45.64507" lon="4.61783">
        <ele>639.5</ele>
        <time>2019-06-16T07:46:50Z</time>
      </trkpt>
      <trkpt lat="45.6451" lon="4.61791">
        <ele>640.2</ele>
        <time>2019-06-16T07:46:53Z</time>
      </trkpt>
      <trkpt lat="45.64511" lon="4.61793">
        <ele>640.3</ele>
        <time>2019-06-16T07:46:54Z</time>
      </trkpt>
      <trkpt lat="45.64511" lon="4.61796">
        <ele>640.5</ele>
        <time>2019-06-16T07:46:55Z</time>
      </trkpt>
      <trkpt lat="45.64509" lon="4.61799">
        <ele>640.7</ele>
        <time>2019-06-16T07:46:56Z</time>
      </trkpt>
      <trkpt lat="45.64506" lon="4.61803">
        <ele>641.1</ele>
        <time>2019-06-16T07:46:58Z</time>
      </trkpt>
      <trkpt lat="45.64501" lon="4.61809">
        <ele>641.7</ele>
        <time>2019-06-16T07:47:01Z</time>
      </trkpt>
      <trkpt lat="45.64498" lon="4.61813">
        <ele>642.1</ele>
        <time>2019-06-16T07:47:03Z</time>
      </trkpt>
      <trkpt lat="45.6449" lon="4.61825">
        <ele>643.1</ele>
        <time>2019-06-16T07:47:10Z</time>
      </trkpt>
      <trkpt lat="45.6448" lon="4.61827">
        <ele>643.7</ele>
        <time>2019-06-16T07:47:16Z</time>
      </trkpt>
      <trkpt lat="45.6447" lon="4.61827">
        <ele>644.1</ele>
        <time>2019-06-16T07:47:22Z</time>
      </trkpt>
      <trkpt lat="45.6446" lon="4.61827">
        <ele>644.3</ele>
        <time>2019-06-16T07:47:28Z</time>
      </trkpt>
      <trkpt lat="45.64458" lon="4.61827">
        <ele>644.3</ele>
        <time>2019-06-16T07:47:29Z</time>
      </trkpt>
      <trkpt lat="45.64456" lon="4.61827">
        <ele>644.4</ele>
        <time>2019-06-16T07:47:30Z</time>
      </trkpt>
      <trkpt lat="45.64449" lon="4.61831">
        <ele>644.5</ele>
        <time>2019-06-16T07:47:33Z</time>
      </trkpt>
      <trkpt lat="45.64445" lon="4.61835">
        <ele>644.6</ele>
        <time>2019-06-16T07:47:35Z</time>
      </trkpt>
      <trkpt lat="45.64436" lon="4.61849">
        <ele>644.9</ele>
        <time>2019-06-16T07:47:39Z</time>
      </trkpt>
      <trkpt lat="45.64434" lon="4.61852">
        <ele>644.9</ele>
        <time>2019-06-16T07:47:40Z</time>
      </trkpt>
      <trkpt lat="45.64422" lon="4.61878">
        <ele>645.5</ele>
        <time>2019-06-16T07:47:47Z</time>
      </trkpt>
      <trkpt lat="45.64421" lon="4.61882">
        <ele>645.5</ele>
        <time>2019-06-16T07:47:48Z</time>
      </trkpt>
      <trkpt lat="45.64413" lon="4.61916">
        <ele>646.6</ele>
        <time>2019-06-16T07:47:56Z</time>
      </trkpt>
      <trkpt lat="45.64417" lon="4.61946">
        <ele>647.9</ele>
        <time>2019-06-16T07:48:03Z</time>
      </trkpt>
      <trkpt lat="45.64424" lon="4.61973">
        <ele>649.7</ele>
        <time>2019-06-16T07:48:10Z</time>
      </trkpt>
      <trkpt lat="45.64432" lon="4.61998">
        <ele>651.6</ele>
        <time>2019-06-16T07:48:17Z</time>
      </trkpt>
      <trkpt lat="45.64439" lon="4.62024">
        <ele>653</ele>
        <time>2019-06-16T07:48:24Z</time>
      </trkpt>
      <trkpt lat="45.64441" lon="4.62031">
        <ele>653.3</ele>
        <time>2019-06-16T07:48:26Z</time>
      </trkpt>
      <trkpt lat="45.64445" lon="4.62044">
        <ele>654</ele>
        <time>2019-06-16T07:48:30Z</time>
      </trkpt>
      <trkpt lat="45.64448" lon="4.62055">
        <ele>654.8</ele>
        <time>2019-06-16T07:48:33Z</time>
      </trkpt>
      <trkpt lat="45.64452" lon="4.6207">
        <ele>655.4</ele>
        <time>2019-06-16T07:48:37Z</time>
      </trkpt>
      <trkpt lat="45.64455" lon="4.62088">
        <ele>656.1</ele>
        <time>2019-06-16T07:48:42Z</time>
      </trkpt>
      <trkpt lat="45.64456" lon="4.62092">
        <ele>656.2</ele>
        <time>2019-06-16T07:48:43Z</time>
      </trkpt>
      <trkpt lat="45.64458" lon="4.62111">
        <ele>656.9</ele>
        <time>2019-06-16T07:48:48Z</time>
      </trkpt>
      <trkpt lat="45.6446" lon="4.62123">
        <ele>657.3</ele>
        <time>2019-06-16T07:48:51Z</time>
      </trkpt>
      <trkpt lat="45.64461" lon="4.62135">
        <ele>657.6</ele>
        <time>2019-06-16T07:48:54Z</time>
      </trkpt>
      <trkpt lat="45.64463" lon="4.62163">
        <ele>658.4</ele>
        <time>2019-06-16T07:49:01Z</time>
      </trkpt>
      <trkpt lat="45.64464" lon="4.62171">
        <ele>658.6</ele>
        <time>2019-06-16T07:49:03Z</time>
      </trkpt>
      <trkpt lat="45.64466" lon="4.62197">
        <ele>658.9</ele>
        <time>2019-06-16T07:49:10Z</time>
      </trkpt>
      <trkpt lat="45.64467" lon="4.62211">
        <ele>658.9</ele>
        <time>2019-06-16T07:49:14Z</time>
      </trkpt>
      <trkpt lat="45.64468" lon="4.62217">
        <ele>658.8</ele>
        <time>2019-06-16T07:49:16Z</time>
      </trkpt>
      <trkpt lat="45.64466" lon="4.62236">
        <ele>658.6</ele>
        <time>2019-06-16T07:49:20Z</time>
      </trkpt>
      <trkpt lat="45.64462" lon="4.62273">
        <ele>657.5</ele>
        <time>2019-06-16T07:49:27Z</time>
      </trkpt>
      <trkpt lat="45.64458" lon="4.62311">
        <ele>655.2</ele>
        <time>2019-06-16T07:49:33Z</time>
      </trkpt>
      <trkpt lat="45.64455" lon="4.62336">
        <ele>652.8</ele>
        <time>2019-06-16T07:49:36Z</time>
      </trkpt>
      <trkpt lat="45.64455" lon="4.62353">
        <ele>651</ele>
        <time>2019-06-16T07:49:38Z</time>
      </trkpt>
      <trkpt lat="45.64455" lon="4.62371">
        <ele>649.4</ele>
        <time>2019-06-16T07:49:40Z</time>
      </trkpt>
      <trkpt lat="45.64455" lon="4.6239">
        <ele>648.1</ele>
        <time>2019-06-16T07:49:42Z</time>
      </trkpt>
      <trkpt lat="45.64457" lon="4.62408">
        <ele>647.1</ele>
        <time>2019-06-16T07:49:44Z</time>
      </trkpt>
      <trkpt lat="45.6446" lon="4.6243">
        <ele>645.5</ele>
        <time>2019-06-16T07:49:46Z</time>
      </trkpt>
      <trkpt lat="45.64464" lon="4.62446">
        <ele>644</ele>
        <time>2019-06-16T07:49:48Z</time>
      </trkpt>
      <trkpt lat="45.64469" lon="4.6246">
        <ele>642.6</ele>
        <time>2019-06-16T07:49:50Z</time>
      </trkpt>
      <trkpt lat="45.6447" lon="4.62467">
        <ele>640.9</ele>
        <time>2019-06-16T07:49:51Z</time>
      </trkpt>
      <trkpt lat="45.64467" lon="4.62473">
        <ele>640</ele>
        <time>2019-06-16T07:49:52Z</time>
      </trkpt>
      <trkpt lat="45.64462" lon="4.62478">
        <ele>639.1</ele>
        <time>2019-06-16T07:49:53Z</time>
      </trkpt>
      <trkpt lat="45.64457" lon="4.62481">
        <ele>638.3</ele>
        <time>2019-06-16T07:49:54Z</time>
      </trkpt>
      <trkpt lat="45.6445" lon="4.62483">
        <ele>637.4</ele>
        <time>2019-06-16T07:49:55Z</time>
      </trkpt>
      <trkpt lat="45.64435" lon="4.62485">
        <ele>635.7</ele>
        <time>2019-06-16T07:49:57Z</time>
      </trkpt>
      <trkpt lat="45.64428" lon="4.62485">
        <ele>634.8</ele>
        <time>2019-06-16T07:49:58Z</time>
      </trkpt>
      <trkpt lat="45.6442" lon="4.62486">
        <ele>633.9</ele>
        <time>2019-06-16T07:49:59Z</time>
      </trkpt>
      <trkpt lat="45.64406" lon="4.62491">
        <ele>632</ele>
        <time>2019-06-16T07:50:01Z</time>
      </trkpt>
      <trkpt lat="45.64401" lon="4.62499">
        <ele>631</ele>
        <time>2019-06-16T07:50:02Z</time>
      </trkpt>
      <trkpt lat="45.64398" lon="4.62509">
        <ele>630</ele>
        <time>2019-06-16T07:50:03Z</time>
      </trkpt>
      <trkpt lat="45.64396" lon="4.6252">
        <ele>628.9</ele>
        <time>2019-06-16T07:50:04Z</time>
      </trkpt>
      <trkpt lat="45.64396" lon="4.62533">
        <ele>627.8</ele>
        <time>2019-06-16T07:50:05Z</time>
      </trkpt>
      <trkpt lat="45.64396" lon="4.62546">
        <ele>626.6</ele>
        <time>2019-06-16T07:50:06Z</time>
      </trkpt>
      <trkpt lat="45.64397" lon="4.62559">
        <ele>625.6</ele>
        <time>2019-06-16T07:50:07Z</time>
      </trkpt>
      <trkpt lat="45.64397" lon="4.62571">
        <ele>624.8</ele>
        <time>2019-06-16T07:50:08Z</time>
      </trkpt>
      <trkpt lat="45.64396" lon="4.62584">
        <ele>624.2</ele>
        <time>2019-06-16T07:50:09Z</time>
      </trkpt>
      <trkpt lat="45.64393" lon="4.62596">
        <ele>623.6</ele>
        <time>2019-06-16T07:50:10Z</time>
      </trkpt>
      <trkpt lat="45.64388" lon="4.62608">
        <ele>623</ele>
        <time>2019-06-16T07:50:11Z</time>
      </trkpt>
      <trkpt lat="45.64378" lon="4.62628">
        <ele>621.9</ele>
        <time>2019-06-16T07:50:13Z</time>
      </trkpt>
      <trkpt lat="45.64371" lon="4.62637">
        <ele>621.5</ele>
        <time>2019-06-16T07:50:14Z</time>
      </trkpt>
      <trkpt lat="45.64365" lon="4.62645">
        <ele>621.1</ele>
        <time>2019-06-16T07:50:15Z</time>
      </trkpt>
      <trkpt lat="45.64358" lon="4.62653">
        <ele>620.7</ele>
        <time>2019-06-16T07:50:16Z</time>
      </trkpt>
      <trkpt lat="45.64348" lon="4.62669">
        <ele>619.4</ele>
        <time>2019-06-16T07:50:18Z</time>
      </trkpt>
      <trkpt lat="45.64344" lon="4.6268">
        <ele>618.3</ele>
        <time>2019-06-16T07:50:19Z</time>
      </trkpt>
      <trkpt lat="45.64339" lon="4.62691">
        <ele>617.1</ele>
        <time>2019-06-16T07:50:20Z</time>
      </trkpt>
      <trkpt lat="45.64335" lon="4.62703">
        <ele>615.9</ele>
        <time>2019-06-16T07:50:21Z</time>
      </trkpt>
      <trkpt lat="45.64332" lon="4.62716">
        <ele>614.7</ele>
        <time>2019-06-16T07:50:22Z</time>
      </trkpt>
      <trkpt lat="45.64331" lon="4.62727">
        <ele>614</ele>
        <time>2019-06-16T07:50:23Z</time>
      </trkpt>
      <trkpt lat="45.64334" lon="4.62744">
        <ele>613.5</ele>
        <time>2019-06-16T07:50:25Z</time>
      </trkpt>
      <trkpt lat="45.64339" lon="4.6275">
        <ele>613.6</ele>
        <time>2019-06-16T07:50:27Z</time>
      </trkpt>
      <trkpt lat="45.64341" lon="4.62751">
        <ele>612.7</ele>
        <time>2019-06-16T07:50:28Z</time>
      </trkpt>
      <trkpt lat="45.64344" lon="4.62753">
        <ele>612.3</ele>
        <time>2019-06-16T07:50:29Z</time>
      </trkpt>
      <trkpt lat="45.6435" lon="4.62756">
        <ele>611.7</ele>
        <time>2019-06-16T07:50:31Z</time>
      </trkpt>
      <trkpt lat="45.64357" lon="4.62762">
        <ele>611.2</ele>
        <time>2019-06-16T07:50:33Z</time>
      </trkpt>
      <trkpt lat="45.64362" lon="4.62765">
        <ele>610.9</ele>
        <time>2019-06-16T07:50:34Z</time>
      </trkpt>
      <trkpt lat="45.64366" lon="4.62769">
        <ele>610.7</ele>
        <time>2019-06-16T07:50:35Z</time>
      </trkpt>
      <trkpt lat="45.6437" lon="4.62773">
        <ele>610.4</ele>
        <time>2019-06-16T07:50:36Z</time>
      </trkpt>
      <trkpt lat="45.64374" lon="4.62778">
        <ele>610.1</ele>
        <time>2019-06-16T07:50:37Z</time>
      </trkpt>
      <trkpt lat="45.64383" lon="4.62786">
        <ele>609.2</ele>
        <time>2019-06-16T07:50:39Z</time>
      </trkpt>
      <trkpt lat="45.64388" lon="4.62789">
        <ele>608.6</ele>
        <time>2019-06-16T07:50:40Z</time>
      </trkpt>
      <trkpt lat="45.64399" lon="4.62794">
        <ele>607.1</ele>
        <time>2019-06-16T07:50:42Z</time>
      </trkpt>
      <trkpt lat="45.64407" lon="4.62797">
        <ele>606</ele>
        <time>2019-06-16T07:50:44Z</time>
      </trkpt>
      <trkpt lat="45.64411" lon="4.62798">
        <ele>605.4</ele>
        <time>2019-06-16T07:50:45Z</time>
      </trkpt>
      <trkpt lat="45.64415" lon="4.62799">
        <ele>604.8</ele>
        <time>2019-06-16T07:50:46Z</time>
      </trkpt>
      <trkpt lat="45.6442" lon="4.62799">
        <ele>604.2</ele>
        <time>2019-06-16T07:50:47Z</time>
      </trkpt>
      <trkpt lat="45.64429" lon="4.628">
        <ele>603</ele>
        <time>2019-06-16T07:50:49Z</time>
      </trkpt>
      <trkpt lat="45.64432" lon="4.62799">
        <ele>602.4</ele>
        <time>2019-06-16T07:50:50Z</time>
      </trkpt>
      <trkpt lat="45.64435" lon="4.62798">
        <ele>602</ele>
        <time>2019-06-16T07:50:51Z</time>
      </trkpt>
      <trkpt lat="45.64441" lon="4.62797">
        <ele>600.9</ele>
        <time>2019-06-16T07:50:53Z</time>
      </trkpt>
      <trkpt lat="45.64446" lon="4.62796">
        <ele>599.9</ele>
        <time>2019-06-16T07:50:55Z</time>
      </trkpt>
      <trkpt lat="45.64452" lon="4.62795">
        <ele>598.7</ele>
        <time>2019-06-16T07:50:57Z</time>
      </trkpt>
      <trkpt lat="45.64456" lon="4.62793">
        <ele>597.8</ele>
        <time>2019-06-16T07:50:59Z</time>
      </trkpt>
      <trkpt lat="45.64459" lon="4.62793">
        <ele>597.3</ele>
        <time>2019-06-16T07:51:00Z</time>
      </trkpt>
      <trkpt lat="45.64463" lon="4.62792">
        <ele>596.6</ele>
        <time>2019-06-16T07:51:01Z</time>
      </trkpt>
      <trkpt lat="45.64471" lon="4.6279">
        <ele>595.3</ele>
        <time>2019-06-16T07:51:03Z</time>
      </trkpt>
      <trkpt lat="45.64479" lon="4.62787">
        <ele>594.3</ele>
        <time>2019-06-16T07:51:05Z</time>
      </trkpt>
      <trkpt lat="45.64484" lon="4.62786">
        <ele>593.8</ele>
        <time>2019-06-16T07:51:06Z</time>
      </trkpt>
      <trkpt lat="45.64499" lon="4.62781">
        <ele>592.3</ele>
        <time>2019-06-16T07:51:10Z</time>
      </trkpt>
      <trkpt lat="45.64507" lon="4.6278">
        <ele>591.8</ele>
        <time>2019-06-16T07:51:12Z</time>
      </trkpt>
      <trkpt lat="45.64532" lon="4.62777">
        <ele>590.4</ele>
        <time>2019-06-16T07:51:17Z</time>
      </trkpt>
      <trkpt lat="45.64537" lon="4.62777">
        <ele>590.1</ele>
        <time>2019-06-16T07:51:18Z</time>
      </trkpt>
      <trkpt lat="45.64542" lon="4.62778">
        <ele>589.7</ele>
        <time>2019-06-16T07:51:19Z</time>
      </trkpt>
      <trkpt lat="45.6456" lon="4.62789">
        <ele>588.4</ele>
        <time>2019-06-16T07:51:23Z</time>
      </trkpt>
      <trkpt lat="45.64578" lon="4.62812">
        <ele>586.7</ele>
        <time>2019-06-16T07:51:27Z</time>
      </trkpt>
      <trkpt lat="45.64603" lon="4.62848">
        <ele>585.1</ele>
        <time>2019-06-16T07:51:32Z</time>
      </trkpt>
      <trkpt lat="45.64616" lon="4.62869">
        <ele>583.9</ele>
        <time>2019-06-16T07:51:35Z</time>
      </trkpt>
      <trkpt lat="45.64623" lon="4.62884">
        <ele>583.2</ele>
        <time>2019-06-16T07:51:37Z</time>
      </trkpt>
      <trkpt lat="45.64637" lon="4.62916">
        <ele>581.8</ele>
        <time>2019-06-16T07:51:41Z</time>
      </trkpt>
      <trkpt lat="45.64642" lon="4.62924">
        <ele>581.5</ele>
        <time>2019-06-16T07:51:42Z</time>
      </trkpt>
      <trkpt lat="45.64673" lon="4.6297">
        <ele>580.7</ele>
        <time>2019-06-16T07:51:48Z</time>
      </trkpt>
      <trkpt lat="45.64683" lon="4.62981">
        <ele>580.1</ele>
        <time>2019-06-16T07:51:50Z</time>
      </trkpt>
      <trkpt lat="45.64691" lon="4.6299">
        <ele>579.3</ele>
        <time>2019-06-16T07:51:52Z</time>
      </trkpt>
      <trkpt lat="45.64695" lon="4.62994">
        <ele>578.9</ele>
        <time>2019-06-16T07:51:53Z</time>
      </trkpt>
      <trkpt lat="45.64703" lon="4.63002">
        <ele>577.8</ele>
        <time>2019-06-16T07:51:55Z</time>
      </trkpt>
      <trkpt lat="45.64707" lon="4.63006">
        <ele>577.2</ele>
        <time>2019-06-16T07:51:56Z</time>
      </trkpt>
      <trkpt lat="45.64711" lon="4.63008">
        <ele>576.5</ele>
        <time>2019-06-16T07:51:57Z</time>
      </trkpt>
      <trkpt lat="45.64717" lon="4.63011">
        <ele>575.8</ele>
        <time>2019-06-16T07:51:58Z</time>
      </trkpt>
      <trkpt lat="45.64722" lon="4.63011">
        <ele>575.1</ele>
        <time>2019-06-16T07:51:59Z</time>
      </trkpt>
      <trkpt lat="45.64733" lon="4.63009">
        <ele>573.7</ele>
        <time>2019-06-16T07:52:01Z</time>
      </trkpt>
      <trkpt lat="45.6474" lon="4.63006">
        <ele>572.3</ele>
        <time>2019-06-16T07:52:02Z</time>
      </trkpt>
      <trkpt lat="45.64748" lon="4.63003">
        <ele>571</ele>
        <time>2019-06-16T07:52:03Z</time>
      </trkpt>
      <trkpt lat="45.64762" lon="4.63">
        <ele>568.3</ele>
        <time>2019-06-16T07:52:05Z</time>
      </trkpt>
      <trkpt lat="45.64773" lon="4.62998">
        <ele>566.4</ele>
        <time>2019-06-16T07:52:07Z</time>
      </trkpt>
      <trkpt lat="45.64783" lon="4.62995">
        <ele>564.6</ele>
        <time>2019-06-16T07:52:09Z</time>
      </trkpt>
      <trkpt lat="45.64787" lon="4.62995">
        <ele>563.9</ele>
        <time>2019-06-16T07:52:10Z</time>
      </trkpt>
      <trkpt lat="45.64792" lon="4.62993">
        <ele>563.1</ele>
        <time>2019-06-16T07:52:11Z</time>
      </trkpt>
      <trkpt lat="45.64795" lon="4.62991">
        <ele>562.5</ele>
        <time>2019-06-16T07:52:12Z</time>
      </trkpt>
      <trkpt lat="45.64796" lon="4.62988">
        <ele>562.1</ele>
        <time>2019-06-16T07:52:13Z</time>
      </trkpt>
      <trkpt lat="45.64797" lon="4.62985">
        <ele>562</ele>
        <time>2019-06-16T07:52:14Z</time>
      </trkpt>
      <trkpt lat="45.64798" lon="4.6298">
        <ele>561.7</ele>
        <time>2019-06-16T07:52:15Z</time>
      </trkpt>
      <trkpt lat="45.64801" lon="4.62972">
        <ele>561.2</ele>
        <time>2019-06-16T07:52:18Z</time>
      </trkpt>
      <trkpt lat="45.64803" lon="4.62974">
        <ele>561</ele>
        <time>2019-06-16T07:52:19Z</time>
      </trkpt>
      <trkpt lat="45.64805" lon="4.62976">
        <ele>560.7</ele>
        <time>2019-06-16T07:52:20Z</time>
      </trkpt>
      <trkpt lat="45.64806" lon="4.62978">
        <ele>560.5</ele>
        <time>2019-06-16T07:52:21Z</time>
      </trkpt>
      <trkpt lat="45.64808" lon="4.6298">
        <ele>560.2</ele>
        <time>2019-06-16T07:52:22Z</time>
      </trkpt>
      <trkpt lat="45.64818" lon="4.62986">
        <ele>559</ele>
        <time>2019-06-16T07:52:24Z</time>
      </trkpt>
      <trkpt lat="45.64824" lon="4.62989">
        <ele>558.2</ele>
        <time>2019-06-16T07:52:25Z</time>
      </trkpt>
      <trkpt lat="45.64844" lon="4.63">
        <ele>556</ele>
        <time>2019-06-16T07:52:28Z</time>
      </trkpt>
      <trkpt lat="45.64858" lon="4.63008">
        <ele>554.5</ele>
        <time>2019-06-16T07:52:30Z</time>
      </trkpt>
      <trkpt lat="45.64866" lon="4.6301">
        <ele>553.8</ele>
        <time>2019-06-16T07:52:31Z</time>
      </trkpt>
      <trkpt lat="45.64874" lon="4.63011">
        <ele>552.8</ele>
        <time>2019-06-16T07:52:32Z</time>
      </trkpt>
      <trkpt lat="45.64883" lon="4.63011">
        <ele>551.8</ele>
        <time>2019-06-16T07:52:33Z</time>
      </trkpt>
      <trkpt lat="45.64892" lon="4.6301">
        <ele>550.8</ele>
        <time>2019-06-16T07:52:34Z</time>
      </trkpt>
      <trkpt lat="45.64911" lon="4.63003">
        <ele>548.4</ele>
        <time>2019-06-16T07:52:36Z</time>
      </trkpt>
      <trkpt lat="45.6493" lon="4.62991">
        <ele>545.7</ele>
        <time>2019-06-16T07:52:38Z</time>
      </trkpt>
      <trkpt lat="45.64939" lon="4.62984">
        <ele>544.1</ele>
        <time>2019-06-16T07:52:39Z</time>
      </trkpt>
      <trkpt lat="45.64949" lon="4.62977">
        <ele>542.4</ele>
        <time>2019-06-16T07:52:40Z</time>
      </trkpt>
      <trkpt lat="45.6497" lon="4.62959">
        <ele>539</ele>
        <time>2019-06-16T07:52:42Z</time>
      </trkpt>
      <trkpt lat="45.64988" lon="4.62937">
        <ele>535.9</ele>
        <time>2019-06-16T07:52:44Z</time>
      </trkpt>
      <trkpt lat="45.65006" lon="4.6292">
        <ele>533.4</ele>
        <time>2019-06-16T07:52:46Z</time>
      </trkpt>
      <trkpt lat="45.65022" lon="4.62904">
        <ele>531.1</ele>
        <time>2019-06-16T07:52:48Z</time>
      </trkpt>
      <trkpt lat="45.65038" lon="4.62886">
        <ele>529.4</ele>
        <time>2019-06-16T07:52:50Z</time>
      </trkpt>
      <trkpt lat="45.65046" lon="4.62875">
        <ele>528.2</ele>
        <time>2019-06-16T07:52:51Z</time>
      </trkpt>
      <trkpt lat="45.65054" lon="4.62864">
        <ele>526.8</ele>
        <time>2019-06-16T07:52:52Z</time>
      </trkpt>
      <trkpt lat="45.65063" lon="4.62855">
        <ele>525.3</ele>
        <time>2019-06-16T07:52:53Z</time>
      </trkpt>
      <trkpt lat="45.65085" lon="4.62847">
        <ele>521.1</ele>
        <time>2019-06-16T07:52:55Z</time>
      </trkpt>
      <trkpt lat="45.65096" lon="4.62842">
        <ele>519</ele>
        <time>2019-06-16T07:52:56Z</time>
      </trkpt>
      <trkpt lat="45.65106" lon="4.62837">
        <ele>516.8</ele>
        <time>2019-06-16T07:52:57Z</time>
      </trkpt>
      <trkpt lat="45.65116" lon="4.62833">
        <ele>514.9</ele>
        <time>2019-06-16T07:52:58Z</time>
      </trkpt>
      <trkpt lat="45.65126" lon="4.62833">
        <ele>513.2</ele>
        <time>2019-06-16T07:52:59Z</time>
      </trkpt>
      <trkpt lat="45.65135" lon="4.62834">
        <ele>511.4</ele>
        <time>2019-06-16T07:53:00Z</time>
      </trkpt>
      <trkpt lat="45.65145" lon="4.62836">
        <ele>509.6</ele>
        <time>2019-06-16T07:53:01Z</time>
      </trkpt>
      <trkpt lat="45.65153" lon="4.62838">
        <ele>507.8</ele>
        <time>2019-06-16T07:53:02Z</time>
      </trkpt>
      <trkpt lat="45.65161" lon="4.62841">
        <ele>506.2</ele>
        <time>2019-06-16T07:53:03Z</time>
      </trkpt>
      <trkpt lat="45.65169" lon="4.62845">
        <ele>504.4</ele>
        <time>2019-06-16T07:53:04Z</time>
      </trkpt>
      <trkpt lat="45.65175" lon="4.62851">
        <ele>502.9</ele>
        <time>2019-06-16T07:53:05Z</time>
      </trkpt>
      <trkpt lat="45.65178" lon="4.62859">
        <ele>501.6</ele>
        <time>2019-06-16T07:53:06Z</time>
      </trkpt>
      <trkpt lat="45.6518" lon="4.62866">
        <ele>500.6</ele>
        <time>2019-06-16T07:53:07Z</time>
      </trkpt>
      <trkpt lat="45.65177" lon="4.62873">
        <ele>499.3</ele>
        <time>2019-06-16T07:53:08Z</time>
      </trkpt>
      <trkpt lat="45.65179" lon="4.62874">
        <ele>498.7</ele>
        <time>2019-06-16T07:53:09Z</time>
      </trkpt>
      <trkpt lat="45.65184" lon="4.62874">
        <ele>497.3</ele>
        <time>2019-06-16T07:53:10Z</time>
      </trkpt>
      <trkpt lat="45.6519" lon="4.62873">
        <ele>495.7</ele>
        <time>2019-06-16T07:53:11Z</time>
      </trkpt>
      <trkpt lat="45.65195" lon="4.62872">
        <ele>494</ele>
        <time>2019-06-16T07:53:12Z</time>
      </trkpt>
      <trkpt lat="45.65201" lon="4.62871">
        <ele>492.1</ele>
        <time>2019-06-16T07:53:13Z</time>
      </trkpt>
      <trkpt lat="45.65207" lon="4.6287">
        <ele>490</ele>
        <time>2019-06-16T07:53:14Z</time>
      </trkpt>
      <trkpt lat="45.65212" lon="4.62869">
        <ele>488.4</ele>
        <time>2019-06-16T07:53:15Z</time>
      </trkpt>
      <trkpt lat="45.65217" lon="4.62869">
        <ele>487</ele>
        <time>2019-06-16T07:53:16Z</time>
      </trkpt>
      <trkpt lat="45.65223" lon="4.62867">
        <ele>485.5</ele>
        <time>2019-06-16T07:53:17Z</time>
      </trkpt>
      <trkpt lat="45.65228" lon="4.62865">
        <ele>483.9</ele>
        <time>2019-06-16T07:53:18Z</time>
      </trkpt>
      <trkpt lat="45.65233" lon="4.62864">
        <ele>482.3</ele>
        <time>2019-06-16T07:53:19Z</time>
      </trkpt>
      <trkpt lat="45.65242" lon="4.62862">
        <ele>479.4</ele>
        <time>2019-06-16T07:53:21Z</time>
      </trkpt>
      <trkpt lat="45.6525" lon="4.6286">
        <ele>477.1</ele>
        <time>2019-06-16T07:53:23Z</time>
      </trkpt>
      <trkpt lat="45.65254" lon="4.62859">
        <ele>476</ele>
        <time>2019-06-16T07:53:24Z</time>
      </trkpt>
      <trkpt lat="45.65258" lon="4.62858">
        <ele>474.9</ele>
        <time>2019-06-16T07:53:25Z</time>
      </trkpt>
      <trkpt lat="45.65263" lon="4.62857">
        <ele>473.7</ele>
        <time>2019-06-16T07:53:26Z</time>
      </trkpt>
      <trkpt lat="45.65268" lon="4.62857">
        <ele>472.5</ele>
        <time>2019-06-16T07:53:27Z</time>
      </trkpt>
      <trkpt lat="45.65273" lon="4.62857">
        <ele>471.3</ele>
        <time>2019-06-16T07:53:28Z</time>
      </trkpt>
      <trkpt lat="45.65284" lon="4.62857">
        <ele>469</ele>
        <time>2019-06-16T07:53:30Z</time>
      </trkpt>
      <trkpt lat="45.65295" lon="4.62858">
        <ele>466.6</ele>
        <time>2019-06-16T07:53:32Z</time>
      </trkpt>
      <trkpt lat="45.65301" lon="4.62858">
        <ele>465.5</ele>
        <time>2019-06-16T07:53:33Z</time>
      </trkpt>
      <trkpt lat="45.65312" lon="4.62858">
        <ele>463.3</ele>
        <time>2019-06-16T07:53:35Z</time>
      </trkpt>
      <trkpt lat="45.65318" lon="4.62857">
        <ele>462.2</ele>
        <time>2019-06-16T07:53:36Z</time>
      </trkpt>
      <trkpt lat="45.65324" lon="4.62856">
        <ele>461.3</ele>
        <time>2019-06-16T07:53:37Z</time>
      </trkpt>
      <trkpt lat="45.65334" lon="4.62855">
        <ele>459.9</ele>
        <time>2019-06-16T07:53:39Z</time>
      </trkpt>
      <trkpt lat="45.65338" lon="4.62855">
        <ele>459.4</ele>
        <time>2019-06-16T07:53:40Z</time>
      </trkpt>
      <trkpt lat="45.65342" lon="4.62855">
        <ele>458.9</ele>
        <time>2019-06-16T07:53:41Z</time>
      </trkpt>
      <trkpt lat="45.65346" lon="4.62848">
        <ele>458</ele>
        <time>2019-06-16T07:53:43Z</time>
      </trkpt>
      <trkpt lat="45.65346" lon="4.62842">
        <ele>457.5</ele>
        <time>2019-06-16T07:53:44Z</time>
      </trkpt>
      <trkpt lat="45.65344" lon="4.62837">
        <ele>456.9</ele>
        <time>2019-06-16T07:53:45Z</time>
      </trkpt>
      <trkpt lat="45.65339" lon="4.62824">
        <ele>456.8</ele>
        <time>2019-06-16T07:53:47Z</time>
      </trkpt>
      <trkpt lat="45.65336" lon="4.6281">
        <ele>457</ele>
        <time>2019-06-16T07:53:49Z</time>
      </trkpt>
      <trkpt lat="45.65334" lon="4.62792">
        <ele>457.3</ele>
        <time>2019-06-16T07:53:51Z</time>
      </trkpt>
      <trkpt lat="45.65334" lon="4.62783">
        <ele>457.4</ele>
        <time>2019-06-16T07:53:52Z</time>
      </trkpt>
      <trkpt lat="45.65335" lon="4.62774">
        <ele>457.5</ele>
        <time>2019-06-16T07:53:53Z</time>
      </trkpt>
      <trkpt lat="45.65337" lon="4.62756">
        <ele>457.7</ele>
        <time>2019-06-16T07:53:55Z</time>
      </trkpt>
      <trkpt lat="45.6534" lon="4.62737">
        <ele>457.9</ele>
        <time>2019-06-16T07:53:57Z</time>
      </trkpt>
      <trkpt lat="45.65341" lon="4.62728">
        <ele>458.1</ele>
        <time>2019-06-16T07:53:58Z</time>
      </trkpt>
      <trkpt lat="45.65346" lon="4.62703">
        <ele>458.4</ele>
        <time>2019-06-16T07:54:01Z</time>
      </trkpt>
      <trkpt lat="45.65349" lon="4.62685">
        <ele>457.9</ele>
        <time>2019-06-16T07:54:03Z</time>
      </trkpt>
      <trkpt lat="45.65351" lon="4.62676">
        <ele>457.7</ele>
        <time>2019-06-16T07:54:04Z</time>
      </trkpt>
      <trkpt lat="45.65355" lon="4.62667">
        <ele>457.5</ele>
        <time>2019-06-16T07:54:05Z</time>
      </trkpt>
      <trkpt lat="45.65361" lon="4.62659">
        <ele>457.3</ele>
        <time>2019-06-16T07:54:06Z</time>
      </trkpt>
      <trkpt lat="45.65368" lon="4.62655">
        <ele>457.1</ele>
        <time>2019-06-16T07:54:07Z</time>
      </trkpt>
      <trkpt lat="45.65383" lon="4.62653">
        <ele>456.3</ele>
        <time>2019-06-16T07:54:09Z</time>
      </trkpt>
      <trkpt lat="45.65401" lon="4.62663">
        <ele>455.2</ele>
        <time>2019-06-16T07:54:12Z</time>
      </trkpt>
      <trkpt lat="45.65406" lon="4.62666">
        <ele>454.9</ele>
        <time>2019-06-16T07:54:13Z</time>
      </trkpt>
      <trkpt lat="45.65422" lon="4.62678">
        <ele>454</ele>
        <time>2019-06-16T07:54:17Z</time>
      </trkpt>
      <trkpt lat="45.65449" lon="4.62698">
        <ele>453.6</ele>
        <time>2019-06-16T07:54:24Z</time>
      </trkpt>
      <trkpt lat="45.65456" lon="4.62703">
        <ele>453.7</ele>
        <time>2019-06-16T07:54:26Z</time>
      </trkpt>
      <trkpt lat="45.65473" lon="4.62715">
        <ele>453.9</ele>
        <time>2019-06-16T07:54:31Z</time>
      </trkpt>
      <trkpt lat="45.65479" lon="4.62719">
        <ele>454</ele>
        <time>2019-06-16T07:54:33Z</time>
      </trkpt>
      <trkpt lat="45.65481" lon="4.62721">
        <ele>454.1</ele>
        <time>2019-06-16T07:54:34Z</time>
      </trkpt>
      <trkpt lat="45.65483" lon="4.6272">
        <ele>454.2</ele>
        <time>2019-06-16T07:54:35Z</time>
      </trkpt>
      <trkpt lat="45.65486" lon="4.62715">
        <ele>454.4</ele>
        <time>2019-06-16T07:54:37Z</time>
      </trkpt>
      <trkpt lat="45.65483" lon="4.62711">
        <ele>454.5</ele>
        <time>2019-06-16T07:54:40Z</time>
      </trkpt>
      <trkpt lat="45.65481" lon="4.62706">
        <ele>454.6</ele>
        <time>2019-06-16T07:54:43Z</time>
      </trkpt>
      <trkpt lat="45.6548" lon="4.62703">
        <ele>455.4</ele>
        <time>2019-06-16T07:54:45Z</time>
      </trkpt>
      <trkpt lat="45.65479" lon="4.62701">
        <ele>455.5</ele>
        <time>2019-06-16T07:54:46Z</time>
      </trkpt>
      <trkpt lat="45.65478" lon="4.627">
        <ele>455.6</ele>
        <time>2019-06-16T07:54:47Z</time>
      </trkpt>
      <trkpt lat="45.65477" lon="4.62699">
        <ele>455.7</ele>
        <time>2019-06-16T07:54:48Z</time>
      </trkpt>
      <trkpt lat="45.65473" lon="4.62693">
        <ele>455.7</ele>
        <time>2019-06-16T07:54:52Z</time>
      </trkpt>
      <trkpt lat="45.65472" lon="4.6269">
        <ele>455.6</ele>
        <time>2019-06-16T07:54:54Z</time>
      </trkpt>
      <trkpt lat="45.65471" lon="4.62688">
        <ele>455.7</ele>
        <time>2019-06-16T07:54:55Z</time>
      </trkpt>
      <trkpt lat="45.65468" lon="4.62682">
        <ele>456</ele>
        <time>2019-06-16T07:54:59Z</time>
      </trkpt>
      <trkpt lat="45.65468" lon="4.6268">
        <ele>456.1</ele>
        <time>2019-06-16T07:55:00Z</time>
      </trkpt>
      <trkpt lat="45.65467" lon="4.62679">
        <ele>455.9</ele>
        <time>2019-06-16T07:55:01Z</time>
      </trkpt>
      <trkpt lat="45.65465" lon="4.62674">
        <ele>456.4</ele>
        <time>2019-06-16T07:55:04Z</time>
      </trkpt>
      <trkpt lat="45.65464" lon="4.62671">
        <ele>456.5</ele>
        <time>2019-06-16T07:55:06Z</time>
      </trkpt>
      <trkpt lat="45.65463" lon="4.62666">
        <ele>456.8</ele>
        <time>2019-06-16T07:55:08Z</time>
      </trkpt>
      <trkpt lat="45.65463" lon="4.62664">
        <ele>456.9</ele>
        <time>2019-06-16T07:55:09Z</time>
      </trkpt>
      <trkpt lat="45.65463" lon="4.62661">
        <ele>457.4</ele>
        <time>2019-06-16T07:55:11Z</time>
      </trkpt>
      <trkpt lat="45.65463" lon="4.62657">
        <ele>458</ele>
        <time>2019-06-16T07:55:13Z</time>
      </trkpt>
      <trkpt lat="45.65463" lon="4.62656">
        <ele>458</ele>
        <time>2019-06-16T07:55:14Z</time>
      </trkpt>
      <trkpt lat="45.65463" lon="4.62653">
        <ele>458.6</ele>
        <time>2019-06-16T07:55:16Z</time>
      </trkpt>
      <trkpt lat="45.65463" lon="4.6265">
        <ele>458.7</ele>
        <time>2019-06-16T07:55:17Z</time>
      </trkpt>
      <trkpt lat="45.65464" lon="4.62645">
        <ele>459.2</ele>
        <time>2019-06-16T07:55:20Z</time>
      </trkpt>
      <trkpt lat="45.65464" lon="4.62637">
        <ele>460.8</ele>
        <time>2019-06-16T07:55:25Z</time>
      </trkpt>
      <trkpt lat="45.65465" lon="4.62633">
        <ele>461.2</ele>
        <time>2019-06-16T07:55:28Z</time>
      </trkpt>
      <trkpt lat="45.65465" lon="4.6263">
        <ele>461.6</ele>
        <time>2019-06-16T07:55:30Z</time>
      </trkpt>
      <trkpt lat="45.65465" lon="4.62626">
        <ele>461.8</ele>
        <time>2019-06-16T07:55:33Z</time>
      </trkpt>
      <trkpt lat="45.65466" lon="4.62625">
        <ele>461.9</ele>
        <time>2019-06-16T07:55:34Z</time>
      </trkpt>
      <trkpt lat="45.65466" lon="4.62623">
        <ele>462.2</ele>
        <time>2019-06-16T07:55:35Z</time>
      </trkpt>
      <trkpt lat="45.65515" lon="4.62504">
        <ele>471.5</ele>
        <time>2019-06-16T07:57:50Z</time>
      </trkpt>
      <trkpt lat="45.65517" lon="4.625">
        <ele>471.9</ele>
        <time>2019-06-16T07:57:53Z</time>
      </trkpt>
      <trkpt lat="45.65519" lon="4.62495">
        <ele>472.3</ele>
        <time>2019-06-16T07:57:56Z</time>
      </trkpt>
      <trkpt lat="45.65522" lon="4.62496">
        <ele>473.2</ele>
        <time>2019-06-16T07:57:58Z</time>
      </trkpt>
      <trkpt lat="45.65528" lon="4.62498">
        <ele>474.8</ele>
        <time>2019-06-16T07:58:02Z</time>
      </trkpt>
      <trkpt lat="45.65531" lon="4.62499">
        <ele>475.9</ele>
        <time>2019-06-16T07:58:04Z</time>
      </trkpt>
      <trkpt lat="45.65538" lon="4.62502">
        <ele>477.4</ele>
        <time>2019-06-16T07:58:09Z</time>
      </trkpt>
      <trkpt lat="45.65539" lon="4.62503">
        <ele>478.3</ele>
        <time>2019-06-16T07:58:10Z</time>
      </trkpt>
      <trkpt lat="45.65542" lon="4.62513">
        <ele>479.5</ele>
        <time>2019-06-16T07:58:16Z</time>
      </trkpt>
      <trkpt lat="45.65545" lon="4.6252">
        <ele>480.2</ele>
        <time>2019-06-16T07:58:20Z</time>
      </trkpt>
      <trkpt lat="45.65546" lon="4.62523">
        <ele>480.8</ele>
        <time>2019-06-16T07:58:22Z</time>
      </trkpt>
      <trkpt lat="45.65547" lon="4.62525">
        <ele>481.3</ele>
        <time>2019-06-16T07:58:23Z</time>
      </trkpt>
      <trkpt lat="45.65549" lon="4.6253">
        <ele>482.2</ele>
        <time>2019-06-16T07:58:26Z</time>
      </trkpt>
      <trkpt lat="45.65552" lon="4.62539">
        <ele>483.4</ele>
        <time>2019-06-16T07:58:31Z</time>
      </trkpt>
      <trkpt lat="45.65555" lon="4.62544">
        <ele>484.3</ele>
        <time>2019-06-16T07:58:34Z</time>
      </trkpt>
      <trkpt lat="45.65559" lon="4.62551">
        <ele>485.5</ele>
        <time>2019-06-16T07:58:39Z</time>
      </trkpt>
      <trkpt lat="45.65563" lon="4.62567">
        <ele>487</ele>
        <time>2019-06-16T07:58:45Z</time>
      </trkpt>
      <trkpt lat="45.65563" lon="4.62569">
        <ele>487.8</ele>
        <time>2019-06-16T07:58:46Z</time>
      </trkpt>
      <trkpt lat="45.65574" lon="4.62598">
        <ele>489.9</ele>
        <time>2019-06-16T07:58:55Z</time>
      </trkpt>
      <trkpt lat="45.65575" lon="4.62602">
        <ele>490.5</ele>
        <time>2019-06-16T07:58:57Z</time>
      </trkpt>
      <trkpt lat="45.65578" lon="4.62608">
        <ele>490.5</ele>
        <time>2019-06-16T07:59:00Z</time>
      </trkpt>
      <trkpt lat="45.65583" lon="4.62615">
        <ele>491.9</ele>
        <time>2019-06-16T07:59:04Z</time>
      </trkpt>
      <trkpt lat="45.65592" lon="4.62629">
        <ele>493.9</ele>
        <time>2019-06-16T07:59:08Z</time>
      </trkpt>
      <trkpt lat="45.65602" lon="4.62645">
        <ele>496</ele>
        <time>2019-06-16T07:59:13Z</time>
      </trkpt>
      <trkpt lat="45.65604" lon="4.62647">
        <ele>496.1</ele>
        <time>2019-06-16T07:59:14Z</time>
      </trkpt>
      <trkpt lat="45.65607" lon="4.62647">
        <ele>496.9</ele>
        <time>2019-06-16T07:59:16Z</time>
      </trkpt>
      <trkpt lat="45.65608" lon="4.62645">
        <ele>497</ele>
        <time>2019-06-16T07:59:17Z</time>
      </trkpt>
      <trkpt lat="45.65606" lon="4.6264">
        <ele>497.5</ele>
        <time>2019-06-16T07:59:19Z</time>
      </trkpt>
      <trkpt lat="45.65605" lon="4.62638">
        <ele>497.6</ele>
        <time>2019-06-16T07:59:20Z</time>
      </trkpt>
      <trkpt lat="45.65604" lon="4.62636">
        <ele>496.9</ele>
        <time>2019-06-16T07:59:21Z</time>
      </trkpt>
      <trkpt lat="45.65604" lon="4.62631">
        <ele>497.3</ele>
        <time>2019-06-16T07:59:23Z</time>
      </trkpt>
      <trkpt lat="45.65605" lon="4.62625">
        <ele>498.2</ele>
        <time>2019-06-16T07:59:26Z</time>
      </trkpt>
      <trkpt lat="45.65606" lon="4.6262">
        <ele>498.3</ele>
        <time>2019-06-16T07:59:28Z</time>
      </trkpt>
      <trkpt lat="45.65607" lon="4.6261">
        <ele>498.2</ele>
        <time>2019-06-16T07:59:32Z</time>
      </trkpt>
      <trkpt lat="45.65612" lon="4.62592">
        <ele>499.4</ele>
        <time>2019-06-16T07:59:39Z</time>
      </trkpt>
      <trkpt lat="45.65617" lon="4.6257">
        <ele>500.1</ele>
        <time>2019-06-16T07:59:47Z</time>
      </trkpt>
      <trkpt lat="45.65619" lon="4.62562">
        <ele>499.6</ele>
        <time>2019-06-16T07:59:50Z</time>
      </trkpt>
      <trkpt lat="45.65624" lon="4.62553">
        <ele>500.3</ele>
        <time>2019-06-16T07:59:54Z</time>
      </trkpt>
      <trkpt lat="45.65632" lon="4.6253">
        <ele>500.4</ele>
        <time>2019-06-16T07:59:59Z</time>
      </trkpt>
      <trkpt lat="45.65638" lon="4.6251">
        <ele>500.2</ele>
        <time>2019-06-16T08:00:02Z</time>
      </trkpt>
      <trkpt lat="45.65645" lon="4.62488">
        <ele>500.4</ele>
        <time>2019-06-16T08:00:05Z</time>
      </trkpt>
      <trkpt lat="45.65651" lon="4.62468">
        <ele>500.2</ele>
        <time>2019-06-16T08:00:07Z</time>
      </trkpt>
      <trkpt lat="45.65657" lon="4.62448">
        <ele>500.8</ele>
        <time>2019-06-16T08:00:09Z</time>
      </trkpt>
      <trkpt lat="45.65664" lon="4.6243">
        <ele>502</ele>
        <time>2019-06-16T08:00:11Z</time>
      </trkpt>
      <trkpt lat="45.65674" lon="4.62415">
        <ele>505.6</ele>
        <time>2019-06-16T08:00:13Z</time>
      </trkpt>
      <trkpt lat="45.65685" lon="4.62403">
        <ele>508</ele>
        <time>2019-06-16T08:00:15Z</time>
      </trkpt>
      <trkpt lat="45.65691" lon="4.62389">
        <ele>509.6</ele>
        <time>2019-06-16T08:00:17Z</time>
      </trkpt>
      <trkpt lat="45.65695" lon="4.62377">
        <ele>511.3</ele>
        <time>2019-06-16T08:00:19Z</time>
      </trkpt>
      <trkpt lat="45.65697" lon="4.62372">
        <ele>511.4</ele>
        <time>2019-06-16T08:00:20Z</time>
      </trkpt>
      <trkpt lat="45.65698" lon="4.62367">
        <ele>511.4</ele>
        <time>2019-06-16T08:00:21Z</time>
      </trkpt>
      <trkpt lat="45.65699" lon="4.62343">
        <ele>512.7</ele>
        <time>2019-06-16T08:00:26Z</time>
      </trkpt>
      <trkpt lat="45.65693" lon="4.62318">
        <ele>511.9</ele>
        <time>2019-06-16T08:00:31Z</time>
      </trkpt>
      <trkpt lat="45.6569" lon="4.62301">
        <ele>512.1</ele>
        <time>2019-06-16T08:00:37Z</time>
      </trkpt>
      <trkpt lat="45.65689" lon="4.62299">
        <ele>512.2</ele>
        <time>2019-06-16T08:00:38Z</time>
      </trkpt>
      <trkpt lat="45.65689" lon="4.62295">
        <ele>511.6</ele>
        <time>2019-06-16T08:00:40Z</time>
      </trkpt>
      <trkpt lat="45.65688" lon="4.62288">
        <ele>512.1</ele>
        <time>2019-06-16T08:00:43Z</time>
      </trkpt>
      <trkpt lat="45.65688" lon="4.62281">
        <ele>512.4</ele>
        <time>2019-06-16T08:00:46Z</time>
      </trkpt>
      <trkpt lat="45.65687" lon="4.62272">
        <ele>512.8</ele>
        <time>2019-06-16T08:00:50Z</time>
      </trkpt>
      <trkpt lat="45.65687" lon="4.62265">
        <ele>513.3</ele>
        <time>2019-06-16T08:00:53Z</time>
      </trkpt>
      <trkpt lat="45.65687" lon="4.62257">
        <ele>513.9</ele>
        <time>2019-06-16T08:00:57Z</time>
      </trkpt>
      <trkpt lat="45.65688" lon="4.62253">
        <ele>514.2</ele>
        <time>2019-06-16T08:00:59Z</time>
      </trkpt>
      <trkpt lat="45.65688" lon="4.62249">
        <ele>514.6</ele>
        <time>2019-06-16T08:01:01Z</time>
      </trkpt>
      <trkpt lat="45.65687" lon="4.62244">
        <ele>514.9</ele>
        <time>2019-06-16T08:01:04Z</time>
      </trkpt>
      <trkpt lat="45.65687" lon="4.62242">
        <ele>515</ele>
        <time>2019-06-16T08:01:05Z</time>
      </trkpt>
      <trkpt lat="45.65687" lon="4.6224">
        <ele>515.3</ele>
        <time>2019-06-16T08:01:06Z</time>
      </trkpt>
      <trkpt lat="45.65687" lon="4.62233">
        <ele>515.5</ele>
        <time>2019-06-16T08:01:09Z</time>
      </trkpt>
      <trkpt lat="45.65687" lon="4.62223">
        <ele>516</ele>
        <time>2019-06-16T08:01:14Z</time>
      </trkpt>
      <trkpt lat="45.65689" lon="4.6221">
        <ele>517.3</ele>
        <time>2019-06-16T08:01:21Z</time>
      </trkpt>
      <trkpt lat="45.65689" lon="4.62208">
        <ele>517.4</ele>
        <time>2019-06-16T08:01:22Z</time>
      </trkpt>
      <trkpt lat="45.65691" lon="4.62201">
        <ele>517.7</ele>
        <time>2019-06-16T08:01:26Z</time>
      </trkpt>
      <trkpt lat="45.65695" lon="4.6219">
        <ele>519.9</ele>
        <time>2019-06-16T08:01:31Z</time>
      </trkpt>
      <trkpt lat="45.65699" lon="4.62177">
        <ele>521.3</ele>
        <time>2019-06-16T08:01:37Z</time>
      </trkpt>
      <trkpt lat="45.657" lon="4.62166">
        <ele>521.8</ele>
        <time>2019-06-16T08:01:41Z</time>
      </trkpt>
      <trkpt lat="45.65701" lon="4.62158">
        <ele>522.2</ele>
        <time>2019-06-16T08:01:44Z</time>
      </trkpt>
      <trkpt lat="45.65701" lon="4.62147">
        <ele>523.4</ele>
        <time>2019-06-16T08:01:48Z</time>
      </trkpt>
      <trkpt lat="45.65702" lon="4.62141">
        <ele>523.6</ele>
        <time>2019-06-16T08:01:50Z</time>
      </trkpt>
      <trkpt lat="45.65703" lon="4.62121">
        <ele>523.8</ele>
        <time>2019-06-16T08:01:57Z</time>
      </trkpt>
      <trkpt lat="45.65704" lon="4.62115">
        <ele>523.8</ele>
        <time>2019-06-16T08:01:59Z</time>
      </trkpt>
      <trkpt lat="45.65703" lon="4.6211">
        <ele>523.8</ele>
        <time>2019-06-16T08:02:01Z</time>
      </trkpt>
      <trkpt lat="45.65703" lon="4.62092">
        <ele>523.5</ele>
        <time>2019-06-16T08:02:07Z</time>
      </trkpt>
      <trkpt lat="45.65704" lon="4.62081">
        <ele>523.2</ele>
        <time>2019-06-16T08:02:11Z</time>
      </trkpt>
      <trkpt lat="45.65704" lon="4.62067">
        <ele>524</ele>
        <time>2019-06-16T08:02:15Z</time>
      </trkpt>
      <trkpt lat="45.65704" lon="4.62063">
        <ele>524</ele>
        <time>2019-06-16T08:02:16Z</time>
      </trkpt>
      <trkpt lat="45.65708" lon="4.62039">
        <ele>524.7</ele>
        <time>2019-06-16T08:02:21Z</time>
      </trkpt>
      <trkpt lat="45.6572" lon="4.6201">
        <ele>526.8</ele>
        <time>2019-06-16T08:02:28Z</time>
      </trkpt>
      <trkpt lat="45.65736" lon="4.61979">
        <ele>528.1</ele>
        <time>2019-06-16T08:02:35Z</time>
      </trkpt>
      <trkpt lat="45.65746" lon="4.61952">
        <ele>529</ele>
        <time>2019-06-16T08:02:42Z</time>
      </trkpt>
      <trkpt lat="45.65752" lon="4.61931">
        <ele>528.9</ele>
        <time>2019-06-16T08:02:49Z</time>
      </trkpt>
      <trkpt lat="45.65753" lon="4.61924">
        <ele>528.6</ele>
        <time>2019-06-16T08:02:52Z</time>
      </trkpt>
      <trkpt lat="45.65755" lon="4.61917">
        <ele>528.8</ele>
        <time>2019-06-16T08:02:55Z</time>
      </trkpt>
      <trkpt lat="45.65756" lon="4.61911">
        <ele>528.6</ele>
        <time>2019-06-16T08:02:58Z</time>
      </trkpt>
      <trkpt lat="45.65758" lon="4.61903">
        <ele>528.1</ele>
        <time>2019-06-16T08:03:01Z</time>
      </trkpt>
      <trkpt lat="45.65757" lon="4.61887">
        <ele>527.1</ele>
        <time>2019-06-16T08:03:03Z</time>
      </trkpt>
      <trkpt lat="45.65757" lon="4.61878">
        <ele>526.8</ele>
        <time>2019-06-16T08:03:04Z</time>
      </trkpt>
      <trkpt lat="45.65758" lon="4.61858">
        <ele>526.8</ele>
        <time>2019-06-16T08:03:06Z</time>
      </trkpt>
      <trkpt lat="45.65763" lon="4.61838">
        <ele>527.4</ele>
        <time>2019-06-16T08:03:08Z</time>
      </trkpt>
      <trkpt lat="45.65773" lon="4.61807">
        <ele>530.1</ele>
        <time>2019-06-16T08:03:11Z</time>
      </trkpt>
      <trkpt lat="45.65778" lon="4.61788">
        <ele>532.1</ele>
        <time>2019-06-16T08:03:13Z</time>
      </trkpt>
      <trkpt lat="45.6578" lon="4.61779">
        <ele>533.2</ele>
        <time>2019-06-16T08:03:14Z</time>
      </trkpt>
      <trkpt lat="45.65782" lon="4.6177">
        <ele>533.7</ele>
        <time>2019-06-16T08:03:15Z</time>
      </trkpt>
      <trkpt lat="45.65782" lon="4.61754">
        <ele>535.1</ele>
        <time>2019-06-16T08:03:17Z</time>
      </trkpt>
      <trkpt lat="45.65773" lon="4.61745">
        <ele>533.5</ele>
        <time>2019-06-16T08:03:19Z</time>
      </trkpt>
      <trkpt lat="45.65761" lon="4.61741">
        <ele>531.7</ele>
        <time>2019-06-16T08:03:22Z</time>
      </trkpt>
      <trkpt lat="45.65756" lon="4.6174">
        <ele>531</ele>
        <time>2019-06-16T08:03:23Z</time>
      </trkpt>
      <trkpt lat="45.65739" lon="4.61738">
        <ele>529.3</ele>
        <time>2019-06-16T08:03:29Z</time>
      </trkpt>
      <trkpt lat="45.65726" lon="4.61739">
        <ele>528.7</ele>
        <time>2019-06-16T08:03:36Z</time>
      </trkpt>
      <trkpt lat="45.65714" lon="4.61734">
        <ele>529.1</ele>
        <time>2019-06-16T08:03:44Z</time>
      </trkpt>
      <trkpt lat="45.6571" lon="4.61729">
        <ele>529.5</ele>
        <time>2019-06-16T08:03:48Z</time>
      </trkpt>
      <trkpt lat="45.65707" lon="4.61724">
        <ele>529.9</ele>
        <time>2019-06-16T08:03:51Z</time>
      </trkpt>
      <trkpt lat="45.65706" lon="4.6172">
        <ele>530.2</ele>
        <time>2019-06-16T08:03:53Z</time>
      </trkpt>
      <trkpt lat="45.65705" lon="4.61715">
        <ele>530.6</ele>
        <time>2019-06-16T08:03:55Z</time>
      </trkpt>
      <trkpt lat="45.65705" lon="4.61711">
        <ele>531</ele>
        <time>2019-06-16T08:03:57Z</time>
      </trkpt>
      <trkpt lat="45.65704" lon="4.61709">
        <ele>531.2</ele>
        <time>2019-06-16T08:03:58Z</time>
      </trkpt>
      <trkpt lat="45.65705" lon="4.61699">
        <ele>532.2</ele>
        <time>2019-06-16T08:04:03Z</time>
      </trkpt>
      <trkpt lat="45.65705" lon="4.61694">
        <ele>532.7</ele>
        <time>2019-06-16T08:04:05Z</time>
      </trkpt>
      <trkpt lat="45.65707" lon="4.61688">
        <ele>533.4</ele>
        <time>2019-06-16T08:04:08Z</time>
      </trkpt>
      <trkpt lat="45.6571" lon="4.61678">
        <ele>534.6</ele>
        <time>2019-06-16T08:04:13Z</time>
      </trkpt>
      <trkpt lat="45.65714" lon="4.61666">
        <ele>536.1</ele>
        <time>2019-06-16T08:04:19Z</time>
      </trkpt>
      <trkpt lat="45.65717" lon="4.61658">
        <ele>537.1</ele>
        <time>2019-06-16T08:04:23Z</time>
      </trkpt>
      <trkpt lat="45.65717" lon="4.61656">
        <ele>537.4</ele>
        <time>2019-06-16T08:04:24Z</time>
      </trkpt>
      <trkpt lat="45.65724" lon="4.61636">
        <ele>539.6</ele>
        <time>2019-06-16T08:04:33Z</time>
      </trkpt>
      <trkpt lat="45.65724" lon="4.61631">
        <ele>540</ele>
        <time>2019-06-16T08:04:35Z</time>
      </trkpt>
      <trkpt lat="45.65726" lon="4.61614">
        <ele>541.5</ele>
        <time>2019-06-16T08:04:42Z</time>
      </trkpt>
      <trkpt lat="45.65726" lon="4.61607">
        <ele>542.1</ele>
        <time>2019-06-16T08:04:45Z</time>
      </trkpt>
      <trkpt lat="45.65725" lon="4.61592">
        <ele>543.3</ele>
        <time>2019-06-16T08:04:51Z</time>
      </trkpt>
      <trkpt lat="45.65725" lon="4.61584">
        <ele>543.8</ele>
        <time>2019-06-16T08:04:54Z</time>
      </trkpt>
      <trkpt lat="45.65725" lon="4.61581">
        <ele>544</ele>
        <time>2019-06-16T08:04:55Z</time>
      </trkpt>
      <trkpt lat="45.65723" lon="4.61563">
        <ele>544.9</ele>
        <time>2019-06-16T08:05:00Z</time>
      </trkpt>
      <trkpt lat="45.65723" lon="4.61558">
        <ele>545.1</ele>
        <time>2019-06-16T08:05:01Z</time>
      </trkpt>
      <trkpt lat="45.6572" lon="4.61544">
        <ele>545.7</ele>
        <time>2019-06-16T08:05:05Z</time>
      </trkpt>
      <trkpt lat="45.65718" lon="4.61538">
        <ele>546</ele>
        <time>2019-06-16T08:05:07Z</time>
      </trkpt>
      <trkpt lat="45.65708" lon="4.61516">
        <ele>546.7</ele>
        <time>2019-06-16T08:05:13Z</time>
      </trkpt>
      <trkpt lat="45.65707" lon="4.61514">
        <ele>546.8</ele>
        <time>2019-06-16T08:05:14Z</time>
      </trkpt>
      <trkpt lat="45.65699" lon="4.61498">
        <ele>547.2</ele>
        <time>2019-06-16T08:05:20Z</time>
      </trkpt>
      <trkpt lat="45.65693" lon="4.61481">
        <ele>548.8</ele>
        <time>2019-06-16T08:05:26Z</time>
      </trkpt>
      <trkpt lat="45.65692" lon="4.61478">
        <ele>549.1</ele>
        <time>2019-06-16T08:05:28Z</time>
      </trkpt>
      <trkpt lat="45.6569" lon="4.6147">
        <ele>549.7</ele>
        <time>2019-06-16T08:05:32Z</time>
      </trkpt>
      <trkpt lat="45.6569" lon="4.61469">
        <ele>549.8</ele>
        <time>2019-06-16T08:05:33Z</time>
      </trkpt>
      <trkpt lat="45.65685" lon="4.61462">
        <ele>550.5</ele>
        <time>2019-06-16T08:05:37Z</time>
      </trkpt>
      <trkpt lat="45.65684" lon="4.61459">
        <ele>550.9</ele>
        <time>2019-06-16T08:05:39Z</time>
      </trkpt>
      <trkpt lat="45.65681" lon="4.61447">
        <ele>552</ele>
        <time>2019-06-16T08:05:45Z</time>
      </trkpt>
      <trkpt lat="45.6568" lon="4.61446">
        <ele>552.1</ele>
        <time>2019-06-16T08:05:46Z</time>
      </trkpt>
      <trkpt lat="45.65678" lon="4.6144">
        <ele>552.8</ele>
        <time>2019-06-16T08:05:49Z</time>
      </trkpt>
      <trkpt lat="45.65675" lon="4.61434">
        <ele>553.5</ele>
        <time>2019-06-16T08:05:52Z</time>
      </trkpt>
      <trkpt lat="45.65674" lon="4.61432">
        <ele>553.7</ele>
        <time>2019-06-16T08:05:53Z</time>
      </trkpt>
      <trkpt lat="45.65671" lon="4.61424">
        <ele>554.5</ele>
        <time>2019-06-16T08:05:57Z</time>
      </trkpt>
      <trkpt lat="45.65668" lon="4.61417">
        <ele>555.3</ele>
        <time>2019-06-16T08:06:01Z</time>
      </trkpt>
      <trkpt lat="45.65667" lon="4.61415">
        <ele>555.5</ele>
        <time>2019-06-16T08:06:02Z</time>
      </trkpt>
      <trkpt lat="45.65663" lon="4.61403">
        <ele>556.8</ele>
        <time>2019-06-16T08:06:09Z</time>
      </trkpt>
      <trkpt lat="45.6566" lon="4.61398">
        <ele>557.3</ele>
        <time>2019-06-16T08:06:12Z</time>
      </trkpt>
      <trkpt lat="45.65657" lon="4.61391">
        <ele>558.1</ele>
        <time>2019-06-16T08:06:16Z</time>
      </trkpt>
      <trkpt lat="45.65655" lon="4.61384">
        <ele>558.8</ele>
        <time>2019-06-16T08:06:20Z</time>
      </trkpt>
      <trkpt lat="45.65654" lon="4.61383">
        <ele>559</ele>
        <time>2019-06-16T08:06:21Z</time>
      </trkpt>
      <trkpt lat="45.65651" lon="4.61376">
        <ele>559.8</ele>
        <time>2019-06-16T08:06:25Z</time>
      </trkpt>
      <trkpt lat="45.65647" lon="4.61368">
        <ele>560.6</ele>
        <time>2019-06-16T08:06:29Z</time>
      </trkpt>
      <trkpt lat="45.65646" lon="4.61365">
        <ele>560.9</ele>
        <time>2019-06-16T08:06:31Z</time>
      </trkpt>
      <trkpt lat="45.65642" lon="4.61356">
        <ele>561.9</ele>
        <time>2019-06-16T08:06:36Z</time>
      </trkpt>
      <trkpt lat="45.65641" lon="4.61354">
        <ele>562.2</ele>
        <time>2019-06-16T08:06:37Z</time>
      </trkpt>
      <trkpt lat="45.65636" lon="4.61344">
        <ele>563.4</ele>
        <time>2019-06-16T08:06:43Z</time>
      </trkpt>
      <trkpt lat="45.65627" lon="4.61325">
        <ele>565.6</ele>
        <time>2019-06-16T08:06:53Z</time>
      </trkpt>
      <trkpt lat="45.65622" lon="4.61311">
        <ele>567</ele>
        <time>2019-06-16T08:07:00Z</time>
      </trkpt>
      <trkpt lat="45.65618" lon="4.61303">
        <ele>567.9</ele>
        <time>2019-06-16T08:07:04Z</time>
      </trkpt>
      <trkpt lat="45.65616" lon="4.61298">
        <ele>568.4</ele>
        <time>2019-06-16T08:07:07Z</time>
      </trkpt>
      <trkpt lat="45.6561" lon="4.61284">
        <ele>569.8</ele>
        <time>2019-06-16T08:07:14Z</time>
      </trkpt>
      <trkpt lat="45.65608" lon="4.61281">
        <ele>570.2</ele>
        <time>2019-06-16T08:07:16Z</time>
      </trkpt>
      <trkpt lat="45.65605" lon="4.61266">
        <ele>571.3</ele>
        <time>2019-06-16T08:07:23Z</time>
      </trkpt>
      <trkpt lat="45.65603" lon="4.61261">
        <ele>571.6</ele>
        <time>2019-06-16T08:07:25Z</time>
      </trkpt>
      <trkpt lat="45.65605" lon="4.61248">
        <ele>572.6</ele>
        <time>2019-06-16T08:07:31Z</time>
      </trkpt>
      <trkpt lat="45.65605" lon="4.61245">
        <ele>572.7</ele>
        <time>2019-06-16T08:07:32Z</time>
      </trkpt>
      <trkpt lat="45.65608" lon="4.61231">
        <ele>573.8</ele>
        <time>2019-06-16T08:07:39Z</time>
      </trkpt>
      <trkpt lat="45.65608" lon="4.61229">
        <ele>573.9</ele>
        <time>2019-06-16T08:07:40Z</time>
      </trkpt>
      <trkpt lat="45.65609" lon="4.61225">
        <ele>574.2</ele>
        <time>2019-06-16T08:07:42Z</time>
      </trkpt>
      <trkpt lat="45.65611" lon="4.61216">
        <ele>574.9</ele>
        <time>2019-06-16T08:07:46Z</time>
      </trkpt>
      <trkpt lat="45.65611" lon="4.61214">
        <ele>575</ele>
        <time>2019-06-16T08:07:47Z</time>
      </trkpt>
      <trkpt lat="45.65614" lon="4.61204">
        <ele>575.8</ele>
        <time>2019-06-16T08:07:52Z</time>
      </trkpt>
      <trkpt lat="45.65618" lon="4.61199">
        <ele>576.4</ele>
        <time>2019-06-16T08:07:55Z</time>
      </trkpt>
      <trkpt lat="45.65619" lon="4.61197">
        <ele>576.6</ele>
        <time>2019-06-16T08:07:56Z</time>
      </trkpt>
      <trkpt lat="45.65624" lon="4.61181">
        <ele>577.8</ele>
        <time>2019-06-16T08:08:03Z</time>
      </trkpt>
      <trkpt lat="45.65627" lon="4.61171">
        <ele>578.6</ele>
        <time>2019-06-16T08:08:08Z</time>
      </trkpt>
      <trkpt lat="45.65629" lon="4.61163">
        <ele>579.2</ele>
        <time>2019-06-16T08:08:12Z</time>
      </trkpt>
      <trkpt lat="45.65632" lon="4.61154">
        <ele>579.8</ele>
        <time>2019-06-16T08:08:16Z</time>
      </trkpt>
      <trkpt lat="45.65634" lon="4.61149">
        <ele>580.1</ele>
        <time>2019-06-16T08:08:18Z</time>
      </trkpt>
      <trkpt lat="45.65637" lon="4.61144">
        <ele>580.5</ele>
        <time>2019-06-16T08:08:20Z</time>
      </trkpt>
      <trkpt lat="45.65646" lon="4.61127">
        <ele>581.6</ele>
        <time>2019-06-16T08:08:28Z</time>
      </trkpt>
      <trkpt lat="45.65652" lon="4.61111">
        <ele>582.4</ele>
        <time>2019-06-16T08:08:34Z</time>
      </trkpt>
      <trkpt lat="45.65653" lon="4.61098">
        <ele>582.9</ele>
        <time>2019-06-16T08:08:38Z</time>
      </trkpt>
      <trkpt lat="45.65655" lon="4.61092">
        <ele>583.1</ele>
        <time>2019-06-16T08:08:40Z</time>
      </trkpt>
      <trkpt lat="45.65654" lon="4.61076">
        <ele>583.7</ele>
        <time>2019-06-16T08:08:45Z</time>
      </trkpt>
      <trkpt lat="45.65653" lon="4.61074">
        <ele>583.8</ele>
        <time>2019-06-16T08:08:46Z</time>
      </trkpt>
      <trkpt lat="45.6565" lon="4.61068">
        <ele>584.1</ele>
        <time>2019-06-16T08:08:49Z</time>
      </trkpt>
      <trkpt lat="45.65646" lon="4.6106">
        <ele>584.6</ele>
        <time>2019-06-16T08:08:53Z</time>
      </trkpt>
      <trkpt lat="45.65645" lon="4.61057">
        <ele>584.7</ele>
        <time>2019-06-16T08:08:54Z</time>
      </trkpt>
      <trkpt lat="45.6564" lon="4.61049">
        <ele>585.2</ele>
        <time>2019-06-16T08:08:58Z</time>
      </trkpt>
      <trkpt lat="45.65637" lon="4.61043">
        <ele>585.5</ele>
        <time>2019-06-16T08:09:01Z</time>
      </trkpt>
      <trkpt lat="45.65633" lon="4.61036">
        <ele>585.6</ele>
        <time>2019-06-16T08:09:05Z</time>
      </trkpt>
      <trkpt lat="45.65631" lon="4.61032">
        <ele>585.7</ele>
        <time>2019-06-16T08:09:08Z</time>
      </trkpt>
      <trkpt lat="45.6562" lon="4.61022">
        <ele>585.8</ele>
        <time>2019-06-16T08:09:14Z</time>
      </trkpt>
      <trkpt lat="45.65609" lon="4.61013">
        <ele>585.6</ele>
        <time>2019-06-16T08:09:21Z</time>
      </trkpt>
      <trkpt lat="45.65604" lon="4.61011">
        <ele>585.5</ele>
        <time>2019-06-16T08:09:44Z</time>
      </trkpt>
      <trkpt lat="45.65598" lon="4.61007">
        <ele>585.3</ele>
        <time>2019-06-16T08:09:48Z</time>
      </trkpt>
      <trkpt lat="45.65593" lon="4.61005">
        <ele>585.2</ele>
        <time>2019-06-16T08:09:50Z</time>
      </trkpt>
      <trkpt lat="45.6559" lon="4.61005">
        <ele>585.1</ele>
        <time>2019-06-16T08:09:51Z</time>
      </trkpt>
      <trkpt lat="45.65582" lon="4.61004">
        <ele>584.8</ele>
        <time>2019-06-16T08:09:54Z</time>
      </trkpt>
      <trkpt lat="45.65573" lon="4.61007">
        <ele>584.5</ele>
        <time>2019-06-16T08:09:57Z</time>
      </trkpt>
      <trkpt lat="45.6557" lon="4.61008">
        <ele>584.4</ele>
        <time>2019-06-16T08:09:58Z</time>
      </trkpt>
      <trkpt lat="45.65559" lon="4.6101">
        <ele>584.1</ele>
        <time>2019-06-16T08:10:01Z</time>
      </trkpt>
      <trkpt lat="45.6555" lon="4.6101">
        <ele>583.7</ele>
        <time>2019-06-16T08:10:04Z</time>
      </trkpt>
      <trkpt lat="45.65537" lon="4.61004">
        <ele>582.9</ele>
        <time>2019-06-16T08:10:08Z</time>
      </trkpt>
      <trkpt lat="45.65534" lon="4.61">
        <ele>582.7</ele>
        <time>2019-06-16T08:10:09Z</time>
      </trkpt>
      <trkpt lat="45.65528" lon="4.60987">
        <ele>582.3</ele>
        <time>2019-06-16T08:10:11Z</time>
      </trkpt>
      <trkpt lat="45.65522" lon="4.60973">
        <ele>581.9</ele>
        <time>2019-06-16T08:10:13Z</time>
      </trkpt>
      <trkpt lat="45.65517" lon="4.60957">
        <ele>581.4</ele>
        <time>2019-06-16T08:10:15Z</time>
      </trkpt>
      <trkpt lat="45.65507" lon="4.60922">
        <ele>580.5</ele>
        <time>2019-06-16T08:10:19Z</time>
      </trkpt>
      <trkpt lat="45.65494" lon="4.60881">
        <ele>579.2</ele>
        <time>2019-06-16T08:10:24Z</time>
      </trkpt>
      <trkpt lat="45.65492" lon="4.60874">
        <ele>578.9</ele>
        <time>2019-06-16T08:10:25Z</time>
      </trkpt>
      <trkpt lat="45.65486" lon="4.60854">
        <ele>578.1</ele>
        <time>2019-06-16T08:10:28Z</time>
      </trkpt>
      <trkpt lat="45.65482" lon="4.60835">
        <ele>577.3</ele>
        <time>2019-06-16T08:10:31Z</time>
      </trkpt>
      <trkpt lat="45.65481" lon="4.60829">
        <ele>577</ele>
        <time>2019-06-16T08:10:32Z</time>
      </trkpt>
      <trkpt lat="45.6548" lon="4.60811">
        <ele>576.3</ele>
        <time>2019-06-16T08:10:35Z</time>
      </trkpt>
      <trkpt lat="45.65476" lon="4.60796">
        <ele>575.5</ele>
        <time>2019-06-16T08:10:38Z</time>
      </trkpt>
      <trkpt lat="45.65478" lon="4.60786">
        <ele>575</ele>
        <time>2019-06-16T08:10:40Z</time>
      </trkpt>
      <trkpt lat="45.65482" lon="4.60778">
        <ele>574.4</ele>
        <time>2019-06-16T08:10:42Z</time>
      </trkpt>
      <trkpt lat="45.65488" lon="4.60769">
        <ele>573.5</ele>
        <time>2019-06-16T08:10:45Z</time>
      </trkpt>
      <trkpt lat="45.65501" lon="4.60754">
        <ele>573.3</ele>
        <time>2019-06-16T08:10:50Z</time>
      </trkpt>
      <trkpt lat="45.65503" lon="4.60751">
        <ele>573.3</ele>
        <time>2019-06-16T08:10:51Z</time>
      </trkpt>
      <trkpt lat="45.65508" lon="4.6074">
        <ele>573.6</ele>
        <time>2019-06-16T08:10:55Z</time>
      </trkpt>
      <trkpt lat="45.65513" lon="4.60729">
        <ele>574.2</ele>
        <time>2019-06-16T08:10:59Z</time>
      </trkpt>
      <trkpt lat="45.6552" lon="4.60713">
        <ele>575.3</ele>
        <time>2019-06-16T08:11:06Z</time>
      </trkpt>
      <trkpt lat="45.65523" lon="4.60708">
        <ele>575.8</ele>
        <time>2019-06-16T08:11:09Z</time>
      </trkpt>
      <trkpt lat="45.65526" lon="4.60704">
        <ele>576.1</ele>
        <time>2019-06-16T08:11:12Z</time>
      </trkpt>
      <trkpt lat="45.65532" lon="4.60694">
        <ele>577.1</ele>
        <time>2019-06-16T08:11:18Z</time>
      </trkpt>
      <trkpt lat="45.65538" lon="4.60683">
        <ele>577.9</ele>
        <time>2019-06-16T08:11:25Z</time>
      </trkpt>
      <trkpt lat="45.6554" lon="4.6068">
        <ele>578.2</ele>
        <time>2019-06-16T08:11:27Z</time>
      </trkpt>
      <trkpt lat="45.65544" lon="4.60676">
        <ele>578.5</ele>
        <time>2019-06-16T08:11:30Z</time>
      </trkpt>
      <trkpt lat="45.65545" lon="4.60675">
        <ele>578.6</ele>
        <time>2019-06-16T08:11:31Z</time>
      </trkpt>
      <trkpt lat="45.65546" lon="4.60674">
        <ele>578.7</ele>
        <time>2019-06-16T08:11:32Z</time>
      </trkpt>
      <trkpt lat="45.65548" lon="4.6067">
        <ele>579</ele>
        <time>2019-06-16T08:11:35Z</time>
      </trkpt>
      <trkpt lat="45.6555" lon="4.60667">
        <ele>579.2</ele>
        <time>2019-06-16T08:11:37Z</time>
      </trkpt>
      <trkpt lat="45.65551" lon="4.60666">
        <ele>579.3</ele>
        <time>2019-06-16T08:11:38Z</time>
      </trkpt>
      <trkpt lat="45.65556" lon="4.6066">
        <ele>579.7</ele>
        <time>2019-06-16T08:11:43Z</time>
      </trkpt>
      <trkpt lat="45.65564" lon="4.6065">
        <ele>580.3</ele>
        <time>2019-06-16T08:11:51Z</time>
      </trkpt>
      <trkpt lat="45.65565" lon="4.60649">
        <ele>580.4</ele>
        <time>2019-06-16T08:11:52Z</time>
      </trkpt>
      <trkpt lat="45.65569" lon="4.60646">
        <ele>580.9</ele>
        <time>2019-06-16T08:11:56Z</time>
      </trkpt>
      <trkpt lat="45.6557" lon="4.60645">
        <ele>581.1</ele>
        <time>2019-06-16T08:11:57Z</time>
      </trkpt>
      <trkpt lat="45.65571" lon="4.60645">
        <ele>581.2</ele>
        <time>2019-06-16T08:11:58Z</time>
      </trkpt>
      <trkpt lat="45.65577" lon="4.60641">
        <ele>581.9</ele>
        <time>2019-06-16T08:12:03Z</time>
      </trkpt>
      <trkpt lat="45.65579" lon="4.6064">
        <ele>582.2</ele>
        <time>2019-06-16T08:12:05Z</time>
      </trkpt>
      <trkpt lat="45.65582" lon="4.60639">
        <ele>582.4</ele>
        <time>2019-06-16T08:12:07Z</time>
      </trkpt>
      <trkpt lat="45.65587" lon="4.60635">
        <ele>582.9</ele>
        <time>2019-06-16T08:12:11Z</time>
      </trkpt>
      <trkpt lat="45.65588" lon="4.60634">
        <ele>583.1</ele>
        <time>2019-06-16T08:12:12Z</time>
      </trkpt>
      <trkpt lat="45.65594" lon="4.60629">
        <ele>583.7</ele>
        <time>2019-06-16T08:12:17Z</time>
      </trkpt>
      <trkpt lat="45.65595" lon="4.60628">
        <ele>583.9</ele>
        <time>2019-06-16T08:12:18Z</time>
      </trkpt>
      <trkpt lat="45.65601" lon="4.60618">
        <ele>584.9</ele>
        <time>2019-06-16T08:12:24Z</time>
      </trkpt>
      <trkpt lat="45.65607" lon="4.60601">
        <ele>586</ele>
        <time>2019-06-16T08:12:33Z</time>
      </trkpt>
      <trkpt lat="45.65609" lon="4.60591">
        <ele>586.4</ele>
        <time>2019-06-16T08:12:37Z</time>
      </trkpt>
      <trkpt lat="45.65611" lon="4.60586">
        <ele>586.7</ele>
        <time>2019-06-16T08:12:39Z</time>
      </trkpt>
      <trkpt lat="45.65616" lon="4.6057">
        <ele>587.5</ele>
        <time>2019-06-16T08:12:45Z</time>
      </trkpt>
      <trkpt lat="45.65618" lon="4.60566">
        <ele>587.7</ele>
        <time>2019-06-16T08:12:47Z</time>
      </trkpt>
      <trkpt lat="45.65624" lon="4.60554">
        <ele>588.8</ele>
        <time>2019-06-16T08:12:53Z</time>
      </trkpt>
      <trkpt lat="45.65625" lon="4.60551">
        <ele>589</ele>
        <time>2019-06-16T08:12:54Z</time>
      </trkpt>
      <trkpt lat="45.65628" lon="4.60538">
        <ele>590.3</ele>
        <time>2019-06-16T08:13:01Z</time>
      </trkpt>
      <trkpt lat="45.65629" lon="4.60537">
        <ele>590.4</ele>
        <time>2019-06-16T08:13:02Z</time>
      </trkpt>
      <trkpt lat="45.65631" lon="4.60528">
        <ele>591.4</ele>
        <time>2019-06-16T08:13:06Z</time>
      </trkpt>
      <trkpt lat="45.65632" lon="4.60524">
        <ele>591.8</ele>
        <time>2019-06-16T08:13:08Z</time>
      </trkpt>
      <trkpt lat="45.65632" lon="4.60522">
        <ele>592</ele>
        <time>2019-06-16T08:13:09Z</time>
      </trkpt>
      <trkpt lat="45.65635" lon="4.60512">
        <ele>592.9</ele>
        <time>2019-06-16T08:13:14Z</time>
      </trkpt>
      <trkpt lat="45.65635" lon="4.6051">
        <ele>593.1</ele>
        <time>2019-06-16T08:13:15Z</time>
      </trkpt>
      <trkpt lat="45.65637" lon="4.60499">
        <ele>593.9</ele>
        <time>2019-06-16T08:13:20Z</time>
      </trkpt>
      <trkpt lat="45.65637" lon="4.60497">
        <ele>594.1</ele>
        <time>2019-06-16T08:13:21Z</time>
      </trkpt>
      <trkpt lat="45.6564" lon="4.60481">
        <ele>595.2</ele>
        <time>2019-06-16T08:13:28Z</time>
      </trkpt>
      <trkpt lat="45.65641" lon="4.60479">
        <ele>595.4</ele>
        <time>2019-06-16T08:13:29Z</time>
      </trkpt>
      <trkpt lat="45.65645" lon="4.60468">
        <ele>596.5</ele>
        <time>2019-06-16T08:13:34Z</time>
      </trkpt>
      <trkpt lat="45.65647" lon="4.60463">
        <ele>597.2</ele>
        <time>2019-06-16T08:13:37Z</time>
      </trkpt>
      <trkpt lat="45.65648" lon="4.60461">
        <ele>597.4</ele>
        <time>2019-06-16T08:13:38Z</time>
      </trkpt>
      <trkpt lat="45.65653" lon="4.60449">
        <ele>598.7</ele>
        <time>2019-06-16T08:13:45Z</time>
      </trkpt>
      <trkpt lat="45.65654" lon="4.60447">
        <ele>598.9</ele>
        <time>2019-06-16T08:13:46Z</time>
      </trkpt>
      <trkpt lat="45.65659" lon="4.60434">
        <ele>600.3</ele>
        <time>2019-06-16T08:13:53Z</time>
      </trkpt>
      <trkpt lat="45.6566" lon="4.60433">
        <ele>600.5</ele>
        <time>2019-06-16T08:13:54Z</time>
      </trkpt>
      <trkpt lat="45.65661" lon="4.60429">
        <ele>600.8</ele>
        <time>2019-06-16T08:13:56Z</time>
      </trkpt>
      <trkpt lat="45.65663" lon="4.60421">
        <ele>601.5</ele>
        <time>2019-06-16T08:14:00Z</time>
      </trkpt>
      <trkpt lat="45.65665" lon="4.60413">
        <ele>602.2</ele>
        <time>2019-06-16T08:14:04Z</time>
      </trkpt>
      <trkpt lat="45.65666" lon="4.60409">
        <ele>602.5</ele>
        <time>2019-06-16T08:14:06Z</time>
      </trkpt>
      <trkpt lat="45.65667" lon="4.60407">
        <ele>602.6</ele>
        <time>2019-06-16T08:14:07Z</time>
      </trkpt>
      <trkpt lat="45.65668" lon="4.60402">
        <ele>603.1</ele>
        <time>2019-06-16T08:14:10Z</time>
      </trkpt>
      <trkpt lat="45.6567" lon="4.60399">
        <ele>603.5</ele>
        <time>2019-06-16T08:14:12Z</time>
      </trkpt>
      <trkpt lat="45.65676" lon="4.60385">
        <ele>604.9</ele>
        <time>2019-06-16T08:14:20Z</time>
      </trkpt>
      <trkpt lat="45.65681" lon="4.60374">
        <ele>606.1</ele>
        <time>2019-06-16T08:14:27Z</time>
      </trkpt>
      <trkpt lat="45.65685" lon="4.60367">
        <ele>606.9</ele>
        <time>2019-06-16T08:14:31Z</time>
      </trkpt>
      <trkpt lat="45.65688" lon="4.6036">
        <ele>607.8</ele>
        <time>2019-06-16T08:14:35Z</time>
      </trkpt>
      <trkpt lat="45.65695" lon="4.60346">
        <ele>609.1</ele>
        <time>2019-06-16T08:14:43Z</time>
      </trkpt>
      <trkpt lat="45.65697" lon="4.60341">
        <ele>609.6</ele>
        <time>2019-06-16T08:14:46Z</time>
      </trkpt>
      <trkpt lat="45.657" lon="4.60333">
        <ele>610.3</ele>
        <time>2019-06-16T08:14:50Z</time>
      </trkpt>
      <trkpt lat="45.65703" lon="4.60326">
        <ele>610.9</ele>
        <time>2019-06-16T08:14:54Z</time>
      </trkpt>
      <trkpt lat="45.65706" lon="4.60319">
        <ele>611.6</ele>
        <time>2019-06-16T08:14:58Z</time>
      </trkpt>
      <trkpt lat="45.65708" lon="4.60313">
        <ele>612.3</ele>
        <time>2019-06-16T08:15:02Z</time>
      </trkpt>
      <trkpt lat="45.65711" lon="4.6031">
        <ele>612.9</ele>
        <time>2019-06-16T08:15:05Z</time>
      </trkpt>
      <trkpt lat="45.65714" lon="4.60306">
        <ele>613.4</ele>
        <time>2019-06-16T08:15:08Z</time>
      </trkpt>
      <trkpt lat="45.65719" lon="4.603">
        <ele>614.1</ele>
        <time>2019-06-16T08:15:13Z</time>
      </trkpt>
      <trkpt lat="45.65723" lon="4.60296">
        <ele>614.7</ele>
        <time>2019-06-16T08:15:17Z</time>
      </trkpt>
      <trkpt lat="45.65727" lon="4.60294">
        <ele>615.2</ele>
        <time>2019-06-16T08:15:20Z</time>
      </trkpt>
      <trkpt lat="45.65728" lon="4.60293">
        <ele>615.3</ele>
        <time>2019-06-16T08:15:21Z</time>
      </trkpt>
      <trkpt lat="45.65735" lon="4.60287">
        <ele>616.5</ele>
        <time>2019-06-16T08:15:27Z</time>
      </trkpt>
      <trkpt lat="45.65737" lon="4.60285">
        <ele>617</ele>
        <time>2019-06-16T08:15:29Z</time>
      </trkpt>
      <trkpt lat="45.65739" lon="4.60284">
        <ele>617.3</ele>
        <time>2019-06-16T08:15:30Z</time>
      </trkpt>
      <trkpt lat="45.65742" lon="4.60281">
        <ele>618</ele>
        <time>2019-06-16T08:15:33Z</time>
      </trkpt>
      <trkpt lat="45.65746" lon="4.60278">
        <ele>618.6</ele>
        <time>2019-06-16T08:15:37Z</time>
      </trkpt>
      <trkpt lat="45.65747" lon="4.60277">
        <ele>618.8</ele>
        <time>2019-06-16T08:15:38Z</time>
      </trkpt>
      <trkpt lat="45.65752" lon="4.60274">
        <ele>619.5</ele>
        <time>2019-06-16T08:15:42Z</time>
      </trkpt>
      <trkpt lat="45.65756" lon="4.60271">
        <ele>620.1</ele>
        <time>2019-06-16T08:15:45Z</time>
      </trkpt>
      <trkpt lat="45.65758" lon="4.60269">
        <ele>620.7</ele>
        <time>2019-06-16T08:15:47Z</time>
      </trkpt>
      <trkpt lat="45.65761" lon="4.60268">
        <ele>621.6</ele>
        <time>2019-06-16T08:15:50Z</time>
      </trkpt>
      <trkpt lat="45.65764" lon="4.60266">
        <ele>622.2</ele>
        <time>2019-06-16T08:15:52Z</time>
      </trkpt>
      <trkpt lat="45.65765" lon="4.60266">
        <ele>622.5</ele>
        <time>2019-06-16T08:15:53Z</time>
      </trkpt>
      <trkpt lat="45.65771" lon="4.60265">
        <ele>623.7</ele>
        <time>2019-06-16T08:15:58Z</time>
      </trkpt>
      <trkpt lat="45.65772" lon="4.60265">
        <ele>623.9</ele>
        <time>2019-06-16T08:15:59Z</time>
      </trkpt>
      <trkpt lat="45.65776" lon="4.60267">
        <ele>624.5</ele>
        <time>2019-06-16T08:16:02Z</time>
      </trkpt>
      <trkpt lat="45.6578" lon="4.60268">
        <ele>625.1</ele>
        <time>2019-06-16T08:16:05Z</time>
      </trkpt>
      <trkpt lat="45.65782" lon="4.60268">
        <ele>625.4</ele>
        <time>2019-06-16T08:16:07Z</time>
      </trkpt>
      <trkpt lat="45.65787" lon="4.60267">
        <ele>626.5</ele>
        <time>2019-06-16T08:16:11Z</time>
      </trkpt>
      <trkpt lat="45.65791" lon="4.60268">
        <ele>627.2</ele>
        <time>2019-06-16T08:16:14Z</time>
      </trkpt>
      <trkpt lat="45.65801" lon="4.60267">
        <ele>628.3</ele>
        <time>2019-06-16T08:16:20Z</time>
      </trkpt>
      <trkpt lat="45.6581" lon="4.60261">
        <ele>629.1</ele>
        <time>2019-06-16T08:16:27Z</time>
      </trkpt>
      <trkpt lat="45.65823" lon="4.60255">
        <ele>630.3</ele>
        <time>2019-06-16T08:16:37Z</time>
      </trkpt>
      <trkpt lat="45.65828" lon="4.60256">
        <ele>631</ele>
        <time>2019-06-16T08:16:40Z</time>
      </trkpt>
      <trkpt lat="45.65833" lon="4.60258">
        <ele>630.9</ele>
        <time>2019-06-16T08:17:18Z</time>
      </trkpt>
      <trkpt lat="45.65835" lon="4.60257">
        <ele>630.9</ele>
        <time>2019-06-16T08:17:19Z</time>
      </trkpt>
      <trkpt lat="45.6584" lon="4.60254">
        <ele>630.9</ele>
        <time>2019-06-16T08:17:22Z</time>
      </trkpt>
      <trkpt lat="45.65846" lon="4.60249">
        <ele>631.5</ele>
        <time>2019-06-16T08:17:25Z</time>
      </trkpt>
      <trkpt lat="45.65851" lon="4.60244">
        <ele>632</ele>
        <time>2019-06-16T08:17:28Z</time>
      </trkpt>
      <trkpt lat="45.65859" lon="4.60236">
        <ele>632.6</ele>
        <time>2019-06-16T08:17:32Z</time>
      </trkpt>
      <trkpt lat="45.65871" lon="4.60226">
        <ele>633.4</ele>
        <time>2019-06-16T08:17:38Z</time>
      </trkpt>
      <trkpt lat="45.65884" lon="4.60214">
        <ele>634.1</ele>
        <time>2019-06-16T08:17:45Z</time>
      </trkpt>
      <trkpt lat="45.65886" lon="4.60213">
        <ele>634.2</ele>
        <time>2019-06-16T08:17:46Z</time>
      </trkpt>
      <trkpt lat="45.659" lon="4.60202">
        <ele>634.7</ele>
        <time>2019-06-16T08:17:53Z</time>
      </trkpt>
      <trkpt lat="45.65915" lon="4.60189">
        <ele>635.3</ele>
        <time>2019-06-16T08:18:00Z</time>
      </trkpt>
      <trkpt lat="45.65925" lon="4.60177">
        <ele>636</ele>
        <time>2019-06-16T08:18:06Z</time>
      </trkpt>
      <trkpt lat="45.65941" lon="4.60161">
        <ele>637</ele>
        <time>2019-06-16T08:18:14Z</time>
      </trkpt>
      <trkpt lat="45.6595" lon="4.6015">
        <ele>637.5</ele>
        <time>2019-06-16T08:18:19Z</time>
      </trkpt>
      <trkpt lat="45.6596" lon="4.60136">
        <ele>638.2</ele>
        <time>2019-06-16T08:18:25Z</time>
      </trkpt>
      <trkpt lat="45.65968" lon="4.60123">
        <ele>638.9</ele>
        <time>2019-06-16T08:18:30Z</time>
      </trkpt>
      <trkpt lat="45.65971" lon="4.60119">
        <ele>639.3</ele>
        <time>2019-06-16T08:18:32Z</time>
      </trkpt>
      <trkpt lat="45.6598" lon="4.60107">
        <ele>640.4</ele>
        <time>2019-06-16T08:18:37Z</time>
      </trkpt>
      <trkpt lat="45.65985" lon="4.601">
        <ele>641.1</ele>
        <time>2019-06-16T08:18:40Z</time>
      </trkpt>
      <trkpt lat="45.65989" lon="4.60096">
        <ele>641.6</ele>
        <time>2019-06-16T08:18:42Z</time>
      </trkpt>
      <trkpt lat="45.65997" lon="4.60088">
        <ele>642.2</ele>
        <time>2019-06-16T08:18:46Z</time>
      </trkpt>
      <trkpt lat="45.65999" lon="4.60086">
        <ele>642.3</ele>
        <time>2019-06-16T08:18:47Z</time>
      </trkpt>
      <trkpt lat="45.66015" lon="4.60069">
        <ele>642.7</ele>
        <time>2019-06-16T08:18:53Z</time>
      </trkpt>
      <trkpt lat="45.66035" lon="4.60046">
        <ele>643</ele>
        <time>2019-06-16T08:19:00Z</time>
      </trkpt>
      <trkpt lat="45.66046" lon="4.60034">
        <ele>643.2</ele>
        <time>2019-06-16T08:19:04Z</time>
      </trkpt>
      <trkpt lat="45.66051" lon="4.60029">
        <ele>643.2</ele>
        <time>2019-06-16T08:19:06Z</time>
      </trkpt>
      <trkpt lat="45.66059" lon="4.60024">
        <ele>643.3</ele>
        <time>2019-06-16T08:19:09Z</time>
      </trkpt>
      <trkpt lat="45.66073" lon="4.60016">
        <ele>643.5</ele>
        <time>2019-06-16T08:19:13Z</time>
      </trkpt>
      <trkpt lat="45.66088" lon="4.59994">
        <ele>644</ele>
        <time>2019-06-16T08:19:19Z</time>
      </trkpt>
      <trkpt lat="45.66108" lon="4.5996">
        <ele>645</ele>
        <time>2019-06-16T08:19:28Z</time>
      </trkpt>
      <trkpt lat="45.66125" lon="4.59932">
        <ele>646.2</ele>
        <time>2019-06-16T08:19:36Z</time>
      </trkpt>
      <trkpt lat="45.66137" lon="4.59914">
        <ele>646.9</ele>
        <time>2019-06-16T08:19:42Z</time>
      </trkpt>
      <trkpt lat="45.66139" lon="4.59911">
        <ele>647</ele>
        <time>2019-06-16T08:19:43Z</time>
      </trkpt>
      <trkpt lat="45.66147" lon="4.59899">
        <ele>647.5</ele>
        <time>2019-06-16T08:19:48Z</time>
      </trkpt>
      <trkpt lat="45.66151" lon="4.59892">
        <ele>647.7</ele>
        <time>2019-06-16T08:19:51Z</time>
      </trkpt>
      <trkpt lat="45.66153" lon="4.59889">
        <ele>647.9</ele>
        <time>2019-06-16T08:19:52Z</time>
      </trkpt>
      <trkpt lat="45.66167" lon="4.59868">
        <ele>648.7</ele>
        <time>2019-06-16T08:19:59Z</time>
      </trkpt>
      <trkpt lat="45.66182" lon="4.59845">
        <ele>649.6</ele>
        <time>2019-06-16T08:20:07Z</time>
      </trkpt>
      <trkpt lat="45.66187" lon="4.59839">
        <ele>649.8</ele>
        <time>2019-06-16T08:20:09Z</time>
      </trkpt>
      <trkpt lat="45.66199" lon="4.59819">
        <ele>650.6</ele>
        <time>2019-06-16T08:20:15Z</time>
      </trkpt>
      <trkpt lat="45.66204" lon="4.59809">
        <ele>651</ele>
        <time>2019-06-16T08:20:18Z</time>
      </trkpt>
      <trkpt lat="45.6621" lon="4.5979">
        <ele>651.5</ele>
        <time>2019-06-16T08:20:23Z</time>
      </trkpt>
      <trkpt lat="45.66213" lon="4.59782">
        <ele>651.7</ele>
        <time>2019-06-16T08:20:25Z</time>
      </trkpt>
      <trkpt lat="45.66219" lon="4.59758">
        <ele>652.4</ele>
        <time>2019-06-16T08:20:31Z</time>
      </trkpt>
      <trkpt lat="45.66226" lon="4.59744">
        <ele>652.9</ele>
        <time>2019-06-16T08:20:36Z</time>
      </trkpt>
      <trkpt lat="45.66224" lon="4.59734">
        <ele>653.3</ele>
        <time>2019-06-16T08:20:41Z</time>
      </trkpt>
      <trkpt lat="45.66225" lon="4.59719">
        <ele>653.7</ele>
        <time>2019-06-16T08:20:47Z</time>
      </trkpt>
      <trkpt lat="45.66225" lon="4.59717">
        <ele>653.8</ele>
        <time>2019-06-16T08:20:48Z</time>
      </trkpt>
      <trkpt lat="45.66225" lon="4.59705">
        <ele>654.1</ele>
        <time>2019-06-16T08:20:53Z</time>
      </trkpt>
      <trkpt lat="45.66225" lon="4.597">
        <ele>654.2</ele>
        <time>2019-06-16T08:20:55Z</time>
      </trkpt>
      <trkpt lat="45.66225" lon="4.59695">
        <ele>654.3</ele>
        <time>2019-06-16T08:20:57Z</time>
      </trkpt>
      <trkpt lat="45.66225" lon="4.59687">
        <ele>654.4</ele>
        <time>2019-06-16T08:21:01Z</time>
      </trkpt>
      <trkpt lat="45.66224" lon="4.59677">
        <ele>654.5</ele>
        <time>2019-06-16T08:21:05Z</time>
      </trkpt>
      <trkpt lat="45.66224" lon="4.59672">
        <ele>654.6</ele>
        <time>2019-06-16T08:21:07Z</time>
      </trkpt>
      <trkpt lat="45.66223" lon="4.59669">
        <ele>654.6</ele>
        <time>2019-06-16T08:21:08Z</time>
      </trkpt>
      <trkpt lat="45.66222" lon="4.59661">
        <ele>654.7</ele>
        <time>2019-06-16T08:21:11Z</time>
      </trkpt>
      <trkpt lat="45.6622" lon="4.59648">
        <ele>654.8</ele>
        <time>2019-06-16T08:21:15Z</time>
      </trkpt>
      <trkpt lat="45.66219" lon="4.59644">
        <ele>654.8</ele>
        <time>2019-06-16T08:21:16Z</time>
      </trkpt>
      <trkpt lat="45.66217" lon="4.5963">
        <ele>655</ele>
        <time>2019-06-16T08:21:20Z</time>
      </trkpt>
      <trkpt lat="45.66216" lon="4.59623">
        <ele>655</ele>
        <time>2019-06-16T08:21:22Z</time>
      </trkpt>
      <trkpt lat="45.66212" lon="4.59593">
        <ele>655.7</ele>
        <time>2019-06-16T08:21:30Z</time>
      </trkpt>
      <trkpt lat="45.66212" lon="4.59589">
        <ele>655.8</ele>
        <time>2019-06-16T08:21:31Z</time>
      </trkpt>
      <trkpt lat="45.66207" lon="4.5957">
        <ele>656</ele>
        <time>2019-06-16T08:21:36Z</time>
      </trkpt>
      <trkpt lat="45.66204" lon="4.59557">
        <ele>656</ele>
        <time>2019-06-16T08:21:39Z</time>
      </trkpt>
      <trkpt lat="45.66199" lon="4.59543">
        <ele>655.9</ele>
        <time>2019-06-16T08:21:42Z</time>
      </trkpt>
      <trkpt lat="45.66197" lon="4.59539">
        <ele>655.8</ele>
        <time>2019-06-16T08:21:43Z</time>
      </trkpt>
      <trkpt lat="45.66183" lon="4.59512">
        <ele>655.5</ele>
        <time>2019-06-16T08:21:50Z</time>
      </trkpt>
      <trkpt lat="45.66166" lon="4.59489">
        <ele>655.2</ele>
        <time>2019-06-16T08:21:57Z</time>
      </trkpt>
      <trkpt lat="45.66147" lon="4.59463">
        <ele>654.8</ele>
        <time>2019-06-16T08:22:04Z</time>
      </trkpt>
      <trkpt lat="45.6614" lon="4.59453">
        <ele>654.6</ele>
        <time>2019-06-16T08:22:07Z</time>
      </trkpt>
      <trkpt lat="45.6613" lon="4.59438">
        <ele>654.5</ele>
        <time>2019-06-16T08:22:11Z</time>
      </trkpt>
      <trkpt lat="45.66112" lon="4.59417">
        <ele>654.1</ele>
        <time>2019-06-16T08:22:17Z</time>
      </trkpt>
      <trkpt lat="45.66099" lon="4.59406">
        <ele>653.9</ele>
        <time>2019-06-16T08:22:21Z</time>
      </trkpt>
      <trkpt lat="45.66095" lon="4.59403">
        <ele>653.9</ele>
        <time>2019-06-16T08:22:22Z</time>
      </trkpt>
      <trkpt lat="45.66071" lon="4.59392">
        <ele>653.7</ele>
        <time>2019-06-16T08:22:28Z</time>
      </trkpt>
      <trkpt lat="45.66055" lon="4.59388">
        <ele>653.9</ele>
        <time>2019-06-16T08:22:32Z</time>
      </trkpt>
      <trkpt lat="45.66043" lon="4.5939">
        <ele>653.9</ele>
        <time>2019-06-16T08:22:35Z</time>
      </trkpt>
      <trkpt lat="45.66025" lon="4.59402">
        <ele>653.8</ele>
        <time>2019-06-16T08:22:40Z</time>
      </trkpt>
      <trkpt lat="45.66014" lon="4.59412">
        <ele>653.7</ele>
        <time>2019-06-16T08:22:45Z</time>
      </trkpt>
      <trkpt lat="45.66013" lon="4.59413">
        <ele>653.6</ele>
        <time>2019-06-16T08:22:46Z</time>
      </trkpt>
      <trkpt lat="45.66009" lon="4.59415">
        <ele>653.6</ele>
        <time>2019-06-16T08:22:50Z</time>
      </trkpt>
      <trkpt lat="45.66008" lon="4.59416">
        <ele>653.6</ele>
        <time>2019-06-16T08:22:51Z</time>
      </trkpt>
      <trkpt lat="45.65998" lon="4.59424">
        <ele>653.4</ele>
        <time>2019-06-16T08:22:56Z</time>
      </trkpt>
      <trkpt lat="45.65996" lon="4.59427">
        <ele>653.4</ele>
        <time>2019-06-16T08:22:57Z</time>
      </trkpt>
      <trkpt lat="45.65971" lon="4.59446">
        <ele>653.2</ele>
        <time>2019-06-16T08:23:06Z</time>
      </trkpt>
      <trkpt lat="45.65952" lon="4.59465">
        <ele>653.4</ele>
        <time>2019-06-16T08:23:14Z</time>
      </trkpt>
      <trkpt lat="45.65937" lon="4.59477">
        <ele>653.4</ele>
        <time>2019-06-16T08:23:20Z</time>
      </trkpt>
      <trkpt lat="45.65916" lon="4.59497">
        <ele>653.1</ele>
        <time>2019-06-16T08:23:28Z</time>
      </trkpt>
      <trkpt lat="45.65895" lon="4.59515">
        <ele>653</ele>
        <time>2019-06-16T08:23:36Z</time>
      </trkpt>
      <trkpt lat="45.65882" lon="4.59526">
        <ele>653.4</ele>
        <time>2019-06-16T08:23:41Z</time>
      </trkpt>
      <trkpt lat="45.65874" lon="4.59534">
        <ele>653.7</ele>
        <time>2019-06-16T08:23:44Z</time>
      </trkpt>
      <trkpt lat="45.65862" lon="4.59547">
        <ele>654.3</ele>
        <time>2019-06-16T08:23:48Z</time>
      </trkpt>
      <trkpt lat="45.65852" lon="4.59555">
        <ele>654.8</ele>
        <time>2019-06-16T08:23:51Z</time>
      </trkpt>
      <trkpt lat="45.65837" lon="4.59569">
        <ele>655.5</ele>
        <time>2019-06-16T08:23:57Z</time>
      </trkpt>
      <trkpt lat="45.65815" lon="4.5959">
        <ele>656.2</ele>
        <time>2019-06-16T08:24:06Z</time>
      </trkpt>
      <trkpt lat="45.6581" lon="4.59595">
        <ele>656.4</ele>
        <time>2019-06-16T08:24:09Z</time>
      </trkpt>
      <trkpt lat="45.65808" lon="4.59595">
        <ele>656.5</ele>
        <time>2019-06-16T08:24:10Z</time>
      </trkpt>
      <trkpt lat="45.65807" lon="4.59595">
        <ele>656.5</ele>
        <time>2019-06-16T08:24:11Z</time>
      </trkpt>
      <trkpt lat="45.65803" lon="4.59601">
        <ele>656.7</ele>
        <time>2019-06-16T08:24:15Z</time>
      </trkpt>
      <trkpt lat="45.65801" lon="4.59603">
        <ele>656.8</ele>
        <time>2019-06-16T08:24:16Z</time>
      </trkpt>
      <trkpt lat="45.65797" lon="4.59606">
        <ele>657</ele>
        <time>2019-06-16T08:24:18Z</time>
      </trkpt>
      <trkpt lat="45.65789" lon="4.59613">
        <ele>657.3</ele>
        <time>2019-06-16T08:24:22Z</time>
      </trkpt>
      <trkpt lat="45.65787" lon="4.59614">
        <ele>657.4</ele>
        <time>2019-06-16T08:24:23Z</time>
      </trkpt>
      <trkpt lat="45.65778" lon="4.59619">
        <ele>657.8</ele>
        <time>2019-06-16T08:24:27Z</time>
      </trkpt>
      <trkpt lat="45.65769" lon="4.59623">
        <ele>658.3</ele>
        <time>2019-06-16T08:24:30Z</time>
      </trkpt>
      <trkpt lat="45.65767" lon="4.59624">
        <ele>658.5</ele>
        <time>2019-06-16T08:24:31Z</time>
      </trkpt>
      <trkpt lat="45.65753" lon="4.59627">
        <ele>659.2</ele>
        <time>2019-06-16T08:24:36Z</time>
      </trkpt>
      <trkpt lat="45.65743" lon="4.59627">
        <ele>659.6</ele>
        <time>2019-06-16T08:24:39Z</time>
      </trkpt>
      <trkpt lat="45.65726" lon="4.59624">
        <ele>659.9</ele>
        <time>2019-06-16T08:24:45Z</time>
      </trkpt>
      <trkpt lat="45.65716" lon="4.59621">
        <ele>659.9</ele>
        <time>2019-06-16T08:24:49Z</time>
      </trkpt>
      <trkpt lat="45.6571" lon="4.59618">
        <ele>659.9</ele>
        <time>2019-06-16T08:24:51Z</time>
      </trkpt>
      <trkpt lat="45.65696" lon="4.5961">
        <ele>659.9</ele>
        <time>2019-06-16T08:24:56Z</time>
      </trkpt>
      <trkpt lat="45.6568" lon="4.59602">
        <ele>660.4</ele>
        <time>2019-06-16T08:25:27Z</time>
      </trkpt>
      <trkpt lat="45.65678" lon="4.59603">
        <ele>660.6</ele>
        <time>2019-06-16T08:25:29Z</time>
      </trkpt>
      <trkpt lat="45.65677" lon="4.59603">
        <ele>660.6</ele>
        <time>2019-06-16T08:25:30Z</time>
      </trkpt>
      <trkpt lat="45.65672" lon="4.59607">
        <ele>661</ele>
        <time>2019-06-16T08:26:17Z</time>
      </trkpt>
      <trkpt lat="45.6567" lon="4.59609">
        <ele>661.2</ele>
        <time>2019-06-16T08:26:18Z</time>
      </trkpt>
      <trkpt lat="45.65669" lon="4.59618">
        <ele>661.6</ele>
        <time>2019-06-16T08:26:30Z</time>
      </trkpt>
      <trkpt lat="45.65666" lon="4.59621">
        <ele>661.8</ele>
        <time>2019-06-16T08:26:40Z</time>
      </trkpt>
      <trkpt lat="45.65665" lon="4.59622">
        <ele>661.9</ele>
        <time>2019-06-16T08:26:41Z</time>
      </trkpt>
      <trkpt lat="45.65663" lon="4.59623">
        <ele>662.2</ele>
        <time>2019-06-16T08:26:43Z</time>
      </trkpt>
      <trkpt lat="45.65653" lon="4.59628">
        <ele>663.1</ele>
        <time>2019-06-16T08:26:49Z</time>
      </trkpt>
      <trkpt lat="45.65651" lon="4.59629">
        <ele>663.2</ele>
        <time>2019-06-16T08:26:50Z</time>
      </trkpt>
      <trkpt lat="45.6564" lon="4.59637">
        <ele>664.8</ele>
        <time>2019-06-16T08:26:57Z</time>
      </trkpt>
      <trkpt lat="45.65634" lon="4.59642">
        <ele>665.6</ele>
        <time>2019-06-16T08:27:01Z</time>
      </trkpt>
      <trkpt lat="45.65628" lon="4.59645">
        <ele>666.9</ele>
        <time>2019-06-16T08:27:05Z</time>
      </trkpt>
      <trkpt lat="45.65626" lon="4.59645">
        <ele>667.2</ele>
        <time>2019-06-16T08:27:06Z</time>
      </trkpt>
      <trkpt lat="45.6562" lon="4.59647">
        <ele>668.2</ele>
        <time>2019-06-16T08:27:10Z</time>
      </trkpt>
      <trkpt lat="45.65616" lon="4.59646">
        <ele>669.4</ele>
        <time>2019-06-16T08:27:13Z</time>
      </trkpt>
      <trkpt lat="45.65609" lon="4.59637">
        <ele>671.8</ele>
        <time>2019-06-16T08:27:20Z</time>
      </trkpt>
      <trkpt lat="45.65608" lon="4.59635">
        <ele>672</ele>
        <time>2019-06-16T08:27:21Z</time>
      </trkpt>
      <trkpt lat="45.65605" lon="4.5963">
        <ele>672.8</ele>
        <time>2019-06-16T08:27:24Z</time>
      </trkpt>
      <trkpt lat="45.65603" lon="4.59624">
        <ele>673.8</ele>
        <time>2019-06-16T08:27:28Z</time>
      </trkpt>
      <trkpt lat="45.65602" lon="4.59622">
        <ele>674</ele>
        <time>2019-06-16T08:27:29Z</time>
      </trkpt>
      <trkpt lat="45.65599" lon="4.59615">
        <ele>674.9</ele>
        <time>2019-06-16T08:27:33Z</time>
      </trkpt>
      <trkpt lat="45.65598" lon="4.59613">
        <ele>675.1</ele>
        <time>2019-06-16T08:27:34Z</time>
      </trkpt>
      <trkpt lat="45.65597" lon="4.5961">
        <ele>675.5</ele>
        <time>2019-06-16T08:27:36Z</time>
      </trkpt>
      <trkpt lat="45.65595" lon="4.59606">
        <ele>676.2</ele>
        <time>2019-06-16T08:27:39Z</time>
      </trkpt>
      <trkpt lat="45.65591" lon="4.596">
        <ele>677.2</ele>
        <time>2019-06-16T08:27:43Z</time>
      </trkpt>
      <trkpt lat="45.65588" lon="4.59597">
        <ele>677.8</ele>
        <time>2019-06-16T08:27:46Z</time>
      </trkpt>
      <trkpt lat="45.65583" lon="4.59592">
        <ele>678.9</ele>
        <time>2019-06-16T08:27:51Z</time>
      </trkpt>
      <trkpt lat="45.65575" lon="4.59586">
        <ele>680.3</ele>
        <time>2019-06-16T08:27:58Z</time>
      </trkpt>
      <trkpt lat="45.65573" lon="4.59585">
        <ele>680.6</ele>
        <time>2019-06-16T08:27:59Z</time>
      </trkpt>
      <trkpt lat="45.65568" lon="4.59581">
        <ele>681.6</ele>
        <time>2019-06-16T08:28:04Z</time>
      </trkpt>
      <trkpt lat="45.65563" lon="4.59578">
        <ele>682.5</ele>
        <time>2019-06-16T08:28:09Z</time>
      </trkpt>
      <trkpt lat="45.65558" lon="4.59576">
        <ele>683.2</ele>
        <time>2019-06-16T08:28:12Z</time>
      </trkpt>
      <trkpt lat="45.65557" lon="4.59576">
        <ele>683.4</ele>
        <time>2019-06-16T08:28:13Z</time>
      </trkpt>
      <trkpt lat="45.65551" lon="4.59574">
        <ele>684.2</ele>
        <time>2019-06-16T08:28:17Z</time>
      </trkpt>
      <trkpt lat="45.65549" lon="4.59572">
        <ele>684.6</ele>
        <time>2019-06-16T08:28:19Z</time>
      </trkpt>
      <trkpt lat="45.65543" lon="4.59568">
        <ele>685.6</ele>
        <time>2019-06-16T08:28:24Z</time>
      </trkpt>
      <trkpt lat="45.6554" lon="4.59566">
        <ele>686.1</ele>
        <time>2019-06-16T08:28:27Z</time>
      </trkpt>
      <trkpt lat="45.65536" lon="4.59565">
        <ele>686.7</ele>
        <time>2019-06-16T08:28:30Z</time>
      </trkpt>
      <trkpt lat="45.65532" lon="4.59563">
        <ele>687.3</ele>
        <time>2019-06-16T08:28:33Z</time>
      </trkpt>
      <trkpt lat="45.65523" lon="4.59553">
        <ele>688.6</ele>
        <time>2019-06-16T08:28:40Z</time>
      </trkpt>
      <trkpt lat="45.65521" lon="4.5955">
        <ele>689</ele>
        <time>2019-06-16T08:28:43Z</time>
      </trkpt>
      <trkpt lat="45.65519" lon="4.59546">
        <ele>689.4</ele>
        <time>2019-06-16T08:28:46Z</time>
      </trkpt>
      <trkpt lat="45.65518" lon="4.59544">
        <ele>689.6</ele>
        <time>2019-06-16T08:28:47Z</time>
      </trkpt>
      <trkpt lat="45.65515" lon="4.5954">
        <ele>690.1</ele>
        <time>2019-06-16T08:28:50Z</time>
      </trkpt>
      <trkpt lat="45.65512" lon="4.59535">
        <ele>690.6</ele>
        <time>2019-06-16T08:28:54Z</time>
      </trkpt>
      <trkpt lat="45.65511" lon="4.59535">
        <ele>690.8</ele>
        <time>2019-06-16T08:28:55Z</time>
      </trkpt>
      <trkpt lat="45.65508" lon="4.59531">
        <ele>691.2</ele>
        <time>2019-06-16T08:28:58Z</time>
      </trkpt>
      <trkpt lat="45.65506" lon="4.59528">
        <ele>691.6</ele>
        <time>2019-06-16T08:29:01Z</time>
      </trkpt>
      <trkpt lat="45.655" lon="4.59522">
        <ele>692.3</ele>
        <time>2019-06-16T08:29:06Z</time>
      </trkpt>
      <trkpt lat="45.65497" lon="4.59519">
        <ele>692.8</ele>
        <time>2019-06-16T08:29:09Z</time>
      </trkpt>
      <trkpt lat="45.65494" lon="4.59515">
        <ele>693.2</ele>
        <time>2019-06-16T08:29:12Z</time>
      </trkpt>
      <trkpt lat="45.65489" lon="4.59506">
        <ele>694</ele>
        <time>2019-06-16T08:29:18Z</time>
      </trkpt>
      <trkpt lat="45.65484" lon="4.59496">
        <ele>694.9</ele>
        <time>2019-06-16T08:29:24Z</time>
      </trkpt>
      <trkpt lat="45.65482" lon="4.59489">
        <ele>695.5</ele>
        <time>2019-06-16T08:29:28Z</time>
      </trkpt>
      <trkpt lat="45.6548" lon="4.59482">
        <ele>696.1</ele>
        <time>2019-06-16T08:29:32Z</time>
      </trkpt>
      <trkpt lat="45.65478" lon="4.59475">
        <ele>696.6</ele>
        <time>2019-06-16T08:29:36Z</time>
      </trkpt>
      <trkpt lat="45.65477" lon="4.59473">
        <ele>696.7</ele>
        <time>2019-06-16T08:29:37Z</time>
      </trkpt>
      <trkpt lat="45.65476" lon="4.59471">
        <ele>696.9</ele>
        <time>2019-06-16T08:29:38Z</time>
      </trkpt>
      <trkpt lat="45.65471" lon="4.59458">
        <ele>697.7</ele>
        <time>2019-06-16T08:29:44Z</time>
      </trkpt>
      <trkpt lat="45.6547" lon="4.59457">
        <ele>697.8</ele>
        <time>2019-06-16T08:29:45Z</time>
      </trkpt>
      <trkpt lat="45.65466" lon="4.59447">
        <ele>698.5</ele>
        <time>2019-06-16T08:29:50Z</time>
      </trkpt>
      <trkpt lat="45.65465" lon="4.59445">
        <ele>698.7</ele>
        <time>2019-06-16T08:29:51Z</time>
      </trkpt>
      <trkpt lat="45.65462" lon="4.59438">
        <ele>699.2</ele>
        <time>2019-06-16T08:29:55Z</time>
      </trkpt>
      <trkpt lat="45.65461" lon="4.59434">
        <ele>699.5</ele>
        <time>2019-06-16T08:29:57Z</time>
      </trkpt>
      <trkpt lat="45.65449" lon="4.59416">
        <ele>701.1</ele>
        <time>2019-06-16T08:30:09Z</time>
      </trkpt>
      <trkpt lat="45.65446" lon="4.5941">
        <ele>701.6</ele>
        <time>2019-06-16T08:30:12Z</time>
      </trkpt>
      <trkpt lat="45.65444" lon="4.59408">
        <ele>701.8</ele>
        <time>2019-06-16T08:30:13Z</time>
      </trkpt>
      <trkpt lat="45.6544" lon="4.59402">
        <ele>702.5</ele>
        <time>2019-06-16T08:30:16Z</time>
      </trkpt>
      <trkpt lat="45.65437" lon="4.59391">
        <ele>703.3</ele>
        <time>2019-06-16T08:30:20Z</time>
      </trkpt>
      <trkpt lat="45.65435" lon="4.59388">
        <ele>703.6</ele>
        <time>2019-06-16T08:30:21Z</time>
      </trkpt>
      <trkpt lat="45.65432" lon="4.59383">
        <ele>704.1</ele>
        <time>2019-06-16T08:30:23Z</time>
      </trkpt>
      <trkpt lat="45.65429" lon="4.59377">
        <ele>704.5</ele>
        <time>2019-06-16T08:30:25Z</time>
      </trkpt>
      <trkpt lat="45.65426" lon="4.59373">
        <ele>704.9</ele>
        <time>2019-06-16T08:30:27Z</time>
      </trkpt>
      <trkpt lat="45.65425" lon="4.59371">
        <ele>705.1</ele>
        <time>2019-06-16T08:30:28Z</time>
      </trkpt>
      <trkpt lat="45.6542" lon="4.59362">
        <ele>705.7</ele>
        <time>2019-06-16T08:30:32Z</time>
      </trkpt>
      <trkpt lat="45.65416" lon="4.59352">
        <ele>706.5</ele>
        <time>2019-06-16T08:30:36Z</time>
      </trkpt>
      <trkpt lat="45.65413" lon="4.59349">
        <ele>706.9</ele>
        <time>2019-06-16T08:30:38Z</time>
      </trkpt>
      <trkpt lat="45.65405" lon="4.59341">
        <ele>707.9</ele>
        <time>2019-06-16T08:30:43Z</time>
      </trkpt>
      <trkpt lat="45.65404" lon="4.5934">
        <ele>708.1</ele>
        <time>2019-06-16T08:30:44Z</time>
      </trkpt>
      <trkpt lat="45.65395" lon="4.59332">
        <ele>709.1</ele>
        <time>2019-06-16T08:30:49Z</time>
      </trkpt>
      <trkpt lat="45.65391" lon="4.59329">
        <ele>709.6</ele>
        <time>2019-06-16T08:30:51Z</time>
      </trkpt>
      <trkpt lat="45.65379" lon="4.59313">
        <ele>711.3</ele>
        <time>2019-06-16T08:30:58Z</time>
      </trkpt>
      <trkpt lat="45.65373" lon="4.59308">
        <ele>712.1</ele>
        <time>2019-06-16T08:31:01Z</time>
      </trkpt>
      <trkpt lat="45.65363" lon="4.59298">
        <ele>713.3</ele>
        <time>2019-06-16T08:31:07Z</time>
      </trkpt>
      <trkpt lat="45.6536" lon="4.59294">
        <ele>713.6</ele>
        <time>2019-06-16T08:31:09Z</time>
      </trkpt>
      <trkpt lat="45.65353" lon="4.59286">
        <ele>714.4</ele>
        <time>2019-06-16T08:31:13Z</time>
      </trkpt>
      <trkpt lat="45.65343" lon="4.59278">
        <ele>715.6</ele>
        <time>2019-06-16T08:31:18Z</time>
      </trkpt>
      <trkpt lat="45.65342" lon="4.59277">
        <ele>715.7</ele>
        <time>2019-06-16T08:31:19Z</time>
      </trkpt>
      <trkpt lat="45.65333" lon="4.59272">
        <ele>716.7</ele>
        <time>2019-06-16T08:31:23Z</time>
      </trkpt>
      <trkpt lat="45.65329" lon="4.5927">
        <ele>717.2</ele>
        <time>2019-06-16T08:31:25Z</time>
      </trkpt>
      <trkpt lat="45.65322" lon="4.59267">
        <ele>717.9</ele>
        <time>2019-06-16T08:31:29Z</time>
      </trkpt>
      <trkpt lat="45.65315" lon="4.59264">
        <ele>718.6</ele>
        <time>2019-06-16T08:31:33Z</time>
      </trkpt>
      <trkpt lat="45.65303" lon="4.59263">
        <ele>719.8</ele>
        <time>2019-06-16T08:31:41Z</time>
      </trkpt>
      <trkpt lat="45.65294" lon="4.59259">
        <ele>720.6</ele>
        <time>2019-06-16T08:31:48Z</time>
      </trkpt>
      <trkpt lat="45.65293" lon="4.59258">
        <ele>720.8</ele>
        <time>2019-06-16T08:31:49Z</time>
      </trkpt>
      <trkpt lat="45.6528" lon="4.59256">
        <ele>721.9</ele>
        <time>2019-06-16T08:31:56Z</time>
      </trkpt>
      <trkpt lat="45.65266" lon="4.59256">
        <ele>723</ele>
        <time>2019-06-16T08:32:03Z</time>
      </trkpt>
      <trkpt lat="45.65247" lon="4.59255">
        <ele>724.6</ele>
        <time>2019-06-16T08:32:12Z</time>
      </trkpt>
      <trkpt lat="45.65234" lon="4.59256">
        <ele>725.7</ele>
        <time>2019-06-16T08:32:19Z</time>
      </trkpt>
      <trkpt lat="45.65224" lon="4.59257">
        <ele>726.5</ele>
        <time>2019-06-16T08:32:24Z</time>
      </trkpt>
      <trkpt lat="45.65221" lon="4.59258">
        <ele>726.7</ele>
        <time>2019-06-16T08:32:25Z</time>
      </trkpt>
      <trkpt lat="45.65209" lon="4.59251">
        <ele>728.4</ele>
        <time>2019-06-16T08:32:31Z</time>
      </trkpt>
      <trkpt lat="45.65204" lon="4.59237">
        <ele>729.9</ele>
        <time>2019-06-16T08:32:37Z</time>
      </trkpt>
      <trkpt lat="45.65198" lon="4.59225">
        <ele>731.2</ele>
        <time>2019-06-16T08:32:42Z</time>
      </trkpt>
      <trkpt lat="45.65187" lon="4.59224">
        <ele>731.9</ele>
        <time>2019-06-16T08:32:46Z</time>
      </trkpt>
      <trkpt lat="45.65165" lon="4.59225">
        <ele>732.8</ele>
        <time>2019-06-16T08:32:53Z</time>
      </trkpt>
      <trkpt lat="45.65147" lon="4.59225">
        <ele>733.4</ele>
        <time>2019-06-16T08:32:58Z</time>
      </trkpt>
      <trkpt lat="45.65144" lon="4.59225">
        <ele>733.4</ele>
        <time>2019-06-16T08:32:59Z</time>
      </trkpt>
      <trkpt lat="45.65129" lon="4.59225">
        <ele>733.5</ele>
        <time>2019-06-16T08:33:03Z</time>
      </trkpt>
      <trkpt lat="45.65116" lon="4.59226">
        <ele>733.6</ele>
        <time>2019-06-16T08:33:06Z</time>
      </trkpt>
      <trkpt lat="45.65104" lon="4.59229">
        <ele>734</ele>
        <time>2019-06-16T08:33:09Z</time>
      </trkpt>
      <trkpt lat="45.65094" lon="4.59236">
        <ele>734.5</ele>
        <time>2019-06-16T08:33:12Z</time>
      </trkpt>
      <trkpt lat="45.65089" lon="4.5924">
        <ele>734.8</ele>
        <time>2019-06-16T08:33:14Z</time>
      </trkpt>
      <trkpt lat="45.65083" lon="4.59244">
        <ele>735.2</ele>
        <time>2019-06-16T08:33:17Z</time>
      </trkpt>
      <trkpt lat="45.65078" lon="4.59248">
        <ele>735.5</ele>
        <time>2019-06-16T08:33:21Z</time>
      </trkpt>
      <trkpt lat="45.65075" lon="4.5925">
        <ele>735.6</ele>
        <time>2019-06-16T08:33:23Z</time>
      </trkpt>
      <trkpt lat="45.65063" lon="4.59255">
        <ele>736</ele>
        <time>2019-06-16T08:33:30Z</time>
      </trkpt>
      <trkpt lat="45.65061" lon="4.59255">
        <ele>736.1</ele>
        <time>2019-06-16T08:33:31Z</time>
      </trkpt>
      <trkpt lat="45.65054" lon="4.59255">
        <ele>736.2</ele>
        <time>2019-06-16T08:33:35Z</time>
      </trkpt>
      <trkpt lat="45.65051" lon="4.59255">
        <ele>736.2</ele>
        <time>2019-06-16T08:33:37Z</time>
      </trkpt>
      <trkpt lat="45.6504" lon="4.59251">
        <ele>736.3</ele>
        <time>2019-06-16T08:33:44Z</time>
      </trkpt>
      <trkpt lat="45.65035" lon="4.59249">
        <ele>736.4</ele>
        <time>2019-06-16T08:34:14Z</time>
      </trkpt>
      <trkpt lat="45.65033" lon="4.59248">
        <ele>736.4</ele>
        <time>2019-06-16T08:34:15Z</time>
      </trkpt>
      <trkpt lat="45.65032" lon="4.59247">
        <ele>736.4</ele>
        <time>2019-06-16T08:34:16Z</time>
      </trkpt>
      <trkpt lat="45.65027" lon="4.59243">
        <ele>736.5</ele>
        <time>2019-06-16T08:34:18Z</time>
      </trkpt>
      <trkpt lat="45.65024" lon="4.59242">
        <ele>736.5</ele>
        <time>2019-06-16T08:34:19Z</time>
      </trkpt>
      <trkpt lat="45.65016" lon="4.59236">
        <ele>736.5</ele>
        <time>2019-06-16T08:34:21Z</time>
      </trkpt>
      <trkpt lat="45.65007" lon="4.59228">
        <ele>736.5</ele>
        <time>2019-06-16T08:34:23Z</time>
      </trkpt>
      <trkpt lat="45.64998" lon="4.59219">
        <ele>736.5</ele>
        <time>2019-06-16T08:34:25Z</time>
      </trkpt>
      <trkpt lat="45.64989" lon="4.59209">
        <ele>736.6</ele>
        <time>2019-06-16T08:34:27Z</time>
      </trkpt>
      <trkpt lat="45.64981" lon="4.59198">
        <ele>736.7</ele>
        <time>2019-06-16T08:34:29Z</time>
      </trkpt>
      <trkpt lat="45.64978" lon="4.59191">
        <ele>736.8</ele>
        <time>2019-06-16T08:34:30Z</time>
      </trkpt>
      <trkpt lat="45.64967" lon="4.59173">
        <ele>736.8</ele>
        <time>2019-06-16T08:34:33Z</time>
      </trkpt>
      <trkpt lat="45.6496" lon="4.59161">
        <ele>736.7</ele>
        <time>2019-06-16T08:34:35Z</time>
      </trkpt>
      <trkpt lat="45.64957" lon="4.59154">
        <ele>736.6</ele>
        <time>2019-06-16T08:34:36Z</time>
      </trkpt>
      <trkpt lat="45.6495" lon="4.59142">
        <ele>736.5</ele>
        <time>2019-06-16T08:34:38Z</time>
      </trkpt>
      <trkpt lat="45.64941" lon="4.59125">
        <ele>736.5</ele>
        <time>2019-06-16T08:34:41Z</time>
      </trkpt>
      <trkpt lat="45.64937" lon="4.59119">
        <ele>736.5</ele>
        <time>2019-06-16T08:34:42Z</time>
      </trkpt>
      <trkpt lat="45.64927" lon="4.59112">
        <ele>736.5</ele>
        <time>2019-06-16T08:34:44Z</time>
      </trkpt>
      <trkpt lat="45.64922" lon="4.59112">
        <ele>736.5</ele>
        <time>2019-06-16T08:34:45Z</time>
      </trkpt>
      <trkpt lat="45.64908" lon="4.59119">
        <ele>736.5</ele>
        <time>2019-06-16T08:34:48Z</time>
      </trkpt>
      <trkpt lat="45.64888" lon="4.59135">
        <ele>736.5</ele>
        <time>2019-06-16T08:34:54Z</time>
      </trkpt>
      <trkpt lat="45.64883" lon="4.59138">
        <ele>736.6</ele>
        <time>2019-06-16T08:34:56Z</time>
      </trkpt>
      <trkpt lat="45.6487" lon="4.59144">
        <ele>736.8</ele>
        <time>2019-06-16T08:35:01Z</time>
      </trkpt>
      <trkpt lat="45.64856" lon="4.59149">
        <ele>737.3</ele>
        <time>2019-06-16T08:35:07Z</time>
      </trkpt>
      <trkpt lat="45.64855" lon="4.5915">
        <ele>737.3</ele>
        <time>2019-06-16T08:35:08Z</time>
      </trkpt>
      <trkpt lat="45.64848" lon="4.59152">
        <ele>737.6</ele>
        <time>2019-06-16T08:35:12Z</time>
      </trkpt>
      <trkpt lat="45.64845" lon="4.59153">
        <ele>737.7</ele>
        <time>2019-06-16T08:35:14Z</time>
      </trkpt>
      <trkpt lat="45.64837" lon="4.59156">
        <ele>738</ele>
        <time>2019-06-16T08:35:19Z</time>
      </trkpt>
      <trkpt lat="45.64831" lon="4.59158">
        <ele>738.3</ele>
        <time>2019-06-16T08:35:22Z</time>
      </trkpt>
      <trkpt lat="45.64828" lon="4.59159">
        <ele>738.5</ele>
        <time>2019-06-16T08:35:24Z</time>
      </trkpt>
      <trkpt lat="45.64826" lon="4.5916">
        <ele>738.6</ele>
        <time>2019-06-16T08:35:25Z</time>
      </trkpt>
      <trkpt lat="45.64823" lon="4.59161">
        <ele>738.9</ele>
        <time>2019-06-16T08:35:27Z</time>
      </trkpt>
      <trkpt lat="45.64817" lon="4.59164">
        <ele>739.2</ele>
        <time>2019-06-16T08:35:31Z</time>
      </trkpt>
      <trkpt lat="45.64816" lon="4.59165">
        <ele>739.3</ele>
        <time>2019-06-16T08:35:32Z</time>
      </trkpt>
      <trkpt lat="45.64807" lon="4.59173">
        <ele>739.8</ele>
        <time>2019-06-16T08:35:39Z</time>
      </trkpt>
      <trkpt lat="45.64806" lon="4.59174">
        <ele>739.9</ele>
        <time>2019-06-16T08:35:40Z</time>
      </trkpt>
      <trkpt lat="45.64801" lon="4.59182">
        <ele>740.2</ele>
        <time>2019-06-16T08:35:45Z</time>
      </trkpt>
      <trkpt lat="45.64798" lon="4.59188">
        <ele>740.4</ele>
        <time>2019-06-16T08:35:48Z</time>
      </trkpt>
      <trkpt lat="45.64797" lon="4.59189">
        <ele>740.4</ele>
        <time>2019-06-16T08:35:49Z</time>
      </trkpt>
      <trkpt lat="45.64794" lon="4.59197">
        <ele>740.6</ele>
        <time>2019-06-16T08:35:53Z</time>
      </trkpt>
      <trkpt lat="45.64793" lon="4.59203">
        <ele>740.8</ele>
        <time>2019-06-16T08:35:56Z</time>
      </trkpt>
      <trkpt lat="45.64791" lon="4.59208">
        <ele>741</ele>
        <time>2019-06-16T08:35:59Z</time>
      </trkpt>
      <trkpt lat="45.64788" lon="4.59218">
        <ele>741.5</ele>
        <time>2019-06-16T08:36:05Z</time>
      </trkpt>
      <trkpt lat="45.64783" lon="4.59229">
        <ele>742.3</ele>
        <time>2019-06-16T08:36:12Z</time>
      </trkpt>
      <trkpt lat="45.64782" lon="4.59232">
        <ele>742.6</ele>
        <time>2019-06-16T08:36:14Z</time>
      </trkpt>
      <trkpt lat="45.64777" lon="4.59244">
        <ele>743.9</ele>
        <time>2019-06-16T08:36:21Z</time>
      </trkpt>
      <trkpt lat="45.64775" lon="4.5925">
        <ele>744.5</ele>
        <time>2019-06-16T08:36:25Z</time>
      </trkpt>
      <trkpt lat="45.64773" lon="4.59253">
        <ele>745</ele>
        <time>2019-06-16T08:36:28Z</time>
      </trkpt>
      <trkpt lat="45.64771" lon="4.59256">
        <ele>745.4</ele>
        <time>2019-06-16T08:36:30Z</time>
      </trkpt>
      <trkpt lat="45.64766" lon="4.59261">
        <ele>746.4</ele>
        <time>2019-06-16T08:36:36Z</time>
      </trkpt>
      <trkpt lat="45.64762" lon="4.59263">
        <ele>746.9</ele>
        <time>2019-06-16T08:36:39Z</time>
      </trkpt>
      <trkpt lat="45.64757" lon="4.59263">
        <ele>747.5</ele>
        <time>2019-06-16T08:36:42Z</time>
      </trkpt>
      <trkpt lat="45.64755" lon="4.59262">
        <ele>748.1</ele>
        <time>2019-06-16T08:36:44Z</time>
      </trkpt>
      <trkpt lat="45.64751" lon="4.5926">
        <ele>748.8</ele>
        <time>2019-06-16T08:36:48Z</time>
      </trkpt>
      <trkpt lat="45.64748" lon="4.59258">
        <ele>749.2</ele>
        <time>2019-06-16T08:36:51Z</time>
      </trkpt>
      <trkpt lat="45.64744" lon="4.59256">
        <ele>749.9</ele>
        <time>2019-06-16T08:36:54Z</time>
      </trkpt>
      <trkpt lat="45.64741" lon="4.59251">
        <ele>750.6</ele>
        <time>2019-06-16T08:36:57Z</time>
      </trkpt>
      <trkpt lat="45.64738" lon="4.59248">
        <ele>751.4</ele>
        <time>2019-06-16T08:37:00Z</time>
      </trkpt>
      <trkpt lat="45.64736" lon="4.59246">
        <ele>751.8</ele>
        <time>2019-06-16T08:37:02Z</time>
      </trkpt>
      <trkpt lat="45.64729" lon="4.59241">
        <ele>753.2</ele>
        <time>2019-06-16T08:37:07Z</time>
      </trkpt>
      <trkpt lat="45.64728" lon="4.5924">
        <ele>753.4</ele>
        <time>2019-06-16T08:37:08Z</time>
      </trkpt>
      <trkpt lat="45.64723" lon="4.59236">
        <ele>754.6</ele>
        <time>2019-06-16T08:37:13Z</time>
      </trkpt>
      <trkpt lat="45.64721" lon="4.59234">
        <ele>755.1</ele>
        <time>2019-06-16T08:37:15Z</time>
      </trkpt>
      <trkpt lat="45.64713" lon="4.59227">
        <ele>756.9</ele>
        <time>2019-06-16T08:37:22Z</time>
      </trkpt>
      <trkpt lat="45.64712" lon="4.59226">
        <ele>757.1</ele>
        <time>2019-06-16T08:37:23Z</time>
      </trkpt>
      <trkpt lat="45.64708" lon="4.5922">
        <ele>758.3</ele>
        <time>2019-06-16T08:37:28Z</time>
      </trkpt>
      <trkpt lat="45.64705" lon="4.59218">
        <ele>758.8</ele>
        <time>2019-06-16T08:37:30Z</time>
      </trkpt>
      <trkpt lat="45.64703" lon="4.59216">
        <ele>759.3</ele>
        <time>2019-06-16T08:37:32Z</time>
      </trkpt>
      <trkpt lat="45.64697" lon="4.59209">
        <ele>760.9</ele>
        <time>2019-06-16T08:37:38Z</time>
      </trkpt>
      <trkpt lat="45.64694" lon="4.59205">
        <ele>761.7</ele>
        <time>2019-06-16T08:37:41Z</time>
      </trkpt>
      <trkpt lat="45.6469" lon="4.59198">
        <ele>763</ele>
        <time>2019-06-16T08:37:46Z</time>
      </trkpt>
      <trkpt lat="45.64689" lon="4.59196">
        <ele>763.3</ele>
        <time>2019-06-16T08:37:47Z</time>
      </trkpt>
      <trkpt lat="45.64687" lon="4.59191">
        <ele>764.2</ele>
        <time>2019-06-16T08:37:50Z</time>
      </trkpt>
      <trkpt lat="45.64686" lon="4.59188">
        <ele>764.7</ele>
        <time>2019-06-16T08:37:52Z</time>
      </trkpt>
      <trkpt lat="45.64683" lon="4.59182">
        <ele>765.7</ele>
        <time>2019-06-16T08:37:56Z</time>
      </trkpt>
      <trkpt lat="45.64677" lon="4.59174">
        <ele>767.4</ele>
        <time>2019-06-16T08:38:02Z</time>
      </trkpt>
      <trkpt lat="45.64672" lon="4.59169">
        <ele>768.7</ele>
        <time>2019-06-16T08:38:07Z</time>
      </trkpt>
      <trkpt lat="45.64671" lon="4.59167">
        <ele>768.9</ele>
        <time>2019-06-16T08:38:08Z</time>
      </trkpt>
      <trkpt lat="45.64665" lon="4.5916">
        <ele>770.6</ele>
        <time>2019-06-16T08:38:14Z</time>
      </trkpt>
      <trkpt lat="45.64663" lon="4.59159">
        <ele>771.2</ele>
        <time>2019-06-16T08:38:16Z</time>
      </trkpt>
      <trkpt lat="45.64661" lon="4.59157">
        <ele>771.8</ele>
        <time>2019-06-16T08:38:18Z</time>
      </trkpt>
      <trkpt lat="45.64657" lon="4.59151">
        <ele>772.9</ele>
        <time>2019-06-16T08:38:22Z</time>
      </trkpt>
      <trkpt lat="45.64657" lon="4.59149">
        <ele>773.2</ele>
        <time>2019-06-16T08:38:23Z</time>
      </trkpt>
      <trkpt lat="45.64656" lon="4.59143">
        <ele>774.3</ele>
        <time>2019-06-16T08:38:27Z</time>
      </trkpt>
      <trkpt lat="45.64652" lon="4.59141">
        <ele>775.3</ele>
        <time>2019-06-16T08:38:30Z</time>
      </trkpt>
      <trkpt lat="45.64651" lon="4.59141">
        <ele>775.6</ele>
        <time>2019-06-16T08:38:31Z</time>
      </trkpt>
      <trkpt lat="45.64646" lon="4.59148">
        <ele>775.9</ele>
        <time>2019-06-16T08:38:36Z</time>
      </trkpt>
      <trkpt lat="45.64645" lon="4.59151">
        <ele>775.8</ele>
        <time>2019-06-16T08:38:38Z</time>
      </trkpt>
      <trkpt lat="45.64637" lon="4.59167">
        <ele>774.4</ele>
        <time>2019-06-16T08:38:46Z</time>
      </trkpt>
      <trkpt lat="45.64632" lon="4.59187">
        <ele>772.2</ele>
        <time>2019-06-16T08:38:53Z</time>
      </trkpt>
      <trkpt lat="45.64631" lon="4.59206">
        <ele>770.6</ele>
        <time>2019-06-16T08:38:59Z</time>
      </trkpt>
      <trkpt lat="45.64632" lon="4.59213">
        <ele>770</ele>
        <time>2019-06-16T08:39:01Z</time>
      </trkpt>
      <trkpt lat="45.64632" lon="4.59237">
        <ele>768</ele>
        <time>2019-06-16T08:39:08Z</time>
      </trkpt>
      <trkpt lat="45.64632" lon="4.59247">
        <ele>767.2</ele>
        <time>2019-06-16T08:39:11Z</time>
      </trkpt>
      <trkpt lat="45.6463" lon="4.5926">
        <ele>767.9</ele>
        <time>2019-06-16T08:39:15Z</time>
      </trkpt>
      <trkpt lat="45.64629" lon="4.59265">
        <ele>768.1</ele>
        <time>2019-06-16T08:39:17Z</time>
      </trkpt>
      <trkpt lat="45.64628" lon="4.59274">
        <ele>768.4</ele>
        <time>2019-06-16T08:39:20Z</time>
      </trkpt>
      <trkpt lat="45.64626" lon="4.59281">
        <ele>768.6</ele>
        <time>2019-06-16T08:39:23Z</time>
      </trkpt>
      <trkpt lat="45.64625" lon="4.59286">
        <ele>768.8</ele>
        <time>2019-06-16T08:39:25Z</time>
      </trkpt>
      <trkpt lat="45.64624" lon="4.59291">
        <ele>769</ele>
        <time>2019-06-16T08:39:27Z</time>
      </trkpt>
      <trkpt lat="45.64621" lon="4.59304">
        <ele>769.7</ele>
        <time>2019-06-16T08:39:32Z</time>
      </trkpt>
      <trkpt lat="45.64619" lon="4.59309">
        <ele>770</ele>
        <time>2019-06-16T08:39:34Z</time>
      </trkpt>
      <trkpt lat="45.64615" lon="4.59317">
        <ele>770.6</ele>
        <time>2019-06-16T08:39:38Z</time>
      </trkpt>
      <trkpt lat="45.64613" lon="4.59324">
        <ele>771.1</ele>
        <time>2019-06-16T08:39:41Z</time>
      </trkpt>
      <trkpt lat="45.64611" lon="4.59327">
        <ele>771.4</ele>
        <time>2019-06-16T08:39:43Z</time>
      </trkpt>
      <trkpt lat="45.64604" lon="4.59337">
        <ele>772.5</ele>
        <time>2019-06-16T08:39:49Z</time>
      </trkpt>
      <trkpt lat="45.64596" lon="4.59346">
        <ele>773.9</ele>
        <time>2019-06-16T08:39:56Z</time>
      </trkpt>
      <trkpt lat="45.64595" lon="4.59346">
        <ele>774</ele>
        <time>2019-06-16T08:39:57Z</time>
      </trkpt>
      <trkpt lat="45.6459" lon="4.59352">
        <ele>774.8</ele>
        <time>2019-06-16T08:40:01Z</time>
      </trkpt>
      <trkpt lat="45.64587" lon="4.59354">
        <ele>775.1</ele>
        <time>2019-06-16T08:40:03Z</time>
      </trkpt>
      <trkpt lat="45.64584" lon="4.59356">
        <ele>775.5</ele>
        <time>2019-06-16T08:40:05Z</time>
      </trkpt>
      <trkpt lat="45.64578" lon="4.5936">
        <ele>776.4</ele>
        <time>2019-06-16T08:40:10Z</time>
      </trkpt>
      <trkpt lat="45.64572" lon="4.59363">
        <ele>777.1</ele>
        <time>2019-06-16T08:40:14Z</time>
      </trkpt>
      <trkpt lat="45.64562" lon="4.59369">
        <ele>778.4</ele>
        <time>2019-06-16T08:40:22Z</time>
      </trkpt>
      <trkpt lat="45.64556" lon="4.59372">
        <ele>779.2</ele>
        <time>2019-06-16T08:40:26Z</time>
      </trkpt>
      <trkpt lat="45.64552" lon="4.59373">
        <ele>779.7</ele>
        <time>2019-06-16T08:40:29Z</time>
      </trkpt>
      <trkpt lat="45.64547" lon="4.59374">
        <ele>780.3</ele>
        <time>2019-06-16T08:40:33Z</time>
      </trkpt>
      <trkpt lat="45.64546" lon="4.59375">
        <ele>780.5</ele>
        <time>2019-06-16T08:40:34Z</time>
      </trkpt>
      <trkpt lat="45.64538" lon="4.59374">
        <ele>781.8</ele>
        <time>2019-06-16T08:40:40Z</time>
      </trkpt>
      <trkpt lat="45.64534" lon="4.59373">
        <ele>782.4</ele>
        <time>2019-06-16T08:40:43Z</time>
      </trkpt>
      <trkpt lat="45.64528" lon="4.5937">
        <ele>783.4</ele>
        <time>2019-06-16T08:40:48Z</time>
      </trkpt>
      <trkpt lat="45.64523" lon="4.5937">
        <ele>783.9</ele>
        <time>2019-06-16T08:40:51Z</time>
      </trkpt>
      <trkpt lat="45.64518" lon="4.59371">
        <ele>784.6</ele>
        <time>2019-06-16T08:40:55Z</time>
      </trkpt>
      <trkpt lat="45.64517" lon="4.59371">
        <ele>784.8</ele>
        <time>2019-06-16T08:40:56Z</time>
      </trkpt>
      <trkpt lat="45.64509" lon="4.59374">
        <ele>785.7</ele>
        <time>2019-06-16T08:41:02Z</time>
      </trkpt>
      <trkpt lat="45.64505" lon="4.59377">
        <ele>786.1</ele>
        <time>2019-06-16T08:41:05Z</time>
      </trkpt>
      <trkpt lat="45.645" lon="4.59382">
        <ele>786.7</ele>
        <time>2019-06-16T08:41:09Z</time>
      </trkpt>
      <trkpt lat="45.64489" lon="4.5939">
        <ele>787.7</ele>
        <time>2019-06-16T08:41:17Z</time>
      </trkpt>
      <trkpt lat="45.6448" lon="4.59402">
        <ele>788.7</ele>
        <time>2019-06-16T08:41:23Z</time>
      </trkpt>
      <trkpt lat="45.64474" lon="4.59409">
        <ele>789.3</ele>
        <time>2019-06-16T08:41:27Z</time>
      </trkpt>
      <trkpt lat="45.6447" lon="4.59414">
        <ele>789.8</ele>
        <time>2019-06-16T08:41:30Z</time>
      </trkpt>
      <trkpt lat="45.6446" lon="4.59424">
        <ele>791</ele>
        <time>2019-06-16T08:41:37Z</time>
      </trkpt>
      <trkpt lat="45.64454" lon="4.59431">
        <ele>791.8</ele>
        <time>2019-06-16T08:41:43Z</time>
      </trkpt>
      <trkpt lat="45.6445" lon="4.59438">
        <ele>792.6</ele>
        <time>2019-06-16T08:41:48Z</time>
      </trkpt>
      <trkpt lat="45.64448" lon="4.59441">
        <ele>792.9</ele>
        <time>2019-06-16T08:41:50Z</time>
      </trkpt>
      <trkpt lat="45.64447" lon="4.59444">
        <ele>793.3</ele>
        <time>2019-06-16T08:41:52Z</time>
      </trkpt>
      <trkpt lat="45.64444" lon="4.59449">
        <ele>793.9</ele>
        <time>2019-06-16T08:41:55Z</time>
      </trkpt>
      <trkpt lat="45.64443" lon="4.5945">
        <ele>794</ele>
        <time>2019-06-16T08:41:56Z</time>
      </trkpt>
      <trkpt lat="45.64441" lon="4.59454">
        <ele>794.6</ele>
        <time>2019-06-16T08:41:59Z</time>
      </trkpt>
      <trkpt lat="45.64439" lon="4.59458">
        <ele>795.1</ele>
        <time>2019-06-16T08:42:02Z</time>
      </trkpt>
      <trkpt lat="45.64438" lon="4.59459">
        <ele>795.3</ele>
        <time>2019-06-16T08:42:03Z</time>
      </trkpt>
      <trkpt lat="45.64435" lon="4.5946">
        <ele>795.7</ele>
        <time>2019-06-16T08:42:05Z</time>
      </trkpt>
      <trkpt lat="45.64433" lon="4.59464">
        <ele>796.2</ele>
        <time>2019-06-16T08:42:09Z</time>
      </trkpt>
      <trkpt lat="45.64414" lon="4.59491">
        <ele>799.9</ele>
        <time>2019-06-16T08:42:33Z</time>
      </trkpt>
      <trkpt lat="45.64399" lon="4.59523">
        <ele>803.9</ele>
        <time>2019-06-16T08:42:55Z</time>
      </trkpt>
      <trkpt lat="45.64397" lon="4.59527">
        <ele>804.3</ele>
        <time>2019-06-16T08:42:57Z</time>
      </trkpt>
      <trkpt lat="45.64382" lon="4.59565">
        <ele>808.1</ele>
        <time>2019-06-16T08:43:30Z</time>
      </trkpt>
      <trkpt lat="45.64363" lon="4.59637">
        <ele>816</ele>
        <time>2019-06-16T08:44:07Z</time>
      </trkpt>
      <trkpt lat="45.64358" lon="4.59658">
        <ele>818.1</ele>
        <time>2019-06-16T08:44:20Z</time>
      </trkpt>
      <trkpt lat="45.64357" lon="4.59661">
        <ele>818.4</ele>
        <time>2019-06-16T08:44:21Z</time>
      </trkpt>
      <trkpt lat="45.64355" lon="4.59674">
        <ele>820.1</ele>
        <time>2019-06-16T08:44:27Z</time>
      </trkpt>
      <trkpt lat="45.64355" lon="4.59676">
        <ele>820.3</ele>
        <time>2019-06-16T08:44:28Z</time>
      </trkpt>
      <trkpt lat="45.64354" lon="4.5968">
        <ele>820.8</ele>
        <time>2019-06-16T08:44:30Z</time>
      </trkpt>
      <trkpt lat="45.64347" lon="4.59684">
        <ele>822.2</ele>
        <time>2019-06-16T08:44:34Z</time>
      </trkpt>
      <trkpt lat="45.64346" lon="4.59685">
        <ele>822.5</ele>
        <time>2019-06-16T08:44:35Z</time>
      </trkpt>
      <trkpt lat="45.64337" lon="4.5969">
        <ele>824.3</ele>
        <time>2019-06-16T08:44:41Z</time>
      </trkpt>
      <trkpt lat="45.64328" lon="4.59694">
        <ele>826</ele>
        <time>2019-06-16T08:44:47Z</time>
      </trkpt>
      <trkpt lat="45.6432" lon="4.59699">
        <ele>827.6</ele>
        <time>2019-06-16T08:44:53Z</time>
      </trkpt>
      <trkpt lat="45.64319" lon="4.59701">
        <ele>827.9</ele>
        <time>2019-06-16T08:44:54Z</time>
      </trkpt>
      <trkpt lat="45.64312" lon="4.59706">
        <ele>829.4</ele>
        <time>2019-06-16T08:44:59Z</time>
      </trkpt>
      <trkpt lat="45.64309" lon="4.59709">
        <ele>830.1</ele>
        <time>2019-06-16T08:45:01Z</time>
      </trkpt>
      <trkpt lat="45.64303" lon="4.59713">
        <ele>831.4</ele>
        <time>2019-06-16T08:45:04Z</time>
      </trkpt>
      <trkpt lat="45.64291" lon="4.59719">
        <ele>833.4</ele>
        <time>2019-06-16T08:45:10Z</time>
      </trkpt>
      <trkpt lat="45.64279" lon="4.59727">
        <ele>834.9</ele>
        <time>2019-06-16T08:45:17Z</time>
      </trkpt>
      <trkpt lat="45.64258" lon="4.59729">
        <ele>837</ele>
        <time>2019-06-16T08:45:21Z</time>
      </trkpt>
      <trkpt lat="45.6424" lon="4.59727">
        <ele>839</ele>
        <time>2019-06-16T08:45:24Z</time>
      </trkpt>
      <trkpt lat="45.6423" lon="4.59725">
        <ele>839.8</ele>
        <time>2019-06-16T08:45:26Z</time>
      </trkpt>
      <trkpt lat="45.64226" lon="4.59724">
        <ele>840.1</ele>
        <time>2019-06-16T08:45:27Z</time>
      </trkpt>
      <trkpt lat="45.64222" lon="4.59724">
        <ele>840.4</ele>
        <time>2019-06-16T08:45:29Z</time>
      </trkpt>
      <trkpt lat="45.64218" lon="4.59724">
        <ele>840.6</ele>
        <time>2019-06-16T08:45:31Z</time>
      </trkpt>
      <trkpt lat="45.64209" lon="4.59725">
        <ele>841</ele>
        <time>2019-06-16T08:45:34Z</time>
      </trkpt>
      <trkpt lat="45.642" lon="4.59727">
        <ele>841.4</ele>
        <time>2019-06-16T08:45:36Z</time>
      </trkpt>
      <trkpt lat="45.64188" lon="4.59731">
        <ele>842.1</ele>
        <time>2019-06-16T08:45:38Z</time>
      </trkpt>
      <trkpt lat="45.64174" lon="4.59731">
        <ele>843</ele>
        <time>2019-06-16T08:45:40Z</time>
      </trkpt>
      <trkpt lat="45.64163" lon="4.5973">
        <ele>843.9</ele>
        <time>2019-06-16T08:45:42Z</time>
      </trkpt>
      <trkpt lat="45.6415" lon="4.59733">
        <ele>845.1</ele>
        <time>2019-06-16T08:45:46Z</time>
      </trkpt>
      <trkpt lat="45.64141" lon="4.59733">
        <ele>846.3</ele>
        <time>2019-06-16T08:45:52Z</time>
      </trkpt>
      <trkpt lat="45.64139" lon="4.59733">
        <ele>846.6</ele>
        <time>2019-06-16T08:45:53Z</time>
      </trkpt>
      <trkpt lat="45.64133" lon="4.59733">
        <ele>847.3</ele>
        <time>2019-06-16T08:45:57Z</time>
      </trkpt>
      <trkpt lat="45.64132" lon="4.59732">
        <ele>847.5</ele>
        <time>2019-06-16T08:45:58Z</time>
      </trkpt>
      <trkpt lat="45.64127" lon="4.59731">
        <ele>848.1</ele>
        <time>2019-06-16T08:46:01Z</time>
      </trkpt>
      <trkpt lat="45.64121" lon="4.5973">
        <ele>849.1</ele>
        <time>2019-06-16T08:46:05Z</time>
      </trkpt>
      <trkpt lat="45.64116" lon="4.59731">
        <ele>849.7</ele>
        <time>2019-06-16T08:46:08Z</time>
      </trkpt>
      <trkpt lat="45.64115" lon="4.59731">
        <ele>849.9</ele>
        <time>2019-06-16T08:46:09Z</time>
      </trkpt>
      <trkpt lat="45.6411" lon="4.5973">
        <ele>850.8</ele>
        <time>2019-06-16T08:46:14Z</time>
      </trkpt>
      <trkpt lat="45.64105" lon="4.59729">
        <ele>851.5</ele>
        <time>2019-06-16T08:46:17Z</time>
      </trkpt>
      <trkpt lat="45.64092" lon="4.59728">
        <ele>852.9</ele>
        <time>2019-06-16T08:46:25Z</time>
      </trkpt>
      <trkpt lat="45.64091" lon="4.59729">
        <ele>853.1</ele>
        <time>2019-06-16T08:46:26Z</time>
      </trkpt>
      <trkpt lat="45.6408" lon="4.59726">
        <ele>854.3</ele>
        <time>2019-06-16T08:46:33Z</time>
      </trkpt>
      <trkpt lat="45.64058" lon="4.59725">
        <ele>855.9</ele>
        <time>2019-06-16T08:46:46Z</time>
      </trkpt>
      <trkpt lat="45.6405" lon="4.59727">
        <ele>856.4</ele>
        <time>2019-06-16T08:46:50Z</time>
      </trkpt>
      <trkpt lat="45.64045" lon="4.59729">
        <ele>856.7</ele>
        <time>2019-06-16T08:46:53Z</time>
      </trkpt>
      <trkpt lat="45.64035" lon="4.5973">
        <ele>856.8</ele>
        <time>2019-06-16T08:46:59Z</time>
      </trkpt>
      <trkpt lat="45.64024" lon="4.59732">
        <ele>856.8</ele>
        <time>2019-06-16T08:47:04Z</time>
      </trkpt>
      <trkpt lat="45.64022" lon="4.59732">
        <ele>856.7</ele>
        <time>2019-06-16T08:47:05Z</time>
      </trkpt>
      <trkpt lat="45.64005" lon="4.5973">
        <ele>856.1</ele>
        <time>2019-06-16T08:47:10Z</time>
      </trkpt>
      <trkpt lat="45.63994" lon="4.5973">
        <ele>855.4</ele>
        <time>2019-06-16T08:47:12Z</time>
      </trkpt>
      <trkpt lat="45.63977" lon="4.5973">
        <ele>854.6</ele>
        <time>2019-06-16T08:47:15Z</time>
      </trkpt>
      <trkpt lat="45.63972" lon="4.5973">
        <ele>854.5</ele>
        <time>2019-06-16T08:47:16Z</time>
      </trkpt>
      <trkpt lat="45.63952" lon="4.59726">
        <ele>854.5</ele>
        <time>2019-06-16T08:47:21Z</time>
      </trkpt>
      <trkpt lat="45.63943" lon="4.59725">
        <ele>854.6</ele>
        <time>2019-06-16T08:47:24Z</time>
      </trkpt>
      <trkpt lat="45.63934" lon="4.59723">
        <ele>854.7</ele>
        <time>2019-06-16T08:47:27Z</time>
      </trkpt>
      <trkpt lat="45.63915" lon="4.59724">
        <ele>855.1</ele>
        <time>2019-06-16T08:47:32Z</time>
      </trkpt>
      <trkpt lat="45.63899" lon="4.59717">
        <ele>854.7</ele>
        <time>2019-06-16T08:47:37Z</time>
      </trkpt>
      <trkpt lat="45.63873" lon="4.59709">
        <ele>853.7</ele>
        <time>2019-06-16T08:47:44Z</time>
      </trkpt>
      <trkpt lat="45.63863" lon="4.59707">
        <ele>853.5</ele>
        <time>2019-06-16T08:47:47Z</time>
      </trkpt>
      <trkpt lat="45.63845" lon="4.59703">
        <ele>853.3</ele>
        <time>2019-06-16T08:47:52Z</time>
      </trkpt>
      <trkpt lat="45.63821" lon="4.59697">
        <ele>853.3</ele>
        <time>2019-06-16T08:47:59Z</time>
      </trkpt>
      <trkpt lat="45.63796" lon="4.59692">
        <ele>853.7</ele>
        <time>2019-06-16T08:48:07Z</time>
      </trkpt>
      <trkpt lat="45.63779" lon="4.5969">
        <ele>854</ele>
        <time>2019-06-16T08:48:14Z</time>
      </trkpt>
      <trkpt lat="45.63768" lon="4.59686">
        <ele>854.4</ele>
        <time>2019-06-16T08:48:20Z</time>
      </trkpt>
      <trkpt lat="45.63762" lon="4.59686">
        <ele>854.7</ele>
        <time>2019-06-16T08:48:24Z</time>
      </trkpt>
      <trkpt lat="45.63756" lon="4.59684">
        <ele>855.2</ele>
        <time>2019-06-16T08:48:28Z</time>
      </trkpt>
      <trkpt lat="45.63752" lon="4.59683">
        <ele>855.6</ele>
        <time>2019-06-16T08:48:31Z</time>
      </trkpt>
      <trkpt lat="45.63746" lon="4.59682">
        <ele>856.1</ele>
        <time>2019-06-16T08:48:35Z</time>
      </trkpt>
      <trkpt lat="45.63741" lon="4.5968">
        <ele>856.6</ele>
        <time>2019-06-16T08:48:39Z</time>
      </trkpt>
      <trkpt lat="45.63737" lon="4.59679">
        <ele>857</ele>
        <time>2019-06-16T08:48:42Z</time>
      </trkpt>
      <trkpt lat="45.63731" lon="4.59678">
        <ele>857.6</ele>
        <time>2019-06-16T08:48:46Z</time>
      </trkpt>
      <trkpt lat="45.6373" lon="4.59679">
        <ele>857.8</ele>
        <time>2019-06-16T08:48:47Z</time>
      </trkpt>
      <trkpt lat="45.63718" lon="4.59679">
        <ele>858.7</ele>
        <time>2019-06-16T08:48:54Z</time>
      </trkpt>
      <trkpt lat="45.63717" lon="4.59679">
        <ele>858.8</ele>
        <time>2019-06-16T08:48:55Z</time>
      </trkpt>
      <trkpt lat="45.63711" lon="4.59677">
        <ele>859.2</ele>
        <time>2019-06-16T08:48:59Z</time>
      </trkpt>
      <trkpt lat="45.6371" lon="4.59677">
        <ele>859.2</ele>
        <time>2019-06-16T08:49:00Z</time>
      </trkpt>
      <trkpt lat="45.63709" lon="4.59677">
        <ele>859.3</ele>
        <time>2019-06-16T08:49:01Z</time>
      </trkpt>
      <trkpt lat="45.63702" lon="4.59677">
        <ele>859.7</ele>
        <time>2019-06-16T08:49:05Z</time>
      </trkpt>
      <trkpt lat="45.63698" lon="4.59678">
        <ele>859.9</ele>
        <time>2019-06-16T08:49:07Z</time>
      </trkpt>
      <trkpt lat="45.63681" lon="4.59677">
        <ele>860.2</ele>
        <time>2019-06-16T08:49:15Z</time>
      </trkpt>
      <trkpt lat="45.63664" lon="4.59681">
        <ele>859.9</ele>
        <time>2019-06-16T08:49:22Z</time>
      </trkpt>
      <trkpt lat="45.63648" lon="4.59686">
        <ele>859.5</ele>
        <time>2019-06-16T08:49:28Z</time>
      </trkpt>
      <trkpt lat="45.63632" lon="4.59695">
        <ele>859.3</ele>
        <time>2019-06-16T08:49:34Z</time>
      </trkpt>
      <trkpt lat="45.63621" lon="4.597">
        <ele>859.2</ele>
        <time>2019-06-16T08:49:39Z</time>
      </trkpt>
      <trkpt lat="45.63608" lon="4.59701">
        <ele>859.4</ele>
        <time>2019-06-16T08:49:45Z</time>
      </trkpt>
      <trkpt lat="45.63601" lon="4.59699">
        <ele>859.6</ele>
        <time>2019-06-16T08:49:49Z</time>
      </trkpt>
      <trkpt lat="45.63596" lon="4.59695">
        <ele>859.8</ele>
        <time>2019-06-16T08:49:52Z</time>
      </trkpt>
      <trkpt lat="45.63586" lon="4.59685">
        <ele>860.3</ele>
        <time>2019-06-16T08:49:59Z</time>
      </trkpt>
      <trkpt lat="45.63584" lon="4.59683">
        <ele>860.4</ele>
        <time>2019-06-16T08:50:00Z</time>
      </trkpt>
      <trkpt lat="45.63575" lon="4.59667">
        <ele>860.7</ele>
        <time>2019-06-16T08:50:08Z</time>
      </trkpt>
      <trkpt lat="45.63571" lon="4.59657">
        <ele>861</ele>
        <time>2019-06-16T08:50:11Z</time>
      </trkpt>
      <trkpt lat="45.63568" lon="4.59646">
        <ele>861.2</ele>
        <time>2019-06-16T08:50:14Z</time>
      </trkpt>
      <trkpt lat="45.63561" lon="4.5963">
        <ele>861.3</ele>
        <time>2019-06-16T08:50:20Z</time>
      </trkpt>
      <trkpt lat="45.63553" lon="4.59612">
        <ele>861.3</ele>
        <time>2019-06-16T08:50:25Z</time>
      </trkpt>
      <trkpt lat="45.63537" lon="4.59593">
        <ele>860.9</ele>
        <time>2019-06-16T08:50:31Z</time>
      </trkpt>
      <trkpt lat="45.63534" lon="4.59588">
        <ele>860.8</ele>
        <time>2019-06-16T08:50:32Z</time>
      </trkpt>
      <trkpt lat="45.63525" lon="4.59572">
        <ele>860.3</ele>
        <time>2019-06-16T08:50:35Z</time>
      </trkpt>
      <trkpt lat="45.63523" lon="4.59564">
        <ele>860</ele>
        <time>2019-06-16T08:50:36Z</time>
      </trkpt>
      <trkpt lat="45.63521" lon="4.59547">
        <ele>859.6</ele>
        <time>2019-06-16T08:50:38Z</time>
      </trkpt>
      <trkpt lat="45.6352" lon="4.59537">
        <ele>859.3</ele>
        <time>2019-06-16T08:50:39Z</time>
      </trkpt>
      <trkpt lat="45.63519" lon="4.59528">
        <ele>859.1</ele>
        <time>2019-06-16T08:50:40Z</time>
      </trkpt>
      <trkpt lat="45.63518" lon="4.59518">
        <ele>858.8</ele>
        <time>2019-06-16T08:50:41Z</time>
      </trkpt>
      <trkpt lat="45.63515" lon="4.59486">
        <ele>858.3</ele>
        <time>2019-06-16T08:50:44Z</time>
      </trkpt>
      <trkpt lat="45.63513" lon="4.59476">
        <ele>858.1</ele>
        <time>2019-06-16T08:50:45Z</time>
      </trkpt>
      <trkpt lat="45.6351" lon="4.59466">
        <ele>858</ele>
        <time>2019-06-16T08:50:46Z</time>
      </trkpt>
      <trkpt lat="45.63508" lon="4.59445">
        <ele>858.9</ele>
        <time>2019-06-16T08:50:48Z</time>
      </trkpt>
      <trkpt lat="45.63509" lon="4.59436">
        <ele>859.5</ele>
        <time>2019-06-16T08:50:49Z</time>
      </trkpt>
      <trkpt lat="45.63509" lon="4.59427">
        <ele>860.1</ele>
        <time>2019-06-16T08:50:50Z</time>
      </trkpt>
      <trkpt lat="45.63511" lon="4.59399">
        <ele>861.3</ele>
        <time>2019-06-16T08:50:54Z</time>
      </trkpt>
      <trkpt lat="45.63512" lon="4.59372">
        <ele>862.4</ele>
        <time>2019-06-16T08:50:58Z</time>
      </trkpt>
      <trkpt lat="45.63514" lon="4.59339">
        <ele>863.4</ele>
        <time>2019-06-16T08:51:03Z</time>
      </trkpt>
      <trkpt lat="45.63514" lon="4.59333">
        <ele>863.6</ele>
        <time>2019-06-16T08:51:04Z</time>
      </trkpt>
      <trkpt lat="45.63516" lon="4.59313">
        <ele>864.1</ele>
        <time>2019-06-16T08:51:07Z</time>
      </trkpt>
      <trkpt lat="45.63516" lon="4.59295">
        <ele>864.6</ele>
        <time>2019-06-16T08:51:10Z</time>
      </trkpt>
      <trkpt lat="45.63516" lon="4.59283">
        <ele>865</ele>
        <time>2019-06-16T08:51:12Z</time>
      </trkpt>
      <trkpt lat="45.63517" lon="4.59273">
        <ele>865.3</ele>
        <time>2019-06-16T08:51:14Z</time>
      </trkpt>
      <trkpt lat="45.63516" lon="4.59257">
        <ele>865.7</ele>
        <time>2019-06-16T08:51:17Z</time>
      </trkpt>
      <trkpt lat="45.63515" lon="4.59252">
        <ele>865.9</ele>
        <time>2019-06-16T08:51:18Z</time>
      </trkpt>
      <trkpt lat="45.63509" lon="4.59231">
        <ele>865.5</ele>
        <time>2019-06-16T08:51:22Z</time>
      </trkpt>
      <trkpt lat="45.63505" lon="4.59218">
        <ele>864.1</ele>
        <time>2019-06-16T08:51:24Z</time>
      </trkpt>
      <trkpt lat="45.63502" lon="4.5921">
        <ele>863.4</ele>
        <time>2019-06-16T08:51:25Z</time>
      </trkpt>
      <trkpt lat="45.63493" lon="4.59189">
        <ele>862.3</ele>
        <time>2019-06-16T08:51:27Z</time>
      </trkpt>
      <trkpt lat="45.63473" lon="4.59125">
        <ele>856</ele>
        <time>2019-06-16T08:51:32Z</time>
      </trkpt>
      <trkpt lat="45.63462" lon="4.5908">
        <ele>853.6</ele>
        <time>2019-06-16T08:51:35Z</time>
      </trkpt>
      <trkpt lat="45.63463" lon="4.59064">
        <ele>853.4</ele>
        <time>2019-06-16T08:51:36Z</time>
      </trkpt>
      <trkpt lat="45.63464" lon="4.59049">
        <ele>853.1</ele>
        <time>2019-06-16T08:51:37Z</time>
      </trkpt>
      <trkpt lat="45.63467" lon="4.59034">
        <ele>852.8</ele>
        <time>2019-06-16T08:51:38Z</time>
      </trkpt>
      <trkpt lat="45.63469" lon="4.59019">
        <ele>852.3</ele>
        <time>2019-06-16T08:51:39Z</time>
      </trkpt>
      <trkpt lat="45.63472" lon="4.59005">
        <ele>851.9</ele>
        <time>2019-06-16T08:51:40Z</time>
      </trkpt>
      <trkpt lat="45.63474" lon="4.58991">
        <ele>851.4</ele>
        <time>2019-06-16T08:51:41Z</time>
      </trkpt>
      <trkpt lat="45.63476" lon="4.58978">
        <ele>850.9</ele>
        <time>2019-06-16T08:51:42Z</time>
      </trkpt>
      <trkpt lat="45.63478" lon="4.58965">
        <ele>850.4</ele>
        <time>2019-06-16T08:51:43Z</time>
      </trkpt>
      <trkpt lat="45.6348" lon="4.58952">
        <ele>849.8</ele>
        <time>2019-06-16T08:51:44Z</time>
      </trkpt>
      <trkpt lat="45.63482" lon="4.58938">
        <ele>849.1</ele>
        <time>2019-06-16T08:51:45Z</time>
      </trkpt>
      <trkpt lat="45.63485" lon="4.5891">
        <ele>849.1</ele>
        <time>2019-06-16T08:51:47Z</time>
      </trkpt>
      <trkpt lat="45.63486" lon="4.58895">
        <ele>849.6</ele>
        <time>2019-06-16T08:51:48Z</time>
      </trkpt>
      <trkpt lat="45.63488" lon="4.58881">
        <ele>850.2</ele>
        <time>2019-06-16T08:51:49Z</time>
      </trkpt>
      <trkpt lat="45.63489" lon="4.58868">
        <ele>850.7</ele>
        <time>2019-06-16T08:51:50Z</time>
      </trkpt>
      <trkpt lat="45.63493" lon="4.58849">
        <ele>850.6</ele>
        <time>2019-06-16T08:51:52Z</time>
      </trkpt>
      <trkpt lat="45.63492" lon="4.58827">
        <ele>849.8</ele>
        <time>2019-06-16T08:51:55Z</time>
      </trkpt>
      <trkpt lat="45.63491" lon="4.58823">
        <ele>849.7</ele>
        <time>2019-06-16T08:51:56Z</time>
      </trkpt>
      <trkpt lat="45.6349" lon="4.58816">
        <ele>849.4</ele>
        <time>2019-06-16T08:51:58Z</time>
      </trkpt>
      <trkpt lat="45.63487" lon="4.588">
        <ele>848.7</ele>
        <time>2019-06-16T08:52:02Z</time>
      </trkpt>
      <trkpt lat="45.63486" lon="4.58795">
        <ele>848.5</ele>
        <time>2019-06-16T08:52:03Z</time>
      </trkpt>
      <trkpt lat="45.63476" lon="4.58762">
        <ele>846.8</ele>
        <time>2019-06-16T08:52:08Z</time>
      </trkpt>
      <trkpt lat="45.63463" lon="4.58716">
        <ele>844.8</ele>
        <time>2019-06-16T08:52:14Z</time>
      </trkpt>
      <trkpt lat="45.63454" lon="4.5868">
        <ele>843.8</ele>
        <time>2019-06-16T08:52:19Z</time>
      </trkpt>
      <trkpt lat="45.63452" lon="4.58673">
        <ele>843.5</ele>
        <time>2019-06-16T08:52:20Z</time>
      </trkpt>
      <trkpt lat="45.63441" lon="4.58636">
        <ele>842.3</ele>
        <time>2019-06-16T08:52:26Z</time>
      </trkpt>
      <trkpt lat="45.6344" lon="4.58629">
        <ele>842.2</ele>
        <time>2019-06-16T08:52:27Z</time>
      </trkpt>
      <trkpt lat="45.63435" lon="4.58595">
        <ele>841.2</ele>
        <time>2019-06-16T08:52:31Z</time>
      </trkpt>
      <trkpt lat="45.63425" lon="4.5853">
        <ele>839.7</ele>
        <time>2019-06-16T08:52:38Z</time>
      </trkpt>
      <trkpt lat="45.63424" lon="4.58521">
        <ele>839.5</ele>
        <time>2019-06-16T08:52:39Z</time>
      </trkpt>
      <trkpt lat="45.63421" lon="4.58499">
        <ele>839.2</ele>
        <time>2019-06-16T08:52:42Z</time>
      </trkpt>
      <trkpt lat="45.63419" lon="4.58488">
        <ele>839</ele>
        <time>2019-06-16T08:52:44Z</time>
      </trkpt>
      <trkpt lat="45.63411" lon="4.58444">
        <ele>838.4</ele>
        <time>2019-06-16T08:52:51Z</time>
      </trkpt>
      <trkpt lat="45.63402" lon="4.58396">
        <ele>838.5</ele>
        <time>2019-06-16T08:52:58Z</time>
      </trkpt>
      <trkpt lat="45.63397" lon="4.58364">
        <ele>838.8</ele>
        <time>2019-06-16T08:53:03Z</time>
      </trkpt>
      <trkpt lat="45.63394" lon="4.58351">
        <ele>838.8</ele>
        <time>2019-06-16T08:53:05Z</time>
      </trkpt>
      <trkpt lat="45.6339" lon="4.58327">
        <ele>838.7</ele>
        <time>2019-06-16T08:53:10Z</time>
      </trkpt>
      <trkpt lat="45.63386" lon="4.583">
        <ele>838.8</ele>
        <time>2019-06-16T08:53:16Z</time>
      </trkpt>
      <trkpt lat="45.63387" lon="4.58283">
        <ele>839</ele>
        <time>2019-06-16T08:53:20Z</time>
      </trkpt>
      <trkpt lat="45.63387" lon="4.58275">
        <ele>839.1</ele>
        <time>2019-06-16T08:53:22Z</time>
      </trkpt>
      <trkpt lat="45.63387" lon="4.58261">
        <ele>839.2</ele>
        <time>2019-06-16T08:53:25Z</time>
      </trkpt>
      <trkpt lat="45.63387" lon="4.58245">
        <ele>838.9</ele>
        <time>2019-06-16T08:53:29Z</time>
      </trkpt>
      <trkpt lat="45.63385" lon="4.58222">
        <ele>837.6</ele>
        <time>2019-06-16T08:53:36Z</time>
      </trkpt>
      <trkpt lat="45.63384" lon="4.5822">
        <ele>837.3</ele>
        <time>2019-06-16T08:54:26Z</time>
      </trkpt>
      <trkpt lat="45.63383" lon="4.58216">
        <ele>836.9</ele>
        <time>2019-06-16T08:54:27Z</time>
      </trkpt>
      <trkpt lat="45.6338" lon="4.58205">
        <ele>835.9</ele>
        <time>2019-06-16T08:54:30Z</time>
      </trkpt>
      <trkpt lat="45.63378" lon="4.58196">
        <ele>835.3</ele>
        <time>2019-06-16T08:54:33Z</time>
      </trkpt>
      <trkpt lat="45.63376" lon="4.58193">
        <ele>835.1</ele>
        <time>2019-06-16T08:54:34Z</time>
      </trkpt>
      <trkpt lat="45.63371" lon="4.58183">
        <ele>834.2</ele>
        <time>2019-06-16T08:54:37Z</time>
      </trkpt>
      <trkpt lat="45.63366" lon="4.58175">
        <ele>833.4</ele>
        <time>2019-06-16T08:54:39Z</time>
      </trkpt>
      <trkpt lat="45.63359" lon="4.58165">
        <ele>832.2</ele>
        <time>2019-06-16T08:54:41Z</time>
      </trkpt>
      <trkpt lat="45.63352" lon="4.58158">
        <ele>831.1</ele>
        <time>2019-06-16T08:54:43Z</time>
      </trkpt>
      <trkpt lat="45.63343" lon="4.58152">
        <ele>829.5</ele>
        <time>2019-06-16T08:54:45Z</time>
      </trkpt>
      <trkpt lat="45.63335" lon="4.58145">
        <ele>827.9</ele>
        <time>2019-06-16T08:54:47Z</time>
      </trkpt>
      <trkpt lat="45.63328" lon="4.58139">
        <ele>826.5</ele>
        <time>2019-06-16T08:54:49Z</time>
      </trkpt>
      <trkpt lat="45.63323" lon="4.5813">
        <ele>824.9</ele>
        <time>2019-06-16T08:54:51Z</time>
      </trkpt>
      <trkpt lat="45.63316" lon="4.5812">
        <ele>823.4</ele>
        <time>2019-06-16T08:54:53Z</time>
      </trkpt>
      <trkpt lat="45.6331" lon="4.58109">
        <ele>822</ele>
        <time>2019-06-16T08:54:55Z</time>
      </trkpt>
      <trkpt lat="45.63302" lon="4.58095">
        <ele>820.2</ele>
        <time>2019-06-16T08:54:57Z</time>
      </trkpt>
      <trkpt lat="45.63294" lon="4.5808">
        <ele>818</ele>
        <time>2019-06-16T08:54:59Z</time>
      </trkpt>
      <trkpt lat="45.63284" lon="4.58065">
        <ele>815.6</ele>
        <time>2019-06-16T08:55:01Z</time>
      </trkpt>
      <trkpt lat="45.63278" lon="4.58058">
        <ele>814.4</ele>
        <time>2019-06-16T08:55:02Z</time>
      </trkpt>
      <trkpt lat="45.63273" lon="4.58052">
        <ele>813.3</ele>
        <time>2019-06-16T08:55:03Z</time>
      </trkpt>
      <trkpt lat="45.63269" lon="4.58048">
        <ele>812.5</ele>
        <time>2019-06-16T08:55:04Z</time>
      </trkpt>
      <trkpt lat="45.63266" lon="4.58045">
        <ele>810.2</ele>
        <time>2019-06-16T08:55:05Z</time>
      </trkpt>
      <trkpt lat="45.63261" lon="4.58038">
        <ele>808.6</ele>
        <time>2019-06-16T08:55:07Z</time>
      </trkpt>
      <trkpt lat="45.63257" lon="4.58033">
        <ele>807.7</ele>
        <time>2019-06-16T08:55:08Z</time>
      </trkpt>
      <trkpt lat="45.63255" lon="4.58027">
        <ele>806.8</ele>
        <time>2019-06-16T08:55:09Z</time>
      </trkpt>
      <trkpt lat="45.63251" lon="4.58009">
        <ele>804.8</ele>
        <time>2019-06-16T08:55:11Z</time>
      </trkpt>
      <trkpt lat="45.63246" lon="4.57993">
        <ele>803</ele>
        <time>2019-06-16T08:55:13Z</time>
      </trkpt>
      <trkpt lat="45.63239" lon="4.57976">
        <ele>800.7</ele>
        <time>2019-06-16T08:55:15Z</time>
      </trkpt>
      <trkpt lat="45.63236" lon="4.57968">
        <ele>799.6</ele>
        <time>2019-06-16T08:55:16Z</time>
      </trkpt>
      <trkpt lat="45.63233" lon="4.57959">
        <ele>798.5</ele>
        <time>2019-06-16T08:55:17Z</time>
      </trkpt>
      <trkpt lat="45.63229" lon="4.57949">
        <ele>797.5</ele>
        <time>2019-06-16T08:55:18Z</time>
      </trkpt>
      <trkpt lat="45.63226" lon="4.57938">
        <ele>796.4</ele>
        <time>2019-06-16T08:55:19Z</time>
      </trkpt>
      <trkpt lat="45.63223" lon="4.57928">
        <ele>795.2</ele>
        <time>2019-06-16T08:55:20Z</time>
      </trkpt>
      <trkpt lat="45.63219" lon="4.57918">
        <ele>794.1</ele>
        <time>2019-06-16T08:55:21Z</time>
      </trkpt>
      <trkpt lat="45.63216" lon="4.57908">
        <ele>793</ele>
        <time>2019-06-16T08:55:22Z</time>
      </trkpt>
      <trkpt lat="45.63212" lon="4.57898">
        <ele>792</ele>
        <time>2019-06-16T08:55:23Z</time>
      </trkpt>
      <trkpt lat="45.63209" lon="4.57888">
        <ele>791.1</ele>
        <time>2019-06-16T08:55:24Z</time>
      </trkpt>
      <trkpt lat="45.63206" lon="4.57879">
        <ele>790.2</ele>
        <time>2019-06-16T08:55:25Z</time>
      </trkpt>
      <trkpt lat="45.63201" lon="4.57865">
        <ele>788.4</ele>
        <time>2019-06-16T08:55:27Z</time>
      </trkpt>
      <trkpt lat="45.63196" lon="4.57849">
        <ele>786.5</ele>
        <time>2019-06-16T08:55:29Z</time>
      </trkpt>
      <trkpt lat="45.63194" lon="4.57841">
        <ele>785.5</ele>
        <time>2019-06-16T08:55:30Z</time>
      </trkpt>
      <trkpt lat="45.63192" lon="4.57832">
        <ele>784.5</ele>
        <time>2019-06-16T08:55:31Z</time>
      </trkpt>
      <trkpt lat="45.63189" lon="4.57822">
        <ele>783.5</ele>
        <time>2019-06-16T08:55:32Z</time>
      </trkpt>
      <trkpt lat="45.63187" lon="4.57813">
        <ele>782.7</ele>
        <time>2019-06-16T08:55:33Z</time>
      </trkpt>
      <trkpt lat="45.63185" lon="4.57804">
        <ele>781.8</ele>
        <time>2019-06-16T08:55:34Z</time>
      </trkpt>
      <trkpt lat="45.63183" lon="4.57794">
        <ele>780.8</ele>
        <time>2019-06-16T08:55:35Z</time>
      </trkpt>
      <trkpt lat="45.63178" lon="4.57775">
        <ele>779</ele>
        <time>2019-06-16T08:55:37Z</time>
      </trkpt>
      <trkpt lat="45.63175" lon="4.57765">
        <ele>778.3</ele>
        <time>2019-06-16T08:55:38Z</time>
      </trkpt>
      <trkpt lat="45.63173" lon="4.57756">
        <ele>777.4</ele>
        <time>2019-06-16T08:55:39Z</time>
      </trkpt>
      <trkpt lat="45.63167" lon="4.57738">
        <ele>775.5</ele>
        <time>2019-06-16T08:55:41Z</time>
      </trkpt>
      <trkpt lat="45.63162" lon="4.57719">
        <ele>774.1</ele>
        <time>2019-06-16T08:55:43Z</time>
      </trkpt>
      <trkpt lat="45.63157" lon="4.57701">
        <ele>772.4</ele>
        <time>2019-06-16T08:55:45Z</time>
      </trkpt>
      <trkpt lat="45.63155" lon="4.57684">
        <ele>771.2</ele>
        <time>2019-06-16T08:55:47Z</time>
      </trkpt>
      <trkpt lat="45.63154" lon="4.57674">
        <ele>770.6</ele>
        <time>2019-06-16T08:55:48Z</time>
      </trkpt>
      <trkpt lat="45.63154" lon="4.57665">
        <ele>769.9</ele>
        <time>2019-06-16T08:55:49Z</time>
      </trkpt>
      <trkpt lat="45.63153" lon="4.57656">
        <ele>769</ele>
        <time>2019-06-16T08:55:50Z</time>
      </trkpt>
      <trkpt lat="45.63152" lon="4.57646">
        <ele>768.2</ele>
        <time>2019-06-16T08:55:51Z</time>
      </trkpt>
      <trkpt lat="45.63151" lon="4.57625">
        <ele>766.8</ele>
        <time>2019-06-16T08:55:53Z</time>
      </trkpt>
      <trkpt lat="45.63148" lon="4.57605">
        <ele>765.3</ele>
        <time>2019-06-16T08:55:55Z</time>
      </trkpt>
      <trkpt lat="45.63144" lon="4.57585">
        <ele>764.1</ele>
        <time>2019-06-16T08:55:57Z</time>
      </trkpt>
      <trkpt lat="45.63138" lon="4.5757">
        <ele>763.1</ele>
        <time>2019-06-16T08:55:59Z</time>
      </trkpt>
      <trkpt lat="45.63134" lon="4.57568">
        <ele>762.8</ele>
        <time>2019-06-16T08:56:00Z</time>
      </trkpt>
      <trkpt lat="45.63121" lon="4.57565">
        <ele>762.5</ele>
        <time>2019-06-16T08:56:03Z</time>
      </trkpt>
      <trkpt lat="45.63112" lon="4.57562">
        <ele>762.4</ele>
        <time>2019-06-16T08:56:05Z</time>
      </trkpt>
      <trkpt lat="45.63107" lon="4.5756">
        <ele>762.3</ele>
        <time>2019-06-16T08:56:06Z</time>
      </trkpt>
      <trkpt lat="45.63096" lon="4.57556">
        <ele>762.1</ele>
        <time>2019-06-16T08:56:09Z</time>
      </trkpt>
      <trkpt lat="45.63093" lon="4.57559">
        <ele>762</ele>
        <time>2019-06-16T08:57:00Z</time>
      </trkpt>
      <trkpt lat="45.63088" lon="4.57565">
        <ele>762</ele>
        <time>2019-06-16T08:57:03Z</time>
      </trkpt>
      <trkpt lat="45.63082" lon="4.5757">
        <ele>761.9</ele>
        <time>2019-06-16T08:57:05Z</time>
      </trkpt>
      <trkpt lat="45.63069" lon="4.57584">
        <ele>761.7</ele>
        <time>2019-06-16T08:57:09Z</time>
      </trkpt>
      <trkpt lat="45.63066" lon="4.57588">
        <ele>761.7</ele>
        <time>2019-06-16T08:57:10Z</time>
      </trkpt>
      <trkpt lat="45.6306" lon="4.57596">
        <ele>761.8</ele>
        <time>2019-06-16T08:57:12Z</time>
      </trkpt>
      <trkpt lat="45.63056" lon="4.57601">
        <ele>761.8</ele>
        <time>2019-06-16T08:57:13Z</time>
      </trkpt>
      <trkpt lat="45.63047" lon="4.57617">
        <ele>761.9</ele>
        <time>2019-06-16T08:57:16Z</time>
      </trkpt>
      <trkpt lat="45.63037" lon="4.57631">
        <ele>762.3</ele>
        <time>2019-06-16T08:57:19Z</time>
      </trkpt>
      <trkpt lat="45.63031" lon="4.57639">
        <ele>762.5</ele>
        <time>2019-06-16T08:57:21Z</time>
      </trkpt>
      <trkpt lat="45.63028" lon="4.57643">
        <ele>762.8</ele>
        <time>2019-06-16T08:57:22Z</time>
      </trkpt>
      <trkpt lat="45.63001" lon="4.57674">
        <ele>764.2</ele>
        <time>2019-06-16T08:57:31Z</time>
      </trkpt>
      <trkpt lat="45.62987" lon="4.57688">
        <ele>764.9</ele>
        <time>2019-06-16T08:57:36Z</time>
      </trkpt>
      <trkpt lat="45.62981" lon="4.57694">
        <ele>765</ele>
        <time>2019-06-16T08:57:38Z</time>
      </trkpt>
      <trkpt lat="45.62965" lon="4.57712">
        <ele>765.4</ele>
        <time>2019-06-16T08:57:44Z</time>
      </trkpt>
      <trkpt lat="45.6296" lon="4.57718">
        <ele>765.4</ele>
        <time>2019-06-16T08:57:46Z</time>
      </trkpt>
      <trkpt lat="45.62952" lon="4.57729">
        <ele>765.4</ele>
        <time>2019-06-16T08:57:49Z</time>
      </trkpt>
      <trkpt lat="45.62944" lon="4.5774">
        <ele>765.4</ele>
        <time>2019-06-16T08:57:52Z</time>
      </trkpt>
      <trkpt lat="45.62942" lon="4.57742">
        <ele>765.3</ele>
        <time>2019-06-16T08:57:53Z</time>
      </trkpt>
      <trkpt lat="45.62927" lon="4.57765">
        <ele>764.9</ele>
        <time>2019-06-16T08:57:58Z</time>
      </trkpt>
      <trkpt lat="45.62924" lon="4.57771">
        <ele>764.7</ele>
        <time>2019-06-16T08:57:59Z</time>
      </trkpt>
      <trkpt lat="45.62919" lon="4.57785">
        <ele>764.5</ele>
        <time>2019-06-16T08:58:01Z</time>
      </trkpt>
      <trkpt lat="45.62915" lon="4.57797">
        <ele>764</ele>
        <time>2019-06-16T08:58:03Z</time>
      </trkpt>
      <trkpt lat="45.62908" lon="4.57836">
        <ele>762.8</ele>
        <time>2019-06-16T08:58:08Z</time>
      </trkpt>
      <trkpt lat="45.62904" lon="4.57874">
        <ele>761.5</ele>
        <time>2019-06-16T08:58:12Z</time>
      </trkpt>
      <trkpt lat="45.629" lon="4.57912">
        <ele>760.1</ele>
        <time>2019-06-16T08:58:16Z</time>
      </trkpt>
      <trkpt lat="45.62897" lon="4.57952">
        <ele>758.7</ele>
        <time>2019-06-16T08:58:20Z</time>
      </trkpt>
      <trkpt lat="45.62898" lon="4.57973">
        <ele>757.8</ele>
        <time>2019-06-16T08:58:22Z</time>
      </trkpt>
      <trkpt lat="45.62899" lon="4.57995">
        <ele>757</ele>
        <time>2019-06-16T08:58:24Z</time>
      </trkpt>
      <trkpt lat="45.629" lon="4.58029">
        <ele>755.9</ele>
        <time>2019-06-16T08:58:27Z</time>
      </trkpt>
      <trkpt lat="45.62901" lon="4.58041">
        <ele>755.5</ele>
        <time>2019-06-16T08:58:28Z</time>
      </trkpt>
      <trkpt lat="45.62902" lon="4.58065">
        <ele>754.6</ele>
        <time>2019-06-16T08:58:30Z</time>
      </trkpt>
      <trkpt lat="45.62904" lon="4.58096">
        <ele>754</ele>
        <time>2019-06-16T08:58:33Z</time>
      </trkpt>
      <trkpt lat="45.62906" lon="4.58121">
        <ele>753.4</ele>
        <time>2019-06-16T08:58:36Z</time>
      </trkpt>
      <trkpt lat="45.62909" lon="4.58145">
        <ele>752.6</ele>
        <time>2019-06-16T08:58:39Z</time>
      </trkpt>
      <trkpt lat="45.6291" lon="4.58153">
        <ele>752.4</ele>
        <time>2019-06-16T08:58:40Z</time>
      </trkpt>
      <trkpt lat="45.62915" lon="4.5819">
        <ele>751.8</ele>
        <time>2019-06-16T08:58:45Z</time>
      </trkpt>
      <trkpt lat="45.62916" lon="4.58205">
        <ele>751.7</ele>
        <time>2019-06-16T08:58:47Z</time>
      </trkpt>
      <trkpt lat="45.62916" lon="4.58213">
        <ele>751.6</ele>
        <time>2019-06-16T08:58:48Z</time>
      </trkpt>
      <trkpt lat="45.62912" lon="4.58233">
        <ele>751.7</ele>
        <time>2019-06-16T08:58:51Z</time>
      </trkpt>
      <trkpt lat="45.62909" lon="4.58239">
        <ele>751.7</ele>
        <time>2019-06-16T08:58:52Z</time>
      </trkpt>
      <trkpt lat="45.62907" lon="4.58244">
        <ele>751.7</ele>
        <time>2019-06-16T08:58:53Z</time>
      </trkpt>
      <trkpt lat="45.62903" lon="4.58262">
        <ele>751.8</ele>
        <time>2019-06-16T08:58:57Z</time>
      </trkpt>
      <trkpt lat="45.629" lon="4.58268">
        <ele>751.9</ele>
        <time>2019-06-16T08:58:59Z</time>
      </trkpt>
      <trkpt lat="45.62893" lon="4.58274">
        <ele>751.2</ele>
        <time>2019-06-16T08:59:01Z</time>
      </trkpt>
      <trkpt lat="45.62886" lon="4.5828">
        <ele>750.4</ele>
        <time>2019-06-16T08:59:03Z</time>
      </trkpt>
      <trkpt lat="45.62872" lon="4.58285">
        <ele>749.5</ele>
        <time>2019-06-16T08:59:06Z</time>
      </trkpt>
      <trkpt lat="45.62854" lon="4.58282">
        <ele>748.6</ele>
        <time>2019-06-16T08:59:10Z</time>
      </trkpt>
      <trkpt lat="45.62851" lon="4.5828">
        <ele>748.6</ele>
        <time>2019-06-16T08:59:11Z</time>
      </trkpt>
      <trkpt lat="45.62848" lon="4.58278">
        <ele>748.7</ele>
        <time>2019-06-16T08:59:12Z</time>
      </trkpt>
      <trkpt lat="45.62837" lon="4.58271">
        <ele>749</ele>
        <time>2019-06-16T08:59:17Z</time>
      </trkpt>
      <trkpt lat="45.62834" lon="4.58269">
        <ele>749.1</ele>
        <time>2019-06-16T08:59:19Z</time>
      </trkpt>
      <trkpt lat="45.62827" lon="4.58264">
        <ele>749.5</ele>
        <time>2019-06-16T08:59:24Z</time>
      </trkpt>
      <trkpt lat="45.62822" lon="4.58262">
        <ele>749.8</ele>
        <time>2019-06-16T08:59:28Z</time>
      </trkpt>
      <trkpt lat="45.62817" lon="4.58262">
        <ele>750.1</ele>
        <time>2019-06-16T08:59:31Z</time>
      </trkpt>
      <trkpt lat="45.62813" lon="4.58263">
        <ele>750.4</ele>
        <time>2019-06-16T08:59:34Z</time>
      </trkpt>
      <trkpt lat="45.62809" lon="4.58264">
        <ele>750.7</ele>
        <time>2019-06-16T08:59:37Z</time>
      </trkpt>
      <trkpt lat="45.62808" lon="4.58265">
        <ele>750.8</ele>
        <time>2019-06-16T08:59:38Z</time>
      </trkpt>
      <trkpt lat="45.62805" lon="4.58265">
        <ele>751</ele>
        <time>2019-06-16T08:59:40Z</time>
      </trkpt>
      <trkpt lat="45.62804" lon="4.58265">
        <ele>751.1</ele>
        <time>2019-06-16T08:59:41Z</time>
      </trkpt>
      <trkpt lat="45.62803" lon="4.58265">
        <ele>751.2</ele>
        <time>2019-06-16T08:59:42Z</time>
      </trkpt>
      <trkpt lat="45.628" lon="4.58264">
        <ele>751.5</ele>
        <time>2019-06-16T08:59:44Z</time>
      </trkpt>
      <trkpt lat="45.62797" lon="4.58264">
        <ele>751.8</ele>
        <time>2019-06-16T08:59:46Z</time>
      </trkpt>
      <trkpt lat="45.62795" lon="4.58263">
        <ele>752</ele>
        <time>2019-06-16T08:59:48Z</time>
      </trkpt>
      <trkpt lat="45.62793" lon="4.58262">
        <ele>752.2</ele>
        <time>2019-06-16T08:59:49Z</time>
      </trkpt>
      <trkpt lat="45.62792" lon="4.58262">
        <ele>752.3</ele>
        <time>2019-06-16T08:59:50Z</time>
      </trkpt>
      <trkpt lat="45.62789" lon="4.58261">
        <ele>752.6</ele>
        <time>2019-06-16T08:59:52Z</time>
      </trkpt>
      <trkpt lat="45.62784" lon="4.5826">
        <ele>753</ele>
        <time>2019-06-16T08:59:55Z</time>
      </trkpt>
      <trkpt lat="45.62782" lon="4.5826">
        <ele>753.1</ele>
        <time>2019-06-16T08:59:56Z</time>
      </trkpt>
      <trkpt lat="45.62772" lon="4.58258">
        <ele>753.6</ele>
        <time>2019-06-16T09:00:02Z</time>
      </trkpt>
      <trkpt lat="45.62759" lon="4.58258">
        <ele>753.9</ele>
        <time>2019-06-16T09:00:10Z</time>
      </trkpt>
      <trkpt lat="45.62753" lon="4.58265">
        <ele>754.8</ele>
        <time>2019-06-16T09:00:16Z</time>
      </trkpt>
      <trkpt lat="45.62752" lon="4.58268">
        <ele>755.2</ele>
        <time>2019-06-16T09:00:18Z</time>
      </trkpt>
      <trkpt lat="45.62588" lon="4.58467">
        <ele>785.9</ele>
        <time>2019-06-16T09:03:32Z</time>
      </trkpt>
      <trkpt lat="45.62581" lon="4.58472">
        <ele>787</ele>
        <time>2019-06-16T09:03:36Z</time>
      </trkpt>
      <trkpt lat="45.62558" lon="4.58514">
        <ele>790.9</ele>
        <time>2019-06-16T09:05:00Z</time>
      </trkpt>
      <trkpt lat="45.62557" lon="4.58521">
        <ele>791.4</ele>
        <time>2019-06-16T09:05:04Z</time>
      </trkpt>
      <trkpt lat="45.62556" lon="4.58523">
        <ele>791.5</ele>
        <time>2019-06-16T09:05:05Z</time>
      </trkpt>
      <trkpt lat="45.6255" lon="4.58539">
        <ele>792.2</ele>
        <time>2019-06-16T09:05:14Z</time>
      </trkpt>
      <trkpt lat="45.62549" lon="4.58541">
        <ele>792.3</ele>
        <time>2019-06-16T09:05:15Z</time>
      </trkpt>
      <trkpt lat="45.6254" lon="4.58558">
        <ele>793.1</ele>
        <time>2019-06-16T09:05:22Z</time>
      </trkpt>
      <trkpt lat="45.62534" lon="4.58575">
        <ele>793.6</ele>
        <time>2019-06-16T09:05:28Z</time>
      </trkpt>
      <trkpt lat="45.6253" lon="4.58585">
        <ele>793.9</ele>
        <time>2019-06-16T09:05:31Z</time>
      </trkpt>
      <trkpt lat="45.62528" lon="4.58592">
        <ele>794.2</ele>
        <time>2019-06-16T09:05:33Z</time>
      </trkpt>
      <trkpt lat="45.62527" lon="4.58596">
        <ele>794.3</ele>
        <time>2019-06-16T09:05:34Z</time>
      </trkpt>
      <trkpt lat="45.62522" lon="4.58613">
        <ele>794.9</ele>
        <time>2019-06-16T09:05:39Z</time>
      </trkpt>
      <trkpt lat="45.62521" lon="4.58619">
        <ele>795.1</ele>
        <time>2019-06-16T09:05:41Z</time>
      </trkpt>
      <trkpt lat="45.62517" lon="4.58628">
        <ele>795.3</ele>
        <time>2019-06-16T09:05:44Z</time>
      </trkpt>
      <trkpt lat="45.62507" lon="4.5865">
        <ele>796.7</ele>
        <time>2019-06-16T09:05:52Z</time>
      </trkpt>
      <trkpt lat="45.6233" lon="4.58824">
        <ele>826.5</ele>
        <time>2019-06-16T09:08:50Z</time>
      </trkpt>
      <trkpt lat="45.62328" lon="4.58824">
        <ele>827</ele>
        <time>2019-06-16T09:08:51Z</time>
      </trkpt>
      <trkpt lat="45.62262" lon="4.58806">
        <ele>840.4</ele>
        <time>2019-06-16T09:10:52Z</time>
      </trkpt>
      <trkpt lat="45.62261" lon="4.58806">
        <ele>840.5</ele>
        <time>2019-06-16T09:10:53Z</time>
      </trkpt>
      <trkpt lat="45.62256" lon="4.58804">
        <ele>840.9</ele>
        <time>2019-06-16T09:10:57Z</time>
      </trkpt>
      <trkpt lat="45.62253" lon="4.58802">
        <ele>841</ele>
        <time>2019-06-16T09:10:59Z</time>
      </trkpt>
      <trkpt lat="45.62244" lon="4.58793">
        <ele>841.6</ele>
        <time>2019-06-16T09:11:06Z</time>
      </trkpt>
      <trkpt lat="45.62238" lon="4.58792">
        <ele>841.8</ele>
        <time>2019-06-16T09:11:09Z</time>
      </trkpt>
      <trkpt lat="45.62232" lon="4.58791">
        <ele>842</ele>
        <time>2019-06-16T09:11:12Z</time>
      </trkpt>
      <trkpt lat="45.62214" lon="4.58788">
        <ele>842.4</ele>
        <time>2019-06-16T09:11:20Z</time>
      </trkpt>
      <trkpt lat="45.62206" lon="4.58791">
        <ele>842</ele>
        <time>2019-06-16T09:11:24Z</time>
      </trkpt>
      <trkpt lat="45.62204" lon="4.58794">
        <ele>841.7</ele>
        <time>2019-06-16T09:11:25Z</time>
      </trkpt>
      <trkpt lat="45.622" lon="4.58804">
        <ele>840.8</ele>
        <time>2019-06-16T09:11:28Z</time>
      </trkpt>
      <trkpt lat="45.62195" lon="4.58814">
        <ele>840.2</ele>
        <time>2019-06-16T09:11:31Z</time>
      </trkpt>
      <trkpt lat="45.62181" lon="4.58842">
        <ele>839.8</ele>
        <time>2019-06-16T09:11:39Z</time>
      </trkpt>
      <trkpt lat="45.62167" lon="4.58863">
        <ele>840.3</ele>
        <time>2019-06-16T09:11:46Z</time>
      </trkpt>
      <trkpt lat="45.6216" lon="4.58872">
        <ele>840.5</ele>
        <time>2019-06-16T09:11:49Z</time>
      </trkpt>
      <trkpt lat="45.62148" lon="4.58887">
        <ele>841.2</ele>
        <time>2019-06-16T09:11:54Z</time>
      </trkpt>
      <trkpt lat="45.62146" lon="4.5889">
        <ele>841.3</ele>
        <time>2019-06-16T09:11:55Z</time>
      </trkpt>
      <trkpt lat="45.6214" lon="4.58897">
        <ele>841.8</ele>
        <time>2019-06-16T09:11:58Z</time>
      </trkpt>
      <trkpt lat="45.62133" lon="4.58907">
        <ele>842.8</ele>
        <time>2019-06-16T09:12:02Z</time>
      </trkpt>
      <trkpt lat="45.62131" lon="4.58909">
        <ele>843.2</ele>
        <time>2019-06-16T09:12:03Z</time>
      </trkpt>
      <trkpt lat="45.62126" lon="4.58917">
        <ele>844.5</ele>
        <time>2019-06-16T09:12:07Z</time>
      </trkpt>
      <trkpt lat="45.62123" lon="4.58921">
        <ele>845.3</ele>
        <time>2019-06-16T09:12:09Z</time>
      </trkpt>
      <trkpt lat="45.62118" lon="4.58926">
        <ele>846.4</ele>
        <time>2019-06-16T09:12:12Z</time>
      </trkpt>
      <trkpt lat="45.62112" lon="4.58936">
        <ele>847.8</ele>
        <time>2019-06-16T09:12:16Z</time>
      </trkpt>
      <trkpt lat="45.6211" lon="4.58938">
        <ele>848.1</ele>
        <time>2019-06-16T09:12:17Z</time>
      </trkpt>
      <trkpt lat="45.62103" lon="4.58949">
        <ele>849.2</ele>
        <time>2019-06-16T09:12:22Z</time>
      </trkpt>
      <trkpt lat="45.62101" lon="4.58953">
        <ele>849.6</ele>
        <time>2019-06-16T09:12:24Z</time>
      </trkpt>
      <trkpt lat="45.621" lon="4.58955">
        <ele>849.7</ele>
        <time>2019-06-16T09:12:25Z</time>
      </trkpt>
      <trkpt lat="45.62097" lon="4.58961">
        <ele>850.2</ele>
        <time>2019-06-16T09:12:28Z</time>
      </trkpt>
      <trkpt lat="45.62094" lon="4.58966">
        <ele>850.6</ele>
        <time>2019-06-16T09:12:31Z</time>
      </trkpt>
      <trkpt lat="45.62094" lon="4.58968">
        <ele>850.7</ele>
        <time>2019-06-16T09:12:32Z</time>
      </trkpt>
      <trkpt lat="45.62091" lon="4.58974">
        <ele>851</ele>
        <time>2019-06-16T09:12:35Z</time>
      </trkpt>
      <trkpt lat="45.62087" lon="4.58979">
        <ele>851.4</ele>
        <time>2019-06-16T09:12:38Z</time>
      </trkpt>
      <trkpt lat="45.62085" lon="4.58983">
        <ele>851.6</ele>
        <time>2019-06-16T09:12:40Z</time>
      </trkpt>
      <trkpt lat="45.62077" lon="4.58996">
        <ele>852.3</ele>
        <time>2019-06-16T09:12:46Z</time>
      </trkpt>
      <trkpt lat="45.62073" lon="4.59003">
        <ele>852.6</ele>
        <time>2019-06-16T09:12:49Z</time>
      </trkpt>
      <trkpt lat="45.62065" lon="4.5902">
        <ele>853.4</ele>
        <time>2019-06-16T09:12:56Z</time>
      </trkpt>
      <trkpt lat="45.62054" lon="4.59043">
        <ele>854.5</ele>
        <time>2019-06-16T09:13:04Z</time>
      </trkpt>
      <trkpt lat="45.62047" lon="4.59066">
        <ele>855.6</ele>
        <time>2019-06-16T09:13:12Z</time>
      </trkpt>
      <trkpt lat="45.6204" lon="4.59086">
        <ele>856.6</ele>
        <time>2019-06-16T09:13:19Z</time>
      </trkpt>
      <trkpt lat="45.62034" lon="4.59107">
        <ele>857.6</ele>
        <time>2019-06-16T09:13:25Z</time>
      </trkpt>
      <trkpt lat="45.62024" lon="4.59135">
        <ele>858.2</ele>
        <time>2019-06-16T09:13:33Z</time>
      </trkpt>
      <trkpt lat="45.62021" lon="4.59147">
        <ele>858.3</ele>
        <time>2019-06-16T09:13:36Z</time>
      </trkpt>
      <trkpt lat="45.62015" lon="4.59164">
        <ele>858.6</ele>
        <time>2019-06-16T09:13:40Z</time>
      </trkpt>
      <trkpt lat="45.62007" lon="4.59187">
        <ele>859.2</ele>
        <time>2019-06-16T09:13:46Z</time>
      </trkpt>
      <trkpt lat="45.61998" lon="4.59209">
        <ele>859.9</ele>
        <time>2019-06-16T09:13:52Z</time>
      </trkpt>
      <trkpt lat="45.61997" lon="4.59213">
        <ele>860</ele>
        <time>2019-06-16T09:13:53Z</time>
      </trkpt>
      <trkpt lat="45.6199" lon="4.59227">
        <ele>860.5</ele>
        <time>2019-06-16T09:13:57Z</time>
      </trkpt>
      <trkpt lat="45.61985" lon="4.59234">
        <ele>860.7</ele>
        <time>2019-06-16T09:13:59Z</time>
      </trkpt>
      <trkpt lat="45.61977" lon="4.59243">
        <ele>860.9</ele>
        <time>2019-06-16T09:14:02Z</time>
      </trkpt>
      <trkpt lat="45.61967" lon="4.59254">
        <ele>861.1</ele>
        <time>2019-06-16T09:14:06Z</time>
      </trkpt>
      <trkpt lat="45.61952" lon="4.59268">
        <ele>861.6</ele>
        <time>2019-06-16T09:14:12Z</time>
      </trkpt>
      <trkpt lat="45.61937" lon="4.59287">
        <ele>861.8</ele>
        <time>2019-06-16T09:14:18Z</time>
      </trkpt>
      <trkpt lat="45.61916" lon="4.59314">
        <ele>861.9</ele>
        <time>2019-06-16T09:14:25Z</time>
      </trkpt>
      <trkpt lat="45.61895" lon="4.59346">
        <ele>862.1</ele>
        <time>2019-06-16T09:14:32Z</time>
      </trkpt>
      <trkpt lat="45.61889" lon="4.59353">
        <ele>861.8</ele>
        <time>2019-06-16T09:14:34Z</time>
      </trkpt>
      <trkpt lat="45.61881" lon="4.59356">
        <ele>861.6</ele>
        <time>2019-06-16T09:14:36Z</time>
      </trkpt>
      <trkpt lat="45.6187" lon="4.59358">
        <ele>861.3</ele>
        <time>2019-06-16T09:14:38Z</time>
      </trkpt>
      <trkpt lat="45.61858" lon="4.59359">
        <ele>861</ele>
        <time>2019-06-16T09:14:40Z</time>
      </trkpt>
      <trkpt lat="45.61845" lon="4.5936">
        <ele>860.6</ele>
        <time>2019-06-16T09:14:42Z</time>
      </trkpt>
      <trkpt lat="45.6182" lon="4.59363">
        <ele>860.1</ele>
        <time>2019-06-16T09:14:46Z</time>
      </trkpt>
      <trkpt lat="45.61814" lon="4.59363">
        <ele>860</ele>
        <time>2019-06-16T09:14:47Z</time>
      </trkpt>
      <trkpt lat="45.61772" lon="4.59359">
        <ele>860</ele>
        <time>2019-06-16T09:14:54Z</time>
      </trkpt>
      <trkpt lat="45.61726" lon="4.5935">
        <ele>860.5</ele>
        <time>2019-06-16T09:15:02Z</time>
      </trkpt>
      <trkpt lat="45.6169" lon="4.59342">
        <ele>860.7</ele>
        <time>2019-06-16T09:15:09Z</time>
      </trkpt>
      <trkpt lat="45.6168" lon="4.5934">
        <ele>860.7</ele>
        <time>2019-06-16T09:15:11Z</time>
      </trkpt>
      <trkpt lat="45.61654" lon="4.59337">
        <ele>860.8</ele>
        <time>2019-06-16T09:15:16Z</time>
      </trkpt>
      <trkpt lat="45.61633" lon="4.59336">
        <ele>861</ele>
        <time>2019-06-16T09:15:20Z</time>
      </trkpt>
      <trkpt lat="45.61624" lon="4.59334">
        <ele>861</ele>
        <time>2019-06-16T09:15:22Z</time>
      </trkpt>
      <trkpt lat="45.61599" lon="4.59332">
        <ele>860.6</ele>
        <time>2019-06-16T09:15:28Z</time>
      </trkpt>
      <trkpt lat="45.61578" lon="4.59328">
        <ele>859.7</ele>
        <time>2019-06-16T09:15:33Z</time>
      </trkpt>
      <trkpt lat="45.61567" lon="4.59327">
        <ele>859.1</ele>
        <time>2019-06-16T09:15:35Z</time>
      </trkpt>
      <trkpt lat="45.61545" lon="4.5932">
        <ele>857.5</ele>
        <time>2019-06-16T09:15:39Z</time>
      </trkpt>
      <trkpt lat="45.61533" lon="4.59317">
        <ele>856.5</ele>
        <time>2019-06-16T09:15:41Z</time>
      </trkpt>
      <trkpt lat="45.61526" lon="4.59316">
        <ele>856</ele>
        <time>2019-06-16T09:15:42Z</time>
      </trkpt>
      <trkpt lat="45.61507" lon="4.59314">
        <ele>854.2</ele>
        <time>2019-06-16T09:15:45Z</time>
      </trkpt>
      <trkpt lat="45.61501" lon="4.59314">
        <ele>853.6</ele>
        <time>2019-06-16T09:15:46Z</time>
      </trkpt>
      <trkpt lat="45.61494" lon="4.59313">
        <ele>853</ele>
        <time>2019-06-16T09:15:47Z</time>
      </trkpt>
      <trkpt lat="45.6148" lon="4.59312">
        <ele>851.4</ele>
        <time>2019-06-16T09:15:49Z</time>
      </trkpt>
      <trkpt lat="45.61465" lon="4.59311">
        <ele>849.8</ele>
        <time>2019-06-16T09:15:51Z</time>
      </trkpt>
      <trkpt lat="45.61449" lon="4.5931">
        <ele>848.2</ele>
        <time>2019-06-16T09:15:53Z</time>
      </trkpt>
      <trkpt lat="45.61433" lon="4.59307">
        <ele>847</ele>
        <time>2019-06-16T09:15:55Z</time>
      </trkpt>
      <trkpt lat="45.61417" lon="4.59304">
        <ele>845.5</ele>
        <time>2019-06-16T09:15:57Z</time>
      </trkpt>
      <trkpt lat="45.6141" lon="4.59302">
        <ele>844.9</ele>
        <time>2019-06-16T09:15:58Z</time>
      </trkpt>
      <trkpt lat="45.61403" lon="4.59301">
        <ele>844.3</ele>
        <time>2019-06-16T09:15:59Z</time>
      </trkpt>
      <trkpt lat="45.61391" lon="4.59298">
        <ele>842.9</ele>
        <time>2019-06-16T09:16:01Z</time>
      </trkpt>
      <trkpt lat="45.61377" lon="4.59291">
        <ele>841.7</ele>
        <time>2019-06-16T09:16:03Z</time>
      </trkpt>
      <trkpt lat="45.61362" lon="4.59283">
        <ele>840.7</ele>
        <time>2019-06-16T09:16:05Z</time>
      </trkpt>
      <trkpt lat="45.61348" lon="4.59279">
        <ele>839.4</ele>
        <time>2019-06-16T09:16:07Z</time>
      </trkpt>
      <trkpt lat="45.61329" lon="4.59274">
        <ele>837.4</ele>
        <time>2019-06-16T09:16:10Z</time>
      </trkpt>
      <trkpt lat="45.61311" lon="4.59266">
        <ele>835</ele>
        <time>2019-06-16T09:16:13Z</time>
      </trkpt>
      <trkpt lat="45.61299" lon="4.59261">
        <ele>833.3</ele>
        <time>2019-06-16T09:16:15Z</time>
      </trkpt>
      <trkpt lat="45.61294" lon="4.59259">
        <ele>832.5</ele>
        <time>2019-06-16T09:16:16Z</time>
      </trkpt>
      <trkpt lat="45.61288" lon="4.59257">
        <ele>831.6</ele>
        <time>2019-06-16T09:16:17Z</time>
      </trkpt>
      <trkpt lat="45.61277" lon="4.59252">
        <ele>829.9</ele>
        <time>2019-06-16T09:16:19Z</time>
      </trkpt>
      <trkpt lat="45.61266" lon="4.59248">
        <ele>827.9</ele>
        <time>2019-06-16T09:16:21Z</time>
      </trkpt>
      <trkpt lat="45.61256" lon="4.59247">
        <ele>826.3</ele>
        <time>2019-06-16T09:16:23Z</time>
      </trkpt>
      <trkpt lat="45.61248" lon="4.59248">
        <ele>824.8</ele>
        <time>2019-06-16T09:16:25Z</time>
      </trkpt>
      <trkpt lat="45.6124" lon="4.59249">
        <ele>823.3</ele>
        <time>2019-06-16T09:16:27Z</time>
      </trkpt>
      <trkpt lat="45.61235" lon="4.59248">
        <ele>822.6</ele>
        <time>2019-06-16T09:16:28Z</time>
      </trkpt>
      <trkpt lat="45.61231" lon="4.59247">
        <ele>822</ele>
        <time>2019-06-16T09:16:29Z</time>
      </trkpt>
      <trkpt lat="45.61227" lon="4.59244">
        <ele>821.5</ele>
        <time>2019-06-16T09:16:30Z</time>
      </trkpt>
      <trkpt lat="45.61224" lon="4.59241">
        <ele>820.8</ele>
        <time>2019-06-16T09:16:31Z</time>
      </trkpt>
      <trkpt lat="45.61218" lon="4.59234">
        <ele>819.3</ele>
        <time>2019-06-16T09:16:33Z</time>
      </trkpt>
      <trkpt lat="45.61215" lon="4.5923">
        <ele>818.6</ele>
        <time>2019-06-16T09:16:34Z</time>
      </trkpt>
      <trkpt lat="45.61208" lon="4.5922">
        <ele>817.1</ele>
        <time>2019-06-16T09:16:36Z</time>
      </trkpt>
      <trkpt lat="45.612" lon="4.59211">
        <ele>815.9</ele>
        <time>2019-06-16T09:16:38Z</time>
      </trkpt>
      <trkpt lat="45.61193" lon="4.59201">
        <ele>814.5</ele>
        <time>2019-06-16T09:16:40Z</time>
      </trkpt>
      <trkpt lat="45.61186" lon="4.59191">
        <ele>813.2</ele>
        <time>2019-06-16T09:16:42Z</time>
      </trkpt>
      <trkpt lat="45.6118" lon="4.59184">
        <ele>812</ele>
        <time>2019-06-16T09:16:44Z</time>
      </trkpt>
      <trkpt lat="45.61175" lon="4.59177">
        <ele>810.9</ele>
        <time>2019-06-16T09:16:46Z</time>
      </trkpt>
      <trkpt lat="45.61171" lon="4.59172">
        <ele>810.2</ele>
        <time>2019-06-16T09:16:47Z</time>
      </trkpt>
      <trkpt lat="45.61167" lon="4.59167">
        <ele>809.5</ele>
        <time>2019-06-16T09:16:48Z</time>
      </trkpt>
      <trkpt lat="45.6116" lon="4.59158">
        <ele>808.2</ele>
        <time>2019-06-16T09:16:50Z</time>
      </trkpt>
      <trkpt lat="45.61153" lon="4.5915">
        <ele>806.9</ele>
        <time>2019-06-16T09:16:52Z</time>
      </trkpt>
      <trkpt lat="45.61146" lon="4.59143">
        <ele>805.6</ele>
        <time>2019-06-16T09:16:54Z</time>
      </trkpt>
      <trkpt lat="45.61138" lon="4.59135">
        <ele>804.4</ele>
        <time>2019-06-16T09:16:56Z</time>
      </trkpt>
      <trkpt lat="45.6113" lon="4.59127">
        <ele>803.2</ele>
        <time>2019-06-16T09:16:58Z</time>
      </trkpt>
      <trkpt lat="45.61126" lon="4.59123">
        <ele>802.6</ele>
        <time>2019-06-16T09:16:59Z</time>
      </trkpt>
      <trkpt lat="45.61122" lon="4.59121">
        <ele>802.1</ele>
        <time>2019-06-16T09:17:00Z</time>
      </trkpt>
      <trkpt lat="45.61114" lon="4.59117">
        <ele>801.1</ele>
        <time>2019-06-16T09:17:02Z</time>
      </trkpt>
      <trkpt lat="45.6111" lon="4.59116">
        <ele>800.5</ele>
        <time>2019-06-16T09:17:03Z</time>
      </trkpt>
      <trkpt lat="45.61106" lon="4.59115">
        <ele>799.9</ele>
        <time>2019-06-16T09:17:04Z</time>
      </trkpt>
      <trkpt lat="45.61101" lon="4.59113">
        <ele>799.1</ele>
        <time>2019-06-16T09:17:05Z</time>
      </trkpt>
      <trkpt lat="45.61096" lon="4.59111">
        <ele>798.3</ele>
        <time>2019-06-16T09:17:06Z</time>
      </trkpt>
      <trkpt lat="45.61091" lon="4.59107">
        <ele>797.5</ele>
        <time>2019-06-16T09:17:07Z</time>
      </trkpt>
      <trkpt lat="45.61085" lon="4.59103">
        <ele>796.5</ele>
        <time>2019-06-16T09:17:08Z</time>
      </trkpt>
      <trkpt lat="45.61081" lon="4.59099">
        <ele>795.7</ele>
        <time>2019-06-16T09:17:09Z</time>
      </trkpt>
      <trkpt lat="45.61077" lon="4.59094">
        <ele>794.9</ele>
        <time>2019-06-16T09:17:10Z</time>
      </trkpt>
      <trkpt lat="45.6107" lon="4.59085">
        <ele>793.7</ele>
        <time>2019-06-16T09:17:12Z</time>
      </trkpt>
      <trkpt lat="45.61067" lon="4.59081">
        <ele>793.2</ele>
        <time>2019-06-16T09:17:13Z</time>
      </trkpt>
      <trkpt lat="45.61064" lon="4.59077">
        <ele>792.6</ele>
        <time>2019-06-16T09:17:14Z</time>
      </trkpt>
      <trkpt lat="45.61055" lon="4.59068">
        <ele>791.2</ele>
        <time>2019-06-16T09:17:16Z</time>
      </trkpt>
      <trkpt lat="45.61049" lon="4.59063">
        <ele>790.3</ele>
        <time>2019-06-16T09:17:17Z</time>
      </trkpt>
      <trkpt lat="45.61042" lon="4.5906">
        <ele>789.4</ele>
        <time>2019-06-16T09:17:18Z</time>
      </trkpt>
      <trkpt lat="45.61026" lon="4.59052">
        <ele>787.6</ele>
        <time>2019-06-16T09:17:20Z</time>
      </trkpt>
      <trkpt lat="45.61018" lon="4.5905">
        <ele>786.7</ele>
        <time>2019-06-16T09:17:21Z</time>
      </trkpt>
      <trkpt lat="45.6101" lon="4.59049">
        <ele>786</ele>
        <time>2019-06-16T09:17:22Z</time>
      </trkpt>
      <trkpt lat="45.61002" lon="4.59049">
        <ele>785.3</ele>
        <time>2019-06-16T09:17:23Z</time>
      </trkpt>
      <trkpt lat="45.60995" lon="4.59048">
        <ele>784.6</ele>
        <time>2019-06-16T09:17:24Z</time>
      </trkpt>
      <trkpt lat="45.60981" lon="4.59047">
        <ele>783.5</ele>
        <time>2019-06-16T09:17:26Z</time>
      </trkpt>
      <trkpt lat="45.60967" lon="4.59044">
        <ele>782.2</ele>
        <time>2019-06-16T09:17:28Z</time>
      </trkpt>
      <trkpt lat="45.60952" lon="4.59041">
        <ele>780.7</ele>
        <time>2019-06-16T09:17:30Z</time>
      </trkpt>
      <trkpt lat="45.60938" lon="4.59037">
        <ele>779.2</ele>
        <time>2019-06-16T09:17:32Z</time>
      </trkpt>
      <trkpt lat="45.60923" lon="4.59033">
        <ele>777.7</ele>
        <time>2019-06-16T09:17:34Z</time>
      </trkpt>
      <trkpt lat="45.60909" lon="4.59028">
        <ele>776.4</ele>
        <time>2019-06-16T09:17:36Z</time>
      </trkpt>
      <trkpt lat="45.60895" lon="4.59024">
        <ele>775.2</ele>
        <time>2019-06-16T09:17:38Z</time>
      </trkpt>
      <trkpt lat="45.60888" lon="4.59024">
        <ele>774.6</ele>
        <time>2019-06-16T09:17:39Z</time>
      </trkpt>
      <trkpt lat="45.60882" lon="4.59024">
        <ele>773.9</ele>
        <time>2019-06-16T09:17:40Z</time>
      </trkpt>
      <trkpt lat="45.60871" lon="4.59026">
        <ele>772.5</ele>
        <time>2019-06-16T09:17:42Z</time>
      </trkpt>
      <trkpt lat="45.60867" lon="4.59027">
        <ele>771.9</ele>
        <time>2019-06-16T09:17:43Z</time>
      </trkpt>
      <trkpt lat="45.60863" lon="4.5903">
        <ele>771.4</ele>
        <time>2019-06-16T09:17:44Z</time>
      </trkpt>
      <trkpt lat="45.60856" lon="4.59033">
        <ele>770.5</ele>
        <time>2019-06-16T09:17:46Z</time>
      </trkpt>
      <trkpt lat="45.60853" lon="4.59032">
        <ele>770.1</ele>
        <time>2019-06-16T09:17:47Z</time>
      </trkpt>
      <trkpt lat="45.6085" lon="4.5903">
        <ele>770.1</ele>
        <time>2019-06-16T09:17:48Z</time>
      </trkpt>
      <trkpt lat="45.60846" lon="4.59025">
        <ele>770</ele>
        <time>2019-06-16T09:17:49Z</time>
      </trkpt>
      <trkpt lat="45.60843" lon="4.59019">
        <ele>769.8</ele>
        <time>2019-06-16T09:17:50Z</time>
      </trkpt>
      <trkpt lat="45.60834" lon="4.59007">
        <ele>769.5</ele>
        <time>2019-06-16T09:17:52Z</time>
      </trkpt>
      <trkpt lat="45.60823" lon="4.58997">
        <ele>769</ele>
        <time>2019-06-16T09:17:54Z</time>
      </trkpt>
      <trkpt lat="45.60816" lon="4.58994">
        <ele>768.6</ele>
        <time>2019-06-16T09:17:55Z</time>
      </trkpt>
      <trkpt lat="45.60793" lon="4.58989">
        <ele>767.2</ele>
        <time>2019-06-16T09:17:58Z</time>
      </trkpt>
      <trkpt lat="45.60774" lon="4.58979">
        <ele>765.8</ele>
        <time>2019-06-16T09:18:01Z</time>
      </trkpt>
      <trkpt lat="45.60768" lon="4.58975">
        <ele>765.9</ele>
        <time>2019-06-16T09:18:02Z</time>
      </trkpt>
      <trkpt lat="45.60764" lon="4.58972">
        <ele>766.1</ele>
        <time>2019-06-16T09:18:03Z</time>
      </trkpt>
      <trkpt lat="45.6076" lon="4.58969">
        <ele>766.4</ele>
        <time>2019-06-16T09:18:04Z</time>
      </trkpt>
      <trkpt lat="45.60757" lon="4.58966">
        <ele>766.7</ele>
        <time>2019-06-16T09:18:05Z</time>
      </trkpt>
      <trkpt lat="45.60748" lon="4.58957">
        <ele>767.6</ele>
        <time>2019-06-16T09:18:08Z</time>
      </trkpt>
      <trkpt lat="45.6074" lon="4.58948">
        <ele>768.4</ele>
        <time>2019-06-16T09:18:11Z</time>
      </trkpt>
      <trkpt lat="45.60735" lon="4.58943">
        <ele>768.9</ele>
        <time>2019-06-16T09:18:13Z</time>
      </trkpt>
      <trkpt lat="45.60731" lon="4.58938">
        <ele>769.4</ele>
        <time>2019-06-16T09:18:15Z</time>
      </trkpt>
      <trkpt lat="45.60723" lon="4.58929">
        <ele>770.4</ele>
        <time>2019-06-16T09:18:19Z</time>
      </trkpt>
      <trkpt lat="45.60716" lon="4.58922">
        <ele>771.1</ele>
        <time>2019-06-16T09:18:22Z</time>
      </trkpt>
      <trkpt lat="45.60714" lon="4.5892">
        <ele>771.4</ele>
        <time>2019-06-16T09:18:23Z</time>
      </trkpt>
      <trkpt lat="45.60703" lon="4.58908">
        <ele>772.6</ele>
        <time>2019-06-16T09:18:28Z</time>
      </trkpt>
      <trkpt lat="45.60697" lon="4.58897">
        <ele>773.8</ele>
        <time>2019-06-16T09:18:32Z</time>
      </trkpt>
      <trkpt lat="45.60689" lon="4.58882">
        <ele>775.1</ele>
        <time>2019-06-16T09:18:37Z</time>
      </trkpt>
      <trkpt lat="45.60684" lon="4.58871">
        <ele>775.9</ele>
        <time>2019-06-16T09:18:41Z</time>
      </trkpt>
      <trkpt lat="45.60683" lon="4.58868">
        <ele>776.1</ele>
        <time>2019-06-16T09:18:42Z</time>
      </trkpt>
      <trkpt lat="45.60679" lon="4.58856">
        <ele>776.9</ele>
        <time>2019-06-16T09:18:46Z</time>
      </trkpt>
      <trkpt lat="45.60677" lon="4.58851">
        <ele>777.3</ele>
        <time>2019-06-16T09:18:48Z</time>
      </trkpt>
      <trkpt lat="45.60674" lon="4.58844">
        <ele>777.8</ele>
        <time>2019-06-16T09:18:51Z</time>
      </trkpt>
      <trkpt lat="45.6067" lon="4.58834">
        <ele>778.5</ele>
        <time>2019-06-16T09:18:55Z</time>
      </trkpt>
      <trkpt lat="45.60669" lon="4.58831">
        <ele>778.6</ele>
        <time>2019-06-16T09:18:56Z</time>
      </trkpt>
      <trkpt lat="45.60664" lon="4.58819">
        <ele>779.5</ele>
        <time>2019-06-16T09:19:01Z</time>
      </trkpt>
      <trkpt lat="45.6066" lon="4.58809">
        <ele>780.3</ele>
        <time>2019-06-16T09:19:05Z</time>
      </trkpt>
      <trkpt lat="45.60659" lon="4.58807">
        <ele>780.5</ele>
        <time>2019-06-16T09:19:06Z</time>
      </trkpt>
      <trkpt lat="45.60655" lon="4.58794">
        <ele>781.3</ele>
        <time>2019-06-16T09:19:11Z</time>
      </trkpt>
      <trkpt lat="45.6065" lon="4.58784">
        <ele>781.8</ele>
        <time>2019-06-16T09:19:15Z</time>
      </trkpt>
      <trkpt lat="45.60641" lon="4.58771">
        <ele>781.8</ele>
        <time>2019-06-16T09:19:21Z</time>
      </trkpt>
      <trkpt lat="45.60636" lon="4.58766">
        <ele>781.6</ele>
        <time>2019-06-16T09:19:23Z</time>
      </trkpt>
      <trkpt lat="45.60618" lon="4.5875">
        <ele>780.9</ele>
        <time>2019-06-16T09:19:31Z</time>
      </trkpt>
      <trkpt lat="45.60608" lon="4.58741">
        <ele>780.6</ele>
        <time>2019-06-16T09:19:34Z</time>
      </trkpt>
      <trkpt lat="45.606" lon="4.58733">
        <ele>780.3</ele>
        <time>2019-06-16T09:19:36Z</time>
      </trkpt>
      <trkpt lat="45.60587" lon="4.5872">
        <ele>779.8</ele>
        <time>2019-06-16T09:19:39Z</time>
      </trkpt>
      <trkpt lat="45.60579" lon="4.58713">
        <ele>779.4</ele>
        <time>2019-06-16T09:19:41Z</time>
      </trkpt>
      <trkpt lat="45.60575" lon="4.58709">
        <ele>779.2</ele>
        <time>2019-06-16T09:19:42Z</time>
      </trkpt>
      <trkpt lat="45.60546" lon="4.58683">
        <ele>778.1</ele>
        <time>2019-06-16T09:19:49Z</time>
      </trkpt>
      <trkpt lat="45.60538" lon="4.58673">
        <ele>777.8</ele>
        <time>2019-06-16T09:19:51Z</time>
      </trkpt>
      <trkpt lat="45.60531" lon="4.58659">
        <ele>777.4</ele>
        <time>2019-06-16T09:19:53Z</time>
      </trkpt>
      <trkpt lat="45.60518" lon="4.58627">
        <ele>776.6</ele>
        <time>2019-06-16T09:19:57Z</time>
      </trkpt>
      <trkpt lat="45.60513" lon="4.58609">
        <ele>776.2</ele>
        <time>2019-06-16T09:19:59Z</time>
      </trkpt>
      <trkpt lat="45.60508" lon="4.58591">
        <ele>775.5</ele>
        <time>2019-06-16T09:20:01Z</time>
      </trkpt>
      <trkpt lat="45.60496" lon="4.58558">
        <ele>774.5</ele>
        <time>2019-06-16T09:20:05Z</time>
      </trkpt>
      <trkpt lat="45.60487" lon="4.58526">
        <ele>773.7</ele>
        <time>2019-06-16T09:20:09Z</time>
      </trkpt>
      <trkpt lat="45.60484" lon="4.58519">
        <ele>773.6</ele>
        <time>2019-06-16T09:20:10Z</time>
      </trkpt>
      <trkpt lat="45.60482" lon="4.58512">
        <ele>773.4</ele>
        <time>2019-06-16T09:20:11Z</time>
      </trkpt>
      <trkpt lat="45.60477" lon="4.5849">
        <ele>772.7</ele>
        <time>2019-06-16T09:20:14Z</time>
      </trkpt>
      <trkpt lat="45.60475" lon="4.58483">
        <ele>772.5</ele>
        <time>2019-06-16T09:20:15Z</time>
      </trkpt>
      <trkpt lat="45.60466" lon="4.58454">
        <ele>771.6</ele>
        <time>2019-06-16T09:20:19Z</time>
      </trkpt>
      <trkpt lat="45.60463" lon="4.58447">
        <ele>771.3</ele>
        <time>2019-06-16T09:20:20Z</time>
      </trkpt>
      <trkpt lat="45.60451" lon="4.58426">
        <ele>770.3</ele>
        <time>2019-06-16T09:20:23Z</time>
      </trkpt>
      <trkpt lat="45.60447" lon="4.58418">
        <ele>770.2</ele>
        <time>2019-06-16T09:20:24Z</time>
      </trkpt>
      <trkpt lat="45.60443" lon="4.58411">
        <ele>770.1</ele>
        <time>2019-06-16T09:20:25Z</time>
      </trkpt>
      <trkpt lat="45.60429" lon="4.5838">
        <ele>769.5</ele>
        <time>2019-06-16T09:20:29Z</time>
      </trkpt>
      <trkpt lat="45.60421" lon="4.58358">
        <ele>769.2</ele>
        <time>2019-06-16T09:20:32Z</time>
      </trkpt>
      <trkpt lat="45.60417" lon="4.58333">
        <ele>769</ele>
        <time>2019-06-16T09:20:36Z</time>
      </trkpt>
      <trkpt lat="45.60414" lon="4.58328">
        <ele>769</ele>
        <time>2019-06-16T09:20:37Z</time>
      </trkpt>
      <trkpt lat="45.6041" lon="4.58322">
        <ele>768.9</ele>
        <time>2019-06-16T09:20:38Z</time>
      </trkpt>
      <trkpt lat="45.604" lon="4.58303">
        <ele>768.5</ele>
        <time>2019-06-16T09:20:41Z</time>
      </trkpt>
      <trkpt lat="45.60391" lon="4.58283">
        <ele>768.3</ele>
        <time>2019-06-16T09:20:44Z</time>
      </trkpt>
      <trkpt lat="45.60385" lon="4.58264">
        <ele>768</ele>
        <time>2019-06-16T09:20:47Z</time>
      </trkpt>
      <trkpt lat="45.60378" lon="4.58228">
        <ele>767.9</ele>
        <time>2019-06-16T09:20:53Z</time>
      </trkpt>
      <trkpt lat="45.60372" lon="4.58199">
        <ele>767.8</ele>
        <time>2019-06-16T09:20:58Z</time>
      </trkpt>
      <trkpt lat="45.60369" lon="4.58189">
        <ele>767.6</ele>
        <time>2019-06-16T09:21:00Z</time>
      </trkpt>
      <trkpt lat="45.60361" lon="4.58154">
        <ele>766.7</ele>
        <time>2019-06-16T09:21:07Z</time>
      </trkpt>
      <trkpt lat="45.60354" lon="4.58121">
        <ele>765.8</ele>
        <time>2019-06-16T09:21:12Z</time>
      </trkpt>
      <trkpt lat="45.6034" lon="4.58082">
        <ele>764.4</ele>
        <time>2019-06-16T09:21:18Z</time>
      </trkpt>
      <trkpt lat="45.60328" lon="4.58046">
        <ele>762.6</ele>
        <time>2019-06-16T09:21:23Z</time>
      </trkpt>
      <trkpt lat="45.6032" lon="4.58021">
        <ele>761.5</ele>
        <time>2019-06-16T09:21:26Z</time>
      </trkpt>
      <trkpt lat="45.60317" lon="4.58012">
        <ele>761.2</ele>
        <time>2019-06-16T09:21:27Z</time>
      </trkpt>
      <trkpt lat="45.60313" lon="4.57991">
        <ele>760.5</ele>
        <time>2019-06-16T09:21:29Z</time>
      </trkpt>
      <trkpt lat="45.60309" lon="4.57969">
        <ele>759.9</ele>
        <time>2019-06-16T09:21:31Z</time>
      </trkpt>
      <trkpt lat="45.60306" lon="4.57959">
        <ele>759.7</ele>
        <time>2019-06-16T09:21:32Z</time>
      </trkpt>
      <trkpt lat="45.60293" lon="4.57918">
        <ele>759.2</ele>
        <time>2019-06-16T09:21:36Z</time>
      </trkpt>
      <trkpt lat="45.6029" lon="4.57909">
        <ele>759</ele>
        <time>2019-06-16T09:21:37Z</time>
      </trkpt>
      <trkpt lat="45.60287" lon="4.57901">
        <ele>758.7</ele>
        <time>2019-06-16T09:21:38Z</time>
      </trkpt>
      <trkpt lat="45.6028" lon="4.57886">
        <ele>758.3</ele>
        <time>2019-06-16T09:21:40Z</time>
      </trkpt>
      <trkpt lat="45.60277" lon="4.57879">
        <ele>758.1</ele>
        <time>2019-06-16T09:21:41Z</time>
      </trkpt>
      <trkpt lat="45.60274" lon="4.57871">
        <ele>757.8</ele>
        <time>2019-06-16T09:21:42Z</time>
      </trkpt>
      <trkpt lat="45.60268" lon="4.57856">
        <ele>757.5</ele>
        <time>2019-06-16T09:21:44Z</time>
      </trkpt>
      <trkpt lat="45.60263" lon="4.57843">
        <ele>757.3</ele>
        <time>2019-06-16T09:21:46Z</time>
      </trkpt>
      <trkpt lat="45.60249" lon="4.57807">
        <ele>756</ele>
        <time>2019-06-16T09:21:52Z</time>
      </trkpt>
      <trkpt lat="45.60245" lon="4.57775">
        <ele>754.4</ele>
        <time>2019-06-16T09:21:57Z</time>
      </trkpt>
      <trkpt lat="45.60248" lon="4.57755">
        <ele>755.8</ele>
        <time>2019-06-16T09:22:01Z</time>
      </trkpt>
      <trkpt lat="45.60252" lon="4.57736">
        <ele>757.2</ele>
        <time>2019-06-16T09:22:05Z</time>
      </trkpt>
      <trkpt lat="45.60252" lon="4.57729">
        <ele>757.7</ele>
        <time>2019-06-16T09:22:06Z</time>
      </trkpt>
      <trkpt lat="45.6025" lon="4.57708">
        <ele>758.9</ele>
        <time>2019-06-16T09:22:09Z</time>
      </trkpt>
      <trkpt lat="45.60248" lon="4.57688">
        <ele>759.8</ele>
        <time>2019-06-16T09:22:12Z</time>
      </trkpt>
      <trkpt lat="45.60246" lon="4.57642">
        <ele>761.3</ele>
        <time>2019-06-16T09:22:18Z</time>
      </trkpt>
      <trkpt lat="45.60245" lon="4.57633">
        <ele>761.6</ele>
        <time>2019-06-16T09:22:21Z</time>
      </trkpt>
      <trkpt lat="45.60243" lon="4.57631">
        <ele>761.1</ele>
        <time>2019-06-16T09:22:23Z</time>
      </trkpt>
      <trkpt lat="45.60238" lon="4.57626">
        <ele>760.3</ele>
        <time>2019-06-16T09:22:25Z</time>
      </trkpt>
      <trkpt lat="45.6023" lon="4.57619">
        <ele>759.1</ele>
        <time>2019-06-16T09:22:27Z</time>
      </trkpt>
      <trkpt lat="45.6022" lon="4.57611">
        <ele>757.6</ele>
        <time>2019-06-16T09:22:29Z</time>
      </trkpt>
      <trkpt lat="45.60195" lon="4.57588">
        <ele>755.5</ele>
        <time>2019-06-16T09:22:33Z</time>
      </trkpt>
      <trkpt lat="45.60176" lon="4.57557">
        <ele>753.1</ele>
        <time>2019-06-16T09:22:37Z</time>
      </trkpt>
      <trkpt lat="45.60157" lon="4.57527">
        <ele>749.9</ele>
        <time>2019-06-16T09:22:41Z</time>
      </trkpt>
      <trkpt lat="45.60148" lon="4.57511">
        <ele>748.7</ele>
        <time>2019-06-16T09:22:43Z</time>
      </trkpt>
      <trkpt lat="45.6014" lon="4.57494">
        <ele>748</ele>
        <time>2019-06-16T09:22:45Z</time>
      </trkpt>
      <trkpt lat="45.60128" lon="4.57466">
        <ele>747.1</ele>
        <time>2019-06-16T09:22:48Z</time>
      </trkpt>
      <trkpt lat="45.60125" lon="4.57458">
        <ele>746.4</ele>
        <time>2019-06-16T09:22:49Z</time>
      </trkpt>
      <trkpt lat="45.6012" lon="4.5744">
        <ele>744.8</ele>
        <time>2019-06-16T09:22:51Z</time>
      </trkpt>
      <trkpt lat="45.60118" lon="4.57431">
        <ele>743.9</ele>
        <time>2019-06-16T09:22:52Z</time>
      </trkpt>
      <trkpt lat="45.60117" lon="4.57423">
        <ele>743</ele>
        <time>2019-06-16T09:22:53Z</time>
      </trkpt>
      <trkpt lat="45.60114" lon="4.57417">
        <ele>742.2</ele>
        <time>2019-06-16T09:22:54Z</time>
      </trkpt>
      <trkpt lat="45.60112" lon="4.57412">
        <ele>741.4</ele>
        <time>2019-06-16T09:22:55Z</time>
      </trkpt>
      <trkpt lat="45.6011" lon="4.57406">
        <ele>740.6</ele>
        <time>2019-06-16T09:22:56Z</time>
      </trkpt>
      <trkpt lat="45.60107" lon="4.57401">
        <ele>739.7</ele>
        <time>2019-06-16T09:22:57Z</time>
      </trkpt>
      <trkpt lat="45.60104" lon="4.57395">
        <ele>738.7</ele>
        <time>2019-06-16T09:22:58Z</time>
      </trkpt>
      <trkpt lat="45.60101" lon="4.57389">
        <ele>737.8</ele>
        <time>2019-06-16T09:22:59Z</time>
      </trkpt>
      <trkpt lat="45.60095" lon="4.57379">
        <ele>736</ele>
        <time>2019-06-16T09:23:01Z</time>
      </trkpt>
      <trkpt lat="45.60092" lon="4.57373">
        <ele>735.1</ele>
        <time>2019-06-16T09:23:02Z</time>
      </trkpt>
      <trkpt lat="45.6009" lon="4.57367">
        <ele>734.3</ele>
        <time>2019-06-16T09:23:03Z</time>
      </trkpt>
      <trkpt lat="45.60085" lon="4.57355">
        <ele>732.8</ele>
        <time>2019-06-16T09:23:05Z</time>
      </trkpt>
      <trkpt lat="45.6008" lon="4.57341">
        <ele>731.3</ele>
        <time>2019-06-16T09:23:07Z</time>
      </trkpt>
      <trkpt lat="45.60073" lon="4.57325">
        <ele>729.8</ele>
        <time>2019-06-16T09:23:09Z</time>
      </trkpt>
      <trkpt lat="45.60066" lon="4.57308">
        <ele>728.3</ele>
        <time>2019-06-16T09:23:11Z</time>
      </trkpt>
      <trkpt lat="45.60063" lon="4.57299">
        <ele>727.4</ele>
        <time>2019-06-16T09:23:12Z</time>
      </trkpt>
      <trkpt lat="45.60061" lon="4.57289">
        <ele>726.4</ele>
        <time>2019-06-16T09:23:13Z</time>
      </trkpt>
      <trkpt lat="45.60057" lon="4.5727">
        <ele>724.9</ele>
        <time>2019-06-16T09:23:15Z</time>
      </trkpt>
      <trkpt lat="45.60057" lon="4.5726">
        <ele>724.4</ele>
        <time>2019-06-16T09:23:16Z</time>
      </trkpt>
      <trkpt lat="45.60055" lon="4.57242">
        <ele>723.2</ele>
        <time>2019-06-16T09:23:18Z</time>
      </trkpt>
      <trkpt lat="45.60052" lon="4.57224">
        <ele>721.5</ele>
        <time>2019-06-16T09:23:20Z</time>
      </trkpt>
      <trkpt lat="45.6005" lon="4.57216">
        <ele>720.7</ele>
        <time>2019-06-16T09:23:21Z</time>
      </trkpt>
      <trkpt lat="45.60048" lon="4.57207">
        <ele>719.9</ele>
        <time>2019-06-16T09:23:22Z</time>
      </trkpt>
      <trkpt lat="45.60043" lon="4.57191">
        <ele>718.7</ele>
        <time>2019-06-16T09:23:24Z</time>
      </trkpt>
      <trkpt lat="45.6004" lon="4.57183">
        <ele>718.2</ele>
        <time>2019-06-16T09:23:25Z</time>
      </trkpt>
      <trkpt lat="45.60037" lon="4.57175">
        <ele>717.7</ele>
        <time>2019-06-16T09:23:26Z</time>
      </trkpt>
      <trkpt lat="45.60032" lon="4.57161">
        <ele>716.6</ele>
        <time>2019-06-16T09:23:28Z</time>
      </trkpt>
      <trkpt lat="45.60029" lon="4.5715">
        <ele>715.7</ele>
        <time>2019-06-16T09:23:30Z</time>
      </trkpt>
      <trkpt lat="45.60026" lon="4.57144">
        <ele>715.1</ele>
        <time>2019-06-16T09:23:31Z</time>
      </trkpt>
      <trkpt lat="45.60023" lon="4.57139">
        <ele>714.5</ele>
        <time>2019-06-16T09:23:32Z</time>
      </trkpt>
      <trkpt lat="45.60018" lon="4.57126">
        <ele>713.2</ele>
        <time>2019-06-16T09:23:34Z</time>
      </trkpt>
      <trkpt lat="45.60012" lon="4.57114">
        <ele>711.8</ele>
        <time>2019-06-16T09:23:36Z</time>
      </trkpt>
      <trkpt lat="45.60007" lon="4.571">
        <ele>710.7</ele>
        <time>2019-06-16T09:23:38Z</time>
      </trkpt>
      <trkpt lat="45.60001" lon="4.57088">
        <ele>709.9</ele>
        <time>2019-06-16T09:23:40Z</time>
      </trkpt>
      <trkpt lat="45.59998" lon="4.57081">
        <ele>709.5</ele>
        <time>2019-06-16T09:23:41Z</time>
      </trkpt>
      <trkpt lat="45.59996" lon="4.57075">
        <ele>709.2</ele>
        <time>2019-06-16T09:23:42Z</time>
      </trkpt>
      <trkpt lat="45.59992" lon="4.57065">
        <ele>708.7</ele>
        <time>2019-06-16T09:23:44Z</time>
      </trkpt>
      <trkpt lat="45.5999" lon="4.57063">
        <ele>708.6</ele>
        <time>2019-06-16T09:23:45Z</time>
      </trkpt>
      <trkpt lat="45.59988" lon="4.5706">
        <ele>708.4</ele>
        <time>2019-06-16T09:23:47Z</time>
      </trkpt>
      <trkpt lat="45.59984" lon="4.5706">
        <ele>708.2</ele>
        <time>2019-06-16T09:23:49Z</time>
      </trkpt>
      <trkpt lat="45.59978" lon="4.57055">
        <ele>707.7</ele>
        <time>2019-06-16T09:23:51Z</time>
      </trkpt>
      <trkpt lat="45.59975" lon="4.57054">
        <ele>707.4</ele>
        <time>2019-06-16T09:23:52Z</time>
      </trkpt>
      <trkpt lat="45.59972" lon="4.57052">
        <ele>707.1</ele>
        <time>2019-06-16T09:23:53Z</time>
      </trkpt>
      <trkpt lat="45.59966" lon="4.57047">
        <ele>706.3</ele>
        <time>2019-06-16T09:23:56Z</time>
      </trkpt>
      <trkpt lat="45.59962" lon="4.57045">
        <ele>706</ele>
        <time>2019-06-16T09:23:58Z</time>
      </trkpt>
      <trkpt lat="45.59954" lon="4.57043">
        <ele>705</ele>
        <time>2019-06-16T09:24:08Z</time>
      </trkpt>
      <trkpt lat="45.59951" lon="4.5704">
        <ele>704.7</ele>
        <time>2019-06-16T09:24:09Z</time>
      </trkpt>
      <trkpt lat="45.5995" lon="4.57033">
        <ele>704.4</ele>
        <time>2019-06-16T09:24:12Z</time>
      </trkpt>
      <trkpt lat="45.59951" lon="4.57031">
        <ele>704.3</ele>
        <time>2019-06-16T09:24:13Z</time>
      </trkpt>
      <trkpt lat="45.59948" lon="4.57029">
        <ele>703.3</ele>
        <time>2019-06-16T09:24:22Z</time>
      </trkpt>
      <trkpt lat="45.59946" lon="4.57028">
        <ele>703.2</ele>
        <time>2019-06-16T09:24:23Z</time>
      </trkpt>
      <trkpt lat="45.59944" lon="4.57031">
        <ele>703.1</ele>
        <time>2019-06-16T09:24:25Z</time>
      </trkpt>
      <trkpt lat="45.59943" lon="4.57033">
        <ele>703.1</ele>
        <time>2019-06-16T09:24:26Z</time>
      </trkpt>
      <trkpt lat="45.59933" lon="4.57047">
        <ele>701.6</ele>
        <time>2019-06-16T09:24:30Z</time>
      </trkpt>
      <trkpt lat="45.59915" lon="4.57059">
        <ele>699.5</ele>
        <time>2019-06-16T09:24:33Z</time>
      </trkpt>
      <trkpt lat="45.59902" lon="4.57067">
        <ele>698.4</ele>
        <time>2019-06-16T09:24:35Z</time>
      </trkpt>
      <trkpt lat="45.59861" lon="4.57081">
        <ele>694.9</ele>
        <time>2019-06-16T09:24:41Z</time>
      </trkpt>
      <trkpt lat="45.59832" lon="4.57093">
        <ele>693.5</ele>
        <time>2019-06-16T09:24:45Z</time>
      </trkpt>
      <trkpt lat="45.59818" lon="4.57102">
        <ele>693</ele>
        <time>2019-06-16T09:24:47Z</time>
      </trkpt>
      <trkpt lat="45.59812" lon="4.57107">
        <ele>692.8</ele>
        <time>2019-06-16T09:24:48Z</time>
      </trkpt>
      <trkpt lat="45.59791" lon="4.57117">
        <ele>692.1</ele>
        <time>2019-06-16T09:24:51Z</time>
      </trkpt>
      <trkpt lat="45.59784" lon="4.57117">
        <ele>692.2</ele>
        <time>2019-06-16T09:24:52Z</time>
      </trkpt>
      <trkpt lat="45.59754" lon="4.57116">
        <ele>692.7</ele>
        <time>2019-06-16T09:24:57Z</time>
      </trkpt>
      <trkpt lat="45.59735" lon="4.57111">
        <ele>692.8</ele>
        <time>2019-06-16T09:25:01Z</time>
      </trkpt>
      <trkpt lat="45.59726" lon="4.57108">
        <ele>692.7</ele>
        <time>2019-06-16T09:25:03Z</time>
      </trkpt>
      <trkpt lat="45.59691" lon="4.57102">
        <ele>692.5</ele>
        <time>2019-06-16T09:25:11Z</time>
      </trkpt>
      <trkpt lat="45.59661" lon="4.57101">
        <ele>694.3</ele>
        <time>2019-06-16T09:25:18Z</time>
      </trkpt>
      <trkpt lat="45.59639" lon="4.57103">
        <ele>695.6</ele>
        <time>2019-06-16T09:25:23Z</time>
      </trkpt>
      <trkpt lat="45.59635" lon="4.57103">
        <ele>695.8</ele>
        <time>2019-06-16T09:25:24Z</time>
      </trkpt>
      <trkpt lat="45.59596" lon="4.57103">
        <ele>698</ele>
        <time>2019-06-16T09:25:33Z</time>
      </trkpt>
      <trkpt lat="45.5957" lon="4.571">
        <ele>699.8</ele>
        <time>2019-06-16T09:25:40Z</time>
      </trkpt>
      <trkpt lat="45.59567" lon="4.57099">
        <ele>700.1</ele>
        <time>2019-06-16T09:25:41Z</time>
      </trkpt>
      <trkpt lat="45.59554" lon="4.57098">
        <ele>701.2</ele>
        <time>2019-06-16T09:25:45Z</time>
      </trkpt>
      <trkpt lat="45.59543" lon="4.57095">
        <ele>702.4</ele>
        <time>2019-06-16T09:25:49Z</time>
      </trkpt>
      <trkpt lat="45.5954" lon="4.57095">
        <ele>702.7</ele>
        <time>2019-06-16T09:25:50Z</time>
      </trkpt>
      <trkpt lat="45.5953" lon="4.57092">
        <ele>703.7</ele>
        <time>2019-06-16T09:25:54Z</time>
      </trkpt>
      <trkpt lat="45.5952" lon="4.5709">
        <ele>704.9</ele>
        <time>2019-06-16T09:25:58Z</time>
      </trkpt>
      <trkpt lat="45.59509" lon="4.57086">
        <ele>706</ele>
        <time>2019-06-16T09:26:03Z</time>
      </trkpt>
      <trkpt lat="45.595" lon="4.57084">
        <ele>706.8</ele>
        <time>2019-06-16T09:26:07Z</time>
      </trkpt>
      <trkpt lat="45.59497" lon="4.57083">
        <ele>707</ele>
        <time>2019-06-16T09:26:08Z</time>
      </trkpt>
      <trkpt lat="45.59484" lon="4.57083">
        <ele>707.9</ele>
        <time>2019-06-16T09:26:14Z</time>
      </trkpt>
      <trkpt lat="45.59479" lon="4.57083">
        <ele>708.2</ele>
        <time>2019-06-16T09:26:16Z</time>
      </trkpt>
      <trkpt lat="45.59472" lon="4.57087">
        <ele>708.5</ele>
        <time>2019-06-16T09:26:20Z</time>
      </trkpt>
      <trkpt lat="45.59467" lon="4.57098">
        <ele>708.7</ele>
        <time>2019-06-16T09:26:25Z</time>
      </trkpt>
      <trkpt lat="45.59471" lon="4.57091">
        <ele>708.8</ele>
        <time>2019-06-16T09:30:50Z</time>
      </trkpt>
      <trkpt lat="45.59479" lon="4.57081">
        <ele>709.1</ele>
        <time>2019-06-16T09:30:54Z</time>
      </trkpt>
      <trkpt lat="45.59476" lon="4.57076">
        <ele>709.2</ele>
        <time>2019-06-16T09:30:57Z</time>
      </trkpt>
      <trkpt lat="45.59474" lon="4.57073">
        <ele>709.3</ele>
        <time>2019-06-16T09:30:59Z</time>
      </trkpt>
      <trkpt lat="45.59468" lon="4.57068">
        <ele>709.4</ele>
        <time>2019-06-16T09:31:02Z</time>
      </trkpt>
      <trkpt lat="45.59467" lon="4.57067">
        <ele>709.5</ele>
        <time>2019-06-16T09:31:03Z</time>
      </trkpt>
      <trkpt lat="45.59459" lon="4.57057">
        <ele>709.7</ele>
        <time>2019-06-16T09:31:09Z</time>
      </trkpt>
      <trkpt lat="45.59457" lon="4.57052">
        <ele>709.8</ele>
        <time>2019-06-16T09:31:11Z</time>
      </trkpt>
      <trkpt lat="45.59454" lon="4.57039">
        <ele>710</ele>
        <time>2019-06-16T09:31:16Z</time>
      </trkpt>
      <trkpt lat="45.59453" lon="4.57036">
        <ele>710.1</ele>
        <time>2019-06-16T09:31:17Z</time>
      </trkpt>
      <trkpt lat="45.5945" lon="4.57019">
        <ele>710.4</ele>
        <time>2019-06-16T09:31:23Z</time>
      </trkpt>
      <trkpt lat="45.59449" lon="4.57013">
        <ele>710.5</ele>
        <time>2019-06-16T09:31:25Z</time>
      </trkpt>
      <trkpt lat="45.59447" lon="4.57004">
        <ele>710.6</ele>
        <time>2019-06-16T09:31:28Z</time>
      </trkpt>
      <trkpt lat="45.59445" lon="4.56994">
        <ele>710.8</ele>
        <time>2019-06-16T09:31:32Z</time>
      </trkpt>
      <trkpt lat="45.59442" lon="4.56983">
        <ele>710.9</ele>
        <time>2019-06-16T09:31:36Z</time>
      </trkpt>
      <trkpt lat="45.59442" lon="4.56972">
        <ele>711.1</ele>
        <time>2019-06-16T09:31:40Z</time>
      </trkpt>
      <trkpt lat="45.59442" lon="4.56962">
        <ele>711.2</ele>
        <time>2019-06-16T09:31:44Z</time>
      </trkpt>
      <trkpt lat="45.59442" lon="4.56959">
        <ele>711.3</ele>
        <time>2019-06-16T09:31:45Z</time>
      </trkpt>
      <trkpt lat="45.59443" lon="4.56943">
        <ele>711.5</ele>
        <time>2019-06-16T09:31:51Z</time>
      </trkpt>
      <trkpt lat="45.59444" lon="4.56935">
        <ele>711.6</ele>
        <time>2019-06-16T09:31:54Z</time>
      </trkpt>
      <trkpt lat="45.59444" lon="4.56932">
        <ele>711.6</ele>
        <time>2019-06-16T09:31:55Z</time>
      </trkpt>
      <trkpt lat="45.59444" lon="4.56918">
        <ele>711.8</ele>
        <time>2019-06-16T09:32:00Z</time>
      </trkpt>
      <trkpt lat="45.59444" lon="4.56912">
        <ele>711.9</ele>
        <time>2019-06-16T09:32:02Z</time>
      </trkpt>
      <trkpt lat="45.59442" lon="4.56904">
        <ele>712.2</ele>
        <time>2019-06-16T09:32:05Z</time>
      </trkpt>
      <trkpt lat="45.59439" lon="4.56892">
        <ele>713</ele>
        <time>2019-06-16T09:32:10Z</time>
      </trkpt>
      <trkpt lat="45.59435" lon="4.56887">
        <ele>713.7</ele>
        <time>2019-06-16T09:32:13Z</time>
      </trkpt>
      <trkpt lat="45.59428" lon="4.56883">
        <ele>714.4</ele>
        <time>2019-06-16T09:32:17Z</time>
      </trkpt>
      <trkpt lat="45.5942" lon="4.5688">
        <ele>715</ele>
        <time>2019-06-16T09:32:21Z</time>
      </trkpt>
      <trkpt lat="45.59414" lon="4.56881">
        <ele>715.5</ele>
        <time>2019-06-16T09:32:24Z</time>
      </trkpt>
      <trkpt lat="45.59399" lon="4.56889">
        <ele>717.6</ele>
        <time>2019-06-16T09:32:32Z</time>
      </trkpt>
      <trkpt lat="45.59397" lon="4.56891">
        <ele>717.8</ele>
        <time>2019-06-16T09:32:33Z</time>
      </trkpt>
      <trkpt lat="45.59387" lon="4.56912">
        <ele>719</ele>
        <time>2019-06-16T09:32:41Z</time>
      </trkpt>
      <trkpt lat="45.59379" lon="4.56937">
        <ele>720.2</ele>
        <time>2019-06-16T09:32:49Z</time>
      </trkpt>
      <trkpt lat="45.59371" lon="4.56966">
        <ele>721.4</ele>
        <time>2019-06-16T09:32:58Z</time>
      </trkpt>
      <trkpt lat="45.59363" lon="4.5699">
        <ele>722.5</ele>
        <time>2019-06-16T09:33:05Z</time>
      </trkpt>
      <trkpt lat="45.59359" lon="4.56996">
        <ele>723.2</ele>
        <time>2019-06-16T09:33:08Z</time>
      </trkpt>
      <trkpt lat="45.59355" lon="4.56999">
        <ele>723.3</ele>
        <time>2019-06-16T09:33:10Z</time>
      </trkpt>
      <trkpt lat="45.59352" lon="4.56996">
        <ele>723.3</ele>
        <time>2019-06-16T09:33:11Z</time>
      </trkpt>
      <trkpt lat="45.59347" lon="4.56989">
        <ele>723.3</ele>
        <time>2019-06-16T09:33:13Z</time>
      </trkpt>
      <trkpt lat="45.59333" lon="4.56964">
        <ele>723.3</ele>
        <time>2019-06-16T09:33:18Z</time>
      </trkpt>
      <trkpt lat="45.59326" lon="4.56952">
        <ele>723.3</ele>
        <time>2019-06-16T09:33:20Z</time>
      </trkpt>
      <trkpt lat="45.59319" lon="4.5694">
        <ele>723.2</ele>
        <time>2019-06-16T09:33:22Z</time>
      </trkpt>
      <trkpt lat="45.59316" lon="4.56933">
        <ele>723.2</ele>
        <time>2019-06-16T09:33:23Z</time>
      </trkpt>
      <trkpt lat="45.593" lon="4.56898">
        <ele>723</ele>
        <time>2019-06-16T09:33:28Z</time>
      </trkpt>
      <trkpt lat="45.59292" lon="4.56886">
        <ele>723</ele>
        <time>2019-06-16T09:33:30Z</time>
      </trkpt>
      <trkpt lat="45.59276" lon="4.56849">
        <ele>722.9</ele>
        <time>2019-06-16T09:33:35Z</time>
      </trkpt>
      <trkpt lat="45.59275" lon="4.56841">
        <ele>722.8</ele>
        <time>2019-06-16T09:33:36Z</time>
      </trkpt>
      <trkpt lat="45.59271" lon="4.56808">
        <ele>722.5</ele>
        <time>2019-06-16T09:33:41Z</time>
      </trkpt>
      <trkpt lat="45.59263" lon="4.56771">
        <ele>722.3</ele>
        <time>2019-06-16T09:33:48Z</time>
      </trkpt>
      <trkpt lat="45.59261" lon="4.56763">
        <ele>722.4</ele>
        <time>2019-06-16T09:33:50Z</time>
      </trkpt>
      <trkpt lat="45.5926" lon="4.56747">
        <ele>722.5</ele>
        <time>2019-06-16T09:33:54Z</time>
      </trkpt>
      <trkpt lat="45.59258" lon="4.5673">
        <ele>722.7</ele>
        <time>2019-06-16T09:33:59Z</time>
      </trkpt>
      <trkpt lat="45.59254" lon="4.56714">
        <ele>722.9</ele>
        <time>2019-06-16T09:34:04Z</time>
      </trkpt>
      <trkpt lat="45.59246" lon="4.56687">
        <ele>723.2</ele>
        <time>2019-06-16T09:34:12Z</time>
      </trkpt>
      <trkpt lat="45.59236" lon="4.56671">
        <ele>723.3</ele>
        <time>2019-06-16T09:34:17Z</time>
      </trkpt>
      <trkpt lat="45.59229" lon="4.56664">
        <ele>723.4</ele>
        <time>2019-06-16T09:34:19Z</time>
      </trkpt>
      <trkpt lat="45.59219" lon="4.56658">
        <ele>723.4</ele>
        <time>2019-06-16T09:34:22Z</time>
      </trkpt>
      <trkpt lat="45.59204" lon="4.56646">
        <ele>723.5</ele>
        <time>2019-06-16T09:34:27Z</time>
      </trkpt>
      <trkpt lat="45.59201" lon="4.56643">
        <ele>723.5</ele>
        <time>2019-06-16T09:34:28Z</time>
      </trkpt>
      <trkpt lat="45.5919" lon="4.56632">
        <ele>723.5</ele>
        <time>2019-06-16T09:34:32Z</time>
      </trkpt>
      <trkpt lat="45.59182" lon="4.56624">
        <ele>723.6</ele>
        <time>2019-06-16T09:34:34Z</time>
      </trkpt>
      <trkpt lat="45.59178" lon="4.5662">
        <ele>723.6</ele>
        <time>2019-06-16T09:34:35Z</time>
      </trkpt>
      <trkpt lat="45.59171" lon="4.56612">
        <ele>723.6</ele>
        <time>2019-06-16T09:34:37Z</time>
      </trkpt>
      <trkpt lat="45.59164" lon="4.56606">
        <ele>723.6</ele>
        <time>2019-06-16T09:34:39Z</time>
      </trkpt>
      <trkpt lat="45.59155" lon="4.56601">
        <ele>724.9</ele>
        <time>2019-06-16T09:34:42Z</time>
      </trkpt>
      <trkpt lat="45.59147" lon="4.56595">
        <ele>725.8</ele>
        <time>2019-06-16T09:34:46Z</time>
      </trkpt>
      <trkpt lat="45.59139" lon="4.56589">
        <ele>726.8</ele>
        <time>2019-06-16T09:34:50Z</time>
      </trkpt>
      <trkpt lat="45.59136" lon="4.56587">
        <ele>727.1</ele>
        <time>2019-06-16T09:34:52Z</time>
      </trkpt>
      <trkpt lat="45.59128" lon="4.56581">
        <ele>727.8</ele>
        <time>2019-06-16T09:34:55Z</time>
      </trkpt>
      <trkpt lat="45.59126" lon="4.5658">
        <ele>728</ele>
        <time>2019-06-16T09:34:56Z</time>
      </trkpt>
      <trkpt lat="45.59122" lon="4.56578">
        <ele>728.3</ele>
        <time>2019-06-16T09:34:58Z</time>
      </trkpt>
      <trkpt lat="45.59116" lon="4.56576">
        <ele>728.8</ele>
        <time>2019-06-16T09:35:01Z</time>
      </trkpt>
      <trkpt lat="45.59111" lon="4.56574">
        <ele>729.1</ele>
        <time>2019-06-16T09:35:03Z</time>
      </trkpt>
      <trkpt lat="45.59107" lon="4.56573">
        <ele>729.5</ele>
        <time>2019-06-16T09:35:05Z</time>
      </trkpt>
      <trkpt lat="45.59102" lon="4.56572">
        <ele>729.8</ele>
        <time>2019-06-16T09:35:07Z</time>
      </trkpt>
      <trkpt lat="45.59087" lon="4.5657">
        <ele>731.1</ele>
        <time>2019-06-16T09:35:14Z</time>
      </trkpt>
      <trkpt lat="45.59085" lon="4.56569">
        <ele>731.3</ele>
        <time>2019-06-16T09:35:15Z</time>
      </trkpt>
      <trkpt lat="45.59074" lon="4.56569">
        <ele>732.2</ele>
        <time>2019-06-16T09:35:21Z</time>
      </trkpt>
      <trkpt lat="45.59066" lon="4.56568">
        <ele>732.7</ele>
        <time>2019-06-16T09:35:25Z</time>
      </trkpt>
      <trkpt lat="45.59061" lon="4.56567">
        <ele>733.2</ele>
        <time>2019-06-16T09:35:28Z</time>
      </trkpt>
      <trkpt lat="45.59059" lon="4.56567">
        <ele>733.3</ele>
        <time>2019-06-16T09:35:29Z</time>
      </trkpt>
      <trkpt lat="45.59048" lon="4.56563">
        <ele>734.2</ele>
        <time>2019-06-16T09:35:35Z</time>
      </trkpt>
      <trkpt lat="45.59046" lon="4.56563">
        <ele>734.4</ele>
        <time>2019-06-16T09:35:36Z</time>
      </trkpt>
      <trkpt lat="45.59035" lon="4.56564">
        <ele>735.3</ele>
        <time>2019-06-16T09:35:41Z</time>
      </trkpt>
      <trkpt lat="45.59031" lon="4.56563">
        <ele>735.5</ele>
        <time>2019-06-16T09:35:43Z</time>
      </trkpt>
      <trkpt lat="45.59023" lon="4.56562">
        <ele>736.2</ele>
        <time>2019-06-16T09:35:48Z</time>
      </trkpt>
      <trkpt lat="45.59013" lon="4.56559">
        <ele>737</ele>
        <time>2019-06-16T09:35:53Z</time>
      </trkpt>
      <trkpt lat="45.59005" lon="4.56555">
        <ele>737.6</ele>
        <time>2019-06-16T09:35:57Z</time>
      </trkpt>
      <trkpt lat="45.59003" lon="4.56555">
        <ele>737.7</ele>
        <time>2019-06-16T09:35:58Z</time>
      </trkpt>
      <trkpt lat="45.58989" lon="4.56554">
        <ele>738.6</ele>
        <time>2019-06-16T09:36:04Z</time>
      </trkpt>
      <trkpt lat="45.58984" lon="4.56553">
        <ele>738.9</ele>
        <time>2019-06-16T09:36:06Z</time>
      </trkpt>
      <trkpt lat="45.58974" lon="4.56552">
        <ele>739.5</ele>
        <time>2019-06-16T09:36:11Z</time>
      </trkpt>
      <trkpt lat="45.58971" lon="4.56552">
        <ele>739.6</ele>
        <time>2019-06-16T09:36:12Z</time>
      </trkpt>
      <trkpt lat="45.58963" lon="4.56552">
        <ele>740.1</ele>
        <time>2019-06-16T09:36:16Z</time>
      </trkpt>
      <trkpt lat="45.58961" lon="4.56551">
        <ele>740.2</ele>
        <time>2019-06-16T09:36:17Z</time>
      </trkpt>
      <trkpt lat="45.58958" lon="4.5655">
        <ele>740.4</ele>
        <time>2019-06-16T09:36:19Z</time>
      </trkpt>
      <trkpt lat="45.58953" lon="4.56549">
        <ele>740.7</ele>
        <time>2019-06-16T09:36:22Z</time>
      </trkpt>
      <trkpt lat="45.58949" lon="4.56549">
        <ele>740.9</ele>
        <time>2019-06-16T09:36:24Z</time>
      </trkpt>
      <trkpt lat="45.58947" lon="4.56549">
        <ele>741</ele>
        <time>2019-06-16T09:36:25Z</time>
      </trkpt>
      <trkpt lat="45.58942" lon="4.56548">
        <ele>741.4</ele>
        <time>2019-06-16T09:36:28Z</time>
      </trkpt>
      <trkpt lat="45.58937" lon="4.56547">
        <ele>741.7</ele>
        <time>2019-06-16T09:36:30Z</time>
      </trkpt>
      <trkpt lat="45.58933" lon="4.56546">
        <ele>742</ele>
        <time>2019-06-16T09:36:32Z</time>
      </trkpt>
      <trkpt lat="45.58929" lon="4.56545">
        <ele>742.2</ele>
        <time>2019-06-16T09:36:34Z</time>
      </trkpt>
      <trkpt lat="45.58925" lon="4.56544">
        <ele>742.4</ele>
        <time>2019-06-16T09:36:36Z</time>
      </trkpt>
      <trkpt lat="45.58923" lon="4.56544">
        <ele>742.5</ele>
        <time>2019-06-16T09:36:37Z</time>
      </trkpt>
      <trkpt lat="45.58916" lon="4.56545">
        <ele>742.9</ele>
        <time>2019-06-16T09:36:40Z</time>
      </trkpt>
      <trkpt lat="45.58908" lon="4.56545">
        <ele>743.5</ele>
        <time>2019-06-16T09:36:43Z</time>
      </trkpt>
      <trkpt lat="45.58903" lon="4.56544">
        <ele>743.9</ele>
        <time>2019-06-16T09:36:45Z</time>
      </trkpt>
      <trkpt lat="45.58891" lon="4.56543">
        <ele>744.9</ele>
        <time>2019-06-16T09:36:50Z</time>
      </trkpt>
      <trkpt lat="45.58887" lon="4.56542">
        <ele>745.3</ele>
        <time>2019-06-16T09:36:52Z</time>
      </trkpt>
      <trkpt lat="45.58883" lon="4.56543">
        <ele>745.7</ele>
        <time>2019-06-16T09:36:55Z</time>
      </trkpt>
      <trkpt lat="45.5888" lon="4.56544">
        <ele>746</ele>
        <time>2019-06-16T09:36:57Z</time>
      </trkpt>
      <trkpt lat="45.58878" lon="4.56545">
        <ele>746.2</ele>
        <time>2019-06-16T09:36:58Z</time>
      </trkpt>
      <trkpt lat="45.58876" lon="4.56546">
        <ele>746.5</ele>
        <time>2019-06-16T09:37:00Z</time>
      </trkpt>
      <trkpt lat="45.58846" lon="4.5655">
        <ele>748.7</ele>
        <time>2019-06-16T09:37:19Z</time>
      </trkpt>
      <trkpt lat="45.58842" lon="4.5655">
        <ele>749</ele>
        <time>2019-06-16T09:37:21Z</time>
      </trkpt>
      <trkpt lat="45.58825" lon="4.56551">
        <ele>750</ele>
        <time>2019-06-16T09:37:29Z</time>
      </trkpt>
      <trkpt lat="45.58821" lon="4.56551">
        <ele>750.3</ele>
        <time>2019-06-16T09:37:32Z</time>
      </trkpt>
      <trkpt lat="45.58804" lon="4.56549">
        <ele>751</ele>
        <time>2019-06-16T09:37:40Z</time>
      </trkpt>
      <trkpt lat="45.58732" lon="4.5654">
        <ele>754.8</ele>
        <time>2019-06-16T09:38:14Z</time>
      </trkpt>
      <trkpt lat="45.58729" lon="4.5654">
        <ele>755</ele>
        <time>2019-06-16T09:38:15Z</time>
      </trkpt>
      <trkpt lat="45.58719" lon="4.5654">
        <ele>755.6</ele>
        <time>2019-06-16T09:38:19Z</time>
      </trkpt>
      <trkpt lat="45.58704" lon="4.56538">
        <ele>756.3</ele>
        <time>2019-06-16T09:38:25Z</time>
      </trkpt>
      <trkpt lat="45.58701" lon="4.56538">
        <ele>756.5</ele>
        <time>2019-06-16T09:38:26Z</time>
      </trkpt>
      <trkpt lat="45.58689" lon="4.56536">
        <ele>757.1</ele>
        <time>2019-06-16T09:38:32Z</time>
      </trkpt>
      <trkpt lat="45.58681" lon="4.56532">
        <ele>757.5</ele>
        <time>2019-06-16T09:38:35Z</time>
      </trkpt>
      <trkpt lat="45.58673" lon="4.56529">
        <ele>757.8</ele>
        <time>2019-06-16T09:38:38Z</time>
      </trkpt>
      <trkpt lat="45.58658" lon="4.56523">
        <ele>758.5</ele>
        <time>2019-06-16T09:38:45Z</time>
      </trkpt>
      <trkpt lat="45.58652" lon="4.56521">
        <ele>758.7</ele>
        <time>2019-06-16T09:38:48Z</time>
      </trkpt>
      <trkpt lat="45.58648" lon="4.5652">
        <ele>758.9</ele>
        <time>2019-06-16T09:38:51Z</time>
      </trkpt>
      <trkpt lat="45.58643" lon="4.56518">
        <ele>759.1</ele>
        <time>2019-06-16T09:38:53Z</time>
      </trkpt>
      <trkpt lat="45.5864" lon="4.56517">
        <ele>759.2</ele>
        <time>2019-06-16T09:38:54Z</time>
      </trkpt>
      <trkpt lat="45.5863" lon="4.56511">
        <ele>759.7</ele>
        <time>2019-06-16T09:38:59Z</time>
      </trkpt>
      <trkpt lat="45.58628" lon="4.5651">
        <ele>759.8</ele>
        <time>2019-06-16T09:39:00Z</time>
      </trkpt>
      <trkpt lat="45.58624" lon="4.56506">
        <ele>760</ele>
        <time>2019-06-16T09:39:02Z</time>
      </trkpt>
      <trkpt lat="45.58616" lon="4.565">
        <ele>760.4</ele>
        <time>2019-06-16T09:39:05Z</time>
      </trkpt>
      <trkpt lat="45.5861" lon="4.56497">
        <ele>760.8</ele>
        <time>2019-06-16T09:39:08Z</time>
      </trkpt>
      <trkpt lat="45.58602" lon="4.56495">
        <ele>761.3</ele>
        <time>2019-06-16T09:39:11Z</time>
      </trkpt>
      <trkpt lat="45.5859" lon="4.56488">
        <ele>762.1</ele>
        <time>2019-06-16T09:39:16Z</time>
      </trkpt>
      <trkpt lat="45.58585" lon="4.56485">
        <ele>762.4</ele>
        <time>2019-06-16T09:39:18Z</time>
      </trkpt>
      <trkpt lat="45.58579" lon="4.56485">
        <ele>762.8</ele>
        <time>2019-06-16T09:39:20Z</time>
      </trkpt>
      <trkpt lat="45.58576" lon="4.56486">
        <ele>763</ele>
        <time>2019-06-16T09:39:21Z</time>
      </trkpt>
      <trkpt lat="45.58574" lon="4.56487">
        <ele>763.1</ele>
        <time>2019-06-16T09:39:22Z</time>
      </trkpt>
      <trkpt lat="45.58573" lon="4.56489">
        <ele>763.3</ele>
        <time>2019-06-16T09:39:23Z</time>
      </trkpt>
      <trkpt lat="45.58571" lon="4.5649">
        <ele>763.4</ele>
        <time>2019-06-16T09:39:24Z</time>
      </trkpt>
      <trkpt lat="45.5857" lon="4.56492">
        <ele>763.5</ele>
        <time>2019-06-16T09:39:25Z</time>
      </trkpt>
      <trkpt lat="45.58569" lon="4.56493">
        <ele>763.6</ele>
        <time>2019-06-16T09:39:26Z</time>
      </trkpt>
      <trkpt lat="45.58566" lon="4.56494">
        <ele>763.8</ele>
        <time>2019-06-16T09:39:28Z</time>
      </trkpt>
      <trkpt lat="45.58565" lon="4.56494">
        <ele>763.9</ele>
        <time>2019-06-16T09:39:29Z</time>
      </trkpt>
      <trkpt lat="45.58564" lon="4.56493">
        <ele>763.9</ele>
        <time>2019-06-16T09:39:30Z</time>
      </trkpt>
      <trkpt lat="45.58559" lon="4.56492">
        <ele>764.3</ele>
        <time>2019-06-16T09:39:33Z</time>
      </trkpt>
      <trkpt lat="45.58556" lon="4.5649">
        <ele>764.5</ele>
        <time>2019-06-16T09:39:35Z</time>
      </trkpt>
      <trkpt lat="45.58555" lon="4.56489">
        <ele>764.6</ele>
        <time>2019-06-16T09:39:36Z</time>
      </trkpt>
      <trkpt lat="45.58554" lon="4.56488">
        <ele>764.7</ele>
        <time>2019-06-16T09:39:37Z</time>
      </trkpt>
      <trkpt lat="45.58548" lon="4.56486">
        <ele>765.1</ele>
        <time>2019-06-16T09:39:41Z</time>
      </trkpt>
      <trkpt lat="45.58544" lon="4.56483">
        <ele>765.5</ele>
        <time>2019-06-16T09:39:44Z</time>
      </trkpt>
      <trkpt lat="45.5854" lon="4.56481">
        <ele>765.8</ele>
        <time>2019-06-16T09:39:46Z</time>
      </trkpt>
      <trkpt lat="45.58538" lon="4.56481">
        <ele>765.9</ele>
        <time>2019-06-16T09:39:47Z</time>
      </trkpt>
      <trkpt lat="45.58536" lon="4.5648">
        <ele>766</ele>
        <time>2019-06-16T09:39:48Z</time>
      </trkpt>
      <trkpt lat="45.58534" lon="4.5648">
        <ele>766.2</ele>
        <time>2019-06-16T09:39:50Z</time>
      </trkpt>
      <trkpt lat="45.58528" lon="4.5648">
        <ele>766.5</ele>
        <time>2019-06-16T09:39:53Z</time>
      </trkpt>
      <trkpt lat="45.58525" lon="4.56478">
        <ele>766.7</ele>
        <time>2019-06-16T09:39:55Z</time>
      </trkpt>
      <trkpt lat="45.5852" lon="4.56474">
        <ele>767</ele>
        <time>2019-06-16T09:39:59Z</time>
      </trkpt>
      <trkpt lat="45.58511" lon="4.56465">
        <ele>767.6</ele>
        <time>2019-06-16T09:40:06Z</time>
      </trkpt>
      <trkpt lat="45.585" lon="4.56456">
        <ele>768.3</ele>
        <time>2019-06-16T09:40:13Z</time>
      </trkpt>
      <trkpt lat="45.58499" lon="4.56455">
        <ele>768.3</ele>
        <time>2019-06-16T09:40:14Z</time>
      </trkpt>
      <trkpt lat="45.58498" lon="4.56454">
        <ele>768.4</ele>
        <time>2019-06-16T09:40:15Z</time>
      </trkpt>
      <trkpt lat="45.58496" lon="4.56451">
        <ele>768.6</ele>
        <time>2019-06-16T09:40:17Z</time>
      </trkpt>
      <trkpt lat="45.58493" lon="4.56447">
        <ele>768.8</ele>
        <time>2019-06-16T09:40:20Z</time>
      </trkpt>
      <trkpt lat="45.58491" lon="4.56445">
        <ele>768.9</ele>
        <time>2019-06-16T09:40:21Z</time>
      </trkpt>
      <trkpt lat="45.58479" lon="4.56436">
        <ele>769.6</ele>
        <time>2019-06-16T09:40:26Z</time>
      </trkpt>
      <trkpt lat="45.58474" lon="4.56427">
        <ele>770.1</ele>
        <time>2019-06-16T09:40:30Z</time>
      </trkpt>
      <trkpt lat="45.58465" lon="4.56415">
        <ele>770.8</ele>
        <time>2019-06-16T09:40:36Z</time>
      </trkpt>
      <trkpt lat="45.58458" lon="4.56406">
        <ele>771.3</ele>
        <time>2019-06-16T09:40:40Z</time>
      </trkpt>
      <trkpt lat="45.58456" lon="4.56404">
        <ele>771.5</ele>
        <time>2019-06-16T09:40:41Z</time>
      </trkpt>
      <trkpt lat="45.5845" lon="4.56391">
        <ele>772</ele>
        <time>2019-06-16T09:40:46Z</time>
      </trkpt>
      <trkpt lat="45.58448" lon="4.56387">
        <ele>772.3</ele>
        <time>2019-06-16T09:40:49Z</time>
      </trkpt>
      <trkpt lat="45.58437" lon="4.56373">
        <ele>772.9</ele>
        <time>2019-06-16T09:40:56Z</time>
      </trkpt>
      <trkpt lat="45.58428" lon="4.56365">
        <ele>773.2</ele>
        <time>2019-06-16T09:41:00Z</time>
      </trkpt>
      <trkpt lat="45.58422" lon="4.56362">
        <ele>773.4</ele>
        <time>2019-06-16T09:41:02Z</time>
      </trkpt>
      <trkpt lat="45.58415" lon="4.56355">
        <ele>773.7</ele>
        <time>2019-06-16T09:41:06Z</time>
      </trkpt>
      <trkpt lat="45.58412" lon="4.56351">
        <ele>773.8</ele>
        <time>2019-06-16T09:41:08Z</time>
      </trkpt>
      <trkpt lat="45.58406" lon="4.56343">
        <ele>774.1</ele>
        <time>2019-06-16T09:41:12Z</time>
      </trkpt>
      <trkpt lat="45.58404" lon="4.5634">
        <ele>774.2</ele>
        <time>2019-06-16T09:41:13Z</time>
      </trkpt>
      <trkpt lat="45.58389" lon="4.56323">
        <ele>775.1</ele>
        <time>2019-06-16T09:41:20Z</time>
      </trkpt>
      <trkpt lat="45.58377" lon="4.56312">
        <ele>775.9</ele>
        <time>2019-06-16T09:41:26Z</time>
      </trkpt>
      <trkpt lat="45.58361" lon="4.56299">
        <ele>776.9</ele>
        <time>2019-06-16T09:41:33Z</time>
      </trkpt>
      <trkpt lat="45.58354" lon="4.56292">
        <ele>777.3</ele>
        <time>2019-06-16T09:41:37Z</time>
      </trkpt>
      <trkpt lat="45.5835" lon="4.56289">
        <ele>777.5</ele>
        <time>2019-06-16T09:41:39Z</time>
      </trkpt>
      <trkpt lat="45.5834" lon="4.56279">
        <ele>778.1</ele>
        <time>2019-06-16T09:41:45Z</time>
      </trkpt>
      <trkpt lat="45.58338" lon="4.56277">
        <ele>778.2</ele>
        <time>2019-06-16T09:41:46Z</time>
      </trkpt>
      <trkpt lat="45.58331" lon="4.56269">
        <ele>778.6</ele>
        <time>2019-06-16T09:41:50Z</time>
      </trkpt>
      <trkpt lat="45.58324" lon="4.56263">
        <ele>779</ele>
        <time>2019-06-16T09:41:53Z</time>
      </trkpt>
      <trkpt lat="45.58311" lon="4.56249">
        <ele>779.9</ele>
        <time>2019-06-16T09:41:59Z</time>
      </trkpt>
      <trkpt lat="45.58308" lon="4.56246">
        <ele>780.1</ele>
        <time>2019-06-16T09:42:00Z</time>
      </trkpt>
      <trkpt lat="45.58297" lon="4.56231">
        <ele>780.9</ele>
        <time>2019-06-16T09:42:06Z</time>
      </trkpt>
      <trkpt lat="45.58293" lon="4.56226">
        <ele>781.2</ele>
        <time>2019-06-16T09:42:08Z</time>
      </trkpt>
      <trkpt lat="45.58281" lon="4.5621">
        <ele>781.8</ele>
        <time>2019-06-16T09:42:13Z</time>
      </trkpt>
      <trkpt lat="45.58267" lon="4.56193">
        <ele>782.5</ele>
        <time>2019-06-16T09:42:19Z</time>
      </trkpt>
      <trkpt lat="45.5826" lon="4.56183">
        <ele>782.9</ele>
        <time>2019-06-16T09:42:23Z</time>
      </trkpt>
      <trkpt lat="45.58257" lon="4.5618">
        <ele>783.1</ele>
        <time>2019-06-16T09:42:25Z</time>
      </trkpt>
      <trkpt lat="45.58246" lon="4.56161">
        <ele>783.7</ele>
        <time>2019-06-16T09:42:33Z</time>
      </trkpt>
      <trkpt lat="45.58234" lon="4.56143">
        <ele>784.4</ele>
        <time>2019-06-16T09:42:40Z</time>
      </trkpt>
      <trkpt lat="45.58228" lon="4.56128">
        <ele>785</ele>
        <time>2019-06-16T09:42:47Z</time>
      </trkpt>
      <trkpt lat="45.58227" lon="4.56124">
        <ele>785.1</ele>
        <time>2019-06-16T09:42:49Z</time>
      </trkpt>
      <trkpt lat="45.58224" lon="4.56116">
        <ele>785.4</ele>
        <time>2019-06-16T09:42:52Z</time>
      </trkpt>
      <trkpt lat="45.58223" lon="4.56113">
        <ele>785.5</ele>
        <time>2019-06-16T09:42:53Z</time>
      </trkpt>
      <trkpt lat="45.58219" lon="4.56099">
        <ele>786.2</ele>
        <time>2019-06-16T09:42:58Z</time>
      </trkpt>
      <trkpt lat="45.58218" lon="4.56097">
        <ele>786.3</ele>
        <time>2019-06-16T09:42:59Z</time>
      </trkpt>
      <trkpt lat="45.58204" lon="4.56071">
        <ele>787.7</ele>
        <time>2019-06-16T09:43:06Z</time>
      </trkpt>
      <trkpt lat="45.58195" lon="4.56059">
        <ele>788.3</ele>
        <time>2019-06-16T09:43:10Z</time>
      </trkpt>
      <trkpt lat="45.58186" lon="4.56039">
        <ele>788.8</ele>
        <time>2019-06-16T09:43:17Z</time>
      </trkpt>
      <trkpt lat="45.58175" lon="4.56022">
        <ele>789.6</ele>
        <time>2019-06-16T09:43:24Z</time>
      </trkpt>
      <trkpt lat="45.58163" lon="4.55999">
        <ele>790.5</ele>
        <time>2019-06-16T09:43:32Z</time>
      </trkpt>
      <trkpt lat="45.58161" lon="4.55994">
        <ele>790.7</ele>
        <time>2019-06-16T09:43:34Z</time>
      </trkpt>
      <trkpt lat="45.58155" lon="4.55982">
        <ele>791.1</ele>
        <time>2019-06-16T09:43:39Z</time>
      </trkpt>
      <trkpt lat="45.58145" lon="4.55961">
        <ele>791.8</ele>
        <time>2019-06-16T09:43:47Z</time>
      </trkpt>
      <trkpt lat="45.58138" lon="4.5595">
        <ele>792.3</ele>
        <time>2019-06-16T09:43:52Z</time>
      </trkpt>
      <trkpt lat="45.58136" lon="4.55946">
        <ele>792.4</ele>
        <time>2019-06-16T09:43:53Z</time>
      </trkpt>
      <trkpt lat="45.58128" lon="4.5593">
        <ele>793.2</ele>
        <time>2019-06-16T09:43:59Z</time>
      </trkpt>
      <trkpt lat="45.58119" lon="4.55915">
        <ele>793.8</ele>
        <time>2019-06-16T09:44:05Z</time>
      </trkpt>
      <trkpt lat="45.58117" lon="4.5591">
        <ele>794</ele>
        <time>2019-06-16T09:44:07Z</time>
      </trkpt>
      <trkpt lat="45.58105" lon="4.55888">
        <ele>795.1</ele>
        <time>2019-06-16T09:44:16Z</time>
      </trkpt>
      <trkpt lat="45.58103" lon="4.5588">
        <ele>795.5</ele>
        <time>2019-06-16T09:44:19Z</time>
      </trkpt>
      <trkpt lat="45.58099" lon="4.55872">
        <ele>795.9</ele>
        <time>2019-06-16T09:44:22Z</time>
      </trkpt>
      <trkpt lat="45.58094" lon="4.55861">
        <ele>796.4</ele>
        <time>2019-06-16T09:44:26Z</time>
      </trkpt>
      <trkpt lat="45.58092" lon="4.55858">
        <ele>796.5</ele>
        <time>2019-06-16T09:44:27Z</time>
      </trkpt>
      <trkpt lat="45.58088" lon="4.55848">
        <ele>796.8</ele>
        <time>2019-06-16T09:44:31Z</time>
      </trkpt>
      <trkpt lat="45.58085" lon="4.55843">
        <ele>797</ele>
        <time>2019-06-16T09:44:33Z</time>
      </trkpt>
      <trkpt lat="45.58083" lon="4.55837">
        <ele>797.1</ele>
        <time>2019-06-16T09:44:35Z</time>
      </trkpt>
      <trkpt lat="45.58082" lon="4.55825">
        <ele>797.5</ele>
        <time>2019-06-16T09:44:39Z</time>
      </trkpt>
      <trkpt lat="45.58079" lon="4.55815">
        <ele>797.9</ele>
        <time>2019-06-16T09:44:42Z</time>
      </trkpt>
      <trkpt lat="45.58073" lon="4.55805">
        <ele>798.3</ele>
        <time>2019-06-16T09:44:45Z</time>
      </trkpt>
      <trkpt lat="45.58065" lon="4.55794">
        <ele>799</ele>
        <time>2019-06-16T09:44:49Z</time>
      </trkpt>
      <trkpt lat="45.58061" lon="4.55789">
        <ele>799.3</ele>
        <time>2019-06-16T09:44:51Z</time>
      </trkpt>
      <trkpt lat="45.5805" lon="4.55773">
        <ele>800.6</ele>
        <time>2019-06-16T09:44:59Z</time>
      </trkpt>
      <trkpt lat="45.58041" lon="4.55761">
        <ele>801.6</ele>
        <time>2019-06-16T09:45:07Z</time>
      </trkpt>
      <trkpt lat="45.5804" lon="4.5576">
        <ele>801.8</ele>
        <time>2019-06-16T09:45:08Z</time>
      </trkpt>
      <trkpt lat="45.58034" lon="4.55755">
        <ele>802.3</ele>
        <time>2019-06-16T09:45:13Z</time>
      </trkpt>
      <trkpt lat="45.58032" lon="4.55752">
        <ele>802.6</ele>
        <time>2019-06-16T09:45:15Z</time>
      </trkpt>
      <trkpt lat="45.58028" lon="4.55749">
        <ele>803</ele>
        <time>2019-06-16T09:45:17Z</time>
      </trkpt>
      <trkpt lat="45.58021" lon="4.55745">
        <ele>803.8</ele>
        <time>2019-06-16T09:45:22Z</time>
      </trkpt>
      <trkpt lat="45.58018" lon="4.55743">
        <ele>804.1</ele>
        <time>2019-06-16T09:45:24Z</time>
      </trkpt>
      <trkpt lat="45.58013" lon="4.55738">
        <ele>804.6</ele>
        <time>2019-06-16T09:45:28Z</time>
      </trkpt>
      <trkpt lat="45.58008" lon="4.55734">
        <ele>805</ele>
        <time>2019-06-16T09:45:32Z</time>
      </trkpt>
      <trkpt lat="45.58003" lon="4.55729">
        <ele>805.8</ele>
        <time>2019-06-16T09:45:36Z</time>
      </trkpt>
      <trkpt lat="45.57996" lon="4.55727">
        <ele>806.6</ele>
        <time>2019-06-16T09:45:41Z</time>
      </trkpt>
      <trkpt lat="45.57994" lon="4.55726">
        <ele>806.5</ele>
        <time>2019-06-16T09:45:42Z</time>
      </trkpt>
      <trkpt lat="45.57987" lon="4.55722">
        <ele>806.3</ele>
        <time>2019-06-16T09:45:46Z</time>
      </trkpt>
      <trkpt lat="45.57985" lon="4.55719">
        <ele>806.2</ele>
        <time>2019-06-16T09:45:48Z</time>
      </trkpt>
      <trkpt lat="45.57982" lon="4.55714">
        <ele>805.9</ele>
        <time>2019-06-16T09:45:50Z</time>
      </trkpt>
      <trkpt lat="45.57976" lon="4.55707">
        <ele>805.4</ele>
        <time>2019-06-16T09:46:25Z</time>
      </trkpt>
      <trkpt lat="45.57974" lon="4.55701">
        <ele>805.1</ele>
        <time>2019-06-16T09:46:27Z</time>
      </trkpt>
      <trkpt lat="45.57963" lon="4.55679">
        <ele>803.4</ele>
        <time>2019-06-16T09:46:34Z</time>
      </trkpt>
      <trkpt lat="45.57957" lon="4.55666">
        <ele>802.8</ele>
        <time>2019-06-16T09:46:37Z</time>
      </trkpt>
      <trkpt lat="45.57948" lon="4.55644">
        <ele>802.8</ele>
        <time>2019-06-16T09:46:42Z</time>
      </trkpt>
      <trkpt lat="45.57946" lon="4.55639">
        <ele>802.9</ele>
        <time>2019-06-16T09:46:43Z</time>
      </trkpt>
      <trkpt lat="45.57929" lon="4.55605">
        <ele>803.9</ele>
        <time>2019-06-16T09:46:51Z</time>
      </trkpt>
      <trkpt lat="45.57922" lon="4.55585">
        <ele>804.6</ele>
        <time>2019-06-16T09:46:56Z</time>
      </trkpt>
      <trkpt lat="45.57916" lon="4.55566">
        <ele>804.7</ele>
        <time>2019-06-16T09:47:01Z</time>
      </trkpt>
      <trkpt lat="45.57916" lon="4.55544">
        <ele>805</ele>
        <time>2019-06-16T09:47:06Z</time>
      </trkpt>
      <trkpt lat="45.57917" lon="4.55535">
        <ele>805</ele>
        <time>2019-06-16T09:47:08Z</time>
      </trkpt>
      <trkpt lat="45.57915" lon="4.55523">
        <ele>805.2</ele>
        <time>2019-06-16T09:47:11Z</time>
      </trkpt>
      <trkpt lat="45.57908" lon="4.55498">
        <ele>805.5</ele>
        <time>2019-06-16T09:47:17Z</time>
      </trkpt>
      <trkpt lat="45.57906" lon="4.55489">
        <ele>805.5</ele>
        <time>2019-06-16T09:47:19Z</time>
      </trkpt>
      <trkpt lat="45.57899" lon="4.55455">
        <ele>805.8</ele>
        <time>2019-06-16T09:47:27Z</time>
      </trkpt>
      <trkpt lat="45.57896" lon="4.55447">
        <ele>805.9</ele>
        <time>2019-06-16T09:47:29Z</time>
      </trkpt>
      <trkpt lat="45.57883" lon="4.55425">
        <ele>806.4</ele>
        <time>2019-06-16T09:47:35Z</time>
      </trkpt>
      <trkpt lat="45.57871" lon="4.55401">
        <ele>807.3</ele>
        <time>2019-06-16T09:47:41Z</time>
      </trkpt>
      <trkpt lat="45.5787" lon="4.55396">
        <ele>807.4</ele>
        <time>2019-06-16T09:47:42Z</time>
      </trkpt>
      <trkpt lat="45.57861" lon="4.55365">
        <ele>807.8</ele>
        <time>2019-06-16T09:47:49Z</time>
      </trkpt>
      <trkpt lat="45.57858" lon="4.55357">
        <ele>807.9</ele>
        <time>2019-06-16T09:47:51Z</time>
      </trkpt>
      <trkpt lat="45.57853" lon="4.55335">
        <ele>808.1</ele>
        <time>2019-06-16T09:47:56Z</time>
      </trkpt>
      <trkpt lat="45.5785" lon="4.55302">
        <ele>808.5</ele>
        <time>2019-06-16T09:48:03Z</time>
      </trkpt>
      <trkpt lat="45.57849" lon="4.55297">
        <ele>808.5</ele>
        <time>2019-06-16T09:48:04Z</time>
      </trkpt>
      <trkpt lat="45.57847" lon="4.55268">
        <ele>808.7</ele>
        <time>2019-06-16T09:48:11Z</time>
      </trkpt>
      <trkpt lat="45.57845" lon="4.55263">
        <ele>808.7</ele>
        <time>2019-06-16T09:48:13Z</time>
      </trkpt>
      <trkpt lat="45.57841" lon="4.55263">
        <ele>808.7</ele>
        <time>2019-06-16T09:48:15Z</time>
      </trkpt>
      <trkpt lat="45.57836" lon="4.55272">
        <ele>809.3</ele>
        <time>2019-06-16T09:48:18Z</time>
      </trkpt>
      <trkpt lat="45.57834" lon="4.55275">
        <ele>809.4</ele>
        <time>2019-06-16T09:48:19Z</time>
      </trkpt>
      <trkpt lat="45.5783" lon="4.55286">
        <ele>809.7</ele>
        <time>2019-06-16T09:48:22Z</time>
      </trkpt>
      <trkpt lat="45.57825" lon="4.553">
        <ele>809.9</ele>
        <time>2019-06-16T09:48:25Z</time>
      </trkpt>
      <trkpt lat="45.57818" lon="4.5532">
        <ele>809.8</ele>
        <time>2019-06-16T09:48:28Z</time>
      </trkpt>
      <trkpt lat="45.57816" lon="4.5534">
        <ele>809.2</ele>
        <time>2019-06-16T09:48:30Z</time>
      </trkpt>
      <trkpt lat="45.57816" lon="4.55361">
        <ele>807.9</ele>
        <time>2019-06-16T09:48:32Z</time>
      </trkpt>
      <trkpt lat="45.57817" lon="4.55372">
        <ele>806.9</ele>
        <time>2019-06-16T09:48:33Z</time>
      </trkpt>
      <trkpt lat="45.57817" lon="4.55383">
        <ele>805.9</ele>
        <time>2019-06-16T09:48:34Z</time>
      </trkpt>
      <trkpt lat="45.57819" lon="4.55403">
        <ele>803.6</ele>
        <time>2019-06-16T09:48:36Z</time>
      </trkpt>
      <trkpt lat="45.5782" lon="4.55412">
        <ele>802.5</ele>
        <time>2019-06-16T09:48:37Z</time>
      </trkpt>
      <trkpt lat="45.5782" lon="4.5542">
        <ele>801.7</ele>
        <time>2019-06-16T09:48:38Z</time>
      </trkpt>
      <trkpt lat="45.57819" lon="4.55432">
        <ele>800.5</ele>
        <time>2019-06-16T09:48:40Z</time>
      </trkpt>
      <trkpt lat="45.57819" lon="4.55437">
        <ele>800.1</ele>
        <time>2019-06-16T09:48:41Z</time>
      </trkpt>
      <trkpt lat="45.57819" lon="4.55441">
        <ele>799.9</ele>
        <time>2019-06-16T09:48:42Z</time>
      </trkpt>
      <trkpt lat="45.5782" lon="4.55446">
        <ele>799.5</ele>
        <time>2019-06-16T09:49:06Z</time>
      </trkpt>
      <trkpt lat="45.57821" lon="4.55449">
        <ele>799.3</ele>
        <time>2019-06-16T09:49:07Z</time>
      </trkpt>
      <trkpt lat="45.57822" lon="4.55454">
        <ele>799</ele>
        <time>2019-06-16T09:49:08Z</time>
      </trkpt>
      <trkpt lat="45.57822" lon="4.55461">
        <ele>798.6</ele>
        <time>2019-06-16T09:49:09Z</time>
      </trkpt>
      <trkpt lat="45.57823" lon="4.55468">
        <ele>798.3</ele>
        <time>2019-06-16T09:49:10Z</time>
      </trkpt>
      <trkpt lat="45.57823" lon="4.55476">
        <ele>797.9</ele>
        <time>2019-06-16T09:49:11Z</time>
      </trkpt>
      <trkpt lat="45.57823" lon="4.55484">
        <ele>797.6</ele>
        <time>2019-06-16T09:49:12Z</time>
      </trkpt>
      <trkpt lat="45.57822" lon="4.55492">
        <ele>797.3</ele>
        <time>2019-06-16T09:49:13Z</time>
      </trkpt>
      <trkpt lat="45.57822" lon="4.555">
        <ele>796.9</ele>
        <time>2019-06-16T09:49:14Z</time>
      </trkpt>
      <trkpt lat="45.57822" lon="4.55509">
        <ele>796.5</ele>
        <time>2019-06-16T09:49:15Z</time>
      </trkpt>
      <trkpt lat="45.57823" lon="4.55518">
        <ele>796</ele>
        <time>2019-06-16T09:49:16Z</time>
      </trkpt>
      <trkpt lat="45.57824" lon="4.55526">
        <ele>795.4</ele>
        <time>2019-06-16T09:49:17Z</time>
      </trkpt>
      <trkpt lat="45.57825" lon="4.55534">
        <ele>794.8</ele>
        <time>2019-06-16T09:49:18Z</time>
      </trkpt>
      <trkpt lat="45.57827" lon="4.55543">
        <ele>794</ele>
        <time>2019-06-16T09:49:19Z</time>
      </trkpt>
      <trkpt lat="45.57828" lon="4.55552">
        <ele>793.2</ele>
        <time>2019-06-16T09:49:20Z</time>
      </trkpt>
      <trkpt lat="45.5783" lon="4.5556">
        <ele>792.4</ele>
        <time>2019-06-16T09:49:21Z</time>
      </trkpt>
      <trkpt lat="45.57833" lon="4.55567">
        <ele>791.6</ele>
        <time>2019-06-16T09:49:22Z</time>
      </trkpt>
      <trkpt lat="45.57835" lon="4.55576">
        <ele>790.7</ele>
        <time>2019-06-16T09:49:23Z</time>
      </trkpt>
      <trkpt lat="45.57838" lon="4.55592">
        <ele>788.9</ele>
        <time>2019-06-16T09:49:25Z</time>
      </trkpt>
      <trkpt lat="45.5784" lon="4.556">
        <ele>788.5</ele>
        <time>2019-06-16T09:49:26Z</time>
      </trkpt>
      <trkpt lat="45.57842" lon="4.55617">
        <ele>787.6</ele>
        <time>2019-06-16T09:49:28Z</time>
      </trkpt>
      <trkpt lat="45.57844" lon="4.55636">
        <ele>786.6</ele>
        <time>2019-06-16T09:49:30Z</time>
      </trkpt>
      <trkpt lat="45.57844" lon="4.55647">
        <ele>786.1</ele>
        <time>2019-06-16T09:49:31Z</time>
      </trkpt>
      <trkpt lat="45.57844" lon="4.55658">
        <ele>785.4</ele>
        <time>2019-06-16T09:49:32Z</time>
      </trkpt>
      <trkpt lat="45.57844" lon="4.55683">
        <ele>784.2</ele>
        <time>2019-06-16T09:49:34Z</time>
      </trkpt>
      <trkpt lat="45.57844" lon="4.55709">
        <ele>783.1</ele>
        <time>2019-06-16T09:49:36Z</time>
      </trkpt>
      <trkpt lat="45.57844" lon="4.55735">
        <ele>782.1</ele>
        <time>2019-06-16T09:49:38Z</time>
      </trkpt>
      <trkpt lat="45.57845" lon="4.5576">
        <ele>781.2</ele>
        <time>2019-06-16T09:49:40Z</time>
      </trkpt>
      <trkpt lat="45.57846" lon="4.55771">
        <ele>780.8</ele>
        <time>2019-06-16T09:49:41Z</time>
      </trkpt>
      <trkpt lat="45.57847" lon="4.55792">
        <ele>779.6</ele>
        <time>2019-06-16T09:49:43Z</time>
      </trkpt>
      <trkpt lat="45.57847" lon="4.55801">
        <ele>778.9</ele>
        <time>2019-06-16T09:49:44Z</time>
      </trkpt>
      <trkpt lat="45.57846" lon="4.55811">
        <ele>778.2</ele>
        <time>2019-06-16T09:49:45Z</time>
      </trkpt>
      <trkpt lat="45.57844" lon="4.55821">
        <ele>777.4</ele>
        <time>2019-06-16T09:49:46Z</time>
      </trkpt>
      <trkpt lat="45.5784" lon="4.55841">
        <ele>775.9</ele>
        <time>2019-06-16T09:49:48Z</time>
      </trkpt>
      <trkpt lat="45.57836" lon="4.55861">
        <ele>774.3</ele>
        <time>2019-06-16T09:49:50Z</time>
      </trkpt>
      <trkpt lat="45.57833" lon="4.55881">
        <ele>772.8</ele>
        <time>2019-06-16T09:49:52Z</time>
      </trkpt>
      <trkpt lat="45.57831" lon="4.559">
        <ele>771.3</ele>
        <time>2019-06-16T09:49:54Z</time>
      </trkpt>
      <trkpt lat="45.57831" lon="4.5591">
        <ele>770.6</ele>
        <time>2019-06-16T09:49:55Z</time>
      </trkpt>
      <trkpt lat="45.5783" lon="4.5592">
        <ele>769.9</ele>
        <time>2019-06-16T09:49:56Z</time>
      </trkpt>
      <trkpt lat="45.57828" lon="4.55941">
        <ele>768.3</ele>
        <time>2019-06-16T09:49:58Z</time>
      </trkpt>
      <trkpt lat="45.57826" lon="4.5596">
        <ele>766.9</ele>
        <time>2019-06-16T09:50:00Z</time>
      </trkpt>
      <trkpt lat="45.57826" lon="4.55968">
        <ele>766.4</ele>
        <time>2019-06-16T09:50:01Z</time>
      </trkpt>
      <trkpt lat="45.57825" lon="4.55976">
        <ele>765.8</ele>
        <time>2019-06-16T09:50:02Z</time>
      </trkpt>
      <trkpt lat="45.57823" lon="4.55992">
        <ele>764.7</ele>
        <time>2019-06-16T09:50:04Z</time>
      </trkpt>
      <trkpt lat="45.57822" lon="4.56001">
        <ele>764.1</ele>
        <time>2019-06-16T09:50:05Z</time>
      </trkpt>
      <trkpt lat="45.57821" lon="4.56009">
        <ele>763.5</ele>
        <time>2019-06-16T09:50:06Z</time>
      </trkpt>
      <trkpt lat="45.5782" lon="4.56026">
        <ele>762.4</ele>
        <time>2019-06-16T09:50:08Z</time>
      </trkpt>
      <trkpt lat="45.57819" lon="4.56043">
        <ele>761.5</ele>
        <time>2019-06-16T09:50:10Z</time>
      </trkpt>
      <trkpt lat="45.57819" lon="4.56051">
        <ele>761.3</ele>
        <time>2019-06-16T09:50:11Z</time>
      </trkpt>
      <trkpt lat="45.5782" lon="4.56059">
        <ele>761.2</ele>
        <time>2019-06-16T09:50:12Z</time>
      </trkpt>
      <trkpt lat="45.57821" lon="4.56068">
        <ele>761.1</ele>
        <time>2019-06-16T09:50:13Z</time>
      </trkpt>
      <trkpt lat="45.57826" lon="4.56088">
        <ele>760.9</ele>
        <time>2019-06-16T09:50:16Z</time>
      </trkpt>
      <trkpt lat="45.57828" lon="4.56093">
        <ele>760.9</ele>
        <time>2019-06-16T09:50:17Z</time>
      </trkpt>
      <trkpt lat="45.57832" lon="4.56101">
        <ele>761</ele>
        <time>2019-06-16T09:50:19Z</time>
      </trkpt>
      <trkpt lat="45.57834" lon="4.56105">
        <ele>761</ele>
        <time>2019-06-16T09:50:21Z</time>
      </trkpt>
      <trkpt lat="45.57837" lon="4.5611">
        <ele>761</ele>
        <time>2019-06-16T09:50:24Z</time>
      </trkpt>
      <trkpt lat="45.57838" lon="4.56114">
        <ele>761</ele>
        <time>2019-06-16T09:50:25Z</time>
      </trkpt>
      <trkpt lat="45.57839" lon="4.56117">
        <ele>761</ele>
        <time>2019-06-16T09:50:26Z</time>
      </trkpt>
      <trkpt lat="45.57839" lon="4.56121">
        <ele>761.1</ele>
        <time>2019-06-16T09:50:28Z</time>
      </trkpt>
      <trkpt lat="45.57841" lon="4.56136">
        <ele>761.1</ele>
        <time>2019-06-16T09:51:28Z</time>
      </trkpt>
      <trkpt lat="45.57842" lon="4.56143">
        <ele>761.1</ele>
        <time>2019-06-16T09:51:30Z</time>
      </trkpt>
      <trkpt lat="45.57843" lon="4.56165">
        <ele>760.9</ele>
        <time>2019-06-16T09:51:35Z</time>
      </trkpt>
      <trkpt lat="45.57843" lon="4.56179">
        <ele>760.8</ele>
        <time>2019-06-16T09:51:39Z</time>
      </trkpt>
      <trkpt lat="45.57843" lon="4.56192">
        <ele>760.7</ele>
        <time>2019-06-16T09:51:42Z</time>
      </trkpt>
      <trkpt lat="45.57843" lon="4.56197">
        <ele>760.7</ele>
        <time>2019-06-16T09:51:43Z</time>
      </trkpt>
      <trkpt lat="45.57845" lon="4.56222">
        <ele>760.4</ele>
        <time>2019-06-16T09:51:47Z</time>
      </trkpt>
      <trkpt lat="45.57846" lon="4.56229">
        <ele>760.4</ele>
        <time>2019-06-16T09:51:48Z</time>
      </trkpt>
      <trkpt lat="45.57847" lon="4.56247">
        <ele>760.2</ele>
        <time>2019-06-16T09:51:51Z</time>
      </trkpt>
      <trkpt lat="45.57848" lon="4.56265">
        <ele>760</ele>
        <time>2019-06-16T09:51:54Z</time>
      </trkpt>
      <trkpt lat="45.57847" lon="4.563">
        <ele>759.6</ele>
        <time>2019-06-16T09:51:59Z</time>
      </trkpt>
      <trkpt lat="45.57842" lon="4.56349">
        <ele>758.6</ele>
        <time>2019-06-16T09:52:05Z</time>
      </trkpt>
      <trkpt lat="45.5784" lon="4.56356">
        <ele>758.5</ele>
        <time>2019-06-16T09:52:06Z</time>
      </trkpt>
      <trkpt lat="45.57831" lon="4.56396">
        <ele>757.2</ele>
        <time>2019-06-16T09:52:11Z</time>
      </trkpt>
      <trkpt lat="45.57829" lon="4.56426">
        <ele>756.3</ele>
        <time>2019-06-16T09:52:14Z</time>
      </trkpt>
      <trkpt lat="45.5783" lon="4.56433">
        <ele>756.1</ele>
        <time>2019-06-16T09:52:15Z</time>
      </trkpt>
      <trkpt lat="45.5784" lon="4.56474">
        <ele>755.1</ele>
        <time>2019-06-16T09:52:21Z</time>
      </trkpt>
      <trkpt lat="45.57846" lon="4.56494">
        <ele>754.9</ele>
        <time>2019-06-16T09:52:24Z</time>
      </trkpt>
      <trkpt lat="45.57852" lon="4.56519">
        <ele>754.8</ele>
        <time>2019-06-16T09:52:28Z</time>
      </trkpt>
      <trkpt lat="45.57868" lon="4.5656">
        <ele>754.9</ele>
        <time>2019-06-16T09:52:35Z</time>
      </trkpt>
      <trkpt lat="45.57871" lon="4.56565">
        <ele>754.9</ele>
        <time>2019-06-16T09:52:36Z</time>
      </trkpt>
      <trkpt lat="45.57884" lon="4.56587">
        <ele>755</ele>
        <time>2019-06-16T09:52:41Z</time>
      </trkpt>
      <trkpt lat="45.57903" lon="4.56609">
        <ele>755.6</ele>
        <time>2019-06-16T09:52:48Z</time>
      </trkpt>
      <trkpt lat="45.57909" lon="4.56618">
        <ele>755.7</ele>
        <time>2019-06-16T09:52:50Z</time>
      </trkpt>
      <trkpt lat="45.57916" lon="4.56628">
        <ele>755.8</ele>
        <time>2019-06-16T09:52:52Z</time>
      </trkpt>
      <trkpt lat="45.57921" lon="4.56634">
        <ele>755.8</ele>
        <time>2019-06-16T09:52:53Z</time>
      </trkpt>
      <trkpt lat="45.57925" lon="4.5664">
        <ele>755.7</ele>
        <time>2019-06-16T09:52:54Z</time>
      </trkpt>
      <trkpt lat="45.57936" lon="4.56656">
        <ele>755.5</ele>
        <time>2019-06-16T09:52:57Z</time>
      </trkpt>
      <trkpt lat="45.5794" lon="4.5666">
        <ele>755.3</ele>
        <time>2019-06-16T09:52:58Z</time>
      </trkpt>
      <trkpt lat="45.57943" lon="4.56664">
        <ele>754.9</ele>
        <time>2019-06-16T09:52:59Z</time>
      </trkpt>
      <trkpt lat="45.5795" lon="4.56674">
        <ele>754.2</ele>
        <time>2019-06-16T09:53:01Z</time>
      </trkpt>
      <trkpt lat="45.57954" lon="4.56679">
        <ele>753.7</ele>
        <time>2019-06-16T09:53:02Z</time>
      </trkpt>
      <trkpt lat="45.57961" lon="4.56687">
        <ele>752.9</ele>
        <time>2019-06-16T09:53:04Z</time>
      </trkpt>
      <trkpt lat="45.57967" lon="4.5669">
        <ele>749.5</ele>
        <time>2019-06-16T09:53:06Z</time>
      </trkpt>
      <trkpt lat="45.5797" lon="4.56694">
        <ele>749.8</ele>
        <time>2019-06-16T09:53:08Z</time>
      </trkpt>
      <trkpt lat="45.57971" lon="4.56695">
        <ele>749.8</ele>
        <time>2019-06-16T09:53:09Z</time>
      </trkpt>
      <trkpt lat="45.5797" lon="4.56699">
        <ele>750</ele>
        <time>2019-06-16T09:53:19Z</time>
      </trkpt>
      <trkpt lat="45.57974" lon="4.56703">
        <ele>746.6</ele>
        <time>2019-06-16T09:53:22Z</time>
      </trkpt>
      <trkpt lat="45.57981" lon="4.56708">
        <ele>745.8</ele>
        <time>2019-06-16T09:53:25Z</time>
      </trkpt>
      <trkpt lat="45.57987" lon="4.56713">
        <ele>744.6</ele>
        <time>2019-06-16T09:53:28Z</time>
      </trkpt>
      <trkpt lat="45.57994" lon="4.56722">
        <ele>743.3</ele>
        <time>2019-06-16T09:53:34Z</time>
      </trkpt>
      <trkpt lat="45.57998" lon="4.56726">
        <ele>742.6</ele>
        <time>2019-06-16T09:53:36Z</time>
      </trkpt>
      <trkpt lat="45.57999" lon="4.56728">
        <ele>742.2</ele>
        <time>2019-06-16T09:53:37Z</time>
      </trkpt>
      <trkpt lat="45.5801" lon="4.56735">
        <ele>740</ele>
        <time>2019-06-16T09:53:42Z</time>
      </trkpt>
      <trkpt lat="45.5802" lon="4.56742">
        <ele>738.2</ele>
        <time>2019-06-16T09:53:45Z</time>
      </trkpt>
      <trkpt lat="45.58027" lon="4.56749">
        <ele>737.2</ele>
        <time>2019-06-16T09:53:47Z</time>
      </trkpt>
      <trkpt lat="45.5805" lon="4.56765">
        <ele>735</ele>
        <time>2019-06-16T09:53:52Z</time>
      </trkpt>
      <trkpt lat="45.58055" lon="4.56769">
        <ele>734.6</ele>
        <time>2019-06-16T09:53:53Z</time>
      </trkpt>
      <trkpt lat="45.58081" lon="4.56793">
        <ele>732.8</ele>
        <time>2019-06-16T09:53:59Z</time>
      </trkpt>
      <trkpt lat="45.58111" lon="4.56823">
        <ele>730.8</ele>
        <time>2019-06-16T09:54:05Z</time>
      </trkpt>
      <trkpt lat="45.58119" lon="4.56833">
        <ele>730.3</ele>
        <time>2019-06-16T09:54:07Z</time>
      </trkpt>
      <trkpt lat="45.5813" lon="4.56853">
        <ele>729.5</ele>
        <time>2019-06-16T09:54:10Z</time>
      </trkpt>
      <trkpt lat="45.58134" lon="4.5686">
        <ele>729.1</ele>
        <time>2019-06-16T09:54:11Z</time>
      </trkpt>
      <trkpt lat="45.58138" lon="4.56867">
        <ele>728.8</ele>
        <time>2019-06-16T09:54:12Z</time>
      </trkpt>
      <trkpt lat="45.58155" lon="4.56895">
        <ele>728.2</ele>
        <time>2019-06-16T09:54:16Z</time>
      </trkpt>
      <trkpt lat="45.58165" lon="4.56915">
        <ele>728.4</ele>
        <time>2019-06-16T09:54:19Z</time>
      </trkpt>
      <trkpt lat="45.58175" lon="4.56932">
        <ele>729.1</ele>
        <time>2019-06-16T09:54:22Z</time>
      </trkpt>
      <trkpt lat="45.58182" lon="4.56942">
        <ele>729.7</ele>
        <time>2019-06-16T09:54:26Z</time>
      </trkpt>
      <trkpt lat="45.58183" lon="4.56943">
        <ele>729.8</ele>
        <time>2019-06-16T09:54:27Z</time>
      </trkpt>
      <trkpt lat="45.5821" lon="4.56989">
        <ele>735.3</ele>
        <time>2019-06-16T09:55:02Z</time>
      </trkpt>
      <trkpt lat="45.58213" lon="4.56995">
        <ele>735.8</ele>
        <time>2019-06-16T09:55:16Z</time>
      </trkpt>
      <trkpt lat="45.58215" lon="4.56997">
        <ele>735.9</ele>
        <time>2019-06-16T09:55:17Z</time>
      </trkpt>
      <trkpt lat="45.58216" lon="4.56999">
        <ele>736</ele>
        <time>2019-06-16T09:55:18Z</time>
      </trkpt>
      <trkpt lat="45.58223" lon="4.5701">
        <ele>736.5</ele>
        <time>2019-06-16T09:55:23Z</time>
      </trkpt>
      <trkpt lat="45.58226" lon="4.57012">
        <ele>736.6</ele>
        <time>2019-06-16T09:55:24Z</time>
      </trkpt>
      <trkpt lat="45.58233" lon="4.57018">
        <ele>736.6</ele>
        <time>2019-06-16T09:55:26Z</time>
      </trkpt>
      <trkpt lat="45.58243" lon="4.57031">
        <ele>736.4</ele>
        <time>2019-06-16T09:55:29Z</time>
      </trkpt>
      <trkpt lat="45.58247" lon="4.57036">
        <ele>735.8</ele>
        <time>2019-06-16T09:55:30Z</time>
      </trkpt>
      <trkpt lat="45.58265" lon="4.57061">
        <ele>733.4</ele>
        <time>2019-06-16T09:55:34Z</time>
      </trkpt>
      <trkpt lat="45.58278" lon="4.57076">
        <ele>732.2</ele>
        <time>2019-06-16T09:55:37Z</time>
      </trkpt>
      <trkpt lat="45.58286" lon="4.57085">
        <ele>731.2</ele>
        <time>2019-06-16T09:55:39Z</time>
      </trkpt>
      <trkpt lat="45.58291" lon="4.57089">
        <ele>730.7</ele>
        <time>2019-06-16T09:55:40Z</time>
      </trkpt>
      <trkpt lat="45.58295" lon="4.57094">
        <ele>730.2</ele>
        <time>2019-06-16T09:55:41Z</time>
      </trkpt>
      <trkpt lat="45.58302" lon="4.57103">
        <ele>729</ele>
        <time>2019-06-16T09:55:43Z</time>
      </trkpt>
      <trkpt lat="45.58306" lon="4.57109">
        <ele>728.2</ele>
        <time>2019-06-16T09:55:44Z</time>
      </trkpt>
      <trkpt lat="45.58313" lon="4.57122">
        <ele>726.5</ele>
        <time>2019-06-16T09:55:46Z</time>
      </trkpt>
      <trkpt lat="45.58321" lon="4.57133">
        <ele>725</ele>
        <time>2019-06-16T09:55:48Z</time>
      </trkpt>
      <trkpt lat="45.58324" lon="4.57139">
        <ele>724.3</ele>
        <time>2019-06-16T09:55:49Z</time>
      </trkpt>
      <trkpt lat="45.58327" lon="4.57146">
        <ele>723.5</ele>
        <time>2019-06-16T09:55:50Z</time>
      </trkpt>
      <trkpt lat="45.58332" lon="4.57157">
        <ele>722.2</ele>
        <time>2019-06-16T09:55:52Z</time>
      </trkpt>
      <trkpt lat="45.58337" lon="4.57166">
        <ele>721</ele>
        <time>2019-06-16T09:55:54Z</time>
      </trkpt>
      <trkpt lat="45.5834" lon="4.57171">
        <ele>720.4</ele>
        <time>2019-06-16T09:55:55Z</time>
      </trkpt>
      <trkpt lat="45.58342" lon="4.57175">
        <ele>719.8</ele>
        <time>2019-06-16T09:55:56Z</time>
      </trkpt>
      <trkpt lat="45.58346" lon="4.57183">
        <ele>718.7</ele>
        <time>2019-06-16T09:55:58Z</time>
      </trkpt>
      <trkpt lat="45.58349" lon="4.57191">
        <ele>717.8</ele>
        <time>2019-06-16T09:56:00Z</time>
      </trkpt>
      <trkpt lat="45.58353" lon="4.57202">
        <ele>716.4</ele>
        <time>2019-06-16T09:56:03Z</time>
      </trkpt>
      <trkpt lat="45.58355" lon="4.57209">
        <ele>715.7</ele>
        <time>2019-06-16T09:56:05Z</time>
      </trkpt>
      <trkpt lat="45.58358" lon="4.57226">
        <ele>713.8</ele>
        <time>2019-06-16T09:56:09Z</time>
      </trkpt>
      <trkpt lat="45.58358" lon="4.57229">
        <ele>713.4</ele>
        <time>2019-06-16T09:56:10Z</time>
      </trkpt>
      <trkpt lat="45.58359" lon="4.57247">
        <ele>711.6</ele>
        <time>2019-06-16T09:56:15Z</time>
      </trkpt>
      <trkpt lat="45.58362" lon="4.57258">
        <ele>710.6</ele>
        <time>2019-06-16T09:56:18Z</time>
      </trkpt>
      <trkpt lat="45.58367" lon="4.57283">
        <ele>708.1</ele>
        <time>2019-06-16T09:56:24Z</time>
      </trkpt>
      <trkpt lat="45.58372" lon="4.57293">
        <ele>706.9</ele>
        <time>2019-06-16T09:56:26Z</time>
      </trkpt>
      <trkpt lat="45.58379" lon="4.57303">
        <ele>705.7</ele>
        <time>2019-06-16T09:56:28Z</time>
      </trkpt>
      <trkpt lat="45.5838" lon="4.57308">
        <ele>705.3</ele>
        <time>2019-06-16T09:56:29Z</time>
      </trkpt>
      <trkpt lat="45.58381" lon="4.57316">
        <ele>704.6</ele>
        <time>2019-06-16T09:56:31Z</time>
      </trkpt>
      <trkpt lat="45.58382" lon="4.57329">
        <ele>703.5</ele>
        <time>2019-06-16T09:56:33Z</time>
      </trkpt>
      <trkpt lat="45.58384" lon="4.57335">
        <ele>703</ele>
        <time>2019-06-16T09:56:34Z</time>
      </trkpt>
      <trkpt lat="45.58391" lon="4.57349">
        <ele>701.5</ele>
        <time>2019-06-16T09:56:37Z</time>
      </trkpt>
      <trkpt lat="45.58398" lon="4.57372">
        <ele>699.6</ele>
        <time>2019-06-16T09:56:41Z</time>
      </trkpt>
      <trkpt lat="45.584" lon="4.57386">
        <ele>698.8</ele>
        <time>2019-06-16T09:56:43Z</time>
      </trkpt>
      <trkpt lat="45.58403" lon="4.57401">
        <ele>698</ele>
        <time>2019-06-16T09:56:45Z</time>
      </trkpt>
      <trkpt lat="45.58406" lon="4.5742">
        <ele>697.2</ele>
        <time>2019-06-16T09:56:48Z</time>
      </trkpt>
      <trkpt lat="45.58407" lon="4.57451">
        <ele>696.5</ele>
        <time>2019-06-16T09:56:53Z</time>
      </trkpt>
      <trkpt lat="45.58404" lon="4.57458">
        <ele>696.3</ele>
        <time>2019-06-16T09:56:54Z</time>
      </trkpt>
      <trkpt lat="45.584" lon="4.57465">
        <ele>696.1</ele>
        <time>2019-06-16T09:56:55Z</time>
      </trkpt>
      <trkpt lat="45.58391" lon="4.57476">
        <ele>695.8</ele>
        <time>2019-06-16T09:56:57Z</time>
      </trkpt>
      <trkpt lat="45.58383" lon="4.57486">
        <ele>695.4</ele>
        <time>2019-06-16T09:56:59Z</time>
      </trkpt>
      <trkpt lat="45.58372" lon="4.57498">
        <ele>694.7</ele>
        <time>2019-06-16T09:57:03Z</time>
      </trkpt>
      <trkpt lat="45.58356" lon="4.57518">
        <ele>693.2</ele>
        <time>2019-06-16T09:57:10Z</time>
      </trkpt>
      <trkpt lat="45.5834" lon="4.57547">
        <ele>691</ele>
        <time>2019-06-16T09:57:16Z</time>
      </trkpt>
      <trkpt lat="45.58334" lon="4.57559">
        <ele>690.4</ele>
        <time>2019-06-16T09:57:18Z</time>
      </trkpt>
      <trkpt lat="45.58318" lon="4.57593">
        <ele>690.5</ele>
        <time>2019-06-16T09:57:23Z</time>
      </trkpt>
      <trkpt lat="45.5831" lon="4.57617">
        <ele>690.9</ele>
        <time>2019-06-16T09:57:27Z</time>
      </trkpt>
      <trkpt lat="45.58307" lon="4.57628">
        <ele>690.9</ele>
        <time>2019-06-16T09:57:29Z</time>
      </trkpt>
      <trkpt lat="45.58306" lon="4.57632">
        <ele>690.8</ele>
        <time>2019-06-16T09:57:30Z</time>
      </trkpt>
      <trkpt lat="45.58302" lon="4.57641">
        <ele>690.5</ele>
        <time>2019-06-16T09:57:33Z</time>
      </trkpt>
      <trkpt lat="45.58301" lon="4.57645">
        <ele>690.3</ele>
        <time>2019-06-16T09:57:34Z</time>
      </trkpt>
      <trkpt lat="45.58297" lon="4.57654">
        <ele>689.6</ele>
        <time>2019-06-16T09:57:37Z</time>
      </trkpt>
      <trkpt lat="45.58294" lon="4.57661">
        <ele>689.2</ele>
        <time>2019-06-16T09:57:40Z</time>
      </trkpt>
      <trkpt lat="45.58288" lon="4.5767">
        <ele>688.5</ele>
        <time>2019-06-16T09:57:43Z</time>
      </trkpt>
      <trkpt lat="45.58286" lon="4.57677">
        <ele>688</ele>
        <time>2019-06-16T09:57:45Z</time>
      </trkpt>
      <trkpt lat="45.58282" lon="4.5769">
        <ele>687.1</ele>
        <time>2019-06-16T09:57:48Z</time>
      </trkpt>
      <trkpt lat="45.58279" lon="4.57702">
        <ele>686.4</ele>
        <time>2019-06-16T09:57:51Z</time>
      </trkpt>
      <trkpt lat="45.58278" lon="4.57706">
        <ele>686.1</ele>
        <time>2019-06-16T09:57:52Z</time>
      </trkpt>
      <trkpt lat="45.58277" lon="4.57715">
        <ele>685.6</ele>
        <time>2019-06-16T09:57:54Z</time>
      </trkpt>
      <trkpt lat="45.58275" lon="4.57725">
        <ele>685</ele>
        <time>2019-06-16T09:57:56Z</time>
      </trkpt>
      <trkpt lat="45.58274" lon="4.57738">
        <ele>684.3</ele>
        <time>2019-06-16T09:57:58Z</time>
      </trkpt>
      <trkpt lat="45.58274" lon="4.57746">
        <ele>683.8</ele>
        <time>2019-06-16T09:57:59Z</time>
      </trkpt>
      <trkpt lat="45.58273" lon="4.57762">
        <ele>683.3</ele>
        <time>2019-06-16T09:58:01Z</time>
      </trkpt>
      <trkpt lat="45.5827" lon="4.57801">
        <ele>681.3</ele>
        <time>2019-06-16T09:58:06Z</time>
      </trkpt>
      <trkpt lat="45.58266" lon="4.57831">
        <ele>678.7</ele>
        <time>2019-06-16T09:58:10Z</time>
      </trkpt>
      <trkpt lat="45.58265" lon="4.57838">
        <ele>677.8</ele>
        <time>2019-06-16T09:58:11Z</time>
      </trkpt>
      <trkpt lat="45.58255" lon="4.57881">
        <ele>672.1</ele>
        <time>2019-06-16T09:58:17Z</time>
      </trkpt>
      <trkpt lat="45.58253" lon="4.5789">
        <ele>671.1</ele>
        <time>2019-06-16T09:58:18Z</time>
      </trkpt>
      <trkpt lat="45.58247" lon="4.57919">
        <ele>668.8</ele>
        <time>2019-06-16T09:58:21Z</time>
      </trkpt>
      <trkpt lat="45.58245" lon="4.57928">
        <ele>668.2</ele>
        <time>2019-06-16T09:58:22Z</time>
      </trkpt>
      <trkpt lat="45.58236" lon="4.57963">
        <ele>665.2</ele>
        <time>2019-06-16T09:58:26Z</time>
      </trkpt>
      <trkpt lat="45.58232" lon="4.57979">
        <ele>663.5</ele>
        <time>2019-06-16T09:58:28Z</time>
      </trkpt>
      <trkpt lat="45.58226" lon="4.58002">
        <ele>661</ele>
        <time>2019-06-16T09:58:31Z</time>
      </trkpt>
      <trkpt lat="45.58222" lon="4.58017">
        <ele>659.4</ele>
        <time>2019-06-16T09:58:33Z</time>
      </trkpt>
      <trkpt lat="45.58221" lon="4.58025">
        <ele>658.4</ele>
        <time>2019-06-16T09:58:34Z</time>
      </trkpt>
      <trkpt lat="45.5822" lon="4.58039">
        <ele>656.7</ele>
        <time>2019-06-16T09:58:36Z</time>
      </trkpt>
      <trkpt lat="45.58221" lon="4.58046">
        <ele>655.8</ele>
        <time>2019-06-16T09:58:37Z</time>
      </trkpt>
      <trkpt lat="45.58221" lon="4.58053">
        <ele>654.8</ele>
        <time>2019-06-16T09:58:38Z</time>
      </trkpt>
      <trkpt lat="45.58221" lon="4.5806">
        <ele>653.8</ele>
        <time>2019-06-16T09:58:39Z</time>
      </trkpt>
      <trkpt lat="45.58221" lon="4.58067">
        <ele>652.8</ele>
        <time>2019-06-16T09:58:40Z</time>
      </trkpt>
      <trkpt lat="45.5822" lon="4.58081">
        <ele>651</ele>
        <time>2019-06-16T09:58:42Z</time>
      </trkpt>
      <trkpt lat="45.58219" lon="4.58094">
        <ele>649.3</ele>
        <time>2019-06-16T09:58:44Z</time>
      </trkpt>
      <trkpt lat="45.58217" lon="4.58111">
        <ele>647.6</ele>
        <time>2019-06-16T09:58:46Z</time>
      </trkpt>
      <trkpt lat="45.58216" lon="4.5812">
        <ele>646.7</ele>
        <time>2019-06-16T09:58:47Z</time>
      </trkpt>
      <trkpt lat="45.58215" lon="4.58129">
        <ele>645.9</ele>
        <time>2019-06-16T09:58:48Z</time>
      </trkpt>
      <trkpt lat="45.58213" lon="4.58137">
        <ele>645.2</ele>
        <time>2019-06-16T09:58:49Z</time>
      </trkpt>
      <trkpt lat="45.58211" lon="4.58148">
        <ele>644</ele>
        <time>2019-06-16T09:58:51Z</time>
      </trkpt>
      <trkpt lat="45.5821" lon="4.58155">
        <ele>643.2</ele>
        <time>2019-06-16T09:58:52Z</time>
      </trkpt>
      <trkpt lat="45.58209" lon="4.58161">
        <ele>642</ele>
        <time>2019-06-16T09:58:53Z</time>
      </trkpt>
      <trkpt lat="45.58208" lon="4.58168">
        <ele>641.2</ele>
        <time>2019-06-16T09:58:54Z</time>
      </trkpt>
      <trkpt lat="45.58207" lon="4.58175">
        <ele>640.3</ele>
        <time>2019-06-16T09:58:55Z</time>
      </trkpt>
      <trkpt lat="45.58206" lon="4.58187">
        <ele>639</ele>
        <time>2019-06-16T09:58:57Z</time>
      </trkpt>
      <trkpt lat="45.58205" lon="4.58198">
        <ele>637.8</ele>
        <time>2019-06-16T09:58:59Z</time>
      </trkpt>
      <trkpt lat="45.58204" lon="4.58203">
        <ele>637</ele>
        <time>2019-06-16T09:59:00Z</time>
      </trkpt>
      <trkpt lat="45.582" lon="4.58213">
        <ele>635.6</ele>
        <time>2019-06-16T09:59:02Z</time>
      </trkpt>
      <trkpt lat="45.58196" lon="4.58223">
        <ele>634.1</ele>
        <time>2019-06-16T09:59:04Z</time>
      </trkpt>
      <trkpt lat="45.58195" lon="4.58229">
        <ele>633.2</ele>
        <time>2019-06-16T09:59:05Z</time>
      </trkpt>
      <trkpt lat="45.58194" lon="4.58236">
        <ele>632.3</ele>
        <time>2019-06-16T09:59:06Z</time>
      </trkpt>
      <trkpt lat="45.58194" lon="4.58243">
        <ele>631.1</ele>
        <time>2019-06-16T09:59:07Z</time>
      </trkpt>
      <trkpt lat="45.58193" lon="4.5825">
        <ele>630</ele>
        <time>2019-06-16T09:59:08Z</time>
      </trkpt>
      <trkpt lat="45.58189" lon="4.58261">
        <ele>628</ele>
        <time>2019-06-16T09:59:10Z</time>
      </trkpt>
      <trkpt lat="45.58186" lon="4.58265">
        <ele>627.1</ele>
        <time>2019-06-16T09:59:11Z</time>
      </trkpt>
      <trkpt lat="45.58184" lon="4.58266">
        <ele>626.7</ele>
        <time>2019-06-16T09:59:12Z</time>
      </trkpt>
      <trkpt lat="45.58179" lon="4.58266">
        <ele>625.9</ele>
        <time>2019-06-16T09:59:14Z</time>
      </trkpt>
      <trkpt lat="45.58175" lon="4.58265">
        <ele>625.2</ele>
        <time>2019-06-16T09:59:16Z</time>
      </trkpt>
      <trkpt lat="45.58171" lon="4.58262">
        <ele>624.2</ele>
        <time>2019-06-16T09:59:18Z</time>
      </trkpt>
      <trkpt lat="45.58166" lon="4.58258">
        <ele>623.2</ele>
        <time>2019-06-16T09:59:20Z</time>
      </trkpt>
      <trkpt lat="45.58164" lon="4.58257">
        <ele>622.9</ele>
        <time>2019-06-16T09:59:21Z</time>
      </trkpt>
      <trkpt lat="45.58163" lon="4.58258">
        <ele>622.7</ele>
        <time>2019-06-16T09:59:22Z</time>
      </trkpt>
      <trkpt lat="45.58162" lon="4.58262">
        <ele>622.2</ele>
        <time>2019-06-16T09:59:23Z</time>
      </trkpt>
      <trkpt lat="45.58162" lon="4.58268">
        <ele>621.5</ele>
        <time>2019-06-16T09:59:24Z</time>
      </trkpt>
      <trkpt lat="45.58163" lon="4.58275">
        <ele>620.7</ele>
        <time>2019-06-16T09:59:25Z</time>
      </trkpt>
      <trkpt lat="45.58165" lon="4.58281">
        <ele>620</ele>
        <time>2019-06-16T09:59:26Z</time>
      </trkpt>
      <trkpt lat="45.58167" lon="4.58286">
        <ele>619.3</ele>
        <time>2019-06-16T09:59:27Z</time>
      </trkpt>
      <trkpt lat="45.58169" lon="4.58291">
        <ele>618.8</ele>
        <time>2019-06-16T09:59:28Z</time>
      </trkpt>
      <trkpt lat="45.58169" lon="4.58296">
        <ele>618.1</ele>
        <time>2019-06-16T09:59:29Z</time>
      </trkpt>
      <trkpt lat="45.58169" lon="4.58302">
        <ele>616.2</ele>
        <time>2019-06-16T09:59:30Z</time>
      </trkpt>
      <trkpt lat="45.58168" lon="4.58306">
        <ele>616.1</ele>
        <time>2019-06-16T09:59:31Z</time>
      </trkpt>
      <trkpt lat="45.58167" lon="4.58309">
        <ele>616.1</ele>
        <time>2019-06-16T09:59:32Z</time>
      </trkpt>
      <trkpt lat="45.58162" lon="4.58317">
        <ele>614.6</ele>
        <time>2019-06-16T09:59:34Z</time>
      </trkpt>
      <trkpt lat="45.58159" lon="4.58322">
        <ele>614</ele>
        <time>2019-06-16T09:59:35Z</time>
      </trkpt>
      <trkpt lat="45.58155" lon="4.58326">
        <ele>613.7</ele>
        <time>2019-06-16T09:59:36Z</time>
      </trkpt>
      <trkpt lat="45.58151" lon="4.58331">
        <ele>613.3</ele>
        <time>2019-06-16T09:59:38Z</time>
      </trkpt>
      <trkpt lat="45.58151" lon="4.58332">
        <ele>613.3</ele>
        <time>2019-06-16T10:00:14Z</time>
      </trkpt>
      <trkpt lat="45.5815" lon="4.58334">
        <ele>613.2</ele>
        <time>2019-06-16T10:00:15Z</time>
      </trkpt>
      <trkpt lat="45.58148" lon="4.58335">
        <ele>613.1</ele>
        <time>2019-06-16T10:00:16Z</time>
      </trkpt>
      <trkpt lat="45.58147" lon="4.58336">
        <ele>613</ele>
        <time>2019-06-16T10:00:17Z</time>
      </trkpt>
      <trkpt lat="45.58145" lon="4.58338">
        <ele>612.9</ele>
        <time>2019-06-16T10:00:18Z</time>
      </trkpt>
      <trkpt lat="45.58142" lon="4.58345">
        <ele>612.8</ele>
        <time>2019-06-16T10:00:20Z</time>
      </trkpt>
      <trkpt lat="45.58141" lon="4.58349">
        <ele>612.7</ele>
        <time>2019-06-16T10:00:21Z</time>
      </trkpt>
      <trkpt lat="45.58139" lon="4.58352">
        <ele>612.6</ele>
        <time>2019-06-16T10:00:22Z</time>
      </trkpt>
      <trkpt lat="45.58131" lon="4.58363">
        <ele>612.3</ele>
        <time>2019-06-16T10:00:26Z</time>
      </trkpt>
      <trkpt lat="45.58127" lon="4.58368">
        <ele>612.2</ele>
        <time>2019-06-16T10:00:28Z</time>
      </trkpt>
      <trkpt lat="45.58125" lon="4.58371">
        <ele>612.1</ele>
        <time>2019-06-16T10:00:29Z</time>
      </trkpt>
      <trkpt lat="45.58114" lon="4.58383">
        <ele>611.8</ele>
        <time>2019-06-16T10:00:34Z</time>
      </trkpt>
      <trkpt lat="45.58112" lon="4.58386">
        <ele>611.8</ele>
        <time>2019-06-16T10:00:35Z</time>
      </trkpt>
      <trkpt lat="45.581" lon="4.58401">
        <ele>611.5</ele>
        <time>2019-06-16T10:00:40Z</time>
      </trkpt>
      <trkpt lat="45.58087" lon="4.58416">
        <ele>611.1</ele>
        <time>2019-06-16T10:00:46Z</time>
      </trkpt>
      <trkpt lat="45.58081" lon="4.58436">
        <ele>611</ele>
        <time>2019-06-16T10:00:52Z</time>
      </trkpt>
      <trkpt lat="45.58077" lon="4.58466">
        <ele>610.9</ele>
        <time>2019-06-16T10:01:00Z</time>
      </trkpt>
      <trkpt lat="45.58082" lon="4.58489">
        <ele>609</ele>
        <time>2019-06-16T10:01:05Z</time>
      </trkpt>
      <trkpt lat="45.58085" lon="4.58502">
        <ele>608.1</ele>
        <time>2019-06-16T10:01:07Z</time>
      </trkpt>
      <trkpt lat="45.58086" lon="4.58518">
        <ele>607.3</ele>
        <time>2019-06-16T10:01:09Z</time>
      </trkpt>
      <trkpt lat="45.58085" lon="4.58526">
        <ele>606.9</ele>
        <time>2019-06-16T10:01:10Z</time>
      </trkpt>
      <trkpt lat="45.58084" lon="4.58535">
        <ele>606.2</ele>
        <time>2019-06-16T10:01:11Z</time>
      </trkpt>
      <trkpt lat="45.58084" lon="4.58543">
        <ele>605.5</ele>
        <time>2019-06-16T10:01:12Z</time>
      </trkpt>
      <trkpt lat="45.58082" lon="4.58569">
        <ele>603.8</ele>
        <time>2019-06-16T10:01:15Z</time>
      </trkpt>
      <trkpt lat="45.58081" lon="4.58588">
        <ele>603</ele>
        <time>2019-06-16T10:01:17Z</time>
      </trkpt>
      <trkpt lat="45.58082" lon="4.58608">
        <ele>602</ele>
        <time>2019-06-16T10:01:19Z</time>
      </trkpt>
      <trkpt lat="45.58084" lon="4.58629">
        <ele>601.3</ele>
        <time>2019-06-16T10:01:21Z</time>
      </trkpt>
      <trkpt lat="45.58087" lon="4.58658">
        <ele>600.4</ele>
        <time>2019-06-16T10:01:24Z</time>
      </trkpt>
      <trkpt lat="45.58088" lon="4.58666">
        <ele>599.9</ele>
        <time>2019-06-16T10:01:25Z</time>
      </trkpt>
      <trkpt lat="45.5809" lon="4.5868">
        <ele>598.8</ele>
        <time>2019-06-16T10:01:27Z</time>
      </trkpt>
      <trkpt lat="45.58091" lon="4.58686">
        <ele>598.4</ele>
        <time>2019-06-16T10:01:28Z</time>
      </trkpt>
      <trkpt lat="45.58093" lon="4.58692">
        <ele>597.7</ele>
        <time>2019-06-16T10:01:29Z</time>
      </trkpt>
      <trkpt lat="45.58096" lon="4.58709">
        <ele>595.6</ele>
        <time>2019-06-16T10:01:31Z</time>
      </trkpt>
      <trkpt lat="45.58098" lon="4.58727">
        <ele>593.1</ele>
        <time>2019-06-16T10:01:33Z</time>
      </trkpt>
      <trkpt lat="45.581" lon="4.58736">
        <ele>592</ele>
        <time>2019-06-16T10:01:34Z</time>
      </trkpt>
      <trkpt lat="45.58101" lon="4.58745">
        <ele>590.7</ele>
        <time>2019-06-16T10:01:35Z</time>
      </trkpt>
      <trkpt lat="45.58102" lon="4.58754">
        <ele>589.5</ele>
        <time>2019-06-16T10:01:36Z</time>
      </trkpt>
      <trkpt lat="45.58102" lon="4.58764">
        <ele>588.8</ele>
        <time>2019-06-16T10:01:37Z</time>
      </trkpt>
      <trkpt lat="45.58102" lon="4.58775">
        <ele>588.2</ele>
        <time>2019-06-16T10:01:38Z</time>
      </trkpt>
      <trkpt lat="45.58102" lon="4.58786">
        <ele>587.6</ele>
        <time>2019-06-16T10:01:39Z</time>
      </trkpt>
      <trkpt lat="45.58103" lon="4.58797">
        <ele>586.7</ele>
        <time>2019-06-16T10:01:40Z</time>
      </trkpt>
      <trkpt lat="45.58104" lon="4.58808">
        <ele>586.6</ele>
        <time>2019-06-16T10:01:41Z</time>
      </trkpt>
      <trkpt lat="45.58105" lon="4.58819">
        <ele>586.3</ele>
        <time>2019-06-16T10:01:42Z</time>
      </trkpt>
      <trkpt lat="45.58105" lon="4.5883">
        <ele>586.1</ele>
        <time>2019-06-16T10:01:43Z</time>
      </trkpt>
      <trkpt lat="45.58104" lon="4.5884">
        <ele>585.8</ele>
        <time>2019-06-16T10:01:44Z</time>
      </trkpt>
      <trkpt lat="45.58104" lon="4.5885">
        <ele>585.5</ele>
        <time>2019-06-16T10:01:45Z</time>
      </trkpt>
      <trkpt lat="45.58104" lon="4.5886">
        <ele>585.2</ele>
        <time>2019-06-16T10:01:46Z</time>
      </trkpt>
      <trkpt lat="45.58103" lon="4.58886">
        <ele>584.5</ele>
        <time>2019-06-16T10:01:49Z</time>
      </trkpt>
      <trkpt lat="45.58103" lon="4.58903">
        <ele>584.1</ele>
        <time>2019-06-16T10:01:51Z</time>
      </trkpt>
      <trkpt lat="45.58103" lon="4.58911">
        <ele>583.9</ele>
        <time>2019-06-16T10:01:52Z</time>
      </trkpt>
      <trkpt lat="45.58101" lon="4.58959">
        <ele>583</ele>
        <time>2019-06-16T10:01:58Z</time>
      </trkpt>
      <trkpt lat="45.58096" lon="4.59">
        <ele>583.4</ele>
        <time>2019-06-16T10:02:05Z</time>
      </trkpt>
      <trkpt lat="45.58091" lon="4.59027">
        <ele>583.5</ele>
        <time>2019-06-16T10:02:11Z</time>
      </trkpt>
      <trkpt lat="45.58085" lon="4.59041">
        <ele>583.4</ele>
        <time>2019-06-16T10:02:15Z</time>
      </trkpt>
      <trkpt lat="45.5808" lon="4.59051">
        <ele>583.5</ele>
        <time>2019-06-16T10:02:18Z</time>
      </trkpt>
      <trkpt lat="45.58078" lon="4.59054">
        <ele>583.7</ele>
        <time>2019-06-16T10:02:19Z</time>
      </trkpt>
      <trkpt lat="45.58062" lon="4.5907">
        <ele>584.8</ele>
        <time>2019-06-16T10:02:25Z</time>
      </trkpt>
      <trkpt lat="45.58041" lon="4.59088">
        <ele>585.1</ele>
        <time>2019-06-16T10:02:31Z</time>
      </trkpt>
      <trkpt lat="45.58034" lon="4.59106">
        <ele>585.3</ele>
        <time>2019-06-16T10:02:34Z</time>
      </trkpt>
      <trkpt lat="45.58031" lon="4.59123">
        <ele>585.1</ele>
        <time>2019-06-16T10:02:36Z</time>
      </trkpt>
      <trkpt lat="45.58027" lon="4.59142">
        <ele>583.8</ele>
        <time>2019-06-16T10:02:38Z</time>
      </trkpt>
      <trkpt lat="45.58025" lon="4.59151">
        <ele>582.5</ele>
        <time>2019-06-16T10:02:39Z</time>
      </trkpt>
      <trkpt lat="45.58023" lon="4.59161">
        <ele>581</ele>
        <time>2019-06-16T10:02:40Z</time>
      </trkpt>
      <trkpt lat="45.58019" lon="4.59179">
        <ele>578.2</ele>
        <time>2019-06-16T10:02:42Z</time>
      </trkpt>
      <trkpt lat="45.58016" lon="4.59194">
        <ele>576.2</ele>
        <time>2019-06-16T10:02:44Z</time>
      </trkpt>
      <trkpt lat="45.58014" lon="4.59201">
        <ele>575.4</ele>
        <time>2019-06-16T10:02:45Z</time>
      </trkpt>
      <trkpt lat="45.58013" lon="4.59208">
        <ele>574.5</ele>
        <time>2019-06-16T10:02:46Z</time>
      </trkpt>
      <trkpt lat="45.58008" lon="4.59227">
        <ele>572.6</ele>
        <time>2019-06-16T10:02:48Z</time>
      </trkpt>
      <trkpt lat="45.58004" lon="4.59248">
        <ele>570.8</ele>
        <time>2019-06-16T10:02:50Z</time>
      </trkpt>
      <trkpt lat="45.58001" lon="4.59259">
        <ele>570</ele>
        <time>2019-06-16T10:02:51Z</time>
      </trkpt>
      <trkpt lat="45.57999" lon="4.59268">
        <ele>569.3</ele>
        <time>2019-06-16T10:02:52Z</time>
      </trkpt>
      <trkpt lat="45.57996" lon="4.59277">
        <ele>568.6</ele>
        <time>2019-06-16T10:02:53Z</time>
      </trkpt>
      <trkpt lat="45.57993" lon="4.59285">
        <ele>567.8</ele>
        <time>2019-06-16T10:02:54Z</time>
      </trkpt>
      <trkpt lat="45.5799" lon="4.59293">
        <ele>567</ele>
        <time>2019-06-16T10:02:55Z</time>
      </trkpt>
      <trkpt lat="45.57988" lon="4.593">
        <ele>566.2</ele>
        <time>2019-06-16T10:02:56Z</time>
      </trkpt>
      <trkpt lat="45.57985" lon="4.59307">
        <ele>565.5</ele>
        <time>2019-06-16T10:02:57Z</time>
      </trkpt>
      <trkpt lat="45.57983" lon="4.59313">
        <ele>565</ele>
        <time>2019-06-16T10:02:58Z</time>
      </trkpt>
      <trkpt lat="45.57981" lon="4.59317">
        <ele>564.6</ele>
        <time>2019-06-16T10:02:59Z</time>
      </trkpt>
      <trkpt lat="45.57977" lon="4.5932">
        <ele>564.2</ele>
        <time>2019-06-16T10:03:00Z</time>
      </trkpt>
      <trkpt lat="45.57973" lon="4.59319">
        <ele>563.8</ele>
        <time>2019-06-16T10:03:01Z</time>
      </trkpt>
      <trkpt lat="45.57969" lon="4.59318">
        <ele>563.4</ele>
        <time>2019-06-16T10:03:02Z</time>
      </trkpt>
      <trkpt lat="45.57965" lon="4.59321">
        <ele>562.6</ele>
        <time>2019-06-16T10:03:04Z</time>
      </trkpt>
      <trkpt lat="45.57966" lon="4.59329">
        <ele>562.3</ele>
        <time>2019-06-16T10:03:06Z</time>
      </trkpt>
      <trkpt lat="45.57968" lon="4.59333">
        <ele>562.1</ele>
        <time>2019-06-16T10:03:07Z</time>
      </trkpt>
      <trkpt lat="45.5797" lon="4.59337">
        <ele>561.8</ele>
        <time>2019-06-16T10:03:08Z</time>
      </trkpt>
      <trkpt lat="45.57975" lon="4.59347">
        <ele>561.1</ele>
        <time>2019-06-16T10:03:10Z</time>
      </trkpt>
      <trkpt lat="45.5798" lon="4.59359">
        <ele>560.3</ele>
        <time>2019-06-16T10:03:12Z</time>
      </trkpt>
      <trkpt lat="45.57985" lon="4.59373">
        <ele>559.4</ele>
        <time>2019-06-16T10:03:14Z</time>
      </trkpt>
      <trkpt lat="45.57995" lon="4.59395">
        <ele>557.8</ele>
        <time>2019-06-16T10:03:17Z</time>
      </trkpt>
      <trkpt lat="45.57998" lon="4.59403">
        <ele>557.2</ele>
        <time>2019-06-16T10:03:18Z</time>
      </trkpt>
      <trkpt lat="45.5801" lon="4.59427">
        <ele>555.3</ele>
        <time>2019-06-16T10:03:21Z</time>
      </trkpt>
      <trkpt lat="45.58024" lon="4.59451">
        <ele>553.2</ele>
        <time>2019-06-16T10:03:24Z</time>
      </trkpt>
      <trkpt lat="45.58035" lon="4.59468">
        <ele>551.7</ele>
        <time>2019-06-16T10:03:26Z</time>
      </trkpt>
      <trkpt lat="45.58048" lon="4.59482">
        <ele>550.1</ele>
        <time>2019-06-16T10:03:28Z</time>
      </trkpt>
      <trkpt lat="45.58056" lon="4.59488">
        <ele>549.1</ele>
        <time>2019-06-16T10:03:29Z</time>
      </trkpt>
      <trkpt lat="45.58073" lon="4.59494">
        <ele>547.8</ele>
        <time>2019-06-16T10:03:31Z</time>
      </trkpt>
      <trkpt lat="45.58082" lon="4.59496">
        <ele>547.3</ele>
        <time>2019-06-16T10:03:32Z</time>
      </trkpt>
      <trkpt lat="45.58091" lon="4.59497">
        <ele>546.7</ele>
        <time>2019-06-16T10:03:33Z</time>
      </trkpt>
      <trkpt lat="45.581" lon="4.59498">
        <ele>546.2</ele>
        <time>2019-06-16T10:03:34Z</time>
      </trkpt>
      <trkpt lat="45.58119" lon="4.59497">
        <ele>545.2</ele>
        <time>2019-06-16T10:03:36Z</time>
      </trkpt>
      <trkpt lat="45.58129" lon="4.59497">
        <ele>544.6</ele>
        <time>2019-06-16T10:03:37Z</time>
      </trkpt>
      <trkpt lat="45.58138" lon="4.59497">
        <ele>544</ele>
        <time>2019-06-16T10:03:38Z</time>
      </trkpt>
      <trkpt lat="45.58157" lon="4.59497">
        <ele>542.8</ele>
        <time>2019-06-16T10:03:40Z</time>
      </trkpt>
      <trkpt lat="45.58173" lon="4.59497">
        <ele>541.9</ele>
        <time>2019-06-16T10:03:42Z</time>
      </trkpt>
      <trkpt lat="45.58181" lon="4.59496">
        <ele>541.5</ele>
        <time>2019-06-16T10:03:43Z</time>
      </trkpt>
      <trkpt lat="45.58189" lon="4.59494">
        <ele>541.1</ele>
        <time>2019-06-16T10:03:44Z</time>
      </trkpt>
      <trkpt lat="45.58195" lon="4.59491">
        <ele>540.7</ele>
        <time>2019-06-16T10:03:45Z</time>
      </trkpt>
      <trkpt lat="45.58207" lon="4.59485">
        <ele>540.1</ele>
        <time>2019-06-16T10:03:47Z</time>
      </trkpt>
      <trkpt lat="45.58213" lon="4.5948">
        <ele>539.8</ele>
        <time>2019-06-16T10:03:48Z</time>
      </trkpt>
      <trkpt lat="45.58219" lon="4.59476">
        <ele>539.6</ele>
        <time>2019-06-16T10:03:49Z</time>
      </trkpt>
      <trkpt lat="45.5823" lon="4.59466">
        <ele>539.2</ele>
        <time>2019-06-16T10:03:51Z</time>
      </trkpt>
      <trkpt lat="45.58235" lon="4.5946">
        <ele>539</ele>
        <time>2019-06-16T10:03:52Z</time>
      </trkpt>
      <trkpt lat="45.58246" lon="4.59444">
        <ele>537.9</ele>
        <time>2019-06-16T10:03:54Z</time>
      </trkpt>
      <trkpt lat="45.58263" lon="4.59422">
        <ele>537</ele>
        <time>2019-06-16T10:03:57Z</time>
      </trkpt>
      <trkpt lat="45.58274" lon="4.59406">
        <ele>536.4</ele>
        <time>2019-06-16T10:03:59Z</time>
      </trkpt>
      <trkpt lat="45.5828" lon="4.59398">
        <ele>536.2</ele>
        <time>2019-06-16T10:04:00Z</time>
      </trkpt>
      <trkpt lat="45.58297" lon="4.59374">
        <ele>535.1</ele>
        <time>2019-06-16T10:04:03Z</time>
      </trkpt>
      <trkpt lat="45.58316" lon="4.59349">
        <ele>533.1</ele>
        <time>2019-06-16T10:04:06Z</time>
      </trkpt>
      <trkpt lat="45.58328" lon="4.59332">
        <ele>532.9</ele>
        <time>2019-06-16T10:04:08Z</time>
      </trkpt>
      <trkpt lat="45.5834" lon="4.59314">
        <ele>533.4</ele>
        <time>2019-06-16T10:04:10Z</time>
      </trkpt>
      <trkpt lat="45.58351" lon="4.59295">
        <ele>533.8</ele>
        <time>2019-06-16T10:04:12Z</time>
      </trkpt>
      <trkpt lat="45.58362" lon="4.59276">
        <ele>534.1</ele>
        <time>2019-06-16T10:04:14Z</time>
      </trkpt>
      <trkpt lat="45.58373" lon="4.59255">
        <ele>534.5</ele>
        <time>2019-06-16T10:04:16Z</time>
      </trkpt>
      <trkpt lat="45.5838" lon="4.59231">
        <ele>534.8</ele>
        <time>2019-06-16T10:04:18Z</time>
      </trkpt>
      <trkpt lat="45.58385" lon="4.59204">
        <ele>535.2</ele>
        <time>2019-06-16T10:04:20Z</time>
      </trkpt>
      <trkpt lat="45.58387" lon="4.59176">
        <ele>535.5</ele>
        <time>2019-06-16T10:04:22Z</time>
      </trkpt>
      <trkpt lat="45.58387" lon="4.59162">
        <ele>535.7</ele>
        <time>2019-06-16T10:04:23Z</time>
      </trkpt>
      <trkpt lat="45.58386" lon="4.59148">
        <ele>535.8</ele>
        <time>2019-06-16T10:04:24Z</time>
      </trkpt>
      <trkpt lat="45.58385" lon="4.59119">
        <ele>536.1</ele>
        <time>2019-06-16T10:04:26Z</time>
      </trkpt>
      <trkpt lat="45.58383" lon="4.5909">
        <ele>536.4</ele>
        <time>2019-06-16T10:04:28Z</time>
      </trkpt>
      <trkpt lat="45.58378" lon="4.59061">
        <ele>536.7</ele>
        <time>2019-06-16T10:04:30Z</time>
      </trkpt>
      <trkpt lat="45.58371" lon="4.59033">
        <ele>537</ele>
        <time>2019-06-16T10:04:32Z</time>
      </trkpt>
      <trkpt lat="45.58364" lon="4.59006">
        <ele>537.2</ele>
        <time>2019-06-16T10:04:34Z</time>
      </trkpt>
      <trkpt lat="45.58357" lon="4.58977">
        <ele>537.4</ele>
        <time>2019-06-16T10:04:36Z</time>
      </trkpt>
      <trkpt lat="45.58349" lon="4.58949">
        <ele>537.4</ele>
        <time>2019-06-16T10:04:38Z</time>
      </trkpt>
      <trkpt lat="45.58345" lon="4.58934">
        <ele>537.4</ele>
        <time>2019-06-16T10:04:39Z</time>
      </trkpt>
      <trkpt lat="45.58341" lon="4.5892">
        <ele>537.3</ele>
        <time>2019-06-16T10:04:40Z</time>
      </trkpt>
      <trkpt lat="45.58333" lon="4.58889">
        <ele>535.1</ele>
        <time>2019-06-16T10:04:42Z</time>
      </trkpt>
      <trkpt lat="45.58327" lon="4.58863">
        <ele>530</ele>
        <time>2019-06-16T10:04:44Z</time>
      </trkpt>
      <trkpt lat="45.58325" lon="4.58852">
        <ele>527.1</ele>
        <time>2019-06-16T10:04:45Z</time>
      </trkpt>
      <trkpt lat="45.58325" lon="4.58841">
        <ele>527.1</ele>
        <time>2019-06-16T10:04:46Z</time>
      </trkpt>
      <trkpt lat="45.58324" lon="4.58833">
        <ele>527.1</ele>
        <time>2019-06-16T10:04:47Z</time>
      </trkpt>
      <trkpt lat="45.58321" lon="4.58819">
        <ele>527.2</ele>
        <time>2019-06-16T10:04:50Z</time>
      </trkpt>
      <trkpt lat="45.58316" lon="4.58826">
        <ele>527.2</ele>
        <time>2019-06-16T10:04:54Z</time>
      </trkpt>
      <trkpt lat="45.58315" lon="4.58831">
        <ele>527.2</ele>
        <time>2019-06-16T10:04:56Z</time>
      </trkpt>
      <trkpt lat="45.58373" lon="4.58857">
        <ele>526.2</ele>
        <time>2019-06-16T10:04:58Z</time>
      </trkpt>
      <trkpt lat="45.58403" lon="4.5887">
        <ele>524.9</ele>
        <time>2019-06-16T10:04:59Z</time>
      </trkpt>
      <trkpt lat="45.58408" lon="4.58873">
        <ele>524.7</ele>
        <time>2019-06-16T10:05:00Z</time>
      </trkpt>
      <trkpt lat="45.58417" lon="4.5888">
        <ele>524.2</ele>
        <time>2019-06-16T10:05:02Z</time>
      </trkpt>
      <trkpt lat="45.58431" lon="4.58888">
        <ele>523.3</ele>
        <time>2019-06-16T10:05:05Z</time>
      </trkpt>
      <trkpt lat="45.58451" lon="4.58905">
        <ele>522.4</ele>
        <time>2019-06-16T10:05:10Z</time>
      </trkpt>
      <trkpt lat="45.5847" lon="4.58921">
        <ele>521.5</ele>
        <time>2019-06-16T10:05:15Z</time>
      </trkpt>
      <trkpt lat="45.58488" lon="4.58937">
        <ele>520.6</ele>
        <time>2019-06-16T10:05:20Z</time>
      </trkpt>
      <trkpt lat="45.58506" lon="4.58952">
        <ele>519.9</ele>
        <time>2019-06-16T10:05:25Z</time>
      </trkpt>
      <trkpt lat="45.58538" lon="4.58982">
        <ele>518.7</ele>
        <time>2019-06-16T10:05:34Z</time>
      </trkpt>
      <trkpt lat="45.58541" lon="4.58986">
        <ele>518.6</ele>
        <time>2019-06-16T10:05:35Z</time>
      </trkpt>
      <trkpt lat="45.58558" lon="4.5901">
        <ele>517.5</ele>
        <time>2019-06-16T10:05:41Z</time>
      </trkpt>
      <trkpt lat="45.58569" lon="4.59026">
        <ele>516.7</ele>
        <time>2019-06-16T10:05:45Z</time>
      </trkpt>
      <trkpt lat="45.58577" lon="4.59038">
        <ele>516.3</ele>
        <time>2019-06-16T10:05:48Z</time>
      </trkpt>
      <trkpt lat="45.58599" lon="4.59069">
        <ele>515.2</ele>
        <time>2019-06-16T10:05:56Z</time>
      </trkpt>
      <trkpt lat="45.58605" lon="4.59075">
        <ele>514.8</ele>
        <time>2019-06-16T10:05:58Z</time>
      </trkpt>
      <trkpt lat="45.58631" lon="4.59094">
        <ele>513.7</ele>
        <time>2019-06-16T10:06:06Z</time>
      </trkpt>
      <trkpt lat="45.58643" lon="4.59091">
        <ele>514.6</ele>
        <time>2019-06-16T10:06:10Z</time>
      </trkpt>
      <trkpt lat="45.58652" lon="4.59086">
        <ele>515.6</ele>
        <time>2019-06-16T10:06:15Z</time>
      </trkpt>
      <trkpt lat="45.58662" lon="4.59072">
        <ele>516.7</ele>
        <time>2019-06-16T10:06:21Z</time>
      </trkpt>
      <trkpt lat="45.58672" lon="4.59059">
        <ele>517.8</ele>
        <time>2019-06-16T10:06:27Z</time>
      </trkpt>
      <trkpt lat="45.58675" lon="4.59053">
        <ele>518.1</ele>
        <time>2019-06-16T10:06:29Z</time>
      </trkpt>
      <trkpt lat="45.58685" lon="4.59039">
        <ele>519.2</ele>
        <time>2019-06-16T10:06:35Z</time>
      </trkpt>
      <trkpt lat="45.58687" lon="4.59037">
        <ele>519.4</ele>
        <time>2019-06-16T10:06:36Z</time>
      </trkpt>
      <trkpt lat="45.58693" lon="4.59029">
        <ele>520</ele>
        <time>2019-06-16T10:06:40Z</time>
      </trkpt>
      <trkpt lat="45.58702" lon="4.59016">
        <ele>520.9</ele>
        <time>2019-06-16T10:06:46Z</time>
      </trkpt>
      <trkpt lat="45.58708" lon="4.59007">
        <ele>521.7</ele>
        <time>2019-06-16T10:06:50Z</time>
      </trkpt>
      <trkpt lat="45.58715" lon="4.58994">
        <ele>523</ele>
        <time>2019-06-16T10:06:56Z</time>
      </trkpt>
      <trkpt lat="45.58717" lon="4.58988">
        <ele>523.6</ele>
        <time>2019-06-16T10:06:59Z</time>
      </trkpt>
      <trkpt lat="45.58719" lon="4.58983">
        <ele>524.2</ele>
        <time>2019-06-16T10:07:02Z</time>
      </trkpt>
      <trkpt lat="45.58719" lon="4.58981">
        <ele>524.4</ele>
        <time>2019-06-16T10:07:03Z</time>
      </trkpt>
      <trkpt lat="45.58721" lon="4.58972">
        <ele>525.4</ele>
        <time>2019-06-16T10:07:08Z</time>
      </trkpt>
      <trkpt lat="45.58722" lon="4.5897">
        <ele>525.6</ele>
        <time>2019-06-16T10:07:09Z</time>
      </trkpt>
      <trkpt lat="45.58725" lon="4.58963">
        <ele>526.5</ele>
        <time>2019-06-16T10:07:13Z</time>
      </trkpt>
      <trkpt lat="45.58726" lon="4.58958">
        <ele>527.1</ele>
        <time>2019-06-16T10:07:16Z</time>
      </trkpt>
      <trkpt lat="45.58728" lon="4.58956">
        <ele>527.3</ele>
        <time>2019-06-16T10:07:17Z</time>
      </trkpt>
      <trkpt lat="45.58731" lon="4.58951">
        <ele>528</ele>
        <time>2019-06-16T10:07:20Z</time>
      </trkpt>
      <trkpt lat="45.58734" lon="4.58946">
        <ele>528.7</ele>
        <time>2019-06-16T10:07:24Z</time>
      </trkpt>
      <trkpt lat="45.58737" lon="4.58941">
        <ele>529.3</ele>
        <time>2019-06-16T10:07:28Z</time>
      </trkpt>
      <trkpt lat="45.5874" lon="4.58936">
        <ele>529.9</ele>
        <time>2019-06-16T10:07:33Z</time>
      </trkpt>
      <trkpt lat="45.58743" lon="4.58933">
        <ele>530.4</ele>
        <time>2019-06-16T10:07:37Z</time>
      </trkpt>
      <trkpt lat="45.58744" lon="4.58932">
        <ele>530.5</ele>
        <time>2019-06-16T10:07:38Z</time>
      </trkpt>
      <trkpt lat="45.58747" lon="4.58929">
        <ele>530.9</ele>
        <time>2019-06-16T10:07:41Z</time>
      </trkpt>
      <trkpt lat="45.58752" lon="4.58925">
        <ele>531.3</ele>
        <time>2019-06-16T10:07:46Z</time>
      </trkpt>
      <trkpt lat="45.58756" lon="4.58921">
        <ele>531.6</ele>
        <time>2019-06-16T10:07:50Z</time>
      </trkpt>
      <trkpt lat="45.58758" lon="4.58915">
        <ele>531.9</ele>
        <time>2019-06-16T10:10:43Z</time>
      </trkpt>
      <trkpt lat="45.58761" lon="4.5891">
        <ele>532.3</ele>
        <time>2019-06-16T10:10:46Z</time>
      </trkpt>
      <trkpt lat="45.5877" lon="4.58898">
        <ele>533.4</ele>
        <time>2019-06-16T10:10:53Z</time>
      </trkpt>
      <trkpt lat="45.58775" lon="4.58888">
        <ele>534</ele>
        <time>2019-06-16T10:10:58Z</time>
      </trkpt>
      <trkpt lat="45.58777" lon="4.58882">
        <ele>534.3</ele>
        <time>2019-06-16T10:11:01Z</time>
      </trkpt>
      <trkpt lat="45.58779" lon="4.58873">
        <ele>534.8</ele>
        <time>2019-06-16T10:11:06Z</time>
      </trkpt>
      <trkpt lat="45.5878" lon="4.58871">
        <ele>535</ele>
        <time>2019-06-16T10:11:07Z</time>
      </trkpt>
      <trkpt lat="45.58782" lon="4.58855">
        <ele>536</ele>
        <time>2019-06-16T10:11:14Z</time>
      </trkpt>
      <trkpt lat="45.58786" lon="4.5884">
        <ele>536.9</ele>
        <time>2019-06-16T10:11:21Z</time>
      </trkpt>
      <trkpt lat="45.58787" lon="4.58838">
        <ele>537.1</ele>
        <time>2019-06-16T10:11:22Z</time>
      </trkpt>
      <trkpt lat="45.58789" lon="4.58828">
        <ele>537.7</ele>
        <time>2019-06-16T10:11:26Z</time>
      </trkpt>
      <trkpt lat="45.58789" lon="4.58823">
        <ele>538</ele>
        <time>2019-06-16T10:11:28Z</time>
      </trkpt>
      <trkpt lat="45.5879" lon="4.5882">
        <ele>538.1</ele>
        <time>2019-06-16T10:11:29Z</time>
      </trkpt>
      <trkpt lat="45.58792" lon="4.58808">
        <ele>538.9</ele>
        <time>2019-06-16T10:11:34Z</time>
      </trkpt>
      <trkpt lat="45.58795" lon="4.58794">
        <ele>539.6</ele>
        <time>2019-06-16T10:11:39Z</time>
      </trkpt>
      <trkpt lat="45.58796" lon="4.58785">
        <ele>540.1</ele>
        <time>2019-06-16T10:11:42Z</time>
      </trkpt>
      <trkpt lat="45.58799" lon="4.58777">
        <ele>540.5</ele>
        <time>2019-06-16T10:11:45Z</time>
      </trkpt>
      <trkpt lat="45.588" lon="4.5877">
        <ele>540.9</ele>
        <time>2019-06-16T10:11:48Z</time>
      </trkpt>
      <trkpt lat="45.58802" lon="4.58759">
        <ele>541.4</ele>
        <time>2019-06-16T10:11:52Z</time>
      </trkpt>
      <trkpt lat="45.58803" lon="4.58751">
        <ele>541.8</ele>
        <time>2019-06-16T10:11:55Z</time>
      </trkpt>
      <trkpt lat="45.58804" lon="4.58748">
        <ele>542</ele>
        <time>2019-06-16T10:11:56Z</time>
      </trkpt>
      <trkpt lat="45.58811" lon="4.58724">
        <ele>543.2</ele>
        <time>2019-06-16T10:12:03Z</time>
      </trkpt>
      <trkpt lat="45.58823" lon="4.58701">
        <ele>544</ele>
        <time>2019-06-16T10:12:08Z</time>
      </trkpt>
      <trkpt lat="45.58839" lon="4.58683">
        <ele>544.5</ele>
        <time>2019-06-16T10:12:11Z</time>
      </trkpt>
      <trkpt lat="45.58844" lon="4.58675">
        <ele>544.7</ele>
        <time>2019-06-16T10:12:12Z</time>
      </trkpt>
      <trkpt lat="45.58854" lon="4.58666">
        <ele>544.9</ele>
        <time>2019-06-16T10:12:14Z</time>
      </trkpt>
      <trkpt lat="45.58861" lon="4.58667">
        <ele>545</ele>
        <time>2019-06-16T10:12:15Z</time>
      </trkpt>
      <trkpt lat="45.58883" lon="4.58678">
        <ele>545.2</ele>
        <time>2019-06-16T10:12:19Z</time>
      </trkpt>
      <trkpt lat="45.58892" lon="4.58679">
        <ele>545.2</ele>
        <time>2019-06-16T10:12:21Z</time>
      </trkpt>
      <trkpt lat="45.58902" lon="4.58677">
        <ele>545.1</ele>
        <time>2019-06-16T10:12:24Z</time>
      </trkpt>
      <trkpt lat="45.58923" lon="4.58669">
        <ele>545.1</ele>
        <time>2019-06-16T10:12:30Z</time>
      </trkpt>
      <trkpt lat="45.58949" lon="4.5865">
        <ele>545.2</ele>
        <time>2019-06-16T10:12:35Z</time>
      </trkpt>
      <trkpt lat="45.58968" lon="4.58622">
        <ele>545</ele>
        <time>2019-06-16T10:12:39Z</time>
      </trkpt>
      <trkpt lat="45.58972" lon="4.58616">
        <ele>544.8</ele>
        <time>2019-06-16T10:12:40Z</time>
      </trkpt>
      <trkpt lat="45.58995" lon="4.58578">
        <ele>543.9</ele>
        <time>2019-06-16T10:12:46Z</time>
      </trkpt>
      <trkpt lat="45.59003" lon="4.58566">
        <ele>543.5</ele>
        <time>2019-06-16T10:12:48Z</time>
      </trkpt>
      <trkpt lat="45.59011" lon="4.58548">
        <ele>543.2</ele>
        <time>2019-06-16T10:12:51Z</time>
      </trkpt>
      <trkpt lat="45.59016" lon="4.58538">
        <ele>543.1</ele>
        <time>2019-06-16T10:12:53Z</time>
      </trkpt>
      <trkpt lat="45.59021" lon="4.58522">
        <ele>543.1</ele>
        <time>2019-06-16T10:12:57Z</time>
      </trkpt>
      <trkpt lat="45.59026" lon="4.585">
        <ele>543.3</ele>
        <time>2019-06-16T10:13:03Z</time>
      </trkpt>
      <trkpt lat="45.59032" lon="4.58472">
        <ele>544</ele>
        <time>2019-06-16T10:13:11Z</time>
      </trkpt>
      <trkpt lat="45.59035" lon="4.58444">
        <ele>545.2</ele>
        <time>2019-06-16T10:13:19Z</time>
      </trkpt>
      <trkpt lat="45.59039" lon="4.58427">
        <ele>546.2</ele>
        <time>2019-06-16T10:13:26Z</time>
      </trkpt>
      <trkpt lat="45.59041" lon="4.5842">
        <ele>546.6</ele>
        <time>2019-06-16T10:13:28Z</time>
      </trkpt>
      <trkpt lat="45.59047" lon="4.58409">
        <ele>547.5</ele>
        <time>2019-06-16T10:13:31Z</time>
      </trkpt>
      <trkpt lat="45.59047" lon="4.58404">
        <ele>547.9</ele>
        <time>2019-06-16T10:13:32Z</time>
      </trkpt>
      <trkpt lat="45.59049" lon="4.58393">
        <ele>548.8</ele>
        <time>2019-06-16T10:13:34Z</time>
      </trkpt>
      <trkpt lat="45.59055" lon="4.58381">
        <ele>550.5</ele>
        <time>2019-06-16T10:13:38Z</time>
      </trkpt>
      <trkpt lat="45.59057" lon="4.58381">
        <ele>550.4</ele>
        <time>2019-06-16T10:13:39Z</time>
      </trkpt>
      <trkpt lat="45.59066" lon="4.58386">
        <ele>550.1</ele>
        <time>2019-06-16T10:13:44Z</time>
      </trkpt>
      <trkpt lat="45.59081" lon="4.58384">
        <ele>549.6</ele>
        <time>2019-06-16T10:13:49Z</time>
      </trkpt>
      <trkpt lat="45.59103" lon="4.58365">
        <ele>548.5</ele>
        <time>2019-06-16T10:13:53Z</time>
      </trkpt>
      <trkpt lat="45.5912" lon="4.58349">
        <ele>547.4</ele>
        <time>2019-06-16T10:13:56Z</time>
      </trkpt>
      <trkpt lat="45.59125" lon="4.58347">
        <ele>547</ele>
        <time>2019-06-16T10:13:57Z</time>
      </trkpt>
      <trkpt lat="45.5914" lon="4.58353">
        <ele>546.3</ele>
        <time>2019-06-16T10:14:00Z</time>
      </trkpt>
      <trkpt lat="45.59148" lon="4.58365">
        <ele>545.9</ele>
        <time>2019-06-16T10:14:03Z</time>
      </trkpt>
      <trkpt lat="45.59152" lon="4.58373">
        <ele>545.8</ele>
        <time>2019-06-16T10:14:05Z</time>
      </trkpt>
      <trkpt lat="45.59154" lon="4.58378">
        <ele>545.7</ele>
        <time>2019-06-16T10:14:06Z</time>
      </trkpt>
      <trkpt lat="45.59156" lon="4.58384">
        <ele>545.6</ele>
        <time>2019-06-16T10:14:07Z</time>
      </trkpt>
      <trkpt lat="45.59165" lon="4.58406">
        <ele>545.3</ele>
        <time>2019-06-16T10:14:11Z</time>
      </trkpt>
      <trkpt lat="45.5917" lon="4.58416">
        <ele>545.1</ele>
        <time>2019-06-16T10:14:13Z</time>
      </trkpt>
      <trkpt lat="45.59181" lon="4.58431">
        <ele>545</ele>
        <time>2019-06-16T10:14:17Z</time>
      </trkpt>
      <trkpt lat="45.59195" lon="4.58432">
        <ele>544.8</ele>
        <time>2019-06-16T10:14:21Z</time>
      </trkpt>
      <trkpt lat="45.59215" lon="4.58423">
        <ele>544.8</ele>
        <time>2019-06-16T10:14:26Z</time>
      </trkpt>
      <trkpt lat="45.5922" lon="4.58421">
        <ele>544.8</ele>
        <time>2019-06-16T10:14:27Z</time>
      </trkpt>
      <trkpt lat="45.59236" lon="4.58411">
        <ele>544.8</ele>
        <time>2019-06-16T10:14:31Z</time>
      </trkpt>
      <trkpt lat="45.59252" lon="4.58406">
        <ele>544.7</ele>
        <time>2019-06-16T10:14:35Z</time>
      </trkpt>
      <trkpt lat="45.59262" lon="4.58405">
        <ele>544.5</ele>
        <time>2019-06-16T10:14:37Z</time>
      </trkpt>
      <trkpt lat="45.59287" lon="4.58402">
        <ele>544</ele>
        <time>2019-06-16T10:14:40Z</time>
      </trkpt>
      <trkpt lat="45.59314" lon="4.58396">
        <ele>542.8</ele>
        <time>2019-06-16T10:14:44Z</time>
      </trkpt>
      <trkpt lat="45.59328" lon="4.58393">
        <ele>542</ele>
        <time>2019-06-16T10:14:46Z</time>
      </trkpt>
      <trkpt lat="45.59343" lon="4.58395">
        <ele>540.9</ele>
        <time>2019-06-16T10:14:48Z</time>
      </trkpt>
      <trkpt lat="45.59351" lon="4.58398">
        <ele>540.3</ele>
        <time>2019-06-16T10:14:49Z</time>
      </trkpt>
      <trkpt lat="45.59357" lon="4.58401">
        <ele>539.8</ele>
        <time>2019-06-16T10:14:50Z</time>
      </trkpt>
      <trkpt lat="45.59363" lon="4.58402">
        <ele>539.3</ele>
        <time>2019-06-16T10:14:51Z</time>
      </trkpt>
      <trkpt lat="45.5937" lon="4.58403">
        <ele>538.8</ele>
        <time>2019-06-16T10:14:52Z</time>
      </trkpt>
      <trkpt lat="45.59377" lon="4.58403">
        <ele>538.3</ele>
        <time>2019-06-16T10:14:53Z</time>
      </trkpt>
      <trkpt lat="45.59384" lon="4.58402">
        <ele>537.8</ele>
        <time>2019-06-16T10:14:54Z</time>
      </trkpt>
      <trkpt lat="45.59398" lon="4.584">
        <ele>536.5</ele>
        <time>2019-06-16T10:14:56Z</time>
      </trkpt>
      <trkpt lat="45.59425" lon="4.58402">
        <ele>535.3</ele>
        <time>2019-06-16T10:15:01Z</time>
      </trkpt>
      <trkpt lat="45.59429" lon="4.58402">
        <ele>535.4</ele>
        <time>2019-06-16T10:15:03Z</time>
      </trkpt>
      <trkpt lat="45.59432" lon="4.58403">
        <ele>535.6</ele>
        <time>2019-06-16T10:15:05Z</time>
      </trkpt>
      <trkpt lat="45.59435" lon="4.58405">
        <ele>535.6</ele>
        <time>2019-06-16T10:15:07Z</time>
      </trkpt>
      <trkpt lat="45.59439" lon="4.58411">
        <ele>535.7</ele>
        <time>2019-06-16T10:15:11Z</time>
      </trkpt>
      <trkpt lat="45.59446" lon="4.5842">
        <ele>536</ele>
        <time>2019-06-16T10:15:19Z</time>
      </trkpt>
      <trkpt lat="45.59452" lon="4.58416">
        <ele>536.2</ele>
        <time>2019-06-16T10:15:23Z</time>
      </trkpt>
      <trkpt lat="45.59454" lon="4.58413">
        <ele>536.3</ele>
        <time>2019-06-16T10:15:25Z</time>
      </trkpt>
      <trkpt lat="45.59466" lon="4.584">
        <ele>537</ele>
        <time>2019-06-16T10:15:33Z</time>
      </trkpt>
      <trkpt lat="45.59481" lon="4.58384">
        <ele>538.3</ele>
        <time>2019-06-16T10:15:42Z</time>
      </trkpt>
      <trkpt lat="45.59484" lon="4.58381">
        <ele>538.7</ele>
        <time>2019-06-16T10:15:44Z</time>
      </trkpt>
      <trkpt lat="45.59496" lon="4.58369">
        <ele>540.4</ele>
        <time>2019-06-16T10:15:52Z</time>
      </trkpt>
      <trkpt lat="45.59505" lon="4.5836">
        <ele>541.9</ele>
        <time>2019-06-16T10:15:58Z</time>
      </trkpt>
      <trkpt lat="45.59515" lon="4.5835">
        <ele>543.3</ele>
        <time>2019-06-16T10:16:05Z</time>
      </trkpt>
      <trkpt lat="45.59521" lon="4.58343">
        <ele>544.2</ele>
        <time>2019-06-16T10:16:10Z</time>
      </trkpt>
      <trkpt lat="45.59525" lon="4.58339">
        <ele>544.8</ele>
        <time>2019-06-16T10:16:13Z</time>
      </trkpt>
      <trkpt lat="45.59531" lon="4.58332">
        <ele>545.6</ele>
        <time>2019-06-16T10:16:18Z</time>
      </trkpt>
      <trkpt lat="45.59533" lon="4.58331">
        <ele>545.8</ele>
        <time>2019-06-16T10:16:19Z</time>
      </trkpt>
      <trkpt lat="45.59536" lon="4.58327">
        <ele>546.3</ele>
        <time>2019-06-16T10:16:22Z</time>
      </trkpt>
      <trkpt lat="45.59543" lon="4.58318">
        <ele>547.3</ele>
        <time>2019-06-16T10:16:28Z</time>
      </trkpt>
      <trkpt lat="45.59545" lon="4.58316">
        <ele>547.7</ele>
        <time>2019-06-16T10:16:30Z</time>
      </trkpt>
      <trkpt lat="45.59551" lon="4.58305">
        <ele>548.6</ele>
        <time>2019-06-16T10:16:36Z</time>
      </trkpt>
      <trkpt lat="45.59552" lon="4.58303">
        <ele>548.8</ele>
        <time>2019-06-16T10:16:37Z</time>
      </trkpt>
      <trkpt lat="45.59556" lon="4.5829">
        <ele>549.6</ele>
        <time>2019-06-16T10:16:44Z</time>
      </trkpt>
      <trkpt lat="45.5956" lon="4.58278">
        <ele>550.1</ele>
        <time>2019-06-16T10:16:50Z</time>
      </trkpt>
      <trkpt lat="45.59566" lon="4.58263">
        <ele>550.6</ele>
        <time>2019-06-16T10:16:57Z</time>
      </trkpt>
      <trkpt lat="45.59569" lon="4.58256">
        <ele>550.8</ele>
        <time>2019-06-16T10:17:01Z</time>
      </trkpt>
      <trkpt lat="45.59572" lon="4.58251">
        <ele>551.6</ele>
        <time>2019-06-16T10:17:04Z</time>
      </trkpt>
      <trkpt lat="45.59578" lon="4.58247">
        <ele>552.7</ele>
        <time>2019-06-16T10:17:08Z</time>
      </trkpt>
      <trkpt lat="45.59581" lon="4.58246">
        <ele>553.2</ele>
        <time>2019-06-16T10:17:10Z</time>
      </trkpt>
      <trkpt lat="45.59589" lon="4.58244">
        <ele>554.5</ele>
        <time>2019-06-16T10:17:15Z</time>
      </trkpt>
      <trkpt lat="45.5959" lon="4.58243">
        <ele>554.7</ele>
        <time>2019-06-16T10:17:16Z</time>
      </trkpt>
      <trkpt lat="45.59592" lon="4.58241">
        <ele>555.2</ele>
        <time>2019-06-16T10:17:18Z</time>
      </trkpt>
      <trkpt lat="45.59596" lon="4.58238">
        <ele>555.8</ele>
        <time>2019-06-16T10:17:22Z</time>
      </trkpt>
      <trkpt lat="45.59598" lon="4.58236">
        <ele>556.3</ele>
        <time>2019-06-16T10:17:24Z</time>
      </trkpt>
      <trkpt lat="45.59599" lon="4.58235">
        <ele>556.4</ele>
        <time>2019-06-16T10:17:25Z</time>
      </trkpt>
      <trkpt lat="45.596" lon="4.58234">
        <ele>556.7</ele>
        <time>2019-06-16T10:17:26Z</time>
      </trkpt>
      <trkpt lat="45.59604" lon="4.58234">
        <ele>557.3</ele>
        <time>2019-06-16T10:17:29Z</time>
      </trkpt>
      <trkpt lat="45.59605" lon="4.58236">
        <ele>557.6</ele>
        <time>2019-06-16T10:17:30Z</time>
      </trkpt>
      <trkpt lat="45.59619" lon="4.58328">
        <ele>566.7</ele>
        <time>2019-06-16T10:19:10Z</time>
      </trkpt>
      <trkpt lat="45.59618" lon="4.58331">
        <ele>566.6</ele>
        <time>2019-06-16T10:19:11Z</time>
      </trkpt>
      <trkpt lat="45.59607" lon="4.58353">
        <ele>565.5</ele>
        <time>2019-06-16T10:19:16Z</time>
      </trkpt>
      <trkpt lat="45.5959" lon="4.58389">
        <ele>563.6</ele>
        <time>2019-06-16T10:19:24Z</time>
      </trkpt>
      <trkpt lat="45.5957" lon="4.58429">
        <ele>562.3</ele>
        <time>2019-06-16T10:19:31Z</time>
      </trkpt>
      <trkpt lat="45.59557" lon="4.58467">
        <ele>562.5</ele>
        <time>2019-06-16T10:19:38Z</time>
      </trkpt>
      <trkpt lat="45.59547" lon="4.58503">
        <ele>563.4</ele>
        <time>2019-06-16T10:19:46Z</time>
      </trkpt>
      <trkpt lat="45.59546" lon="4.58507">
        <ele>563.5</ele>
        <time>2019-06-16T10:19:47Z</time>
      </trkpt>
      <trkpt lat="45.59542" lon="4.58522">
        <ele>565.9</ele>
        <time>2019-06-16T10:19:51Z</time>
      </trkpt>
      <trkpt lat="45.59541" lon="4.58533">
        <ele>567.3</ele>
        <time>2019-06-16T10:19:54Z</time>
      </trkpt>
      <trkpt lat="45.5954" lon="4.58536">
        <ele>567.8</ele>
        <time>2019-06-16T10:19:55Z</time>
      </trkpt>
      <trkpt lat="45.59539" lon="4.58553">
        <ele>570</ele>
        <time>2019-06-16T10:20:01Z</time>
      </trkpt>
      <trkpt lat="45.59539" lon="4.58555">
        <ele>570.3</ele>
        <time>2019-06-16T10:20:02Z</time>
      </trkpt>
      <trkpt lat="45.59539" lon="4.5856">
        <ele>571.1</ele>
        <time>2019-06-16T10:20:04Z</time>
      </trkpt>
      <trkpt lat="45.5954" lon="4.58564">
        <ele>571.1</ele>
        <time>2019-06-16T10:20:06Z</time>
      </trkpt>
      <trkpt lat="45.59541" lon="4.58565">
        <ele>571.1</ele>
        <time>2019-06-16T10:20:07Z</time>
      </trkpt>
      <trkpt lat="45.59542" lon="4.58566">
        <ele>571.1</ele>
        <time>2019-06-16T10:20:08Z</time>
      </trkpt>
      <trkpt lat="45.59546" lon="4.5857">
        <ele>571.8</ele>
        <time>2019-06-16T10:20:11Z</time>
      </trkpt>
      <trkpt lat="45.59546" lon="4.58574">
        <ele>572.9</ele>
        <time>2019-06-16T10:20:14Z</time>
      </trkpt>
      <trkpt lat="45.59545" lon="4.58579">
        <ele>573.8</ele>
        <time>2019-06-16T10:20:17Z</time>
      </trkpt>
      <trkpt lat="45.59544" lon="4.58581">
        <ele>574.3</ele>
        <time>2019-06-16T10:20:19Z</time>
      </trkpt>
      <trkpt lat="45.59543" lon="4.58583">
        <ele>574.8</ele>
        <time>2019-06-16T10:20:21Z</time>
      </trkpt>
      <trkpt lat="45.59541" lon="4.58586">
        <ele>575.2</ele>
        <time>2019-06-16T10:20:23Z</time>
      </trkpt>
      <trkpt lat="45.5954" lon="4.58587">
        <ele>575.5</ele>
        <time>2019-06-16T10:20:24Z</time>
      </trkpt>
      <trkpt lat="45.59537" lon="4.5859">
        <ele>576</ele>
        <time>2019-06-16T10:20:27Z</time>
      </trkpt>
      <trkpt lat="45.59475" lon="4.58687">
        <ele>587.5</ele>
        <time>2019-06-16T10:22:23Z</time>
      </trkpt>
      <trkpt lat="45.59463" lon="4.58706">
        <ele>589.7</ele>
        <time>2019-06-16T10:22:36Z</time>
      </trkpt>
      <trkpt lat="45.59462" lon="4.58707">
        <ele>589.8</ele>
        <time>2019-06-16T10:22:37Z</time>
      </trkpt>
      <trkpt lat="45.59457" lon="4.58709">
        <ele>590.1</ele>
        <time>2019-06-16T10:22:40Z</time>
      </trkpt>
      <trkpt lat="45.59451" lon="4.58712">
        <ele>590.5</ele>
        <time>2019-06-16T10:22:44Z</time>
      </trkpt>
      <trkpt lat="45.59449" lon="4.58713">
        <ele>590.4</ele>
        <time>2019-06-16T10:22:45Z</time>
      </trkpt>
      <trkpt lat="45.59446" lon="4.58714">
        <ele>589.9</ele>
        <time>2019-06-16T10:22:48Z</time>
      </trkpt>
      <trkpt lat="45.59443" lon="4.58714">
        <ele>589.6</ele>
        <time>2019-06-16T10:22:51Z</time>
      </trkpt>
      <trkpt lat="45.59441" lon="4.58714">
        <ele>589.7</ele>
        <time>2019-06-16T10:22:53Z</time>
      </trkpt>
      <trkpt lat="45.59439" lon="4.58715">
        <ele>589.9</ele>
        <time>2019-06-16T10:22:55Z</time>
      </trkpt>
      <trkpt lat="45.59436" lon="4.58715">
        <ele>590</ele>
        <time>2019-06-16T10:22:58Z</time>
      </trkpt>
      <trkpt lat="45.59433" lon="4.58714">
        <ele>589.6</ele>
        <time>2019-06-16T10:23:00Z</time>
      </trkpt>
      <trkpt lat="45.59428" lon="4.58714">
        <ele>588.7</ele>
        <time>2019-06-16T10:23:04Z</time>
      </trkpt>
      <trkpt lat="45.59424" lon="4.58715">
        <ele>588.5</ele>
        <time>2019-06-16T10:23:07Z</time>
      </trkpt>
      <trkpt lat="45.59419" lon="4.58716">
        <ele>588.4</ele>
        <time>2019-06-16T10:23:11Z</time>
      </trkpt>
      <trkpt lat="45.59417" lon="4.58716">
        <ele>588.2</ele>
        <time>2019-06-16T10:23:13Z</time>
      </trkpt>
      <trkpt lat="45.59402" lon="4.58723">
        <ele>589.2</ele>
        <time>2019-06-16T10:23:26Z</time>
      </trkpt>
      <trkpt lat="45.59399" lon="4.58725">
        <ele>589.4</ele>
        <time>2019-06-16T10:23:28Z</time>
      </trkpt>
      <trkpt lat="45.59387" lon="4.58735">
        <ele>591.4</ele>
        <time>2019-06-16T10:24:15Z</time>
      </trkpt>
      <trkpt lat="45.59386" lon="4.58736">
        <ele>591.5</ele>
        <time>2019-06-16T10:24:16Z</time>
      </trkpt>
      <trkpt lat="45.59376" lon="4.58749">
        <ele>593.4</ele>
        <time>2019-06-16T10:24:25Z</time>
      </trkpt>
      <trkpt lat="45.59369" lon="4.58763">
        <ele>595.9</ele>
        <time>2019-06-16T10:24:32Z</time>
      </trkpt>
      <trkpt lat="45.59364" lon="4.58775">
        <ele>598</ele>
        <time>2019-06-16T10:24:38Z</time>
      </trkpt>
      <trkpt lat="45.59362" lon="4.5878">
        <ele>598.6</ele>
        <time>2019-06-16T10:24:40Z</time>
      </trkpt>
      <trkpt lat="45.59357" lon="4.58792">
        <ele>601.3</ele>
        <time>2019-06-16T10:24:46Z</time>
      </trkpt>
      <trkpt lat="45.59355" lon="4.58798">
        <ele>601.9</ele>
        <time>2019-06-16T10:24:49Z</time>
      </trkpt>
      <trkpt lat="45.59355" lon="4.588">
        <ele>602.1</ele>
        <time>2019-06-16T10:24:50Z</time>
      </trkpt>
      <trkpt lat="45.59353" lon="4.58816">
        <ele>604.7</ele>
        <time>2019-06-16T10:24:58Z</time>
      </trkpt>
      <trkpt lat="45.59353" lon="4.58821">
        <ele>605.2</ele>
        <time>2019-06-16T10:25:00Z</time>
      </trkpt>
      <trkpt lat="45.59353" lon="4.58822">
        <ele>605.4</ele>
        <time>2019-06-16T10:25:01Z</time>
      </trkpt>
      <trkpt lat="45.59354" lon="4.58836">
        <ele>606.8</ele>
        <time>2019-06-16T10:25:09Z</time>
      </trkpt>
      <trkpt lat="45.59354" lon="4.58838">
        <ele>607.1</ele>
        <time>2019-06-16T10:25:10Z</time>
      </trkpt>
      <trkpt lat="45.59356" lon="4.58845">
        <ele>608.1</ele>
        <time>2019-06-16T10:25:14Z</time>
      </trkpt>
      <trkpt lat="45.59356" lon="4.58851">
        <ele>608.8</ele>
        <time>2019-06-16T10:25:18Z</time>
      </trkpt>
      <trkpt lat="45.59358" lon="4.58859">
        <ele>609.7</ele>
        <time>2019-06-16T10:25:23Z</time>
      </trkpt>
      <trkpt lat="45.59359" lon="4.58864">
        <ele>610.2</ele>
        <time>2019-06-16T10:25:26Z</time>
      </trkpt>
      <trkpt lat="45.59364" lon="4.58873">
        <ele>612.1</ele>
        <time>2019-06-16T10:25:33Z</time>
      </trkpt>
      <trkpt lat="45.59364" lon="4.58874">
        <ele>612.5</ele>
        <time>2019-06-16T10:25:34Z</time>
      </trkpt>
      <trkpt lat="45.59369" lon="4.5888">
        <ele>613.7</ele>
        <time>2019-06-16T10:28:08Z</time>
      </trkpt>
      <trkpt lat="45.59371" lon="4.58882">
        <ele>614.1</ele>
        <time>2019-06-16T10:28:09Z</time>
      </trkpt>
      <trkpt lat="45.59372" lon="4.58883">
        <ele>614.4</ele>
        <time>2019-06-16T10:28:10Z</time>
      </trkpt>
      <trkpt lat="45.59378" lon="4.58888">
        <ele>615.4</ele>
        <time>2019-06-16T10:28:14Z</time>
      </trkpt>
      <trkpt lat="45.5938" lon="4.58889">
        <ele>615.6</ele>
        <time>2019-06-16T10:28:15Z</time>
      </trkpt>
      <trkpt lat="45.59381" lon="4.5889">
        <ele>615.9</ele>
        <time>2019-06-16T10:28:16Z</time>
      </trkpt>
      <trkpt lat="45.59384" lon="4.58891">
        <ele>616.4</ele>
        <time>2019-06-16T10:28:18Z</time>
      </trkpt>
      <trkpt lat="45.5939" lon="4.58894">
        <ele>617.6</ele>
        <time>2019-06-16T10:28:22Z</time>
      </trkpt>
      <trkpt lat="45.59391" lon="4.58894">
        <ele>617.9</ele>
        <time>2019-06-16T10:28:23Z</time>
      </trkpt>
      <trkpt lat="45.59397" lon="4.58897">
        <ele>619</ele>
        <time>2019-06-16T10:28:27Z</time>
      </trkpt>
      <trkpt lat="45.59402" lon="4.58899">
        <ele>619.9</ele>
        <time>2019-06-16T10:28:31Z</time>
      </trkpt>
      <trkpt lat="45.5941" lon="4.58901">
        <ele>621.5</ele>
        <time>2019-06-16T10:28:36Z</time>
      </trkpt>
      <trkpt lat="45.59413" lon="4.58902">
        <ele>622.2</ele>
        <time>2019-06-16T10:28:38Z</time>
      </trkpt>
      <trkpt lat="45.59415" lon="4.58916">
        <ele>622.8</ele>
        <time>2019-06-16T10:28:44Z</time>
      </trkpt>
      <trkpt lat="45.59414" lon="4.58927">
        <ele>623.1</ele>
        <time>2019-06-16T10:28:48Z</time>
      </trkpt>
      <trkpt lat="45.59413" lon="4.58936">
        <ele>623.2</ele>
        <time>2019-06-16T10:28:51Z</time>
      </trkpt>
      <trkpt lat="45.59414" lon="4.58961">
        <ele>623.2</ele>
        <time>2019-06-16T10:28:59Z</time>
      </trkpt>
      <trkpt lat="45.59417" lon="4.58974">
        <ele>623.7</ele>
        <time>2019-06-16T10:29:02Z</time>
      </trkpt>
      <trkpt lat="45.5942" lon="4.58988">
        <ele>623.1</ele>
        <time>2019-06-16T10:29:05Z</time>
      </trkpt>
      <trkpt lat="45.59422" lon="4.58994">
        <ele>622.9</ele>
        <time>2019-06-16T10:29:06Z</time>
      </trkpt>
      <trkpt lat="45.59426" lon="4.59006">
        <ele>623.5</ele>
        <time>2019-06-16T10:29:08Z</time>
      </trkpt>
      <trkpt lat="45.59431" lon="4.5902">
        <ele>623.6</ele>
        <time>2019-06-16T10:29:10Z</time>
      </trkpt>
      <trkpt lat="45.5944" lon="4.59047">
        <ele>623.2</ele>
        <time>2019-06-16T10:29:13Z</time>
      </trkpt>
      <trkpt lat="45.59443" lon="4.59057">
        <ele>623</ele>
        <time>2019-06-16T10:29:14Z</time>
      </trkpt>
      <trkpt lat="45.59446" lon="4.59068">
        <ele>622.5</ele>
        <time>2019-06-16T10:29:15Z</time>
      </trkpt>
      <trkpt lat="45.59451" lon="4.59089">
        <ele>622.1</ele>
        <time>2019-06-16T10:29:17Z</time>
      </trkpt>
      <trkpt lat="45.59456" lon="4.5911">
        <ele>622.1</ele>
        <time>2019-06-16T10:29:19Z</time>
      </trkpt>
      <trkpt lat="45.59458" lon="4.59121">
        <ele>621.5</ele>
        <time>2019-06-16T10:29:20Z</time>
      </trkpt>
      <trkpt lat="45.59461" lon="4.59151">
        <ele>619.9</ele>
        <time>2019-06-16T10:29:23Z</time>
      </trkpt>
      <trkpt lat="45.5946" lon="4.59161">
        <ele>619.3</ele>
        <time>2019-06-16T10:29:24Z</time>
      </trkpt>
      <trkpt lat="45.59456" lon="4.59188">
        <ele>617.3</ele>
        <time>2019-06-16T10:29:27Z</time>
      </trkpt>
      <trkpt lat="45.59452" lon="4.59206">
        <ele>615.7</ele>
        <time>2019-06-16T10:29:29Z</time>
      </trkpt>
      <trkpt lat="45.5945" lon="4.59215">
        <ele>614.3</ele>
        <time>2019-06-16T10:29:30Z</time>
      </trkpt>
      <trkpt lat="45.59449" lon="4.59229">
        <ele>612.8</ele>
        <time>2019-06-16T10:29:32Z</time>
      </trkpt>
      <trkpt lat="45.5945" lon="4.59234">
        <ele>611.9</ele>
        <time>2019-06-16T10:29:33Z</time>
      </trkpt>
      <trkpt lat="45.59454" lon="4.59245">
        <ele>612</ele>
        <time>2019-06-16T10:29:35Z</time>
      </trkpt>
      <trkpt lat="45.59458" lon="4.59253">
        <ele>612.4</ele>
        <time>2019-06-16T10:29:37Z</time>
      </trkpt>
      <trkpt lat="45.59463" lon="4.59261">
        <ele>612.6</ele>
        <time>2019-06-16T10:29:39Z</time>
      </trkpt>
      <trkpt lat="45.59477" lon="4.59279">
        <ele>612.9</ele>
        <time>2019-06-16T10:29:44Z</time>
      </trkpt>
      <trkpt lat="45.59492" lon="4.59299">
        <ele>613.4</ele>
        <time>2019-06-16T10:29:50Z</time>
      </trkpt>
      <trkpt lat="45.59501" lon="4.59312">
        <ele>613.5</ele>
        <time>2019-06-16T10:29:54Z</time>
      </trkpt>
      <trkpt lat="45.59515" lon="4.59325">
        <ele>613</ele>
        <time>2019-06-16T10:29:59Z</time>
      </trkpt>
      <trkpt lat="45.59522" lon="4.59336">
        <ele>612.4</ele>
        <time>2019-06-16T10:30:01Z</time>
      </trkpt>
      <trkpt lat="45.59527" lon="4.59351">
        <ele>611.6</ele>
        <time>2019-06-16T10:30:03Z</time>
      </trkpt>
      <trkpt lat="45.59535" lon="4.59375">
        <ele>610.7</ele>
        <time>2019-06-16T10:30:06Z</time>
      </trkpt>
      <trkpt lat="45.59537" lon="4.59383">
        <ele>610.5</ele>
        <time>2019-06-16T10:30:07Z</time>
      </trkpt>
      <trkpt lat="45.59543" lon="4.59399">
        <ele>609.9</ele>
        <time>2019-06-16T10:30:09Z</time>
      </trkpt>
      <trkpt lat="45.59557" lon="4.59432">
        <ele>609.8</ele>
        <time>2019-06-16T10:30:13Z</time>
      </trkpt>
      <trkpt lat="45.59563" lon="4.59445">
        <ele>609.7</ele>
        <time>2019-06-16T10:30:15Z</time>
      </trkpt>
      <trkpt lat="45.5957" lon="4.59462">
        <ele>610.1</ele>
        <time>2019-06-16T10:30:18Z</time>
      </trkpt>
      <trkpt lat="45.59574" lon="4.59472">
        <ele>610.1</ele>
        <time>2019-06-16T10:30:20Z</time>
      </trkpt>
      <trkpt lat="45.59576" lon="4.59477">
        <ele>610.3</ele>
        <time>2019-06-16T10:30:21Z</time>
      </trkpt>
      <trkpt lat="45.59578" lon="4.59482">
        <ele>610.5</ele>
        <time>2019-06-16T10:30:22Z</time>
      </trkpt>
      <trkpt lat="45.59584" lon="4.59496">
        <ele>610.5</ele>
        <time>2019-06-16T10:30:25Z</time>
      </trkpt>
      <trkpt lat="45.59586" lon="4.59501">
        <ele>610.4</ele>
        <time>2019-06-16T10:30:26Z</time>
      </trkpt>
      <trkpt lat="45.59596" lon="4.59529">
        <ele>610.7</ele>
        <time>2019-06-16T10:30:32Z</time>
      </trkpt>
      <trkpt lat="45.59597" lon="4.59532">
        <ele>611</ele>
        <time>2019-06-16T10:30:33Z</time>
      </trkpt>
      <trkpt lat="45.59601" lon="4.59535">
        <ele>611.8</ele>
        <time>2019-06-16T10:30:36Z</time>
      </trkpt>
      <trkpt lat="45.59603" lon="4.59535">
        <ele>611.8</ele>
        <time>2019-06-16T10:30:37Z</time>
      </trkpt>
      <trkpt lat="45.59605" lon="4.59534">
        <ele>611.9</ele>
        <time>2019-06-16T10:30:38Z</time>
      </trkpt>
      <trkpt lat="45.59614" lon="4.59533">
        <ele>612.3</ele>
        <time>2019-06-16T10:30:42Z</time>
      </trkpt>
      <trkpt lat="45.5962" lon="4.59542">
        <ele>612.6</ele>
        <time>2019-06-16T10:30:46Z</time>
      </trkpt>
      <trkpt lat="45.59622" lon="4.59544">
        <ele>612.7</ele>
        <time>2019-06-16T10:30:47Z</time>
      </trkpt>
      <trkpt lat="45.5963" lon="4.59557">
        <ele>613.2</ele>
        <time>2019-06-16T10:30:52Z</time>
      </trkpt>
      <trkpt lat="45.59638" lon="4.59567">
        <ele>613.6</ele>
        <time>2019-06-16T10:30:56Z</time>
      </trkpt>
      <trkpt lat="45.59642" lon="4.59573">
        <ele>613.8</ele>
        <time>2019-06-16T10:30:58Z</time>
      </trkpt>
      <trkpt lat="45.5965" lon="4.59584">
        <ele>613.4</ele>
        <time>2019-06-16T10:31:02Z</time>
      </trkpt>
      <trkpt lat="45.59664" lon="4.59604">
        <ele>612.6</ele>
        <time>2019-06-16T10:31:08Z</time>
      </trkpt>
      <trkpt lat="45.59688" lon="4.59626">
        <ele>611.4</ele>
        <time>2019-06-16T10:31:14Z</time>
      </trkpt>
      <trkpt lat="45.59708" lon="4.59639">
        <ele>609.8</ele>
        <time>2019-06-16T10:31:18Z</time>
      </trkpt>
      <trkpt lat="45.5972" lon="4.59644">
        <ele>608.7</ele>
        <time>2019-06-16T10:31:20Z</time>
      </trkpt>
      <trkpt lat="45.59725" lon="4.59647">
        <ele>608.2</ele>
        <time>2019-06-16T10:31:21Z</time>
      </trkpt>
      <trkpt lat="45.59737" lon="4.59651">
        <ele>607.3</ele>
        <time>2019-06-16T10:31:23Z</time>
      </trkpt>
      <trkpt lat="45.59742" lon="4.59652">
        <ele>607</ele>
        <time>2019-06-16T10:31:24Z</time>
      </trkpt>
      <trkpt lat="45.59747" lon="4.5965">
        <ele>606.7</ele>
        <time>2019-06-16T10:31:25Z</time>
      </trkpt>
      <trkpt lat="45.59752" lon="4.59644">
        <ele>606.3</ele>
        <time>2019-06-16T10:31:26Z</time>
      </trkpt>
      <trkpt lat="45.59756" lon="4.59638">
        <ele>606</ele>
        <time>2019-06-16T10:31:27Z</time>
      </trkpt>
      <trkpt lat="45.59762" lon="4.59633">
        <ele>605.7</ele>
        <time>2019-06-16T10:31:28Z</time>
      </trkpt>
      <trkpt lat="45.59768" lon="4.59627">
        <ele>605.3</ele>
        <time>2019-06-16T10:31:29Z</time>
      </trkpt>
      <trkpt lat="45.5978" lon="4.59615">
        <ele>604.6</ele>
        <time>2019-06-16T10:31:31Z</time>
      </trkpt>
      <trkpt lat="45.59792" lon="4.59605">
        <ele>603.7</ele>
        <time>2019-06-16T10:31:33Z</time>
      </trkpt>
      <trkpt lat="45.59797" lon="4.59599">
        <ele>603.2</ele>
        <time>2019-06-16T10:31:34Z</time>
      </trkpt>
      <trkpt lat="45.5981" lon="4.59589">
        <ele>601.9</ele>
        <time>2019-06-16T10:31:36Z</time>
      </trkpt>
      <trkpt lat="45.59816" lon="4.59582">
        <ele>601.2</ele>
        <time>2019-06-16T10:31:37Z</time>
      </trkpt>
      <trkpt lat="45.59822" lon="4.59573">
        <ele>600.4</ele>
        <time>2019-06-16T10:31:38Z</time>
      </trkpt>
      <trkpt lat="45.59831" lon="4.59554">
        <ele>599</ele>
        <time>2019-06-16T10:31:40Z</time>
      </trkpt>
      <trkpt lat="45.59834" lon="4.59546">
        <ele>598.3</ele>
        <time>2019-06-16T10:31:41Z</time>
      </trkpt>
      <trkpt lat="45.59838" lon="4.59541">
        <ele>597.8</ele>
        <time>2019-06-16T10:31:42Z</time>
      </trkpt>
      <trkpt lat="45.59843" lon="4.59539">
        <ele>597.2</ele>
        <time>2019-06-16T10:31:43Z</time>
      </trkpt>
      <trkpt lat="45.59848" lon="4.59538">
        <ele>596.6</ele>
        <time>2019-06-16T10:31:44Z</time>
      </trkpt>
      <trkpt lat="45.59858" lon="4.59547">
        <ele>595.2</ele>
        <time>2019-06-16T10:31:46Z</time>
      </trkpt>
      <trkpt lat="45.59871" lon="4.59556">
        <ele>593.8</ele>
        <time>2019-06-16T10:31:48Z</time>
      </trkpt>
      <trkpt lat="45.59878" lon="4.5956">
        <ele>593.4</ele>
        <time>2019-06-16T10:31:49Z</time>
      </trkpt>
      <trkpt lat="45.59885" lon="4.59566">
        <ele>593.3</ele>
        <time>2019-06-16T10:31:50Z</time>
      </trkpt>
      <trkpt lat="45.59893" lon="4.59572">
        <ele>593.5</ele>
        <time>2019-06-16T10:31:51Z</time>
      </trkpt>
      <trkpt lat="45.59907" lon="4.59583">
        <ele>594.2</ele>
        <time>2019-06-16T10:31:53Z</time>
      </trkpt>
      <trkpt lat="45.59913" lon="4.5959">
        <ele>594.5</ele>
        <time>2019-06-16T10:31:54Z</time>
      </trkpt>
      <trkpt lat="45.59919" lon="4.59596">
        <ele>594.8</ele>
        <time>2019-06-16T10:31:55Z</time>
      </trkpt>
      <trkpt lat="45.59924" lon="4.59601">
        <ele>595.1</ele>
        <time>2019-06-16T10:31:56Z</time>
      </trkpt>
      <trkpt lat="45.59928" lon="4.59604">
        <ele>595.4</ele>
        <time>2019-06-16T10:31:57Z</time>
      </trkpt>
      <trkpt lat="45.59933" lon="4.59607">
        <ele>595.6</ele>
        <time>2019-06-16T10:31:59Z</time>
      </trkpt>
      <trkpt lat="45.5994" lon="4.59616">
        <ele>595.9</ele>
        <time>2019-06-16T10:32:33Z</time>
      </trkpt>
      <trkpt lat="45.59941" lon="4.59618">
        <ele>595.9</ele>
        <time>2019-06-16T10:32:34Z</time>
      </trkpt>
      <trkpt lat="45.59944" lon="4.59621">
        <ele>595.9</ele>
        <time>2019-06-16T10:32:36Z</time>
      </trkpt>
      <trkpt lat="45.59945" lon="4.59623">
        <ele>595.9</ele>
        <time>2019-06-16T10:32:37Z</time>
      </trkpt>
      <trkpt lat="45.59953" lon="4.59631">
        <ele>595.7</ele>
        <time>2019-06-16T10:32:41Z</time>
      </trkpt>
      <trkpt lat="45.59955" lon="4.59633">
        <ele>595.6</ele>
        <time>2019-06-16T10:32:42Z</time>
      </trkpt>
      <trkpt lat="45.5996" lon="4.5964">
        <ele>595.2</ele>
        <time>2019-06-16T10:32:45Z</time>
      </trkpt>
      <trkpt lat="45.59966" lon="4.59648">
        <ele>594.4</ele>
        <time>2019-06-16T10:32:48Z</time>
      </trkpt>
      <trkpt lat="45.59968" lon="4.59652">
        <ele>594</ele>
        <time>2019-06-16T10:32:49Z</time>
      </trkpt>
      <trkpt lat="45.59978" lon="4.59677">
        <ele>591.9</ele>
        <time>2019-06-16T10:32:53Z</time>
      </trkpt>
      <trkpt lat="45.59996" lon="4.59715">
        <ele>590.1</ele>
        <time>2019-06-16T10:32:58Z</time>
      </trkpt>
      <trkpt lat="45.60014" lon="4.59748">
        <ele>589.8</ele>
        <time>2019-06-16T10:33:04Z</time>
      </trkpt>
      <trkpt lat="45.60037" lon="4.59776">
        <ele>588</ele>
        <time>2019-06-16T10:33:11Z</time>
      </trkpt>
      <trkpt lat="45.60051" lon="4.59802">
        <ele>586.8</ele>
        <time>2019-06-16T10:33:16Z</time>
      </trkpt>
      <trkpt lat="45.60067" lon="4.59822">
        <ele>585.7</ele>
        <time>2019-06-16T10:33:20Z</time>
      </trkpt>
      <trkpt lat="45.60071" lon="4.59825">
        <ele>585.4</ele>
        <time>2019-06-16T10:33:21Z</time>
      </trkpt>
      <trkpt lat="45.60076" lon="4.59828">
        <ele>585.3</ele>
        <time>2019-06-16T10:33:22Z</time>
      </trkpt>
      <trkpt lat="45.60089" lon="4.59835">
        <ele>585.6</ele>
        <time>2019-06-16T10:33:25Z</time>
      </trkpt>
      <trkpt lat="45.60098" lon="4.59839">
        <ele>585.9</ele>
        <time>2019-06-16T10:33:29Z</time>
      </trkpt>
      <trkpt lat="45.60112" lon="4.59843">
        <ele>586</ele>
        <time>2019-06-16T10:34:02Z</time>
      </trkpt>
      <trkpt lat="45.60116" lon="4.59851">
        <ele>585.1</ele>
        <time>2019-06-16T10:34:04Z</time>
      </trkpt>
      <trkpt lat="45.60123" lon="4.59865">
        <ele>583.9</ele>
        <time>2019-06-16T10:34:06Z</time>
      </trkpt>
      <trkpt lat="45.60126" lon="4.59874">
        <ele>583.1</ele>
        <time>2019-06-16T10:34:07Z</time>
      </trkpt>
      <trkpt lat="45.60131" lon="4.59892">
        <ele>581.9</ele>
        <time>2019-06-16T10:34:09Z</time>
      </trkpt>
      <trkpt lat="45.60135" lon="4.59913">
        <ele>580.6</ele>
        <time>2019-06-16T10:34:11Z</time>
      </trkpt>
      <trkpt lat="45.60135" lon="4.59923">
        <ele>580</ele>
        <time>2019-06-16T10:34:12Z</time>
      </trkpt>
      <trkpt lat="45.60133" lon="4.59942">
        <ele>579</ele>
        <time>2019-06-16T10:34:14Z</time>
      </trkpt>
      <trkpt lat="45.60132" lon="4.59952">
        <ele>578.7</ele>
        <time>2019-06-16T10:34:15Z</time>
      </trkpt>
      <trkpt lat="45.6013" lon="4.59963">
        <ele>578.1</ele>
        <time>2019-06-16T10:34:16Z</time>
      </trkpt>
      <trkpt lat="45.60127" lon="4.59982">
        <ele>577.4</ele>
        <time>2019-06-16T10:34:18Z</time>
      </trkpt>
      <trkpt lat="45.60125" lon="4.59992">
        <ele>576.9</ele>
        <time>2019-06-16T10:34:19Z</time>
      </trkpt>
      <trkpt lat="45.60124" lon="4.60003">
        <ele>576</ele>
        <time>2019-06-16T10:34:20Z</time>
      </trkpt>
      <trkpt lat="45.60122" lon="4.60014">
        <ele>575</ele>
        <time>2019-06-16T10:34:21Z</time>
      </trkpt>
      <trkpt lat="45.6012" lon="4.60027">
        <ele>574.3</ele>
        <time>2019-06-16T10:34:22Z</time>
      </trkpt>
      <trkpt lat="45.60117" lon="4.6005">
        <ele>571.5</ele>
        <time>2019-06-16T10:34:24Z</time>
      </trkpt>
      <trkpt lat="45.60116" lon="4.60059">
        <ele>570.6</ele>
        <time>2019-06-16T10:34:25Z</time>
      </trkpt>
      <trkpt lat="45.60112" lon="4.60076">
        <ele>569</ele>
        <time>2019-06-16T10:34:27Z</time>
      </trkpt>
      <trkpt lat="45.60111" lon="4.60085">
        <ele>567.7</ele>
        <time>2019-06-16T10:34:28Z</time>
      </trkpt>
      <trkpt lat="45.60109" lon="4.60108">
        <ele>564.6</ele>
        <time>2019-06-16T10:34:30Z</time>
      </trkpt>
      <trkpt lat="45.60107" lon="4.6012">
        <ele>563.2</ele>
        <time>2019-06-16T10:34:31Z</time>
      </trkpt>
      <trkpt lat="45.60106" lon="4.60133">
        <ele>562</ele>
        <time>2019-06-16T10:34:32Z</time>
      </trkpt>
      <trkpt lat="45.60104" lon="4.60159">
        <ele>559.3</ele>
        <time>2019-06-16T10:34:34Z</time>
      </trkpt>
      <trkpt lat="45.60104" lon="4.60188">
        <ele>557.1</ele>
        <time>2019-06-16T10:34:36Z</time>
      </trkpt>
      <trkpt lat="45.60102" lon="4.60218">
        <ele>555.1</ele>
        <time>2019-06-16T10:34:38Z</time>
      </trkpt>
      <trkpt lat="45.60099" lon="4.60266">
        <ele>552.9</ele>
        <time>2019-06-16T10:34:41Z</time>
      </trkpt>
      <trkpt lat="45.60097" lon="4.60281">
        <ele>552.3</ele>
        <time>2019-06-16T10:34:42Z</time>
      </trkpt>
      <trkpt lat="45.60093" lon="4.60309">
        <ele>550.8</ele>
        <time>2019-06-16T10:34:44Z</time>
      </trkpt>
      <trkpt lat="45.60089" lon="4.60322">
        <ele>550.2</ele>
        <time>2019-06-16T10:34:45Z</time>
      </trkpt>
      <trkpt lat="45.60085" lon="4.60331">
        <ele>549.5</ele>
        <time>2019-06-16T10:34:46Z</time>
      </trkpt>
      <trkpt lat="45.60081" lon="4.6034">
        <ele>548.9</ele>
        <time>2019-06-16T10:34:47Z</time>
      </trkpt>
      <trkpt lat="45.60074" lon="4.60361">
        <ele>547.4</ele>
        <time>2019-06-16T10:34:49Z</time>
      </trkpt>
      <trkpt lat="45.60072" lon="4.60373">
        <ele>546.5</ele>
        <time>2019-06-16T10:34:50Z</time>
      </trkpt>
      <trkpt lat="45.60071" lon="4.60383">
        <ele>545.7</ele>
        <time>2019-06-16T10:34:51Z</time>
      </trkpt>
      <trkpt lat="45.6007" lon="4.60392">
        <ele>545.1</ele>
        <time>2019-06-16T10:34:52Z</time>
      </trkpt>
      <trkpt lat="45.60069" lon="4.60399">
        <ele>544.5</ele>
        <time>2019-06-16T10:34:53Z</time>
      </trkpt>
      <trkpt lat="45.60069" lon="4.60408">
        <ele>543.9</ele>
        <time>2019-06-16T10:34:55Z</time>
      </trkpt>
      <trkpt lat="45.60068" lon="4.60418">
        <ele>542.5</ele>
        <time>2019-06-16T10:34:57Z</time>
      </trkpt>
      <trkpt lat="45.60065" lon="4.60442">
        <ele>540.1</ele>
        <time>2019-06-16T10:35:00Z</time>
      </trkpt>
      <trkpt lat="45.6006" lon="4.60464">
        <ele>538.5</ele>
        <time>2019-06-16T10:35:02Z</time>
      </trkpt>
      <trkpt lat="45.6005" lon="4.60498">
        <ele>535.7</ele>
        <time>2019-06-16T10:35:05Z</time>
      </trkpt>
      <trkpt lat="45.60037" lon="4.60517">
        <ele>533.7</ele>
        <time>2019-06-16T10:35:07Z</time>
      </trkpt>
      <trkpt lat="45.6003" lon="4.60527">
        <ele>532.7</ele>
        <time>2019-06-16T10:35:08Z</time>
      </trkpt>
      <trkpt lat="45.60024" lon="4.60537">
        <ele>531.8</ele>
        <time>2019-06-16T10:35:09Z</time>
      </trkpt>
      <trkpt lat="45.60021" lon="4.60548">
        <ele>531.1</ele>
        <time>2019-06-16T10:35:10Z</time>
      </trkpt>
      <trkpt lat="45.60017" lon="4.60559">
        <ele>530.4</ele>
        <time>2019-06-16T10:35:11Z</time>
      </trkpt>
      <trkpt lat="45.60011" lon="4.60581">
        <ele>529.4</ele>
        <time>2019-06-16T10:35:13Z</time>
      </trkpt>
      <trkpt lat="45.60007" lon="4.60602">
        <ele>528.9</ele>
        <time>2019-06-16T10:35:15Z</time>
      </trkpt>
      <trkpt lat="45.60005" lon="4.60612">
        <ele>528.8</ele>
        <time>2019-06-16T10:35:16Z</time>
      </trkpt>
      <trkpt lat="45.60001" lon="4.6065">
        <ele>528.7</ele>
        <time>2019-06-16T10:35:20Z</time>
      </trkpt>
      <trkpt lat="45.60001" lon="4.60658">
        <ele>528.7</ele>
        <time>2019-06-16T10:35:21Z</time>
      </trkpt>
      <trkpt lat="45.59999" lon="4.60671">
        <ele>528.7</ele>
        <time>2019-06-16T10:35:23Z</time>
      </trkpt>
      <trkpt lat="45.59995" lon="4.60675">
        <ele>528.7</ele>
        <time>2019-06-16T10:35:24Z</time>
      </trkpt>
      <trkpt lat="45.59983" lon="4.60677">
        <ele>528.6</ele>
        <time>2019-06-16T10:35:26Z</time>
      </trkpt>
      <trkpt lat="45.59977" lon="4.60679">
        <ele>528.6</ele>
        <time>2019-06-16T10:35:27Z</time>
      </trkpt>
      <trkpt lat="45.59965" lon="4.60682">
        <ele>528.6</ele>
        <time>2019-06-16T10:35:29Z</time>
      </trkpt>
      <trkpt lat="45.59935" lon="4.6069">
        <ele>528.6</ele>
        <time>2019-06-16T10:35:34Z</time>
      </trkpt>
      <trkpt lat="45.59931" lon="4.60692">
        <ele>528</ele>
        <time>2019-06-16T10:35:35Z</time>
      </trkpt>
      <trkpt lat="45.59929" lon="4.60702">
        <ele>527.6</ele>
        <time>2019-06-16T10:35:37Z</time>
      </trkpt>
      <trkpt lat="45.59932" lon="4.60708">
        <ele>527.4</ele>
        <time>2019-06-16T10:35:38Z</time>
      </trkpt>
      <trkpt lat="45.59943" lon="4.60728">
        <ele>527</ele>
        <time>2019-06-16T10:35:41Z</time>
      </trkpt>
      <trkpt lat="45.59947" lon="4.60734">
        <ele>527</ele>
        <time>2019-06-16T10:35:42Z</time>
      </trkpt>
      <trkpt lat="45.59951" lon="4.60741">
        <ele>527</ele>
        <time>2019-06-16T10:35:43Z</time>
      </trkpt>
      <trkpt lat="45.59968" lon="4.60775">
        <ele>526.7</ele>
        <time>2019-06-16T10:35:48Z</time>
      </trkpt>
      <trkpt lat="45.59977" lon="4.60793">
        <ele>526.6</ele>
        <time>2019-06-16T10:35:51Z</time>
      </trkpt>
      <trkpt lat="45.59993" lon="4.60829">
        <ele>525.5</ele>
        <time>2019-06-16T10:35:58Z</time>
      </trkpt>
      <trkpt lat="45.59994" lon="4.60835">
        <ele>525.2</ele>
        <time>2019-06-16T10:35:59Z</time>
      </trkpt>
      <trkpt lat="45.59998" lon="4.60856">
        <ele>524</ele>
        <time>2019-06-16T10:36:02Z</time>
      </trkpt>
      <trkpt lat="45.60002" lon="4.60873">
        <ele>523</ele>
        <time>2019-06-16T10:36:04Z</time>
      </trkpt>
      <trkpt lat="45.60007" lon="4.60893">
        <ele>521.8</ele>
        <time>2019-06-16T10:36:06Z</time>
      </trkpt>
      <trkpt lat="45.60009" lon="4.60903">
        <ele>520.9</ele>
        <time>2019-06-16T10:36:07Z</time>
      </trkpt>
      <trkpt lat="45.60011" lon="4.60913">
        <ele>519.9</ele>
        <time>2019-06-16T10:36:08Z</time>
      </trkpt>
      <trkpt lat="45.60016" lon="4.60936">
        <ele>517.9</ele>
        <time>2019-06-16T10:36:10Z</time>
      </trkpt>
      <trkpt lat="45.60019" lon="4.6096">
        <ele>516.3</ele>
        <time>2019-06-16T10:36:12Z</time>
      </trkpt>
      <trkpt lat="45.60021" lon="4.60973">
        <ele>515.5</ele>
        <time>2019-06-16T10:36:13Z</time>
      </trkpt>
      <trkpt lat="45.60023" lon="4.60986">
        <ele>514.7</ele>
        <time>2019-06-16T10:36:14Z</time>
      </trkpt>
      <trkpt lat="45.60025" lon="4.60999">
        <ele>514.1</ele>
        <time>2019-06-16T10:36:15Z</time>
      </trkpt>
      <trkpt lat="45.6003" lon="4.61025">
        <ele>512.9</ele>
        <time>2019-06-16T10:36:17Z</time>
      </trkpt>
      <trkpt lat="45.60037" lon="4.6105">
        <ele>511.4</ele>
        <time>2019-06-16T10:36:19Z</time>
      </trkpt>
      <trkpt lat="45.60046" lon="4.61089">
        <ele>509.9</ele>
        <time>2019-06-16T10:36:22Z</time>
      </trkpt>
      <trkpt lat="45.60049" lon="4.61115">
        <ele>509.2</ele>
        <time>2019-06-16T10:36:24Z</time>
      </trkpt>
      <trkpt lat="45.60049" lon="4.61127">
        <ele>509.1</ele>
        <time>2019-06-16T10:36:25Z</time>
      </trkpt>
      <trkpt lat="45.60049" lon="4.61174">
        <ele>508.7</ele>
        <time>2019-06-16T10:36:29Z</time>
      </trkpt>
      <trkpt lat="45.60045" lon="4.61248">
        <ele>508.3</ele>
        <time>2019-06-16T10:36:36Z</time>
      </trkpt>
      <trkpt lat="45.60034" lon="4.61313">
        <ele>507.6</ele>
        <time>2019-06-16T10:36:43Z</time>
      </trkpt>
      <trkpt lat="45.60016" lon="4.61342">
        <ele>507.3</ele>
        <time>2019-06-16T10:36:47Z</time>
      </trkpt>
      <trkpt lat="45.59985" lon="4.6138">
        <ele>506.9</ele>
        <time>2019-06-16T10:36:54Z</time>
      </trkpt>
      <trkpt lat="45.59956" lon="4.61414">
        <ele>506.9</ele>
        <time>2019-06-16T10:37:01Z</time>
      </trkpt>
      <trkpt lat="45.59943" lon="4.6143">
        <ele>506.9</ele>
        <time>2019-06-16T10:37:04Z</time>
      </trkpt>
      <trkpt lat="45.59939" lon="4.61432">
        <ele>506.8</ele>
        <time>2019-06-16T10:37:05Z</time>
      </trkpt>
      <trkpt lat="45.59927" lon="4.61424">
        <ele>505.1</ele>
        <time>2019-06-16T10:37:08Z</time>
      </trkpt>
      <trkpt lat="45.59917" lon="4.61418">
        <ele>503.4</ele>
        <time>2019-06-16T10:37:10Z</time>
      </trkpt>
      <trkpt lat="45.5991" lon="4.61415">
        <ele>502.2</ele>
        <time>2019-06-16T10:37:11Z</time>
      </trkpt>
      <trkpt lat="45.59903" lon="4.61412">
        <ele>501</ele>
        <time>2019-06-16T10:37:12Z</time>
      </trkpt>
      <trkpt lat="45.5989" lon="4.61405">
        <ele>498.4</ele>
        <time>2019-06-16T10:37:14Z</time>
      </trkpt>
      <trkpt lat="45.59878" lon="4.61399">
        <ele>495.7</ele>
        <time>2019-06-16T10:37:16Z</time>
      </trkpt>
      <trkpt lat="45.59872" lon="4.61395">
        <ele>494.3</ele>
        <time>2019-06-16T10:37:17Z</time>
      </trkpt>
      <trkpt lat="45.59863" lon="4.61386">
        <ele>491.6</ele>
        <time>2019-06-16T10:37:19Z</time>
      </trkpt>
      <trkpt lat="45.59858" lon="4.6138">
        <ele>490.6</ele>
        <time>2019-06-16T10:37:20Z</time>
      </trkpt>
      <trkpt lat="45.59854" lon="4.61372">
        <ele>489</ele>
        <time>2019-06-16T10:37:21Z</time>
      </trkpt>
      <trkpt lat="45.59849" lon="4.61366">
        <ele>487.8</ele>
        <time>2019-06-16T10:37:22Z</time>
      </trkpt>
      <trkpt lat="45.59845" lon="4.6136">
        <ele>486.7</ele>
        <time>2019-06-16T10:37:23Z</time>
      </trkpt>
      <trkpt lat="45.59841" lon="4.61354">
        <ele>485.9</ele>
        <time>2019-06-16T10:37:24Z</time>
      </trkpt>
      <trkpt lat="45.59836" lon="4.61347">
        <ele>484.6</ele>
        <time>2019-06-16T10:37:25Z</time>
      </trkpt>
      <trkpt lat="45.59832" lon="4.61341">
        <ele>483.8</ele>
        <time>2019-06-16T10:37:26Z</time>
      </trkpt>
      <trkpt lat="45.59827" lon="4.61334">
        <ele>482.5</ele>
        <time>2019-06-16T10:37:27Z</time>
      </trkpt>
      <trkpt lat="45.59823" lon="4.61328">
        <ele>481.9</ele>
        <time>2019-06-16T10:37:28Z</time>
      </trkpt>
      <trkpt lat="45.59818" lon="4.61322">
        <ele>480.9</ele>
        <time>2019-06-16T10:37:29Z</time>
      </trkpt>
      <trkpt lat="45.59814" lon="4.61318">
        <ele>480.4</ele>
        <time>2019-06-16T10:37:30Z</time>
      </trkpt>
      <trkpt lat="45.59808" lon="4.61314">
        <ele>479.6</ele>
        <time>2019-06-16T10:37:31Z</time>
      </trkpt>
      <trkpt lat="45.59802" lon="4.61312">
        <ele>479</ele>
        <time>2019-06-16T10:37:32Z</time>
      </trkpt>
      <trkpt lat="45.59796" lon="4.6131">
        <ele>478.5</ele>
        <time>2019-06-16T10:37:33Z</time>
      </trkpt>
      <trkpt lat="45.5979" lon="4.61309">
        <ele>478.1</ele>
        <time>2019-06-16T10:37:34Z</time>
      </trkpt>
      <trkpt lat="45.59783" lon="4.61309">
        <ele>477.7</ele>
        <time>2019-06-16T10:37:35Z</time>
      </trkpt>
      <trkpt lat="45.59777" lon="4.61311">
        <ele>476.8</ele>
        <time>2019-06-16T10:37:36Z</time>
      </trkpt>
      <trkpt lat="45.59769" lon="4.61315">
        <ele>476.2</ele>
        <time>2019-06-16T10:37:37Z</time>
      </trkpt>
      <trkpt lat="45.59754" lon="4.61322">
        <ele>476.1</ele>
        <time>2019-06-16T10:37:39Z</time>
      </trkpt>
      <trkpt lat="45.59739" lon="4.61331">
        <ele>476.6</ele>
        <time>2019-06-16T10:37:41Z</time>
      </trkpt>
      <trkpt lat="45.59725" lon="4.61343">
        <ele>476.3</ele>
        <time>2019-06-16T10:37:43Z</time>
      </trkpt>
      <trkpt lat="45.59713" lon="4.61353">
        <ele>475.2</ele>
        <time>2019-06-16T10:37:45Z</time>
      </trkpt>
      <trkpt lat="45.59703" lon="4.61363">
        <ele>474.3</ele>
        <time>2019-06-16T10:37:47Z</time>
      </trkpt>
      <trkpt lat="45.59693" lon="4.61371">
        <ele>473.4</ele>
        <time>2019-06-16T10:37:49Z</time>
      </trkpt>
      <trkpt lat="45.5969" lon="4.61374">
        <ele>473</ele>
        <time>2019-06-16T10:37:50Z</time>
      </trkpt>
      <trkpt lat="45.59686" lon="4.61375">
        <ele>472.5</ele>
        <time>2019-06-16T10:37:51Z</time>
      </trkpt>
      <trkpt lat="45.59682" lon="4.61375">
        <ele>472.3</ele>
        <time>2019-06-16T10:37:53Z</time>
      </trkpt>
      <trkpt lat="45.59681" lon="4.61377">
        <ele>472.1</ele>
        <time>2019-06-16T10:37:54Z</time>
      </trkpt>
      <trkpt lat="45.59678" lon="4.61387">
        <ele>471.7</ele>
        <time>2019-06-16T10:37:57Z</time>
      </trkpt>
      <trkpt lat="45.59668" lon="4.61403">
        <ele>470.8</ele>
        <time>2019-06-16T10:38:01Z</time>
      </trkpt>
      <trkpt lat="45.59665" lon="4.61409">
        <ele>470.5</ele>
        <time>2019-06-16T10:38:02Z</time>
      </trkpt>
      <trkpt lat="45.59659" lon="4.61424">
        <ele>469.9</ele>
        <time>2019-06-16T10:38:05Z</time>
      </trkpt>
      <trkpt lat="45.59654" lon="4.61434">
        <ele>469.6</ele>
        <time>2019-06-16T10:38:07Z</time>
      </trkpt>
      <trkpt lat="45.59652" lon="4.6144">
        <ele>469.4</ele>
        <time>2019-06-16T10:38:08Z</time>
      </trkpt>
      <trkpt lat="45.59636" lon="4.61469">
        <ele>468.4</ele>
        <time>2019-06-16T10:38:13Z</time>
      </trkpt>
      <trkpt lat="45.59633" lon="4.61476">
        <ele>468.2</ele>
        <time>2019-06-16T10:38:14Z</time>
      </trkpt>
      <trkpt lat="45.5963" lon="4.61483">
        <ele>468</ele>
        <time>2019-06-16T10:38:15Z</time>
      </trkpt>
      <trkpt lat="45.59626" lon="4.61507">
        <ele>467.5</ele>
        <time>2019-06-16T10:38:18Z</time>
      </trkpt>
      <trkpt lat="45.59626" lon="4.61514">
        <ele>467.3</ele>
        <time>2019-06-16T10:38:19Z</time>
      </trkpt>
      <trkpt lat="45.59628" lon="4.61533">
        <ele>466.2</ele>
        <time>2019-06-16T10:38:22Z</time>
      </trkpt>
      <trkpt lat="45.59629" lon="4.61538">
        <ele>465.6</ele>
        <time>2019-06-16T10:38:23Z</time>
      </trkpt>
      <trkpt lat="45.59631" lon="4.6155">
        <ele>464.2</ele>
        <time>2019-06-16T10:38:25Z</time>
      </trkpt>
      <trkpt lat="45.59635" lon="4.61564">
        <ele>462.1</ele>
        <time>2019-06-16T10:38:27Z</time>
      </trkpt>
      <trkpt lat="45.59636" lon="4.61584">
        <ele>460.1</ele>
        <time>2019-06-16T10:38:30Z</time>
      </trkpt>
      <trkpt lat="45.59629" lon="4.61595">
        <ele>458.8</ele>
        <time>2019-06-16T10:38:32Z</time>
      </trkpt>
      <trkpt lat="45.59622" lon="4.61601">
        <ele>458</ele>
        <time>2019-06-16T10:38:33Z</time>
      </trkpt>
      <trkpt lat="45.59616" lon="4.61608">
        <ele>457.3</ele>
        <time>2019-06-16T10:38:34Z</time>
      </trkpt>
      <trkpt lat="45.59603" lon="4.61622">
        <ele>456.1</ele>
        <time>2019-06-16T10:38:36Z</time>
      </trkpt>
      <trkpt lat="45.5959" lon="4.61635">
        <ele>454.8</ele>
        <time>2019-06-16T10:38:38Z</time>
      </trkpt>
      <trkpt lat="45.59585" lon="4.61641">
        <ele>454.1</ele>
        <time>2019-06-16T10:38:39Z</time>
      </trkpt>
      <trkpt lat="45.5958" lon="4.61648">
        <ele>453.4</ele>
        <time>2019-06-16T10:38:40Z</time>
      </trkpt>
      <trkpt lat="45.59576" lon="4.61657">
        <ele>452.7</ele>
        <time>2019-06-16T10:38:41Z</time>
      </trkpt>
      <trkpt lat="45.59572" lon="4.61666">
        <ele>452.2</ele>
        <time>2019-06-16T10:38:42Z</time>
      </trkpt>
      <trkpt lat="45.59568" lon="4.61675">
        <ele>451.8</ele>
        <time>2019-06-16T10:38:43Z</time>
      </trkpt>
      <trkpt lat="45.59563" lon="4.61684">
        <ele>451.4</ele>
        <time>2019-06-16T10:38:44Z</time>
      </trkpt>
      <trkpt lat="45.59553" lon="4.61701">
        <ele>451.2</ele>
        <time>2019-06-16T10:38:46Z</time>
      </trkpt>
      <trkpt lat="45.5955" lon="4.61717">
        <ele>451.1</ele>
        <time>2019-06-16T10:38:48Z</time>
      </trkpt>
      <trkpt lat="45.59557" lon="4.61741">
        <ele>451.1</ele>
        <time>2019-06-16T10:38:51Z</time>
      </trkpt>
      <trkpt lat="45.59559" lon="4.61749">
        <ele>451.2</ele>
        <time>2019-06-16T10:38:52Z</time>
      </trkpt>
      <trkpt lat="45.59564" lon="4.61773">
        <ele>451.6</ele>
        <time>2019-06-16T10:38:55Z</time>
      </trkpt>
      <trkpt lat="45.59566" lon="4.61798">
        <ele>452.2</ele>
        <time>2019-06-16T10:38:59Z</time>
      </trkpt>
      <trkpt lat="45.59566" lon="4.6181">
        <ele>452.6</ele>
        <time>2019-06-16T10:39:01Z</time>
      </trkpt>
      <trkpt lat="45.59564" lon="4.61841">
        <ele>453.4</ele>
        <time>2019-06-16T10:39:07Z</time>
      </trkpt>
      <trkpt lat="45.59563" lon="4.61851">
        <ele>453.8</ele>
        <time>2019-06-16T10:39:09Z</time>
      </trkpt>
      <trkpt lat="45.59563" lon="4.61882">
        <ele>454.4</ele>
        <time>2019-06-16T10:39:15Z</time>
      </trkpt>
      <trkpt lat="45.59561" lon="4.61925">
        <ele>453.6</ele>
        <time>2019-06-16T10:39:22Z</time>
      </trkpt>
      <trkpt lat="45.59561" lon="4.61933">
        <ele>453.3</ele>
        <time>2019-06-16T10:39:23Z</time>
      </trkpt>
      <trkpt lat="45.59561" lon="4.61951">
        <ele>452.7</ele>
        <time>2019-06-16T10:39:25Z</time>
      </trkpt>
      <trkpt lat="45.59561" lon="4.6196">
        <ele>452.3</ele>
        <time>2019-06-16T10:39:26Z</time>
      </trkpt>
      <trkpt lat="45.59564" lon="4.61979">
        <ele>451.2</ele>
        <time>2019-06-16T10:39:28Z</time>
      </trkpt>
      <trkpt lat="45.59568" lon="4.61997">
        <ele>449.8</ele>
        <time>2019-06-16T10:39:30Z</time>
      </trkpt>
      <trkpt lat="45.5957" lon="4.62007">
        <ele>449.1</ele>
        <time>2019-06-16T10:39:31Z</time>
      </trkpt>
      <trkpt lat="45.59573" lon="4.62015">
        <ele>448.3</ele>
        <time>2019-06-16T10:39:32Z</time>
      </trkpt>
      <trkpt lat="45.59579" lon="4.62026">
        <ele>447.9</ele>
        <time>2019-06-16T10:39:34Z</time>
      </trkpt>
      <trkpt lat="45.5958" lon="4.6203">
        <ele>447.8</ele>
        <time>2019-06-16T10:39:35Z</time>
      </trkpt>
      <trkpt lat="45.59582" lon="4.62042">
        <ele>445.1</ele>
        <time>2019-06-16T10:39:37Z</time>
      </trkpt>
      <trkpt lat="45.5958" lon="4.62058">
        <ele>442.8</ele>
        <time>2019-06-16T10:39:39Z</time>
      </trkpt>
      <trkpt lat="45.59578" lon="4.62067">
        <ele>441.9</ele>
        <time>2019-06-16T10:39:40Z</time>
      </trkpt>
      <trkpt lat="45.59576" lon="4.62077">
        <ele>440.8</ele>
        <time>2019-06-16T10:39:41Z</time>
      </trkpt>
      <trkpt lat="45.59572" lon="4.62087">
        <ele>439.7</ele>
        <time>2019-06-16T10:39:42Z</time>
      </trkpt>
      <trkpt lat="45.59563" lon="4.6211">
        <ele>437.5</ele>
        <time>2019-06-16T10:39:44Z</time>
      </trkpt>
      <trkpt lat="45.59553" lon="4.62134">
        <ele>435.2</ele>
        <time>2019-06-16T10:39:46Z</time>
      </trkpt>
      <trkpt lat="45.59542" lon="4.62157">
        <ele>433.8</ele>
        <time>2019-06-16T10:39:48Z</time>
      </trkpt>
      <trkpt lat="45.59531" lon="4.6218">
        <ele>432.2</ele>
        <time>2019-06-16T10:39:50Z</time>
      </trkpt>
      <trkpt lat="45.59524" lon="4.62205">
        <ele>430.3</ele>
        <time>2019-06-16T10:39:52Z</time>
      </trkpt>
      <trkpt lat="45.59521" lon="4.62218">
        <ele>429.3</ele>
        <time>2019-06-16T10:39:53Z</time>
      </trkpt>
      <trkpt lat="45.5952" lon="4.62231">
        <ele>428.3</ele>
        <time>2019-06-16T10:39:54Z</time>
      </trkpt>
      <trkpt lat="45.59518" lon="4.62244">
        <ele>427.4</ele>
        <time>2019-06-16T10:39:55Z</time>
      </trkpt>
      <trkpt lat="45.59517" lon="4.62257">
        <ele>426.7</ele>
        <time>2019-06-16T10:39:56Z</time>
      </trkpt>
      <trkpt lat="45.59516" lon="4.6227">
        <ele>425.7</ele>
        <time>2019-06-16T10:39:57Z</time>
      </trkpt>
      <trkpt lat="45.59516" lon="4.62282">
        <ele>424.6</ele>
        <time>2019-06-16T10:39:58Z</time>
      </trkpt>
      <trkpt lat="45.59515" lon="4.62295">
        <ele>423.4</ele>
        <time>2019-06-16T10:39:59Z</time>
      </trkpt>
      <trkpt lat="45.59515" lon="4.62308">
        <ele>422.4</ele>
        <time>2019-06-16T10:40:00Z</time>
      </trkpt>
      <trkpt lat="45.59512" lon="4.62334">
        <ele>420.3</ele>
        <time>2019-06-16T10:40:02Z</time>
      </trkpt>
      <trkpt lat="45.5951" lon="4.62347">
        <ele>419.3</ele>
        <time>2019-06-16T10:40:03Z</time>
      </trkpt>
      <trkpt lat="45.59507" lon="4.6236">
        <ele>418.4</ele>
        <time>2019-06-16T10:40:04Z</time>
      </trkpt>
      <trkpt lat="45.59505" lon="4.62372">
        <ele>417.6</ele>
        <time>2019-06-16T10:40:05Z</time>
      </trkpt>
      <trkpt lat="45.595" lon="4.62396">
        <ele>416.2</ele>
        <time>2019-06-16T10:40:07Z</time>
      </trkpt>
      <trkpt lat="45.59499" lon="4.62407">
        <ele>415.3</ele>
        <time>2019-06-16T10:40:08Z</time>
      </trkpt>
      <trkpt lat="45.59498" lon="4.62419">
        <ele>414.4</ele>
        <time>2019-06-16T10:40:09Z</time>
      </trkpt>
      <trkpt lat="45.59497" lon="4.62431">
        <ele>413.6</ele>
        <time>2019-06-16T10:40:10Z</time>
      </trkpt>
      <trkpt lat="45.59496" lon="4.62443">
        <ele>413.1</ele>
        <time>2019-06-16T10:40:11Z</time>
      </trkpt>
      <trkpt lat="45.59495" lon="4.62467">
        <ele>411.8</ele>
        <time>2019-06-16T10:40:13Z</time>
      </trkpt>
      <trkpt lat="45.59494" lon="4.62492">
        <ele>410.3</ele>
        <time>2019-06-16T10:40:15Z</time>
      </trkpt>
      <trkpt lat="45.59495" lon="4.62518">
        <ele>408.9</ele>
        <time>2019-06-16T10:40:17Z</time>
      </trkpt>
      <trkpt lat="45.59495" lon="4.62533">
        <ele>408.4</ele>
        <time>2019-06-16T10:40:18Z</time>
      </trkpt>
      <trkpt lat="45.59495" lon="4.62547">
        <ele>407.7</ele>
        <time>2019-06-16T10:40:19Z</time>
      </trkpt>
      <trkpt lat="45.59495" lon="4.62562">
        <ele>406.9</ele>
        <time>2019-06-16T10:40:20Z</time>
      </trkpt>
      <trkpt lat="45.59495" lon="4.62577">
        <ele>406.2</ele>
        <time>2019-06-16T10:40:21Z</time>
      </trkpt>
      <trkpt lat="45.59494" lon="4.62606">
        <ele>404.9</ele>
        <time>2019-06-16T10:40:23Z</time>
      </trkpt>
      <trkpt lat="45.59494" lon="4.62621">
        <ele>404.5</ele>
        <time>2019-06-16T10:40:24Z</time>
      </trkpt>
      <trkpt lat="45.59493" lon="4.62635">
        <ele>404.2</ele>
        <time>2019-06-16T10:40:25Z</time>
      </trkpt>
      <trkpt lat="45.5949" lon="4.62663">
        <ele>403.8</ele>
        <time>2019-06-16T10:40:27Z</time>
      </trkpt>
      <trkpt lat="45.59489" lon="4.62689">
        <ele>403.7</ele>
        <time>2019-06-16T10:40:29Z</time>
      </trkpt>
      <trkpt lat="45.5949" lon="4.62712">
        <ele>403.4</ele>
        <time>2019-06-16T10:40:31Z</time>
      </trkpt>
      <trkpt lat="45.59492" lon="4.62721">
        <ele>403</ele>
        <time>2019-06-16T10:40:32Z</time>
      </trkpt>
      <trkpt lat="45.59494" lon="4.6273">
        <ele>402.7</ele>
        <time>2019-06-16T10:40:33Z</time>
      </trkpt>
      <trkpt lat="45.59497" lon="4.62738">
        <ele>402.3</ele>
        <time>2019-06-16T10:40:34Z</time>
      </trkpt>
      <trkpt lat="45.59507" lon="4.62759">
        <ele>401.8</ele>
        <time>2019-06-16T10:40:37Z</time>
      </trkpt>
      <trkpt lat="45.59532" lon="4.62806">
        <ele>402.4</ele>
        <time>2019-06-16T10:40:45Z</time>
      </trkpt>
      <trkpt lat="45.59535" lon="4.62812">
        <ele>402.4</ele>
        <time>2019-06-16T10:40:46Z</time>
      </trkpt>
      <trkpt lat="45.59542" lon="4.62827">
        <ele>402.4</ele>
        <time>2019-06-16T10:40:49Z</time>
      </trkpt>
      <trkpt lat="45.59551" lon="4.6285">
        <ele>402.5</ele>
        <time>2019-06-16T10:40:53Z</time>
      </trkpt>
      <trkpt lat="45.59552" lon="4.62855">
        <ele>402.6</ele>
        <time>2019-06-16T10:40:54Z</time>
      </trkpt>
      <trkpt lat="45.59554" lon="4.62867">
        <ele>402.7</ele>
        <time>2019-06-16T10:40:56Z</time>
      </trkpt>
      <trkpt lat="45.59556" lon="4.62883">
        <ele>402.9</ele>
        <time>2019-06-16T10:40:59Z</time>
      </trkpt>
      <trkpt lat="45.59558" lon="4.62894">
        <ele>402.9</ele>
        <time>2019-06-16T10:41:01Z</time>
      </trkpt>
      <trkpt lat="45.59562" lon="4.62931">
        <ele>403.1</ele>
        <time>2019-06-16T10:41:08Z</time>
      </trkpt>
      <trkpt lat="45.59568" lon="4.62961">
        <ele>403.3</ele>
        <time>2019-06-16T10:41:14Z</time>
      </trkpt>
      <trkpt lat="45.5957" lon="4.62966">
        <ele>403.3</ele>
        <time>2019-06-16T10:41:15Z</time>
      </trkpt>
      <trkpt lat="45.59574" lon="4.62988">
        <ele>403.3</ele>
        <time>2019-06-16T10:41:19Z</time>
      </trkpt>
      <trkpt lat="45.59576" lon="4.63005">
        <ele>403.9</ele>
        <time>2019-06-16T10:41:22Z</time>
      </trkpt>
      <trkpt lat="45.5958" lon="4.63031">
        <ele>404.5</ele>
        <time>2019-06-16T10:41:27Z</time>
      </trkpt>
      <trkpt lat="45.59585" lon="4.63076">
        <ele>404.9</ele>
        <time>2019-06-16T10:41:36Z</time>
      </trkpt>
      <trkpt lat="45.59588" lon="4.63112">
        <ele>405</ele>
        <time>2019-06-16T10:41:42Z</time>
      </trkpt>
      <trkpt lat="45.59589" lon="4.6314">
        <ele>405</ele>
        <time>2019-06-16T10:41:46Z</time>
      </trkpt>
      <trkpt lat="45.59589" lon="4.63154">
        <ele>404.8</ele>
        <time>2019-06-16T10:41:48Z</time>
      </trkpt>
      <trkpt lat="45.59589" lon="4.63161">
        <ele>404.8</ele>
        <time>2019-06-16T10:41:49Z</time>
      </trkpt>
      <trkpt lat="45.59594" lon="4.63173">
        <ele>404.5</ele>
        <time>2019-06-16T10:41:51Z</time>
      </trkpt>
      <trkpt lat="45.59597" lon="4.6318">
        <ele>404.3</ele>
        <time>2019-06-16T10:41:52Z</time>
      </trkpt>
      <trkpt lat="45.59606" lon="4.63188">
        <ele>403.7</ele>
        <time>2019-06-16T10:41:54Z</time>
      </trkpt>
      <trkpt lat="45.59611" lon="4.63191">
        <ele>403.3</ele>
        <time>2019-06-16T10:41:55Z</time>
      </trkpt>
      <trkpt lat="45.59626" lon="4.63198">
        <ele>403.1</ele>
        <time>2019-06-16T10:41:58Z</time>
      </trkpt>
      <trkpt lat="45.5963" lon="4.63202">
        <ele>403</ele>
        <time>2019-06-16T10:41:59Z</time>
      </trkpt>
      <trkpt lat="45.59636" lon="4.6322">
        <ele>403</ele>
        <time>2019-06-16T10:42:02Z</time>
      </trkpt>
      <trkpt lat="45.59635" lon="4.6324">
        <ele>403.1</ele>
        <time>2019-06-16T10:42:05Z</time>
      </trkpt>
      <trkpt lat="45.59634" lon="4.63245">
        <ele>403.1</ele>
        <time>2019-06-16T10:42:06Z</time>
      </trkpt>
      <trkpt lat="45.5963" lon="4.63271">
        <ele>403.3</ele>
        <time>2019-06-16T10:42:12Z</time>
      </trkpt>
      <trkpt lat="45.59626" lon="4.63288">
        <ele>402.9</ele>
        <time>2019-06-16T10:42:17Z</time>
      </trkpt>
      <trkpt lat="45.5962" lon="4.63315">
        <ele>402.2</ele>
        <time>2019-06-16T10:42:23Z</time>
      </trkpt>
      <trkpt lat="45.59615" lon="4.63348">
        <ele>401.6</ele>
        <time>2019-06-16T10:42:29Z</time>
      </trkpt>
      <trkpt lat="45.59614" lon="4.63354">
        <ele>401.4</ele>
        <time>2019-06-16T10:42:30Z</time>
      </trkpt>
      <trkpt lat="45.59611" lon="4.6338">
        <ele>400.5</ele>
        <time>2019-06-16T10:42:34Z</time>
      </trkpt>
      <trkpt lat="45.59609" lon="4.634">
        <ele>399.9</ele>
        <time>2019-06-16T10:42:37Z</time>
      </trkpt>
      <trkpt lat="45.59609" lon="4.63407">
        <ele>399.8</ele>
        <time>2019-06-16T10:42:38Z</time>
      </trkpt>
      <trkpt lat="45.59607" lon="4.63414">
        <ele>399.7</ele>
        <time>2019-06-16T10:42:39Z</time>
      </trkpt>
      <trkpt lat="45.596" lon="4.63432">
        <ele>399.8</ele>
        <time>2019-06-16T10:42:42Z</time>
      </trkpt>
      <trkpt lat="45.59593" lon="4.63447">
        <ele>399.7</ele>
        <time>2019-06-16T10:42:44Z</time>
      </trkpt>
      <trkpt lat="45.59586" lon="4.63466">
        <ele>399.3</ele>
        <time>2019-06-16T10:42:46Z</time>
      </trkpt>
      <trkpt lat="45.59582" lon="4.63476">
        <ele>398.9</ele>
        <time>2019-06-16T10:42:47Z</time>
      </trkpt>
      <trkpt lat="45.59578" lon="4.63487">
        <ele>398.4</ele>
        <time>2019-06-16T10:42:48Z</time>
      </trkpt>
      <trkpt lat="45.59575" lon="4.63499">
        <ele>397.5</ele>
        <time>2019-06-16T10:42:49Z</time>
      </trkpt>
      <trkpt lat="45.59573" lon="4.63512">
        <ele>396.4</ele>
        <time>2019-06-16T10:42:50Z</time>
      </trkpt>
      <trkpt lat="45.59572" lon="4.63525">
        <ele>395.3</ele>
        <time>2019-06-16T10:42:51Z</time>
      </trkpt>
      <trkpt lat="45.59571" lon="4.63538">
        <ele>394.1</ele>
        <time>2019-06-16T10:42:52Z</time>
      </trkpt>
      <trkpt lat="45.59571" lon="4.63567">
        <ele>391.7</ele>
        <time>2019-06-16T10:42:54Z</time>
      </trkpt>
      <trkpt lat="45.59571" lon="4.63583">
        <ele>390.6</ele>
        <time>2019-06-16T10:42:55Z</time>
      </trkpt>
      <trkpt lat="45.59568" lon="4.63598">
        <ele>389.7</ele>
        <time>2019-06-16T10:42:56Z</time>
      </trkpt>
      <trkpt lat="45.5956" lon="4.63631">
        <ele>387.8</ele>
        <time>2019-06-16T10:42:58Z</time>
      </trkpt>
      <trkpt lat="45.59555" lon="4.63647">
        <ele>387.1</ele>
        <time>2019-06-16T10:42:59Z</time>
      </trkpt>
      <trkpt lat="45.59551" lon="4.63663">
        <ele>386.4</ele>
        <time>2019-06-16T10:43:00Z</time>
      </trkpt>
      <trkpt lat="45.59548" lon="4.63679">
        <ele>385.7</ele>
        <time>2019-06-16T10:43:01Z</time>
      </trkpt>
      <trkpt lat="45.59547" lon="4.63695">
        <ele>385.1</ele>
        <time>2019-06-16T10:43:02Z</time>
      </trkpt>
      <trkpt lat="45.59546" lon="4.63711">
        <ele>384.6</ele>
        <time>2019-06-16T10:43:03Z</time>
      </trkpt>
      <trkpt lat="45.59545" lon="4.63727">
        <ele>383.9</ele>
        <time>2019-06-16T10:43:04Z</time>
      </trkpt>
      <trkpt lat="45.59543" lon="4.63743">
        <ele>383.1</ele>
        <time>2019-06-16T10:43:05Z</time>
      </trkpt>
      <trkpt lat="45.5954" lon="4.63759">
        <ele>382</ele>
        <time>2019-06-16T10:43:06Z</time>
      </trkpt>
      <trkpt lat="45.59536" lon="4.63774">
        <ele>380.8</ele>
        <time>2019-06-16T10:43:07Z</time>
      </trkpt>
      <trkpt lat="45.59532" lon="4.63788">
        <ele>379.9</ele>
        <time>2019-06-16T10:43:08Z</time>
      </trkpt>
      <trkpt lat="45.59528" lon="4.63803">
        <ele>379.2</ele>
        <time>2019-06-16T10:43:09Z</time>
      </trkpt>
      <trkpt lat="45.59527" lon="4.63818">
        <ele>378.5</ele>
        <time>2019-06-16T10:43:10Z</time>
      </trkpt>
      <trkpt lat="45.59527" lon="4.63833">
        <ele>377.9</ele>
        <time>2019-06-16T10:43:11Z</time>
      </trkpt>
      <trkpt lat="45.59527" lon="4.63847">
        <ele>377.7</ele>
        <time>2019-06-16T10:43:12Z</time>
      </trkpt>
      <trkpt lat="45.59526" lon="4.63861">
        <ele>377.8</ele>
        <time>2019-06-16T10:43:13Z</time>
      </trkpt>
      <trkpt lat="45.59524" lon="4.63874">
        <ele>378.1</ele>
        <time>2019-06-16T10:43:14Z</time>
      </trkpt>
      <trkpt lat="45.59522" lon="4.63886">
        <ele>378.4</ele>
        <time>2019-06-16T10:43:15Z</time>
      </trkpt>
      <trkpt lat="45.5952" lon="4.63906">
        <ele>378.9</ele>
        <time>2019-06-16T10:43:17Z</time>
      </trkpt>
      <trkpt lat="45.5952" lon="4.63915">
        <ele>378.9</ele>
        <time>2019-06-16T10:43:18Z</time>
      </trkpt>
      <trkpt lat="45.5952" lon="4.63924">
        <ele>379</ele>
        <time>2019-06-16T10:43:19Z</time>
      </trkpt>
      <trkpt lat="45.59524" lon="4.63934">
        <ele>379</ele>
        <time>2019-06-16T10:43:21Z</time>
      </trkpt>
      <trkpt lat="45.59529" lon="4.6395">
        <ele>379.1</ele>
        <time>2019-06-16T10:43:25Z</time>
      </trkpt>
      <trkpt lat="45.5953" lon="4.63954">
        <ele>379</ele>
        <time>2019-06-16T10:43:26Z</time>
      </trkpt>
      <trkpt lat="45.59533" lon="4.63978">
        <ele>379.1</ele>
        <time>2019-06-16T10:43:31Z</time>
      </trkpt>
      <trkpt lat="45.59533" lon="4.64004">
        <ele>379.3</ele>
        <time>2019-06-16T10:43:37Z</time>
      </trkpt>
      <trkpt lat="45.59538" lon="4.64031">
        <ele>378.5</ele>
        <time>2019-06-16T10:43:44Z</time>
      </trkpt>
      <trkpt lat="45.59539" lon="4.64034">
        <ele>378.4</ele>
        <time>2019-06-16T10:43:45Z</time>
      </trkpt>
      <trkpt lat="45.59539" lon="4.64045">
        <ele>378.1</ele>
        <time>2019-06-16T10:43:48Z</time>
      </trkpt>
      <trkpt lat="45.59537" lon="4.64056">
        <ele>377.9</ele>
        <time>2019-06-16T10:43:51Z</time>
      </trkpt>
      <trkpt lat="45.59536" lon="4.64084">
        <ele>378.2</ele>
        <time>2019-06-16T10:43:59Z</time>
      </trkpt>
      <trkpt lat="45.5953" lon="4.64106">
        <ele>379.1</ele>
        <time>2019-06-16T10:44:05Z</time>
      </trkpt>
      <trkpt lat="45.59528" lon="4.64113">
        <ele>379.2</ele>
        <time>2019-06-16T10:44:07Z</time>
      </trkpt>
      <trkpt lat="45.59526" lon="4.64117">
        <ele>379.4</ele>
        <time>2019-06-16T10:44:08Z</time>
      </trkpt>
      <trkpt lat="45.59524" lon="4.64125">
        <ele>379.6</ele>
        <time>2019-06-16T10:44:10Z</time>
      </trkpt>
      <trkpt lat="45.59519" lon="4.6414">
        <ele>379.9</ele>
        <time>2019-06-16T10:44:14Z</time>
      </trkpt>
      <trkpt lat="45.59513" lon="4.64158">
        <ele>380.4</ele>
        <time>2019-06-16T10:44:19Z</time>
      </trkpt>
      <trkpt lat="45.59512" lon="4.64162">
        <ele>380.5</ele>
        <time>2019-06-16T10:44:20Z</time>
      </trkpt>
      <trkpt lat="45.59504" lon="4.64189">
        <ele>380.5</ele>
        <time>2019-06-16T10:44:27Z</time>
      </trkpt>
      <trkpt lat="45.59503" lon="4.64193">
        <ele>380.6</ele>
        <time>2019-06-16T10:44:28Z</time>
      </trkpt>
      <trkpt lat="45.59493" lon="4.64217">
        <ele>380.8</ele>
        <time>2019-06-16T10:44:34Z</time>
      </trkpt>
      <trkpt lat="45.5948" lon="4.64253">
        <ele>381</ele>
        <time>2019-06-16T10:44:42Z</time>
      </trkpt>
      <trkpt lat="45.59478" lon="4.64257">
        <ele>381.2</ele>
        <time>2019-06-16T10:44:43Z</time>
      </trkpt>
      <trkpt lat="45.59469" lon="4.64271">
        <ele>382</ele>
        <time>2019-06-16T10:44:47Z</time>
      </trkpt>
      <trkpt lat="45.59455" lon="4.64292">
        <ele>383</ele>
        <time>2019-06-16T10:44:53Z</time>
      </trkpt>
      <trkpt lat="45.59448" lon="4.64307">
        <ele>383</ele>
        <time>2019-06-16T10:44:57Z</time>
      </trkpt>
      <trkpt lat="45.59446" lon="4.64308">
        <ele>383.2</ele>
        <time>2019-06-16T10:44:58Z</time>
      </trkpt>
      <trkpt lat="45.59436" lon="4.64303">
        <ele>383.9</ele>
        <time>2019-06-16T10:45:02Z</time>
      </trkpt>
      <trkpt lat="45.59435" lon="4.64302">
        <ele>384</ele>
        <time>2019-06-16T10:45:03Z</time>
      </trkpt>
      <trkpt lat="45.59423" lon="4.64291">
        <ele>385</ele>
        <time>2019-06-16T10:45:09Z</time>
      </trkpt>
      <trkpt lat="45.59415" lon="4.64284">
        <ele>385.6</ele>
        <time>2019-06-16T10:45:13Z</time>
      </trkpt>
      <trkpt lat="45.59411" lon="4.64281">
        <ele>385.9</ele>
        <time>2019-06-16T10:45:15Z</time>
      </trkpt>
      <trkpt lat="45.59402" lon="4.64274">
        <ele>386.6</ele>
        <time>2019-06-16T10:45:19Z</time>
      </trkpt>
      <trkpt lat="45.59393" lon="4.64267">
        <ele>387.2</ele>
        <time>2019-06-16T10:45:23Z</time>
      </trkpt>
      <trkpt lat="45.59391" lon="4.64266">
        <ele>387.3</ele>
        <time>2019-06-16T10:45:24Z</time>
      </trkpt>
      <trkpt lat="45.59376" lon="4.64253">
        <ele>388.5</ele>
        <time>2019-06-16T10:45:31Z</time>
      </trkpt>
      <trkpt lat="45.59369" lon="4.64248">
        <ele>389</ele>
        <time>2019-06-16T10:45:34Z</time>
      </trkpt>
      <trkpt lat="45.59354" lon="4.64234">
        <ele>390.2</ele>
        <time>2019-06-16T10:45:41Z</time>
      </trkpt>
      <trkpt lat="45.59345" lon="4.64225">
        <ele>390.9</ele>
        <time>2019-06-16T10:45:45Z</time>
      </trkpt>
      <trkpt lat="45.59337" lon="4.64215">
        <ele>391.5</ele>
        <time>2019-06-16T10:45:49Z</time>
      </trkpt>
      <trkpt lat="45.59327" lon="4.64203">
        <ele>392.3</ele>
        <time>2019-06-16T10:45:55Z</time>
      </trkpt>
      <trkpt lat="45.59325" lon="4.64199">
        <ele>392.6</ele>
        <time>2019-06-16T10:45:57Z</time>
      </trkpt>
      <trkpt lat="45.59322" lon="4.64196">
        <ele>392.9</ele>
        <time>2019-06-16T10:45:59Z</time>
      </trkpt>
      <trkpt lat="45.59313" lon="4.64191">
        <ele>393.4</ele>
        <time>2019-06-16T10:46:03Z</time>
      </trkpt>
      <trkpt lat="45.59303" lon="4.64185">
        <ele>393.8</ele>
        <time>2019-06-16T10:46:07Z</time>
      </trkpt>
      <trkpt lat="45.59292" lon="4.64181">
        <ele>394.1</ele>
        <time>2019-06-16T10:46:11Z</time>
      </trkpt>
      <trkpt lat="45.59266" lon="4.64172">
        <ele>394.5</ele>
        <time>2019-06-16T10:46:19Z</time>
      </trkpt>
      <trkpt lat="45.59236" lon="4.64161">
        <ele>395.4</ele>
        <time>2019-06-16T10:46:27Z</time>
      </trkpt>
      <trkpt lat="45.59208" lon="4.64151">
        <ele>396.3</ele>
        <time>2019-06-16T10:46:34Z</time>
      </trkpt>
      <trkpt lat="45.59178" lon="4.64139">
        <ele>397.3</ele>
        <time>2019-06-16T10:46:42Z</time>
      </trkpt>
      <trkpt lat="45.5916" lon="4.64131">
        <ele>397.9</ele>
        <time>2019-06-16T10:46:47Z</time>
      </trkpt>
      <trkpt lat="45.59149" lon="4.64125">
        <ele>398.4</ele>
        <time>2019-06-16T10:46:50Z</time>
      </trkpt>
      <trkpt lat="45.59129" lon="4.64115">
        <ele>399.7</ele>
        <time>2019-06-16T10:46:55Z</time>
      </trkpt>
      <trkpt lat="45.59117" lon="4.64109">
        <ele>400.7</ele>
        <time>2019-06-16T10:46:58Z</time>
      </trkpt>
      <trkpt lat="45.59113" lon="4.64108">
        <ele>401</ele>
        <time>2019-06-16T10:46:59Z</time>
      </trkpt>
      <trkpt lat="45.59102" lon="4.64102">
        <ele>401.9</ele>
        <time>2019-06-16T10:47:02Z</time>
      </trkpt>
      <trkpt lat="45.59094" lon="4.64098">
        <ele>402.5</ele>
        <time>2019-06-16T10:47:04Z</time>
      </trkpt>
      <trkpt lat="45.59072" lon="4.64087">
        <ele>404.4</ele>
        <time>2019-06-16T10:47:10Z</time>
      </trkpt>
      <trkpt lat="45.59065" lon="4.64082">
        <ele>404.8</ele>
        <time>2019-06-16T10:47:12Z</time>
      </trkpt>
      <trkpt lat="45.59058" lon="4.64078">
        <ele>405</ele>
        <time>2019-06-16T10:47:14Z</time>
      </trkpt>
      <trkpt lat="45.59042" lon="4.64066">
        <ele>405.3</ele>
        <time>2019-06-16T10:47:20Z</time>
      </trkpt>
      <trkpt lat="45.59034" lon="4.64064">
        <ele>405.7</ele>
        <time>2019-06-16T10:47:24Z</time>
      </trkpt>
      <trkpt lat="45.59031" lon="4.64066">
        <ele>405.9</ele>
        <time>2019-06-16T10:47:25Z</time>
      </trkpt>
      <trkpt lat="45.5902" lon="4.64074">
        <ele>406.7</ele>
        <time>2019-06-16T10:47:30Z</time>
      </trkpt>
      <trkpt lat="45.59016" lon="4.64077">
        <ele>407.1</ele>
        <time>2019-06-16T10:47:32Z</time>
      </trkpt>
      <trkpt lat="45.59011" lon="4.6408">
        <ele>407.5</ele>
        <time>2019-06-16T10:47:34Z</time>
      </trkpt>
      <trkpt lat="45.59001" lon="4.64086">
        <ele>408.5</ele>
        <time>2019-06-16T10:47:38Z</time>
      </trkpt>
      <trkpt lat="45.58998" lon="4.64088">
        <ele>408.7</ele>
        <time>2019-06-16T10:47:39Z</time>
      </trkpt>
      <trkpt lat="45.58985" lon="4.64098">
        <ele>409.5</ele>
        <time>2019-06-16T10:47:45Z</time>
      </trkpt>
      <trkpt lat="45.58983" lon="4.64099">
        <ele>409.6</ele>
        <time>2019-06-16T10:47:46Z</time>
      </trkpt>
      <trkpt lat="45.58969" lon="4.64107">
        <ele>410.7</ele>
        <time>2019-06-16T10:47:52Z</time>
      </trkpt>
      <trkpt lat="45.58964" lon="4.6411">
        <ele>411.2</ele>
        <time>2019-06-16T10:47:54Z</time>
      </trkpt>
      <trkpt lat="45.58955" lon="4.64118">
        <ele>412.2</ele>
        <time>2019-06-16T10:47:59Z</time>
      </trkpt>
      <trkpt lat="45.58954" lon="4.64119">
        <ele>412.4</ele>
        <time>2019-06-16T10:48:00Z</time>
      </trkpt>
      <trkpt lat="45.58946" lon="4.64125">
        <ele>413.2</ele>
        <time>2019-06-16T10:48:05Z</time>
      </trkpt>
      <trkpt lat="45.58942" lon="4.64128">
        <ele>413.5</ele>
        <time>2019-06-16T10:48:07Z</time>
      </trkpt>
      <trkpt lat="45.58935" lon="4.64132">
        <ele>414.2</ele>
        <time>2019-06-16T10:48:11Z</time>
      </trkpt>
      <trkpt lat="45.58933" lon="4.64133">
        <ele>414.3</ele>
        <time>2019-06-16T10:48:12Z</time>
      </trkpt>
      <trkpt lat="45.58924" lon="4.64138">
        <ele>414.8</ele>
        <time>2019-06-16T10:48:17Z</time>
      </trkpt>
      <trkpt lat="45.58922" lon="4.6414">
        <ele>414.9</ele>
        <time>2019-06-16T10:48:18Z</time>
      </trkpt>
      <trkpt lat="45.58909" lon="4.64149">
        <ele>415</ele>
        <time>2019-06-16T10:48:24Z</time>
      </trkpt>
      <trkpt lat="45.58896" lon="4.64159">
        <ele>415.1</ele>
        <time>2019-06-16T10:48:30Z</time>
      </trkpt>
      <trkpt lat="45.58879" lon="4.64172">
        <ele>415.2</ele>
        <time>2019-06-16T10:48:37Z</time>
      </trkpt>
      <trkpt lat="45.58866" lon="4.64181">
        <ele>415.6</ele>
        <time>2019-06-16T10:48:42Z</time>
      </trkpt>
      <trkpt lat="45.58858" lon="4.64187">
        <ele>415.9</ele>
        <time>2019-06-16T10:48:45Z</time>
      </trkpt>
      <trkpt lat="45.5884" lon="4.64196">
        <ele>416.6</ele>
        <time>2019-06-16T10:48:51Z</time>
      </trkpt>
      <trkpt lat="45.5881" lon="4.64209">
        <ele>417.6</ele>
        <time>2019-06-16T10:48:59Z</time>
      </trkpt>
      <trkpt lat="45.58771" lon="4.64224">
        <ele>418.4</ele>
        <time>2019-06-16T10:49:09Z</time>
      </trkpt>
      <trkpt lat="45.58757" lon="4.64228">
        <ele>418.6</ele>
        <time>2019-06-16T10:49:13Z</time>
      </trkpt>
      <trkpt lat="45.58751" lon="4.6423">
        <ele>418.7</ele>
        <time>2019-06-16T10:49:16Z</time>
      </trkpt>
      <trkpt lat="45.58748" lon="4.64229">
        <ele>418.6</ele>
        <time>2019-06-16T10:49:18Z</time>
      </trkpt>
      <trkpt lat="45.58747" lon="4.64226">
        <ele>418.6</ele>
        <time>2019-06-16T10:49:20Z</time>
      </trkpt>
      <trkpt lat="45.58747" lon="4.64224">
        <ele>418.6</ele>
        <time>2019-06-16T10:49:21Z</time>
      </trkpt>
      <trkpt lat="45.58748" lon="4.64226">
        <ele>418.6</ele>
        <time>2019-06-16T10:49:23Z</time>
      </trkpt>
      <trkpt lat="45.58748" lon="4.64228">
        <ele>418.5</ele>
        <time>2019-06-16T10:49:24Z</time>
      </trkpt>
      <trkpt lat="45.58748" lon="4.64237">
        <ele>418.5</ele>
        <time>2019-06-16T10:49:30Z</time>
      </trkpt>
      <trkpt lat="45.58743" lon="4.64243">
        <ele>418.2</ele>
        <time>2019-06-16T10:49:35Z</time>
      </trkpt>
      <trkpt lat="45.5874" lon="4.64242">
        <ele>418.2</ele>
        <time>2019-06-16T10:49:36Z</time>
      </trkpt>
      <trkpt lat="45.58725" lon="4.6424">
        <ele>418.6</ele>
        <time>2019-06-16T10:49:41Z</time>
      </trkpt>
      <trkpt lat="45.58703" lon="4.64232">
        <ele>419.1</ele>
        <time>2019-06-16T10:49:48Z</time>
      </trkpt>
      <trkpt lat="45.58684" lon="4.64222">
        <ele>419.6</ele>
        <time>2019-06-16T10:49:54Z</time>
      </trkpt>
      <trkpt lat="45.58661" lon="4.64207">
        <ele>420.3</ele>
        <time>2019-06-16T10:49:59Z</time>
      </trkpt>
      <trkpt lat="45.58617" lon="4.64178">
        <ele>421.1</ele>
        <time>2019-06-16T10:50:07Z</time>
      </trkpt>
      <trkpt lat="45.58602" lon="4.64159">
        <ele>421.2</ele>
        <time>2019-06-16T10:50:10Z</time>
      </trkpt>
      <trkpt lat="45.58598" lon="4.64152">
        <ele>421.2</ele>
        <time>2019-06-16T10:50:11Z</time>
      </trkpt>
      <trkpt lat="45.58594" lon="4.64144">
        <ele>421.3</ele>
        <time>2019-06-16T10:50:12Z</time>
      </trkpt>
      <trkpt lat="45.58584" lon="4.64119">
        <ele>422.8</ele>
        <time>2019-06-16T10:50:15Z</time>
      </trkpt>
      <trkpt lat="45.58579" lon="4.641">
        <ele>423.5</ele>
        <time>2019-06-16T10:50:17Z</time>
      </trkpt>
      <trkpt lat="45.58572" lon="4.64071">
        <ele>424.9</ele>
        <time>2019-06-16T10:50:20Z</time>
      </trkpt>
      <trkpt lat="45.58572" lon="4.64064">
        <ele>426.2</ele>
        <time>2019-06-16T10:50:21Z</time>
      </trkpt>
      <trkpt lat="45.58578" lon="4.64059">
        <ele>426.7</ele>
        <time>2019-06-16T10:50:23Z</time>
      </trkpt>
      <trkpt lat="45.58583" lon="4.64059">
        <ele>427</ele>
        <time>2019-06-16T10:50:24Z</time>
      </trkpt>
      <trkpt lat="45.58591" lon="4.64064">
        <ele>427.3</ele>
        <time>2019-06-16T10:50:26Z</time>
      </trkpt>
      <trkpt lat="45.58593" lon="4.64068">
        <ele>427.4</ele>
        <time>2019-06-16T10:50:27Z</time>
      </trkpt>
      <trkpt lat="45.58594" lon="4.64073">
        <ele>427.4</ele>
        <time>2019-06-16T10:50:28Z</time>
      </trkpt>
      <trkpt lat="45.58596" lon="4.64078">
        <ele>427.5</ele>
        <time>2019-06-16T10:50:29Z</time>
      </trkpt>
      <trkpt lat="45.58595" lon="4.64088">
        <ele>427.6</ele>
        <time>2019-06-16T10:50:31Z</time>
      </trkpt>
      <trkpt lat="45.58596" lon="4.64092">
        <ele>427.7</ele>
        <time>2019-06-16T10:50:32Z</time>
      </trkpt>
    </trkseg>
  </trk>
</gpx>